GFSSGP_prec_precacc24_015.txt.gz
Total_Precipitation_Accumulation
0.00 0.00 0.00 0.00 0.00 0.00 0.00 0.00 0.00 0.01 0.00 0.00 0.02 0.02 0.02 0.01 0.05 0.17 0.07 0.01 0.00 0.00 0.00 0.00 0.00 0.00 0.01 0.03 0.03 0.04 0.05 0.02 0.03 0.03 0.01 0.01 0.02 0.04 0.02 0.00 0.00 0.00 0.00 0.00 0.00 0.00 0.00 0.00 0.01
0.00 0.00 0.00 0.00 0.00 0.00 0.00 0.00 0.00 0.00 0.01 0.00 0.00 0.00 0.01 0.01 0.02 0.03 0.04 0.01 0.00 0.00 0.01 0.00 0.00 0.00 0.02 0.03 0.01 0.01 0.02 0.02 0.02 0.03 0.03 0.01 0.01 0.01 0.00 0.00 0.00 0.00 0.00 0.00 0.00 0.00 0.00 0.00 0.00
0.00 0.00 0.00 0.00 0.00 0.00 0.00 0.00 0.00 0.00 0.00 0.00 0.00 0.00 0.02 0.03 0.06 0.03 0.04 0.01 0.00 0.00 0.00 0.00 0.00 0.00 0.02 0.02 0.02 0.03 0.03 0.01 0.01 0.02 0.02 0.00 0.00 0.00 0.00 0.00 0.00 0.00 0.00 0.00 0.00 0.00 0.00 0.00 0.00
0.00 0.00 0.00 0.00 0.00 0.00 0.00 0.00 0.00 0.00 0.00 0.00 0.00 0.00 0.00 0.00 0.00 0.00 0.03 0.01 0.00 0.00 0.00 0.00 0.00 0.00 0.00 0.00 0.01 0.01 0.01 0.00 0.00 0.00 0.00 0.00 0.00 0.00 0.00 0.00 0.00 0.00 0.00 0.00 0.00 0.00 0.00 0.00 0.00
0.00 0.00 0.00 0.00 0.00 0.00 0.00 0.00 0.00 0.00 0.00 0.00 0.00 0.00 0.00 0.00 0.01 0.02 0.00 0.00 0.00 0.00 0.00 0.00 0.00 0.00 0.00 0.00 0.00 0.00 0.00 0.00 0.00 0.00 0.00 0.00 0.00 0.00 0.00 0.00 0.00 0.00 0.00 0.00 0.00 0.00 0.00 0.00 0.00
0.00 0.00 0.00 0.00 0.00 0.00 0.00 0.00 0.00 0.00 0.00 0.00 0.00 0.01 0.01 0.04 0.07 0.01 0.00 0.00 0.00 0.00 0.00 0.00 0.00 0.00 0.00 0.00 0.00 0.00 0.00 0.00 0.00 0.00 0.00 0.00 0.00 0.00 0.00 0.00 0.00 0.00 0.00 0.00 0.00 0.00 0.00 0.00 0.00
0.00 0.00 0.00 0.00 0.00 0.00 0.00 0.00 0.00 0.00 0.00 0.00 0.00 0.00 0.00 0.01 0.04 0.00 0.00 0.00 0.00 0.00 0.00 0.00 0.00 0.00 0.00 0.00 0.00 0.00 0.00 0.00 0.00 0.00 0.00 0.00 0.00 0.00 0.00 0.00 0.00 0.00 0.00 0.00 0.00 0.00 0.00 0.00 0.00
0.00 0.00 0.00 0.00 0.00 0.00 0.00 0.00 0.00 0.00 0.00 0.00 0.00 0.00 0.00 0.00 0.00 0.00 0.00 0.00 0.00 0.00 0.00 0.00 0.00 0.00 0.00 0.00 0.00 0.00 0.00 0.00 0.00 0.00 0.00 0.00 0.00 0.00 0.00 0.00 0.00 0.00 0.00 0.00 0.00 0.00 0.00 0.00 0.00
0.00 0.00 0.00 0.00 0.00 0.00 0.00 0.00 0.00 0.00 0.00 0.00 0.00 0.00 0.00 0.00 0.00 0.00 0.00 0.00 0.00 0.00 0.00 0.00 0.00 0.00 0.00 0.00 0.00 0.00 0.00 0.00 0.00 0.00 0.00 0.00 0.00 0.00 0.00 0.00 0.00 0.00 0.00 0.00 0.00 0.00 0.00 0.00 0.00
0.00 0.00 0.00 0.00 0.00 0.00 0.00 0.00 0.00 0.00 0.00 0.00 0.00 0.00 0.00 0.00 0.00 0.00 0.00 0.00 0.00 0.00 0.00 0.00 0.00 0.00 0.00 0.00 0.00 0.00 0.00 0.00 0.00 0.00 0.00 0.00 0.00 0.00 0.00 0.00 0.00 0.00 0.00 0.00 0.00 0.00 0.00 0.00 0.00
0.00 0.00 0.00 0.00 0.00 0.00 0.00 0.00 0.00 0.00 0.00 0.00 0.00 0.00 0.00 0.00 0.00 0.00 0.00 0.00 0.00 0.00 0.00 0.00 0.00 0.00 0.00 0.00 0.00 0.00 0.00 0.00 0.00 0.00 0.00 0.00 0.00 0.00 0.00 0.00 0.00 0.01 0.00 0.00 0.00 0.00 0.00 0.00 0.00
0.00 0.00 0.00 0.00 0.00 0.00 0.00 0.00 0.00 0.00 0.00 0.00 0.00 0.00 0.00 0.00 0.00 0.00 0.00 0.00 0.00 0.00 0.00 0.00 0.00 0.00 0.00 0.00 0.00 0.00 0.00 0.00 0.00 0.00 0.00 0.00 0.00 0.00 0.00 0.00 0.00 0.00 0.00 0.00 0.00 0.00 0.00 0.00 0.00
0.00 0.00 0.00 0.00 0.00 0.00 0.00 0.00 0.00 0.00 0.00 0.00 0.00 0.00 0.00 0.00 0.00 0.00 0.00 0.00 0.00 0.00 0.00 0.02 0.00 0.00 0.00 0.00 0.00 0.00 0.00 0.00 0.00 0.00 0.00 0.00 0.00 0.00 0.00 0.00 0.00 0.00 0.00 0.00 0.00 0.00 0.00 0.00 0.00
0.00 0.00 0.00 0.00 0.00 0.00 0.00 0.00 0.00 0.00 0.00 0.00 0.00 0.00 0.00 0.00 0.00 0.00 0.00 0.00 0.00 0.00 0.06 0.11 0.06 0.01 0.00 0.00 0.00 0.00 0.00 0.00 0.00 0.00 0.00 0.00 0.00 0.00 0.00 0.00 0.00 0.00 0.00 0.00 0.00 0.00 0.00 0.00 0.00
0.00 0.00 0.00 0.00 0.00 0.00 0.00 0.00 0.00 0.00 0.00 0.00 0.00 0.00 0.00 0.00 0.00 0.00 0.00 0.00 0.00 0.00 0.02 0.34 0.59 0.09 0.05 0.00 0.00 0.00 0.00 0.00 0.00 0.00 0.00 0.00 0.00 0.00 0.00 0.00 0.00 0.00 0.00 0.00 0.00 0.00 0.00 0.00 0.00
0.00 0.00 0.00 0.00 0.00 0.00 0.00 0.00 0.00 0.00 0.00 0.00 0.00 0.00 0.00 0.00 0.00 0.00 0.00 0.00 0.00 0.01 0.12 0.76 0.76 0.10 0.07 0.03 0.05 0.04 0.01 0.00 0.00 0.00 0.00 0.00 0.00 0.00 0.00 0.00 0.00 0.00 0.00 0.00 0.00 0.00 0.00 0.00 0.00
0.00 0.00 0.00 0.00 0.00 0.00 0.00 0.00 0.00 0.00 0.00 0.00 0.00 0.00 0.00 0.00 0.00 0.00 0.01 0.01 0.00 0.01 0.17 0.44 0.43 0.17 0.16 0.14 0.14 0.05 0.01 0.00 0.00 0.00 0.00 0.00 0.00 0.00 0.00 0.00 0.00 0.00 0.00 0.00 0.00 0.00 0.00 0.01 0.00
0.00 0.00 0.00 0.00 0.00 0.00 0.00 0.00 0.00 0.00 0.00 0.00 0.00 0.00 0.00 0.00 0.00 0.01 0.04 0.02 0.01 0.05 0.34 0.47 0.40 0.31 0.13 0.13 0.07 0.02 0.00 0.00 0.00 0.00 0.00 0.00 0.00 0.00 0.00 0.00 0.00 0.00 0.00 0.00 0.00 0.00 0.00 0.00 0.00
0.00 0.00 0.00 0.00 0.00 0.00 0.00 0.00 0.00 0.00 0.00 0.00 0.00 0.00 0.00 0.00 0.00 0.01 0.03 0.02 0.04 0.16 0.30 0.32 0.31 0.16 0.05 0.03 0.04 0.03 0.02 0.01 0.00 0.00 0.00 0.00 0.00 0.00 0.00 0.00 0.00 0.00 0.00 0.00 0.00 0.00 0.00 0.00 0.00
0.00 0.00 0.00 0.00 0.00 0.00 0.00 0.00 0.00 0.00 0.00 0.00 0.00 0.00 0.00 0.00 0.00 0.01 0.01 0.03 0.11 0.24 0.24 0.18 0.14 0.06 0.01 0.02 0.03 0.02 0.01 0.00 0.00 0.00 0.00 0.00 0.00 0.00 0.00 0.00 0.00 0.00 0.00 0.00 0.00 0.00 0.00 0.00 0.00
0.00 0.00 0.00 0.00 0.00 0.00 0.00 0.00 0.00 0.00 0.00 0.00 0.00 0.00 0.00 0.00 0.02 0.04 0.06 0.07 0.05 0.08 0.04 0.01 0.00 0.00 0.00 0.01 0.00 0.00 0.00 0.00 0.00 0.00 0.00 0.00 0.00 0.00 0.00 0.00 0.00 0.00 0.00 0.00 0.00 0.00 0.00 0.00 0.00
0.00 0.00 0.00 0.00 0.00 0.00 0.00 0.00 0.00 0.00 0.00 0.00 0.00 0.00 0.01 0.02 0.01 0.01 0.00 0.00 0.00 0.00 0.00 0.00 0.00 0.00 0.00 0.00 0.00 0.00 0.00 0.00 0.00 0.00 0.00 0.00 0.00 0.00 0.00 0.00 0.00 0.00 0.00 0.00 0.00 0.00 0.00 0.00 0.00
0.00 0.00 0.00 0.00 0.00 0.00 0.00 0.00 0.00 0.00 0.00 0.00 0.00 0.00 0.00 0.00 0.00 0.00 0.00 0.00 0.00 0.00 0.00 0.00 0.00 0.00 0.00 0.00 0.00 0.00 0.00 0.00 0.00 0.00 0.00 0.00 0.00 0.00 0.00 0.00 0.00 0.00 0.00 0.00 0.00 0.00 0.00 0.00 0.00
0.00 0.00 0.00 0.00 0.00 0.00 0.00 0.02 0.01 0.01 0.00 0.00 0.00 0.00 0.00 0.00 0.00 0.00 0.00 0.00 0.00 0.00 0.00 0.00 0.00 0.00 0.00 0.00 0.00 0.00 0.00 0.00 0.00 0.00 0.00 0.00 0.00 0.00 0.01 0.00 0.00 0.00 0.00 0.00 0.00 0.00 0.00 0.00 0.00
0.00 0.00 0.00 0.01 0.00 0.01 0.03 0.02 0.00 0.00 0.00 0.00 0.00 0.00 0.00 0.00 0.00 0.00 0.00 0.00 0.00 0.00 0.00 0.00 0.00 0.00 0.00 0.00 0.00 0.00 0.00 0.00 0.00 0.00 0.00 0.00 0.01 0.01 0.00 0.00 0.00 0.00 0.00 0.00 0.00 0.01 0.00 0.00 0.00
0.00 0.00 0.00 0.00 0.01 0.01 0.00 0.00 0.00 0.00 0.00 0.00 0.00 0.00 0.00 0.00 0.00 0.00 0.00 0.00 0.00 0.00 0.00 0.00 0.00 0.00 0.00 0.00 0.00 0.00 0.00 0.00 0.00 0.00 0.00 0.00 0.00 0.00 0.00 0.00 0.00 0.00 0.00 0.00 0.01 0.01 0.01 0.01 0.02
0.00 0.00 0.00 0.00 0.00 0.00 0.00 0.00 0.00 0.00 0.00 0.00 0.00 0.00 0.00 0.00 0.00 0.00 0.00 0.00 0.00 0.00 0.00 0.00 0.00 0.00 0.00 0.00 0.00 0.00 0.00 0.00 0.00 0.00 0.00 0.00 0.00 0.00 0.00 0.00 0.00 0.00 0.00 0.00 0.00 0.00 0.00 0.01 0.02
0.00 0.00 0.00 0.00 0.00 0.00 0.00 0.00 0.00 0.00 0.00 0.00 0.00 0.00 0.00 0.00 0.00 0.00 0.00 0.00 0.00 0.00 0.00 0.00 0.00 0.00 0.00 0.00 0.00 0.00 0.00 0.00 0.00 0.00 0.00 0.00 0.00 0.00 0.00 0.00 0.00 0.00 0.00 0.00 0.00 0.00 0.01 0.01 0.02
0.00 0.00 0.00 0.00 0.00 0.00 0.00 0.00 0.00 0.00 0.00 0.00 0.00 0.00 0.00 0.00 0.00 0.00 0.00 0.00 0.00 0.00 0.00 0.00 0.00 0.00 0.00 0.00 0.00 0.00 0.00 0.00 0.00 0.00 0.00 0.00 0.00 0.00 0.00 0.00 0.00 0.00 0.00 0.01 0.02 0.02 0.01 0.02 0.02
0.00 0.00 0.00 0.00 0.00 0.00 0.00 0.00 0.00 0.00 0.00 0.00 0.00 0.00 0.00 0.00 0.00 0.00 0.00 0.00 0.00 0.00 0.00 0.00 0.00 0.00 0.00 0.00 0.00 0.00 0.00 0.00 0.00 0.00 0.00 0.00 0.01 0.02 0.01 0.00 0.01 0.02 0.04 0.04 0.04 0.02 0.01 0.01 0.01

GFSSGP_prec_precacc24_018.txt.gz
Total_Precipitation_Accumulation
0.00 0.00 0.00 0.00 0.00 0.00 0.00 0.00 0.00 0.01 0.02 0.02 0.04 0.06 0.06 0.04 0.09 0.19 0.08 0.01 0.00 0.00 0.00 0.00 0.00 0.00 0.01 0.03 0.03 0.04 0.05 0.02 0.03 0.03 0.01 0.01 0.02 0.04 0.02 0.00 0.00 0.00 0.00 0.00 0.00 0.00 0.00 0.00 0.01
0.00 0.00 0.00 0.00 0.00 0.00 0.00 0.00 0.00 0.00 0.02 0.02 0.03 0.02 0.04 0.13 0.05 0.11 0.09 0.02 0.06 0.01 0.01 0.00 0.00 0.00 0.02 0.03 0.01 0.01 0.02 0.02 0.02 0.03 0.03 0.01 0.01 0.01 0.00 0.00 0.00 0.00 0.00 0.00 0.00 0.00 0.00 0.00 0.00
0.00 0.00 0.00 0.00 0.00 0.00 0.00 0.00 0.00 0.00 0.01 0.00 0.00 0.01 0.04 0.16 0.13 0.15 0.08 0.01 0.00 0.00 0.00 0.02 0.00 0.00 0.02 0.02 0.02 0.04 0.04 0.01 0.01 0.02 0.02 0.00 0.00 0.00 0.00 0.00 0.00 0.00 0.00 0.00 0.00 0.00 0.00 0.00 0.00
0.00 0.00 0.00 0.00 0.00 0.00 0.00 0.00 0.00 0.00 0.00 0.00 0.01 0.03 0.05 0.10 0.10 0.08 0.04 0.01 0.00 0.00 0.02 0.04 0.00 0.00 0.00 0.00 0.01 0.01 0.01 0.00 0.00 0.00 0.00 0.00 0.00 0.00 0.00 0.00 0.00 0.00 0.00 0.00 0.00 0.00 0.00 0.00 0.00
0.00 0.00 0.00 0.00 0.00 0.00 0.00 0.00 0.00 0.00 0.00 0.00 0.00 0.00 0.01 0.02 0.03 0.04 0.00 0.00 0.00 0.01 0.01 0.00 0.00 0.00 0.00 0.00 0.00 0.00 0.00 0.00 0.00 0.00 0.00 0.00 0.00 0.00 0.00 0.00 0.00 0.00 0.00 0.00 0.00 0.00 0.00 0.00 0.00
0.00 0.00 0.00 0.00 0.00 0.00 0.00 0.00 0.00 0.00 0.00 0.00 0.00 0.02 0.04 0.07 0.13 0.03 0.00 0.00 0.00 0.02 0.00 0.00 0.00 0.00 0.00 0.00 0.00 0.00 0.00 0.00 0.00 0.00 0.00 0.00 0.00 0.00 0.00 0.00 0.00 0.00 0.00 0.00 0.00 0.00 0.00 0.00 0.00
0.00 0.00 0.00 0.00 0.00 0.00 0.00 0.00 0.00 0.00 0.00 0.00 0.00 0.01 0.02 0.01 0.08 0.02 0.00 0.00 0.02 0.01 0.00 0.00 0.00 0.00 0.00 0.00 0.00 0.00 0.00 0.00 0.00 0.00 0.00 0.00 0.00 0.00 0.00 0.00 0.00 0.00 0.00 0.00 0.00 0.00 0.00 0.00 0.00
0.00 0.00 0.00 0.00 0.00 0.00 0.00 0.00 0.00 0.00 0.00 0.00 0.00 0.00 0.00 0.00 0.01 0.00 0.00 0.00 0.00 0.00 0.00 0.00 0.00 0.00 0.00 0.00 0.00 0.00 0.00 0.00 0.00 0.00 0.00 0.00 0.00 0.00 0.00 0.00 0.00 0.00 0.00 0.00 0.00 0.00 0.00 0.00 0.00
0.00 0.00 0.00 0.00 0.00 0.00 0.00 0.00 0.00 0.00 0.00 0.00 0.00 0.00 0.00 0.00 0.00 0.00 0.01 0.01 0.00 0.00 0.00 0.00 0.00 0.00 0.00 0.00 0.00 0.00 0.00 0.00 0.00 0.00 0.00 0.00 0.00 0.00 0.00 0.00 0.00 0.00 0.00 0.00 0.00 0.00 0.00 0.00 0.00
0.00 0.00 0.00 0.00 0.00 0.00 0.00 0.00 0.00 0.00 0.00 0.00 0.00 0.00 0.00 0.00 0.00 0.00 0.00 0.00 0.00 0.00 0.00 0.00 0.00 0.00 0.00 0.00 0.00 0.00 0.00 0.00 0.00 0.00 0.00 0.00 0.00 0.00 0.00 0.00 0.00 0.00 0.00 0.00 0.00 0.00 0.00 0.00 0.00
0.00 0.00 0.00 0.00 0.00 0.00 0.00 0.00 0.00 0.00 0.00 0.00 0.00 0.00 0.00 0.00 0.00 0.00 0.00 0.00 0.00 0.00 0.00 0.00 0.00 0.00 0.00 0.00 0.00 0.00 0.00 0.00 0.00 0.00 0.00 0.00 0.00 0.00 0.00 0.00 0.00 0.01 0.00 0.00 0.00 0.00 0.00 0.00 0.00
0.00 0.00 0.00 0.00 0.00 0.00 0.00 0.00 0.00 0.00 0.00 0.00 0.00 0.00 0.00 0.00 0.00 0.00 0.00 0.00 0.00 0.00 0.00 0.00 0.00 0.00 0.00 0.00 0.00 0.00 0.00 0.00 0.00 0.00 0.00 0.00 0.00 0.00 0.00 0.00 0.00 0.00 0.00 0.00 0.00 0.00 0.00 0.00 0.00
0.00 0.00 0.00 0.00 0.00 0.00 0.00 0.00 0.00 0.00 0.00 0.00 0.00 0.00 0.00 0.00 0.00 0.00 0.00 0.00 0.00 0.00 0.00 0.02 0.00 0.00 0.00 0.00 0.00 0.00 0.00 0.00 0.00 0.00 0.00 0.00 0.00 0.00 0.00 0.00 0.00 0.00 0.00 0.00 0.00 0.00 0.00 0.00 0.00
0.00 0.00 0.00 0.00 0.00 0.00 0.00 0.00 0.00 0.00 0.00 0.00 0.00 0.00 0.00 0.00 0.00 0.00 0.00 0.00 0.00 0.00 0.06 0.11 0.06 0.01 0.00 0.00 0.00 0.00 0.01 0.01 0.00 0.00 0.00 0.00 0.00 0.00 0.00 0.00 0.00 0.00 0.00 0.00 0.00 0.00 0.00 0.00 0.00
0.00 0.00 0.00 0.00 0.00 0.00 0.00 0.00 0.00 0.00 0.00 0.00 0.00 0.00 0.00 0.00 0.00 0.00 0.00 0.00 0.00 0.00 0.02 0.45 0.61 0.09 0.05 0.00 0.01 0.04 0.11 0.04 0.00 0.00 0.01 0.00 0.00 0.00 0.00 0.00 0.00 0.00 0.00 0.00 0.00 0.00 0.00 0.00 0.00
0.00 0.00 0.00 0.00 0.00 0.00 0.00 0.00 0.00 0.00 0.00 0.00 0.00 0.00 0.00 0.00 0.00 0.00 0.00 0.01 0.00 0.01 0.16 0.97 0.82 0.11 0.11 0.08 0.12 0.20 0.07 0.01 0.02 0.01 0.00 0.00 0.00 0.00 0.00 0.00 0.00 0.00 0.00 0.00 0.00 0.00 0.00 0.00 0.00
0.00 0.00 0.00 0.00 0.00 0.00 0.00 0.00 0.00 0.00 0.00 0.00 0.00 0.00 0.00 0.00 0.00 0.00 0.02 0.01 0.00 0.01 0.23 0.62 0.49 0.20 0.31 0.38 0.50 0.21 0.03 0.00 0.00 0.00 0.00 0.00 0.00 0.00 0.00 0.00 0.00 0.00 0.00 0.00 0.00 0.00 0.00 0.01 0.00
0.00 0.00 0.00 0.00 0.00 0.00 0.00 0.00 0.00 0.00 0.00 0.00 0.00 0.00 0.00 0.00 0.00 0.02 0.07 0.04 0.02 0.05 0.43 0.58 0.51 0.59 0.40 0.23 0.11 0.03 0.00 0.00 0.01 0.01 0.00 0.00 0.00 0.00 0.00 0.00 0.00 0.00 0.00 0.00 0.00 0.00 0.00 0.00 0.00
0.00 0.00 0.00 0.00 0.00 0.00 0.00 0.00 0.00 0.00 0.00 0.00 0.00 0.00 0.00 0.00 0.00 0.03 0.06 0.07 0.08 0.19 0.45 0.51 0.49 0.32 0.12 0.04 0.04 0.03 0.03 0.04 0.02 0.00 0.00 0.00 0.00 0.00 0.00 0.00 0.00 0.00 0.00 0.00 0.00 0.00 0.00 0.00 0.00
0.00 0.00 0.00 0.00 0.00 0.00 0.00 0.00 0.00 0.00 0.00 0.00 0.00 0.00 0.00 0.00 0.00 0.01 0.02 0.05 0.19 0.40 0.39 0.25 0.22 0.10 0.01 0.02 0.04 0.05 0.03 0.01 0.00 0.00 0.00 0.00 0.00 0.00 0.00 0.00 0.00 0.00 0.00 0.00 0.00 0.00 0.00 0.00 0.00
0.00 0.00 0.00 0.00 0.00 0.00 0.00 0.00 0.00 0.00 0.00 0.00 0.00 0.00 0.00 0.00 0.03 0.05 0.08 0.12 0.11 0.10 0.05 0.01 0.00 0.00 0.00 0.02 0.01 0.00 0.00 0.00 0.00 0.00 0.00 0.00 0.00 0.00 0.00 0.00 0.00 0.00 0.00 0.00 0.00 0.00 0.00 0.00 0.00
0.00 0.00 0.00 0.00 0.00 0.00 0.00 0.00 0.00 0.00 0.00 0.00 0.00 0.00 0.01 0.02 0.02 0.01 0.00 0.00 0.00 0.00 0.00 0.00 0.00 0.00 0.00 0.00 0.00 0.00 0.00 0.00 0.00 0.00 0.00 0.00 0.00 0.00 0.00 0.00 0.00 0.00 0.00 0.00 0.00 0.00 0.00 0.00 0.00
0.00 0.00 0.00 0.00 0.00 0.00 0.00 0.00 0.00 0.00 0.00 0.00 0.00 0.00 0.00 0.00 0.00 0.00 0.00 0.00 0.00 0.00 0.00 0.00 0.00 0.00 0.00 0.00 0.00 0.00 0.00 0.00 0.00 0.00 0.00 0.00 0.00 0.00 0.00 0.00 0.00 0.00 0.00 0.00 0.00 0.00 0.00 0.00 0.00
0.00 0.00 0.00 0.00 0.00 0.00 0.00 0.02 0.01 0.01 0.00 0.00 0.00 0.00 0.00 0.00 0.00 0.00 0.00 0.00 0.00 0.00 0.00 0.00 0.00 0.00 0.00 0.00 0.00 0.00 0.00 0.00 0.00 0.00 0.00 0.00 0.00 0.00 0.01 0.00 0.00 0.00 0.00 0.00 0.00 0.00 0.00 0.00 0.00
0.00 0.00 0.00 0.01 0.00 0.01 0.03 0.02 0.00 0.00 0.00 0.00 0.00 0.00 0.00 0.00 0.00 0.00 0.00 0.00 0.00 0.00 0.00 0.00 0.00 0.00 0.00 0.00 0.00 0.00 0.00 0.00 0.00 0.00 0.00 0.00 0.01 0.01 0.00 0.00 0.00 0.00 0.00 0.00 0.00 0.01 0.00 0.00 0.00
0.00 0.00 0.00 0.00 0.01 0.01 0.00 0.00 0.00 0.00 0.00 0.00 0.00 0.00 0.00 0.00 0.00 0.00 0.00 0.00 0.00 0.00 0.00 0.00 0.00 0.00 0.00 0.00 0.00 0.00 0.00 0.00 0.00 0.00 0.00 0.00 0.00 0.00 0.00 0.00 0.00 0.00 0.00 0.00 0.01 0.01 0.01 0.01 0.02
0.00 0.00 0.00 0.00 0.00 0.00 0.00 0.00 0.00 0.00 0.00 0.00 0.00 0.00 0.00 0.00 0.00 0.00 0.00 0.00 0.00 0.00 0.00 0.00 0.00 0.00 0.00 0.00 0.00 0.00 0.00 0.00 0.00 0.00 0.00 0.00 0.00 0.00 0.00 0.00 0.00 0.00 0.00 0.00 0.00 0.00 0.00 0.01 0.02
0.00 0.00 0.00 0.00 0.00 0.00 0.00 0.00 0.00 0.00 0.00 0.00 0.00 0.00 0.00 0.00 0.00 0.00 0.00 0.00 0.00 0.00 0.00 0.00 0.00 0.00 0.00 0.00 0.00 0.00 0.00 0.00 0.00 0.00 0.00 0.00 0.00 0.00 0.00 0.00 0.00 0.00 0.00 0.00 0.00 0.00 0.01 0.01 0.02
0.00 0.00 0.00 0.00 0.00 0.00 0.00 0.00 0.00 0.00 0.00 0.00 0.00 0.00 0.00 0.00 0.00 0.00 0.00 0.00 0.00 0.00 0.00 0.00 0.00 0.00 0.00 0.00 0.00 0.00 0.00 0.00 0.00 0.00 0.00 0.00 0.00 0.00 0.01 0.00 0.00 0.00 0.00 0.01 0.02 0.02 0.01 0.02 0.02
0.00 0.00 0.00 0.00 0.00 0.00 0.00 0.00 0.00 0.00 0.00 0.00 0.00 0.00 0.00 0.00 0.00 0.00 0.00 0.00 0.00 0.00 0.00 0.00 0.00 0.00 0.00 0.00 0.00 0.00 0.00 0.00 0.00 0.00 0.00 0.00 0.01 0.02 0.01 0.00 0.01 0.02 0.04 0.04 0.04 0.02 0.01 0.01 0.01

GFSSGP_prec_precacc24_021.txt.gz
Total_Precipitation_Accumulation
0.00 0.00 0.00 0.00 0.00 0.00 0.00 0.00 0.00 0.01 0.04 0.03 0.05 0.07 0.09 0.07 0.16 0.24 0.10 0.02 0.01 0.13 0.00 0.05 0.10 0.00 0.01 0.03 0.03 0.04 0.05 0.02 0.03 0.03 0.01 0.01 0.02 0.04 0.02 0.00 0.00 0.00 0.00 0.00 0.00 0.00 0.00 0.00 0.01
0.00 0.00 0.00 0.00 0.00 0.00 0.00 0.00 0.00 0.01 0.06 0.07 0.07 0.07 0.09 0.17 0.14 0.25 0.12 0.03 0.13 0.08 0.01 0.04 0.10 0.03 0.02 0.03 0.01 0.01 0.02 0.02 0.02 0.03 0.03 0.01 0.01 0.01 0.00 0.00 0.00 0.00 0.00 0.00 0.00 0.00 0.00 0.00 0.00
0.00 0.00 0.00 0.00 0.00 0.00 0.00 0.00 0.00 0.01 0.02 0.00 0.01 0.04 0.13 0.27 0.26 0.30 0.10 0.01 0.01 0.00 0.02 0.07 0.05 0.01 0.02 0.02 0.02 0.04 0.04 0.01 0.01 0.02 0.02 0.00 0.00 0.00 0.00 0.00 0.00 0.00 0.00 0.00 0.00 0.00 0.00 0.00 0.00
0.00 0.00 0.00 0.00 0.00 0.00 0.00 0.00 0.00 0.00 0.01 0.03 0.02 0.03 0.08 0.14 0.17 0.13 0.06 0.07 0.00 0.04 0.04 0.06 0.01 0.00 0.00 0.00 0.01 0.01 0.01 0.00 0.00 0.00 0.00 0.00 0.00 0.00 0.00 0.00 0.00 0.00 0.00 0.00 0.00 0.00 0.00 0.00 0.00
0.00 0.00 0.00 0.00 0.00 0.00 0.00 0.00 0.00 0.00 0.00 0.01 0.00 0.00 0.02 0.02 0.05 0.04 0.12 0.03 0.00 0.01 0.01 0.00 0.01 0.03 0.01 0.00 0.00 0.00 0.00 0.00 0.00 0.00 0.00 0.00 0.00 0.00 0.00 0.00 0.00 0.00 0.00 0.00 0.00 0.00 0.00 0.00 0.00
0.00 0.00 0.00 0.00 0.00 0.00 0.00 0.00 0.00 0.01 0.01 0.00 0.00 0.03 0.06 0.09 0.17 0.03 0.06 0.01 0.01 0.03 0.00 0.00 0.02 0.01 0.00 0.00 0.00 0.00 0.00 0.00 0.00 0.00 0.00 0.00 0.00 0.00 0.00 0.00 0.00 0.00 0.00 0.00 0.00 0.00 0.00 0.00 0.00
0.00 0.00 0.00 0.00 0.00 0.00 0.00 0.03 0.03 0.01 0.00 0.00 0.00 0.02 0.03 0.02 0.10 0.03 0.00 0.00 0.02 0.02 0.00 0.01 0.00 0.00 0.00 0.00 0.00 0.00 0.00 0.00 0.00 0.00 0.00 0.00 0.00 0.00 0.00 0.00 0.00 0.00 0.00 0.00 0.00 0.00 0.00 0.00 0.00
0.00 0.00 0.00 0.00 0.00 0.00 0.00 0.02 0.01 0.00 0.00 0.00 0.00 0.01 0.01 0.00 0.01 0.01 0.00 0.00 0.01 0.01 0.00 0.00 0.00 0.00 0.00 0.00 0.00 0.00 0.00 0.00 0.00 0.00 0.00 0.00 0.00 0.00 0.00 0.00 0.00 0.00 0.00 0.00 0.00 0.00 0.00 0.00 0.00
0.00 0.00 0.00 0.00 0.00 0.01 0.00 0.00 0.01 0.00 0.00 0.00 0.00 0.00 0.00 0.00 0.00 0.00 0.01 0.01 0.01 0.00 0.00 0.00 0.00 0.00 0.00 0.00 0.00 0.00 0.00 0.00 0.00 0.00 0.00 0.00 0.00 0.00 0.00 0.00 0.00 0.00 0.00 0.00 0.00 0.00 0.00 0.00 0.00
0.00 0.00 0.00 0.00 0.00 0.02 0.01 0.00 0.00 0.00 0.00 0.00 0.00 0.00 0.00 0.00 0.00 0.00 0.00 0.00 0.00 0.00 0.00 0.00 0.00 0.00 0.00 0.00 0.00 0.00 0.00 0.00 0.00 0.00 0.00 0.00 0.00 0.00 0.00 0.00 0.00 0.00 0.00 0.00 0.00 0.00 0.00 0.00 0.00
0.00 0.00 0.00 0.00 0.00 0.00 0.00 0.00 0.00 0.00 0.00 0.00 0.00 0.00 0.00 0.00 0.00 0.00 0.00 0.00 0.00 0.00 0.00 0.00 0.00 0.00 0.00 0.00 0.00 0.00 0.00 0.00 0.00 0.00 0.00 0.00 0.00 0.00 0.00 0.00 0.00 0.01 0.00 0.00 0.00 0.00 0.00 0.00 0.00
0.00 0.00 0.00 0.00 0.00 0.00 0.00 0.00 0.00 0.00 0.00 0.00 0.00 0.00 0.00 0.00 0.00 0.00 0.00 0.00 0.00 0.00 0.00 0.00 0.00 0.00 0.00 0.00 0.00 0.00 0.00 0.00 0.00 0.00 0.00 0.00 0.00 0.00 0.00 0.00 0.00 0.00 0.00 0.00 0.00 0.00 0.00 0.00 0.00
0.00 0.00 0.00 0.00 0.00 0.00 0.00 0.00 0.00 0.00 0.00 0.00 0.00 0.00 0.00 0.00 0.00 0.00 0.00 0.00 0.00 0.00 0.00 0.02 0.00 0.00 0.00 0.00 0.00 0.00 0.00 0.01 0.02 0.00 0.00 0.00 0.00 0.00 0.00 0.00 0.00 0.00 0.00 0.00 0.00 0.00 0.00 0.00 0.00
0.00 0.00 0.00 0.00 0.00 0.00 0.00 0.00 0.00 0.00 0.00 0.00 0.00 0.00 0.00 0.00 0.00 0.00 0.00 0.00 0.00 0.00 0.06 0.11 0.06 0.01 0.00 0.00 0.00 0.01 0.08 0.09 0.07 0.04 0.04 0.02 0.00 0.00 0.00 0.00 0.00 0.00 0.00 0.00 0.00 0.00 0.00 0.00 0.00
0.00 0.00 0.00 0.00 0.00 0.00 0.00 0.00 0.00 0.00 0.00 0.00 0.00 0.00 0.00 0.00 0.00 0.00 0.00 0.00 0.00 0.00 0.02 0.50 0.66 0.10 0.05 0.00 0.07 0.17 0.20 0.07 0.02 0.11 0.13 0.04 0.00 0.00 0.00 0.00 0.00 0.00 0.00 0.00 0.00 0.00 0.00 0.00 0.00
0.00 0.00 0.00 0.00 0.00 0.00 0.00 0.00 0.00 0.00 0.00 0.00 0.00 0.00 0.00 0.00 0.00 0.00 0.00 0.01 0.01 0.02 0.17 1.06 0.89 0.16 0.14 0.11 0.21 0.40 0.24 0.08 0.04 0.08 0.07 0.02 0.00 0.00 0.00 0.00 0.00 0.00 0.00 0.00 0.00 0.00 0.00 0.00 0.00
0.00 0.00 0.00 0.00 0.00 0.00 0.00 0.00 0.00 0.00 0.00 0.00 0.00 0.00 0.00 0.00 0.00 0.00 0.02 0.02 0.02 0.02 0.28 0.75 0.62 0.28 0.43 0.65 0.78 0.42 0.07 0.01 0.00 0.01 0.01 0.00 0.00 0.00 0.00 0.00 0.00 0.00 0.00 0.00 0.00 0.00 0.00 0.01 0.00
0.00 0.00 0.00 0.00 0.00 0.00 0.00 0.00 0.00 0.00 0.00 0.00 0.00 0.00 0.00 0.00 0.00 0.02 0.07 0.06 0.03 0.06 0.44 0.70 0.63 0.76 0.85 0.50 0.18 0.05 0.01 0.01 0.01 0.02 0.01 0.00 0.00 0.00 0.00 0.00 0.00 0.00 0.00 0.00 0.00 0.00 0.00 0.00 0.00
0.00 0.00 0.00 0.00 0.00 0.00 0.00 0.00 0.00 0.00 0.00 0.00 0.00 0.00 0.00 0.00 0.01 0.05 0.08 0.11 0.12 0.19 0.48 0.63 0.73 0.55 0.26 0.08 0.04 0.03 0.04 0.04 0.02 0.00 0.00 0.00 0.00 0.00 0.00 0.00 0.00 0.00 0.00 0.00 0.00 0.00 0.00 0.00 0.00
0.00 0.00 0.00 0.00 0.00 0.00 0.00 0.00 0.00 0.00 0.00 0.00 0.00 0.00 0.00 0.00 0.00 0.01 0.02 0.08 0.22 0.43 0.45 0.33 0.28 0.12 0.02 0.02 0.04 0.05 0.03 0.01 0.00 0.00 0.00 0.00 0.00 0.00 0.00 0.00 0.00 0.00 0.00 0.00 0.00 0.00 0.00 0.00 0.00
0.00 0.00 0.00 0.00 0.00 0.00 0.00 0.00 0.00 0.00 0.00 0.00 0.00 0.00 0.00 0.00 0.03 0.05 0.08 0.12 0.11 0.10 0.05 0.01 0.00 0.00 0.00 0.02 0.01 0.00 0.00 0.00 0.00 0.00 0.00 0.00 0.00 0.00 0.00 0.00 0.00 0.00 0.00 0.00 0.00 0.00 0.00 0.00 0.00
0.00 0.00 0.00 0.00 0.00 0.00 0.00 0.00 0.00 0.00 0.00 0.00 0.00 0.00 0.01 0.02 0.02 0.01 0.00 0.00 0.00 0.00 0.00 0.00 0.00 0.00 0.00 0.00 0.00 0.00 0.00 0.00 0.00 0.00 0.00 0.00 0.00 0.00 0.00 0.00 0.00 0.00 0.00 0.00 0.00 0.00 0.00 0.00 0.00
0.00 0.00 0.00 0.00 0.00 0.00 0.00 0.00 0.00 0.00 0.00 0.00 0.00 0.00 0.00 0.00 0.00 0.00 0.00 0.00 0.00 0.00 0.00 0.00 0.00 0.00 0.00 0.00 0.00 0.00 0.00 0.00 0.00 0.00 0.00 0.00 0.00 0.00 0.00 0.00 0.00 0.00 0.00 0.00 0.00 0.00 0.00 0.00 0.00
0.00 0.00 0.00 0.00 0.00 0.00 0.00 0.02 0.01 0.01 0.00 0.00 0.00 0.00 0.00 0.00 0.00 0.00 0.00 0.00 0.00 0.00 0.00 0.00 0.00 0.00 0.00 0.00 0.00 0.00 0.00 0.00 0.00 0.00 0.00 0.00 0.00 0.00 0.01 0.00 0.00 0.00 0.00 0.00 0.00 0.00 0.00 0.00 0.00
0.00 0.00 0.00 0.01 0.00 0.01 0.03 0.02 0.00 0.00 0.00 0.00 0.00 0.00 0.00 0.00 0.00 0.00 0.00 0.00 0.00 0.00 0.00 0.00 0.00 0.00 0.00 0.00 0.00 0.00 0.00 0.00 0.00 0.00 0.00 0.00 0.01 0.01 0.00 0.00 0.00 0.00 0.00 0.00 0.00 0.01 0.00 0.00 0.00
0.00 0.00 0.00 0.00 0.01 0.01 0.00 0.00 0.00 0.00 0.00 0.00 0.00 0.00 0.00 0.00 0.00 0.00 0.00 0.00 0.00 0.00 0.00 0.00 0.00 0.00 0.00 0.00 0.00 0.00 0.00 0.00 0.00 0.00 0.00 0.00 0.00 0.00 0.00 0.00 0.00 0.00 0.00 0.00 0.01 0.01 0.01 0.01 0.02
0.00 0.00 0.00 0.00 0.00 0.00 0.00 0.00 0.00 0.00 0.00 0.00 0.00 0.00 0.00 0.00 0.00 0.00 0.00 0.00 0.00 0.00 0.00 0.00 0.00 0.00 0.00 0.00 0.00 0.00 0.00 0.00 0.00 0.00 0.00 0.00 0.00 0.00 0.00 0.00 0.00 0.00 0.00 0.00 0.00 0.00 0.00 0.01 0.02
0.00 0.00 0.00 0.00 0.00 0.00 0.00 0.00 0.00 0.00 0.00 0.00 0.00 0.00 0.00 0.00 0.00 0.00 0.00 0.00 0.00 0.00 0.00 0.00 0.00 0.00 0.00 0.00 0.00 0.00 0.00 0.00 0.00 0.00 0.00 0.00 0.00 0.00 0.00 0.00 0.00 0.00 0.00 0.00 0.00 0.00 0.01 0.01 0.02
0.00 0.00 0.00 0.00 0.00 0.00 0.00 0.00 0.00 0.00 0.00 0.00 0.00 0.00 0.00 0.00 0.00 0.00 0.00 0.00 0.00 0.00 0.00 0.00 0.00 0.00 0.00 0.00 0.00 0.00 0.00 0.00 0.00 0.00 0.00 0.00 0.00 0.00 0.01 0.00 0.00 0.00 0.00 0.01 0.02 0.02 0.01 0.02 0.02
0.00 0.00 0.00 0.00 0.00 0.00 0.00 0.00 0.00 0.00 0.00 0.00 0.00 0.00 0.00 0.00 0.00 0.00 0.00 0.00 0.00 0.00 0.00 0.00 0.00 0.00 0.00 0.00 0.00 0.00 0.00 0.00 0.00 0.00 0.00 0.00 0.01 0.02 0.01 0.00 0.01 0.02 0.04 0.04 0.04 0.02 0.01 0.01 0.01

GFSSGP_prec_precacc24_027.txt.gz
Total_Precipitation_Accumulation
0.00 0.00 0.00 0.00 0.00 0.00 0.00 0.00 0.00 0.07 0.08 0.04 0.05 0.08 0.11 0.10 0.23 0.31 0.25 0.13 0.08 0.15 0.01 0.06 0.15 0.01 0.00 0.00 0.00 0.01 0.02 0.00 0.00 0.00 0.01 0.00 0.00 0.01 0.00 0.00 0.00 0.00 0.00 0.00 0.00 0.00 0.00 0.00 0.00
0.00 0.00 0.00 0.00 0.00 0.00 0.00 0.00 0.00 0.05 0.08 0.09 0.08 0.08 0.10 0.17 0.18 0.36 0.31 0.28 0.24 0.09 0.01 0.04 0.14 0.06 0.00 0.03 0.04 0.00 0.00 0.01 0.01 0.01 0.01 0.00 0.00 0.00 0.00 0.00 0.00 0.00 0.00 0.00 0.00 0.00 0.00 0.00 0.00
0.00 0.00 0.00 0.00 0.00 0.00 0.00 0.00 0.00 0.01 0.02 0.02 0.03 0.05 0.14 0.30 0.35 0.51 0.30 0.20 0.24 0.07 0.05 0.07 0.05 0.06 0.07 0.11 0.08 0.01 0.02 0.01 0.01 0.01 0.00 0.00 0.00 0.00 0.00 0.00 0.00 0.00 0.00 0.00 0.00 0.00 0.00 0.00 0.00
0.00 0.00 0.00 0.00 0.00 0.00 0.00 0.00 0.01 0.01 0.01 0.04 0.03 0.05 0.09 0.16 0.21 0.16 0.10 0.23 0.35 0.46 0.25 0.08 0.02 0.08 0.14 0.19 0.06 0.00 0.00 0.00 0.00 0.00 0.00 0.00 0.00 0.00 0.00 0.00 0.00 0.00 0.00 0.00 0.00 0.00 0.00 0.00 0.00
0.00 0.00 0.00 0.00 0.00 0.00 0.00 0.00 0.01 0.01 0.02 0.01 0.00 0.00 0.05 0.04 0.07 0.04 0.15 0.32 0.87 0.69 0.48 0.05 0.14 0.21 0.27 0.20 0.03 0.00 0.00 0.00 0.00 0.00 0.00 0.00 0.00 0.00 0.00 0.00 0.00 0.00 0.00 0.00 0.00 0.00 0.00 0.00 0.00
0.00 0.00 0.00 0.00 0.00 0.00 0.00 0.00 0.01 0.04 0.03 0.01 0.00 0.04 0.11 0.12 0.19 0.04 0.12 0.29 1.10 0.63 0.66 0.18 0.25 0.28 0.31 0.10 0.00 0.00 0.00 0.00 0.00 0.00 0.00 0.00 0.00 0.00 0.00 0.00 0.00 0.00 0.00 0.00 0.00 0.00 0.00 0.00 0.00
0.00 0.00 0.00 0.00 0.00 0.00 0.00 0.04 0.05 0.03 0.01 0.00 0.00 0.05 0.06 0.09 0.15 0.08 0.23 0.50 0.84 1.22 0.58 0.18 0.12 0.15 0.16 0.00 0.00 0.00 0.00 0.00 0.00 0.00 0.00 0.00 0.00 0.00 0.00 0.00 0.00 0.00 0.00 0.00 0.00 0.00 0.00 0.00 0.00
0.00 0.00 0.00 0.00 0.00 0.01 0.04 0.05 0.04 0.03 0.03 0.01 0.02 0.09 0.05 0.02 0.06 0.20 0.28 0.52 0.41 1.08 0.34 0.12 0.19 0.05 0.01 0.00 0.00 0.00 0.00 0.00 0.00 0.00 0.00 0.00 0.00 0.00 0.00 0.00 0.00 0.00 0.00 0.00 0.00 0.00 0.00 0.00 0.00
0.00 0.00 0.00 0.00 0.01 0.01 0.00 0.01 0.01 0.00 0.00 0.01 0.02 0.01 0.01 0.02 0.04 0.10 0.24 0.73 0.59 0.31 0.12 0.19 0.13 0.04 0.01 0.00 0.00 0.00 0.00 0.00 0.00 0.00 0.00 0.00 0.00 0.00 0.00 0.00 0.00 0.00 0.00 0.00 0.00 0.00 0.00 0.00 0.00
0.00 0.00 0.00 0.00 0.00 0.04 0.01 0.00 0.00 0.00 0.03 0.03 0.01 0.00 0.00 0.02 0.02 0.06 0.08 0.15 0.17 0.07 0.03 0.04 0.06 0.05 0.01 0.00 0.00 0.00 0.00 0.00 0.00 0.00 0.00 0.00 0.00 0.00 0.00 0.00 0.00 0.00 0.00 0.00 0.00 0.00 0.00 0.00 0.00
0.00 0.00 0.00 0.00 0.00 0.03 0.01 0.00 0.00 0.00 0.04 0.02 0.01 0.01 0.01 0.02 0.03 0.06 0.07 0.07 0.05 0.03 0.01 0.01 0.02 0.00 0.00 0.00 0.00 0.00 0.00 0.00 0.00 0.01 0.02 0.03 0.01 0.00 0.00 0.00 0.00 0.01 0.00 0.00 0.00 0.00 0.00 0.00 0.00
0.00 0.00 0.00 0.00 0.00 0.00 0.00 0.00 0.00 0.03 0.33 0.03 0.00 0.00 0.00 0.00 0.01 0.01 0.01 0.01 0.00 0.00 0.00 0.00 0.00 0.00 0.00 0.00 0.00 0.00 0.00 0.01 0.05 0.06 0.04 0.05 0.03 0.02 0.00 0.00 0.00 0.00 0.00 0.00 0.00 0.00 0.00 0.00 0.00
0.00 0.00 0.00 0.00 0.00 0.00 0.00 0.00 0.00 0.00 0.00 0.00 0.00 0.00 0.00 0.00 0.00 0.00 0.00 0.00 0.00 0.00 0.00 0.02 0.00 0.00 0.00 0.00 0.00 0.00 0.01 0.04 0.04 0.03 0.04 0.02 0.00 0.01 0.00 0.00 0.00 0.00 0.00 0.00 0.00 0.00 0.00 0.00 0.00
0.00 0.00 0.00 0.00 0.00 0.00 0.00 0.00 0.00 0.00 0.00 0.00 0.00 0.00 0.00 0.00 0.00 0.00 0.00 0.00 0.00 0.00 0.06 0.11 0.06 0.01 0.00 0.00 0.03 0.04 0.10 0.09 0.07 0.08 0.18 0.13 0.02 0.00 0.00 0.00 0.00 0.00 0.00 0.00 0.00 0.00 0.00 0.00 0.00
0.00 0.00 0.00 0.00 0.00 0.00 0.00 0.00 0.00 0.00 0.00 0.00 0.00 0.00 0.00 0.00 0.00 0.00 0.00 0.00 0.00 0.00 0.02 0.51 0.67 0.10 0.05 0.02 0.10 0.22 0.22 0.08 0.02 0.13 0.24 0.11 0.01 0.00 0.00 0.00 0.00 0.00 0.00 0.00 0.00 0.00 0.00 0.00 0.00
0.00 0.00 0.00 0.00 0.00 0.00 0.00 0.00 0.00 0.00 0.00 0.00 0.00 0.00 0.00 0.00 0.00 0.00 0.00 0.01 0.01 0.02 0.17 1.10 0.97 0.20 0.16 0.12 0.25 0.55 0.35 0.10 0.05 0.08 0.09 0.03 0.01 0.01 0.00 0.00 0.00 0.00 0.00 0.00 0.00 0.00 0.00 0.00 0.00
0.00 0.00 0.00 0.00 0.00 0.00 0.00 0.00 0.00 0.00 0.00 0.00 0.00 0.00 0.00 0.00 0.00 0.00 0.02 0.02 0.02 0.02 0.28 0.77 0.68 0.36 0.54 0.92 1.17 0.66 0.09 0.02 0.01 0.02 0.03 0.02 0.01 0.00 0.00 0.00 0.00 0.00 0.00 0.00 0.00 0.00 0.00 0.01 0.00
0.00 0.00 0.00 0.00 0.00 0.00 0.00 0.00 0.00 0.00 0.00 0.00 0.00 0.00 0.00 0.00 0.00 0.02 0.08 0.06 0.03 0.06 0.44 0.71 0.71 0.94 1.25 1.05 0.30 0.06 0.01 0.01 0.01 0.02 0.01 0.00 0.00 0.00 0.00 0.00 0.00 0.00 0.00 0.00 0.00 0.00 0.00 0.00 0.00
0.00 0.00 0.00 0.00 0.00 0.00 0.00 0.00 0.00 0.00 0.00 0.00 0.00 0.00 0.00 0.00 0.01 0.05 0.08 0.11 0.12 0.19 0.50 0.65 0.79 0.61 0.28 0.09 0.05 0.03 0.04 0.04 0.02 0.00 0.00 0.00 0.00 0.00 0.00 0.00 0.00 0.00 0.00 0.00 0.00 0.00 0.00 0.00 0.00
0.00 0.00 0.00 0.00 0.00 0.00 0.00 0.00 0.00 0.00 0.00 0.00 0.00 0.00 0.00 0.00 0.00 0.01 0.02 0.08 0.22 0.43 0.46 0.35 0.28 0.15 0.06 0.04 0.05 0.05 0.03 0.01 0.00 0.00 0.00 0.00 0.00 0.00 0.00 0.00 0.00 0.00 0.00 0.00 0.00 0.00 0.00 0.00 0.00
0.00 0.00 0.00 0.00 0.00 0.00 0.00 0.00 0.00 0.00 0.00 0.00 0.00 0.00 0.00 0.00 0.03 0.05 0.09 0.12 0.12 0.10 0.06 0.02 0.02 0.03 0.00 0.02 0.01 0.00 0.00 0.00 0.00 0.00 0.00 0.00 0.00 0.00 0.00 0.00 0.00 0.00 0.00 0.00 0.00 0.00 0.00 0.00 0.00
0.00 0.00 0.00 0.00 0.00 0.00 0.00 0.00 0.00 0.00 0.00 0.00 0.00 0.00 0.01 0.02 0.02 0.01 0.00 0.00 0.00 0.01 0.01 0.01 0.01 0.00 0.00 0.00 0.00 0.00 0.00 0.00 0.00 0.00 0.00 0.00 0.00 0.00 0.00 0.00 0.00 0.00 0.00 0.00 0.00 0.00 0.00 0.00 0.00
0.00 0.00 0.00 0.00 0.00 0.00 0.00 0.00 0.01 0.00 0.00 0.00 0.00 0.00 0.00 0.00 0.00 0.00 0.00 0.00 0.00 0.00 0.00 0.00 0.00 0.00 0.00 0.00 0.00 0.00 0.00 0.00 0.00 0.00 0.00 0.00 0.00 0.00 0.00 0.00 0.00 0.00 0.00 0.00 0.00 0.00 0.00 0.00 0.00
0.00 0.00 0.00 0.00 0.00 0.00 0.00 0.02 0.01 0.01 0.00 0.00 0.00 0.00 0.00 0.00 0.00 0.00 0.00 0.00 0.00 0.00 0.00 0.00 0.00 0.00 0.00 0.00 0.00 0.00 0.00 0.00 0.00 0.00 0.00 0.00 0.00 0.00 0.01 0.00 0.00 0.00 0.00 0.00 0.00 0.00 0.00 0.00 0.00
0.00 0.00 0.00 0.01 0.00 0.01 0.03 0.02 0.00 0.00 0.00 0.00 0.00 0.00 0.00 0.00 0.00 0.00 0.00 0.00 0.00 0.00 0.00 0.00 0.00 0.00 0.00 0.00 0.00 0.00 0.00 0.00 0.00 0.00 0.00 0.00 0.01 0.01 0.00 0.00 0.00 0.00 0.00 0.00 0.00 0.00 0.00 0.00 0.01
0.00 0.00 0.00 0.00 0.01 0.01 0.00 0.00 0.00 0.00 0.00 0.00 0.00 0.00 0.00 0.00 0.00 0.00 0.00 0.00 0.00 0.00 0.00 0.00 0.00 0.00 0.00 0.00 0.00 0.00 0.00 0.00 0.00 0.00 0.00 0.00 0.00 0.00 0.00 0.00 0.00 0.00 0.00 0.00 0.00 0.01 0.01 0.03 0.04
0.00 0.00 0.00 0.00 0.00 0.00 0.00 0.00 0.00 0.00 0.00 0.00 0.00 0.00 0.00 0.00 0.00 0.00 0.00 0.00 0.00 0.00 0.00 0.00 0.00 0.00 0.00 0.00 0.00 0.00 0.00 0.00 0.00 0.00 0.00 0.00 0.00 0.00 0.00 0.00 0.00 0.00 0.00 0.00 0.01 0.01 0.02 0.04 0.05
0.00 0.00 0.00 0.00 0.00 0.00 0.00 0.00 0.00 0.00 0.00 0.00 0.00 0.00 0.00 0.00 0.00 0.00 0.00 0.00 0.00 0.00 0.00 0.00 0.00 0.00 0.00 0.00 0.00 0.00 0.00 0.00 0.00 0.00 0.00 0.00 0.00 0.00 0.00 0.00 0.00 0.00 0.00 0.00 0.01 0.01 0.02 0.05 0.04
0.00 0.00 0.00 0.00 0.00 0.00 0.00 0.00 0.00 0.00 0.00 0.00 0.00 0.00 0.00 0.00 0.00 0.00 0.00 0.00 0.00 0.00 0.00 0.00 0.00 0.00 0.00 0.00 0.00 0.00 0.00 0.00 0.00 0.00 0.00 0.00 0.00 0.00 0.00 0.00 0.00 0.00 0.00 0.01 0.02 0.04 0.05 0.04 0.03
0.00 0.00 0.00 0.00 0.00 0.00 0.00 0.00 0.00 0.00 0.00 0.00 0.00 0.00 0.00 0.00 0.00 0.00 0.00 0.00 0.00 0.00 0.00 0.00 0.00 0.00 0.00 0.00 0.00 0.00 0.00 0.00 0.00 0.00 0.00 0.00 0.01 0.01 0.00 0.00 0.00 0.01 0.02 0.03 0.05 0.03 0.02 0.01 0.01

GFSSGP_prec_precacc24_030.txt.gz
Total_Precipitation_Accumulation
0.00 0.00 0.00 0.00 0.00 0.00 0.00 0.00 0.00 0.09 0.08 0.04 0.06 0.09 0.11 0.11 0.26 0.38 0.38 0.25 0.10 0.17 0.01 0.06 0.15 0.01 0.00 0.00 0.00 0.00 0.00 0.00 0.00 0.00 0.00 0.00 0.00 0.00 0.00 0.00 0.00 0.00 0.00 0.00 0.00 0.00 0.00 0.00 0.00
0.00 0.00 0.00 0.00 0.00 0.00 0.00 0.00 0.00 0.05 0.09 0.09 0.08 0.08 0.10 0.17 0.18 0.38 0.35 0.34 0.25 0.10 0.00 0.04 0.14 0.06 0.02 0.02 0.04 0.00 0.00 0.00 0.00 0.00 0.00 0.00 0.00 0.00 0.00 0.00 0.00 0.00 0.00 0.00 0.00 0.00 0.00 0.00 0.00
0.00 0.00 0.00 0.00 0.00 0.00 0.00 0.01 0.02 0.01 0.03 0.02 0.03 0.05 0.14 0.30 0.35 0.52 0.31 0.35 0.28 0.08 0.05 0.07 0.07 0.11 0.11 0.12 0.10 0.00 0.00 0.00 0.00 0.00 0.00 0.00 0.00 0.00 0.00 0.00 0.00 0.00 0.00 0.00 0.00 0.00 0.00 0.00 0.00
0.00 0.00 0.00 0.00 0.00 0.00 0.00 0.01 0.10 0.01 0.02 0.04 0.03 0.05 0.10 0.16 0.21 0.16 0.11 0.35 0.50 0.52 0.28 0.10 0.09 0.20 0.23 0.26 0.10 0.00 0.00 0.00 0.00 0.00 0.00 0.00 0.00 0.00 0.00 0.00 0.00 0.00 0.00 0.00 0.00 0.00 0.00 0.00 0.00
0.00 0.00 0.00 0.00 0.00 0.00 0.00 0.00 0.01 0.02 0.04 0.04 0.04 0.01 0.05 0.04 0.07 0.07 0.21 0.45 1.09 0.95 0.67 0.11 0.24 0.40 0.36 0.25 0.04 0.00 0.00 0.00 0.00 0.00 0.00 0.00 0.00 0.00 0.00 0.00 0.00 0.00 0.00 0.00 0.00 0.00 0.00 0.00 0.00
0.00 0.00 0.00 0.00 0.00 0.00 0.00 0.00 0.01 0.07 0.16 0.15 0.06 0.04 0.11 0.12 0.19 0.09 0.36 0.55 1.29 0.77 1.00 0.43 0.41 0.40 0.45 0.13 0.00 0.00 0.00 0.00 0.00 0.00 0.00 0.00 0.00 0.00 0.00 0.00 0.00 0.00 0.00 0.00 0.00 0.00 0.00 0.00 0.00
0.00 0.00 0.00 0.00 0.00 0.00 0.00 0.04 0.12 0.21 0.07 0.02 0.00 0.06 0.07 0.09 0.15 0.10 0.35 0.66 0.95 1.39 1.32 1.34 0.51 0.27 0.18 0.00 0.00 0.00 0.00 0.00 0.00 0.00 0.00 0.00 0.00 0.00 0.00 0.00 0.00 0.00 0.00 0.00 0.00 0.00 0.00 0.00 0.00
0.00 0.00 0.00 0.00 0.00 0.01 0.04 0.05 0.05 0.08 0.09 0.08 0.03 0.19 0.06 0.02 0.07 0.34 0.51 0.67 0.52 1.82 1.53 0.84 0.47 0.14 0.02 0.00 0.00 0.00 0.00 0.00 0.00 0.00 0.00 0.00 0.00 0.00 0.00 0.00 0.00 0.00 0.00 0.00 0.00 0.00 0.00 0.00 0.00
0.00 0.00 0.00 0.00 0.01 0.02 0.04 0.05 0.03 0.00 0.00 0.01 0.02 0.07 0.05 0.02 0.05 0.33 0.58 1.33 1.65 1.42 1.29 1.08 0.49 0.21 0.02 0.00 0.00 0.00 0.00 0.00 0.00 0.00 0.00 0.00 0.00 0.00 0.00 0.00 0.00 0.00 0.00 0.00 0.00 0.00 0.00 0.00 0.00
0.00 0.00 0.00 0.00 0.01 0.07 0.20 0.23 0.04 0.01 0.03 0.03 0.02 0.02 0.01 0.03 0.06 0.15 0.44 0.60 1.34 0.87 0.64 0.29 0.16 0.09 0.04 0.00 0.00 0.00 0.00 0.00 0.00 0.00 0.00 0.02 0.00 0.00 0.00 0.00 0.00 0.00 0.00 0.00 0.00 0.00 0.00 0.00 0.00
0.00 0.00 0.00 0.00 0.00 0.06 0.09 0.02 0.00 0.00 0.05 0.10 0.12 0.10 0.02 0.06 0.07 0.15 0.24 0.40 0.47 0.25 0.03 0.01 0.03 0.01 0.00 0.00 0.00 0.00 0.00 0.00 0.01 0.04 0.05 0.05 0.01 0.01 0.01 0.03 0.00 0.00 0.00 0.00 0.00 0.00 0.00 0.00 0.00
0.00 0.00 0.00 0.00 0.00 0.00 0.00 0.00 0.00 0.03 0.43 0.21 0.34 0.08 0.02 0.01 0.01 0.07 0.09 0.09 0.04 0.02 0.00 0.00 0.00 0.00 0.00 0.00 0.00 0.00 0.00 0.02 0.08 0.09 0.05 0.05 0.04 0.03 0.00 0.01 0.00 0.00 0.00 0.00 0.00 0.00 0.00 0.00 0.00
0.00 0.00 0.00 0.00 0.01 0.00 0.00 0.00 0.01 0.05 0.01 0.07 0.09 0.02 0.00 0.00 0.00 0.00 0.01 0.02 0.00 0.00 0.00 0.02 0.00 0.00 0.00 0.00 0.00 0.01 0.03 0.07 0.11 0.05 0.04 0.03 0.01 0.02 0.00 0.00 0.00 0.00 0.00 0.00 0.00 0.00 0.00 0.00 0.00
0.00 0.00 0.00 0.00 0.00 0.00 0.00 0.00 0.03 0.04 0.02 0.03 0.01 0.00 0.00 0.00 0.00 0.00 0.00 0.00 0.00 0.00 0.06 0.11 0.06 0.01 0.00 0.00 0.03 0.04 0.11 0.10 0.08 0.08 0.18 0.13 0.02 0.00 0.00 0.00 0.00 0.00 0.00 0.00 0.00 0.00 0.00 0.00 0.00
0.00 0.00 0.00 0.00 0.00 0.00 0.00 0.00 0.00 0.00 0.00 0.00 0.00 0.00 0.00 0.00 0.00 0.00 0.00 0.00 0.00 0.00 0.02 0.49 0.61 0.05 0.05 0.02 0.10 0.22 0.22 0.08 0.02 0.13 0.24 0.11 0.01 0.00 0.00 0.00 0.00 0.00 0.00 0.00 0.00 0.00 0.00 0.00 0.00
0.00 0.00 0.00 0.00 0.00 0.00 0.01 0.01 0.00 0.00 0.00 0.00 0.00 0.00 0.00 0.00 0.00 0.00 0.00 0.01 0.01 0.02 0.15 0.80 0.84 0.17 0.16 0.13 0.25 0.55 0.35 0.10 0.05 0.08 0.09 0.03 0.01 0.01 0.00 0.00 0.00 0.00 0.00 0.00 0.00 0.00 0.00 0.00 0.00
0.00 0.00 0.00 0.00 0.00 0.00 0.00 0.00 0.00 0.00 0.00 0.00 0.00 0.00 0.00 0.00 0.00 0.00 0.02 0.02 0.02 0.02 0.28 0.75 0.66 0.36 0.58 0.95 1.18 0.66 0.09 0.02 0.01 0.02 0.03 0.02 0.01 0.00 0.00 0.00 0.00 0.00 0.00 0.00 0.00 0.00 0.00 0.01 0.00
0.00 0.00 0.00 0.00 0.00 0.00 0.00 0.00 0.00 0.00 0.00 0.00 0.00 0.00 0.00 0.00 0.00 0.02 0.08 0.06 0.03 0.06 0.44 0.72 0.67 0.91 1.23 1.06 0.31 0.06 0.01 0.01 0.01 0.02 0.01 0.00 0.00 0.00 0.00 0.00 0.00 0.00 0.00 0.00 0.00 0.00 0.00 0.00 0.00
0.00 0.00 0.00 0.00 0.00 0.00 0.00 0.00 0.00 0.00 0.00 0.00 0.00 0.00 0.00 0.00 0.01 0.05 0.07 0.11 0.12 0.19 0.51 0.67 0.76 0.59 0.28 0.09 0.05 0.03 0.04 0.04 0.02 0.00 0.00 0.00 0.00 0.00 0.00 0.00 0.00 0.00 0.00 0.00 0.00 0.00 0.00 0.00 0.00
0.00 0.00 0.00 0.00 0.00 0.00 0.00 0.00 0.00 0.00 0.00 0.00 0.00 0.00 0.00 0.00 0.00 0.01 0.02 0.08 0.22 0.43 0.46 0.34 0.25 0.13 0.09 0.05 0.05 0.05 0.03 0.01 0.00 0.00 0.00 0.00 0.00 0.00 0.00 0.00 0.00 0.00 0.00 0.00 0.00 0.00 0.00 0.00 0.00
0.00 0.00 0.00 0.00 0.00 0.00 0.00 0.00 0.00 0.00 0.00 0.00 0.00 0.00 0.00 0.00 0.03 0.05 0.09 0.12 0.12 0.10 0.05 0.03 0.04 0.05 0.08 0.03 0.01 0.00 0.00 0.00 0.00 0.00 0.00 0.00 0.00 0.00 0.00 0.00 0.00 0.00 0.00 0.00 0.00 0.00 0.00 0.00 0.00
0.00 0.00 0.00 0.00 0.00 0.00 0.00 0.00 0.02 0.01 0.00 0.00 0.00 0.00 0.01 0.02 0.02 0.01 0.00 0.00 0.00 0.01 0.01 0.02 0.03 0.01 0.01 0.00 0.00 0.00 0.00 0.00 0.00 0.00 0.00 0.00 0.00 0.00 0.00 0.00 0.00 0.00 0.00 0.00 0.00 0.00 0.00 0.00 0.00
0.00 0.00 0.00 0.00 0.00 0.06 0.02 0.01 0.02 0.01 0.00 0.00 0.00 0.00 0.00 0.00 0.00 0.00 0.00 0.01 0.00 0.00 0.00 0.01 0.00 0.00 0.00 0.00 0.00 0.00 0.00 0.00 0.00 0.00 0.00 0.00 0.00 0.00 0.00 0.00 0.00 0.00 0.00 0.00 0.00 0.00 0.00 0.00 0.00
0.00 0.00 0.00 0.00 0.00 0.01 0.01 0.03 0.01 0.01 0.01 0.02 0.00 0.00 0.00 0.00 0.00 0.00 0.00 0.00 0.00 0.00 0.00 0.00 0.00 0.00 0.00 0.00 0.00 0.00 0.00 0.00 0.00 0.00 0.00 0.00 0.00 0.00 0.01 0.00 0.00 0.00 0.00 0.00 0.00 0.00 0.00 0.00 0.00
0.00 0.00 0.00 0.06 0.01 0.00 0.02 0.02 0.00 0.00 0.01 0.10 0.04 0.00 0.00 0.00 0.00 0.00 0.00 0.00 0.00 0.00 0.00 0.00 0.00 0.00 0.00 0.00 0.00 0.00 0.00 0.00 0.00 0.00 0.00 0.00 0.01 0.01 0.00 0.00 0.00 0.00 0.00 0.00 0.00 0.00 0.00 0.00 0.01
0.00 0.00 0.00 0.08 0.03 0.01 0.00 0.00 0.00 0.00 0.00 0.00 0.00 0.00 0.00 0.00 0.00 0.00 0.00 0.00 0.00 0.00 0.00 0.00 0.00 0.00 0.00 0.00 0.00 0.00 0.00 0.00 0.00 0.00 0.00 0.00 0.00 0.00 0.00 0.00 0.00 0.00 0.00 0.00 0.00 0.01 0.01 0.03 0.04
0.00 0.00 0.00 0.00 0.00 0.00 0.00 0.00 0.00 0.00 0.00 0.00 0.00 0.00 0.00 0.00 0.00 0.00 0.00 0.00 0.00 0.00 0.00 0.00 0.00 0.00 0.00 0.00 0.00 0.00 0.00 0.00 0.00 0.00 0.00 0.00 0.00 0.00 0.00 0.00 0.00 0.00 0.00 0.00 0.01 0.01 0.03 0.04 0.05
0.00 0.00 0.00 0.00 0.00 0.00 0.00 0.00 0.00 0.00 0.00 0.00 0.00 0.00 0.00 0.00 0.00 0.00 0.00 0.00 0.00 0.00 0.00 0.00 0.00 0.00 0.00 0.00 0.00 0.00 0.00 0.00 0.00 0.00 0.00 0.00 0.00 0.00 0.00 0.00 0.00 0.00 0.00 0.00 0.01 0.01 0.02 0.04 0.04
0.00 0.00 0.00 0.00 0.00 0.00 0.00 0.00 0.00 0.00 0.00 0.00 0.00 0.00 0.00 0.00 0.00 0.00 0.00 0.00 0.00 0.00 0.00 0.00 0.00 0.00 0.00 0.00 0.00 0.00 0.00 0.00 0.00 0.00 0.00 0.00 0.00 0.00 0.00 0.00 0.00 0.00 0.00 0.00 0.01 0.03 0.04 0.04 0.03
0.00 0.00 0.00 0.00 0.00 0.00 0.00 0.00 0.00 0.00 0.00 0.00 0.00 0.00 0.00 0.00 0.00 0.00 0.00 0.00 0.00 0.00 0.00 0.00 0.00 0.00 0.00 0.00 0.00 0.00 0.00 0.00 0.00 0.00 0.00 0.00 0.01 0.01 0.00 0.00 0.00 0.00 0.00 0.01 0.03 0.02 0.01 0.01 0.01

GFSSGP_prec_precacc24_033.txt.gz
Total_Precipitation_Accumulation
0.00 0.00 0.00 0.00 0.00 0.00 0.00 0.00 0.00 0.10 0.09 0.04 0.06 0.09 0.11 0.11 0.24 0.38 0.34 0.38 0.18 0.25 0.04 0.06 0.15 0.01 0.00 0.00 0.00 0.00 0.00 0.00 0.00 0.00 0.00 0.00 0.00 0.00 0.00 0.00 0.00 0.00 0.00 0.00 0.00 0.00 0.00 0.00 0.00
0.00 0.00 0.00 0.00 0.00 0.00 0.00 0.00 0.02 0.08 0.12 0.09 0.09 0.09 0.11 0.18 0.18 0.38 0.37 0.38 0.27 0.14 0.01 0.04 0.15 0.07 0.03 0.04 0.05 0.00 0.00 0.00 0.00 0.00 0.00 0.00 0.00 0.00 0.00 0.00 0.00 0.00 0.00 0.00 0.00 0.00 0.00 0.00 0.00
0.00 0.00 0.00 0.00 0.00 0.00 0.00 0.02 0.03 0.02 0.03 0.03 0.03 0.05 0.14 0.30 0.35 0.52 0.31 0.38 0.30 0.09 0.06 0.08 0.11 0.17 0.17 0.17 0.11 0.00 0.00 0.00 0.00 0.00 0.00 0.00 0.00 0.00 0.00 0.00 0.00 0.00 0.00 0.00 0.00 0.00 0.00 0.00 0.00
0.00 0.00 0.00 0.00 0.00 0.00 0.00 0.01 0.10 0.02 0.04 0.06 0.03 0.05 0.10 0.17 0.22 0.19 0.17 0.38 0.53 0.53 0.29 0.12 0.12 0.36 0.39 0.29 0.10 0.00 0.00 0.00 0.00 0.00 0.00 0.00 0.00 0.00 0.00 0.00 0.00 0.00 0.00 0.00 0.00 0.00 0.00 0.00 0.00
0.00 0.00 0.00 0.00 0.00 0.00 0.00 0.00 0.01 0.03 0.08 0.08 0.05 0.02 0.05 0.04 0.09 0.20 0.46 0.57 1.13 0.99 0.68 0.12 0.28 0.58 0.46 0.27 0.04 0.00 0.00 0.00 0.00 0.00 0.00 0.00 0.00 0.00 0.00 0.00 0.00 0.00 0.00 0.00 0.00 0.00 0.00 0.00 0.00
0.00 0.00 0.00 0.00 0.00 0.00 0.01 0.01 0.01 0.07 0.19 0.19 0.12 0.22 0.15 0.12 0.21 0.27 0.95 1.09 1.53 0.82 1.01 0.47 0.57 0.65 0.57 0.14 0.00 0.00 0.00 0.00 0.00 0.00 0.00 0.00 0.00 0.00 0.00 0.00 0.00 0.00 0.00 0.00 0.00 0.00 0.00 0.00 0.00
0.00 0.00 0.00 0.00 0.00 0.00 0.00 0.06 0.17 0.24 0.10 0.03 0.01 0.15 0.17 0.10 0.16 0.23 0.62 1.25 1.56 1.66 1.54 1.73 0.86 0.47 0.23 0.01 0.00 0.00 0.00 0.00 0.00 0.00 0.00 0.00 0.00 0.00 0.00 0.00 0.00 0.00 0.00 0.00 0.00 0.00 0.00 0.00 0.00
0.00 0.00 0.00 0.00 0.00 0.01 0.07 0.12 0.12 0.10 0.09 0.08 0.03 0.20 0.15 0.12 0.09 0.45 0.64 0.84 1.01 2.32 1.93 1.57 1.25 0.37 0.03 0.00 0.00 0.00 0.00 0.00 0.00 0.00 0.00 0.00 0.00 0.00 0.00 0.00 0.00 0.00 0.00 0.00 0.00 0.00 0.00 0.00 0.00
0.00 0.00 0.00 0.00 0.01 0.03 0.08 0.09 0.16 0.18 0.03 0.02 0.02 0.08 0.17 0.30 0.20 0.47 0.76 1.40 1.80 1.86 1.78 2.13 1.35 0.36 0.02 0.00 0.00 0.00 0.00 0.00 0.00 0.00 0.00 0.00 0.00 0.00 0.00 0.00 0.00 0.00 0.00 0.00 0.00 0.00 0.00 0.00 0.00
0.00 0.00 0.00 0.00 0.01 0.08 0.25 0.29 0.26 0.12 0.11 0.06 0.09 0.26 0.25 0.18 0.17 0.22 0.69 0.95 1.50 1.25 1.65 1.02 0.51 0.16 0.04 0.00 0.00 0.00 0.00 0.00 0.00 0.00 0.00 0.02 0.00 0.00 0.00 0.00 0.00 0.00 0.00 0.00 0.00 0.00 0.00 0.00 0.00
0.00 0.00 0.00 0.00 0.00 0.06 0.09 0.02 0.01 0.04 0.08 0.11 0.24 0.40 0.31 0.16 0.21 0.23 0.32 0.66 0.60 0.38 0.17 0.11 0.16 0.01 0.00 0.00 0.00 0.00 0.00 0.00 0.01 0.04 0.05 0.05 0.02 0.02 0.02 0.04 0.00 0.00 0.00 0.00 0.00 0.00 0.00 0.00 0.00
0.00 0.00 0.00 0.00 0.00 0.01 0.00 0.00 0.00 0.05 0.43 0.21 0.35 0.15 0.25 0.16 0.16 0.21 0.27 0.24 0.11 0.09 0.02 0.01 0.01 0.00 0.00 0.00 0.00 0.00 0.00 0.02 0.08 0.09 0.05 0.05 0.05 0.05 0.01 0.01 0.00 0.00 0.00 0.00 0.00 0.00 0.00 0.00 0.00
0.00 0.00 0.00 0.00 0.02 0.01 0.01 0.00 0.01 0.05 0.01 0.07 0.09 0.06 0.09 0.11 0.08 0.10 0.12 0.11 0.00 0.01 0.01 0.02 0.00 0.00 0.00 0.00 0.00 0.01 0.03 0.07 0.11 0.05 0.04 0.03 0.01 0.02 0.01 0.00 0.00 0.00 0.00 0.00 0.00 0.00 0.00 0.00 0.00
0.00 0.00 0.00 0.00 0.01 0.01 0.01 0.01 0.03 0.06 0.04 0.03 0.02 0.03 0.02 0.03 0.02 0.03 0.01 0.00 0.00 0.00 0.05 0.07 0.01 0.00 0.00 0.00 0.03 0.04 0.11 0.10 0.08 0.08 0.18 0.13 0.02 0.00 0.00 0.00 0.00 0.00 0.00 0.00 0.00 0.00 0.00 0.00 0.00
0.00 0.00 0.00 0.00 0.00 0.00 0.02 0.01 0.01 0.01 0.02 0.00 0.00 0.00 0.00 0.02 0.01 0.01 0.00 0.00 0.00 0.00 0.00 0.21 0.14 0.02 0.00 0.02 0.10 0.22 0.22 0.08 0.02 0.13 0.24 0.11 0.01 0.00 0.00 0.00 0.00 0.00 0.00 0.00 0.00 0.00 0.00 0.00 0.00
0.00 0.00 0.00 0.00 0.00 0.00 0.01 0.01 0.02 0.01 0.00 0.00 0.00 0.00 0.00 0.01 0.00 0.00 0.00 0.01 0.01 0.00 0.14 0.56 0.30 0.11 0.10 0.13 0.25 0.55 0.35 0.10 0.05 0.08 0.09 0.03 0.01 0.01 0.00 0.00 0.00 0.00 0.00 0.00 0.00 0.00 0.00 0.00 0.00
0.00 0.00 0.00 0.00 0.00 0.00 0.00 0.00 0.00 0.00 0.00 0.00 0.00 0.00 0.00 0.00 0.00 0.00 0.02 0.02 0.02 0.03 0.28 0.67 0.51 0.35 0.55 0.95 1.18 0.67 0.09 0.02 0.01 0.02 0.03 0.02 0.01 0.00 0.00 0.00 0.00 0.00 0.00 0.00 0.00 0.00 0.00 0.00 0.00
0.00 0.00 0.00 0.00 0.00 0.00 0.00 0.00 0.00 0.00 0.00 0.00 0.00 0.00 0.01 0.00 0.00 0.02 0.08 0.06 0.03 0.07 0.45 0.68 0.60 0.86 1.21 1.06 0.32 0.07 0.01 0.01 0.01 0.02 0.01 0.00 0.00 0.00 0.00 0.00 0.00 0.00 0.00 0.00 0.00 0.00 0.00 0.00 0.00
0.00 0.00 0.00 0.00 0.00 0.00 0.00 0.00 0.00 0.00 0.00 0.00 0.00 0.00 0.01 0.00 0.01 0.05 0.07 0.10 0.10 0.18 0.53 0.65 0.71 0.57 0.27 0.09 0.06 0.04 0.04 0.04 0.02 0.00 0.00 0.00 0.00 0.00 0.00 0.00 0.00 0.00 0.00 0.00 0.00 0.00 0.00 0.00 0.00
0.00 0.00 0.00 0.00 0.00 0.00 0.00 0.00 0.00 0.00 0.00 0.00 0.00 0.00 0.00 0.00 0.00 0.01 0.02 0.07 0.22 0.42 0.44 0.32 0.23 0.12 0.09 0.07 0.07 0.05 0.03 0.01 0.00 0.00 0.00 0.00 0.00 0.00 0.00 0.00 0.00 0.00 0.00 0.00 0.00 0.00 0.00 0.00 0.00
0.00 0.00 0.00 0.00 0.00 0.00 0.00 0.00 0.00 0.00 0.00 0.00 0.00 0.00 0.00 0.01 0.03 0.05 0.08 0.12 0.12 0.09 0.05 0.06 0.09 0.05 0.09 0.06 0.01 0.00 0.00 0.00 0.00 0.00 0.00 0.00 0.00 0.00 0.00 0.00 0.00 0.00 0.00 0.00 0.00 0.00 0.00 0.00 0.00
0.00 0.00 0.00 0.00 0.00 0.00 0.00 0.00 0.02 0.01 0.00 0.00 0.00 0.00 0.01 0.02 0.02 0.02 0.01 0.00 0.00 0.04 0.06 0.08 0.04 0.01 0.01 0.00 0.00 0.00 0.00 0.00 0.00 0.00 0.00 0.00 0.00 0.00 0.00 0.00 0.00 0.00 0.00 0.00 0.00 0.00 0.00 0.00 0.00
0.00 0.00 0.00 0.00 0.00 0.06 0.02 0.00 0.02 0.02 0.00 0.00 0.00 0.00 0.00 0.00 0.00 0.01 0.00 0.01 0.00 0.00 0.03 0.03 0.01 0.01 0.00 0.00 0.00 0.00 0.00 0.00 0.00 0.00 0.00 0.00 0.00 0.00 0.00 0.00 0.00 0.00 0.00 0.00 0.00 0.00 0.00 0.00 0.00
0.00 0.00 0.00 0.00 0.00 0.01 0.01 0.01 0.01 0.00 0.01 0.03 0.02 0.00 0.00 0.00 0.04 0.03 0.00 0.00 0.01 0.01 0.00 0.01 0.00 0.00 0.00 0.00 0.00 0.00 0.00 0.00 0.00 0.00 0.00 0.00 0.00 0.00 0.01 0.00 0.00 0.00 0.00 0.00 0.00 0.00 0.00 0.00 0.00
0.00 0.00 0.00 0.06 0.01 0.00 0.00 0.00 0.00 0.00 0.02 0.11 0.07 0.00 0.00 0.00 0.03 0.00 0.00 0.00 0.00 0.00 0.00 0.00 0.00 0.00 0.00 0.00 0.00 0.00 0.00 0.00 0.00 0.00 0.00 0.00 0.01 0.01 0.00 0.00 0.00 0.00 0.00 0.00 0.00 0.00 0.00 0.00 0.01
0.00 0.00 0.00 0.09 0.05 0.00 0.01 0.01 0.00 0.00 0.00 0.00 0.00 0.00 0.00 0.00 0.00 0.00 0.00 0.00 0.00 0.00 0.00 0.00 0.00 0.00 0.00 0.00 0.00 0.00 0.00 0.00 0.00 0.00 0.00 0.00 0.00 0.00 0.00 0.00 0.00 0.00 0.00 0.00 0.00 0.01 0.01 0.03 0.04
0.00 0.00 0.00 0.00 0.01 0.00 0.00 0.00 0.00 0.00 0.00 0.00 0.00 0.00 0.00 0.00 0.00 0.00 0.00 0.00 0.00 0.00 0.00 0.00 0.00 0.00 0.00 0.00 0.00 0.00 0.00 0.00 0.00 0.00 0.00 0.00 0.00 0.00 0.00 0.00 0.00 0.00 0.00 0.00 0.01 0.01 0.03 0.04 0.05
0.00 0.00 0.00 0.00 0.00 0.00 0.00 0.00 0.00 0.01 0.00 0.00 0.00 0.00 0.00 0.00 0.00 0.00 0.00 0.00 0.00 0.00 0.00 0.00 0.00 0.00 0.00 0.00 0.00 0.00 0.00 0.00 0.00 0.00 0.00 0.00 0.00 0.00 0.00 0.00 0.00 0.00 0.00 0.00 0.01 0.01 0.02 0.04 0.04
0.00 0.00 0.00 0.00 0.00 0.00 0.00 0.00 0.00 0.00 0.00 0.00 0.00 0.00 0.00 0.00 0.00 0.00 0.00 0.00 0.00 0.00 0.00 0.00 0.00 0.00 0.00 0.00 0.00 0.00 0.00 0.00 0.00 0.00 0.00 0.00 0.00 0.00 0.00 0.00 0.00 0.00 0.00 0.00 0.01 0.03 0.04 0.03 0.03
0.00 0.00 0.01 0.00 0.00 0.00 0.00 0.00 0.00 0.00 0.00 0.00 0.00 0.00 0.00 0.00 0.00 0.00 0.00 0.00 0.00 0.00 0.00 0.00 0.00 0.00 0.00 0.00 0.00 0.00 0.00 0.00 0.00 0.00 0.00 0.00 0.01 0.01 0.00 0.00 0.00 0.00 0.00 0.01 0.03 0.02 0.01 0.01 0.00

GFSSGP_prec_precacc24_036.txt.gz
Total_Precipitation_Accumulation
0.00 0.00 0.00 0.00 0.00 0.00 0.00 0.00 0.00 0.10 0.09 0.04 0.06 0.09 0.11 0.11 0.24 0.38 0.34 0.43 0.19 0.25 0.04 0.06 0.15 0.01 0.00 0.00 0.00 0.00 0.00 0.00 0.00 0.00 0.00 0.00 0.00 0.00 0.00 0.00 0.00 0.00 0.00 0.00 0.00 0.00 0.00 0.00 0.00
0.00 0.00 0.00 0.00 0.00 0.00 0.00 0.00 0.02 0.08 0.12 0.09 0.09 0.09 0.11 0.18 0.18 0.38 0.37 0.42 0.28 0.14 0.02 0.05 0.15 0.08 0.03 0.04 0.05 0.00 0.00 0.00 0.00 0.00 0.00 0.00 0.00 0.00 0.00 0.00 0.00 0.00 0.00 0.00 0.00 0.00 0.00 0.00 0.00
0.00 0.00 0.00 0.00 0.00 0.00 0.00 0.02 0.03 0.02 0.03 0.03 0.03 0.05 0.14 0.30 0.35 0.52 0.35 0.50 0.33 0.09 0.06 0.08 0.12 0.19 0.20 0.18 0.11 0.00 0.00 0.00 0.00 0.00 0.00 0.00 0.00 0.00 0.00 0.00 0.00 0.00 0.00 0.00 0.00 0.00 0.00 0.00 0.00
0.00 0.00 0.00 0.00 0.00 0.00 0.00 0.01 0.10 0.02 0.04 0.06 0.03 0.05 0.10 0.18 0.22 0.19 0.21 0.45 0.57 0.53 0.29 0.12 0.13 0.42 0.45 0.30 0.10 0.00 0.00 0.00 0.00 0.00 0.00 0.00 0.00 0.00 0.00 0.00 0.00 0.00 0.00 0.00 0.00 0.00 0.00 0.00 0.00
0.00 0.00 0.00 0.00 0.00 0.00 0.00 0.00 0.01 0.05 0.09 0.08 0.07 0.03 0.05 0.05 0.11 0.26 0.51 0.61 1.16 1.00 0.68 0.13 0.29 0.64 0.52 0.27 0.04 0.00 0.00 0.00 0.00 0.00 0.00 0.00 0.00 0.00 0.00 0.00 0.00 0.00 0.00 0.00 0.00 0.00 0.00 0.00 0.00
0.00 0.00 0.00 0.00 0.00 0.00 0.02 0.02 0.05 0.16 0.24 0.22 0.13 0.23 0.15 0.18 0.26 0.40 1.14 1.31 1.66 0.91 1.05 0.52 0.69 0.77 0.62 0.14 0.00 0.00 0.00 0.00 0.00 0.00 0.00 0.00 0.00 0.00 0.00 0.00 0.00 0.00 0.00 0.00 0.00 0.00 0.00 0.00 0.00
0.00 0.00 0.00 0.00 0.00 0.00 0.01 0.10 0.28 0.34 0.14 0.04 0.02 0.16 0.17 0.19 0.22 0.28 0.88 2.62 2.79 2.78 2.21 1.94 1.05 0.63 0.28 0.01 0.00 0.00 0.00 0.00 0.00 0.00 0.00 0.00 0.00 0.00 0.00 0.00 0.00 0.00 0.00 0.00 0.00 0.00 0.00 0.00 0.00
0.00 0.00 0.00 0.00 0.00 0.01 0.08 0.16 0.16 0.16 0.11 0.10 0.05 0.25 0.17 0.21 0.20 0.49 0.78 1.90 2.34 4.15 3.63 2.29 1.55 0.57 0.08 0.01 0.00 0.00 0.00 0.00 0.00 0.00 0.00 0.00 0.00 0.00 0.00 0.00 0.00 0.00 0.00 0.00 0.00 0.00 0.00 0.00 0.00
0.00 0.00 0.00 0.00 0.01 0.04 0.08 0.11 0.18 0.19 0.03 0.03 0.05 0.13 0.26 0.47 0.38 0.50 0.80 1.56 2.48 2.67 2.54 2.59 1.65 0.55 0.04 0.00 0.00 0.00 0.00 0.00 0.00 0.00 0.00 0.00 0.00 0.00 0.00 0.00 0.00 0.00 0.00 0.00 0.00 0.00 0.00 0.00 0.00
0.00 0.00 0.00 0.00 0.01 0.08 0.25 0.29 0.26 0.12 0.12 0.07 0.16 0.40 0.48 0.40 0.34 0.27 0.70 1.09 1.70 1.50 1.87 1.20 0.60 0.19 0.04 0.00 0.00 0.00 0.00 0.00 0.00 0.00 0.00 0.02 0.00 0.00 0.00 0.00 0.00 0.00 0.00 0.00 0.00 0.00 0.00 0.00 0.00
0.00 0.00 0.00 0.00 0.01 0.08 0.09 0.02 0.01 0.04 0.08 0.12 0.26 0.53 0.50 0.33 0.29 0.24 0.32 0.68 0.64 0.40 0.20 0.13 0.17 0.01 0.00 0.00 0.00 0.00 0.00 0.00 0.01 0.04 0.05 0.05 0.02 0.02 0.02 0.04 0.00 0.00 0.00 0.00 0.00 0.00 0.00 0.00 0.00
0.00 0.00 0.00 0.00 0.00 0.01 0.01 0.01 0.00 0.05 0.43 0.22 0.35 0.15 0.26 0.21 0.18 0.22 0.27 0.24 0.11 0.09 0.02 0.01 0.02 0.00 0.00 0.00 0.00 0.00 0.00 0.02 0.08 0.09 0.05 0.06 0.05 0.05 0.01 0.01 0.00 0.00 0.00 0.00 0.00 0.00 0.00 0.00 0.00
0.00 0.00 0.00 0.00 0.03 0.02 0.07 0.03 0.01 0.05 0.01 0.08 0.12 0.07 0.09 0.13 0.10 0.11 0.12 0.11 0.00 0.01 0.00 0.00 0.00 0.00 0.00 0.00 0.00 0.01 0.03 0.07 0.11 0.05 0.04 0.03 0.01 0.02 0.01 0.00 0.00 0.00 0.00 0.00 0.00 0.00 0.00 0.00 0.00
0.00 0.00 0.00 0.00 0.02 0.01 0.04 0.02 0.03 0.06 0.04 0.03 0.04 0.05 0.03 0.05 0.02 0.03 0.01 0.00 0.00 0.00 0.00 0.00 0.00 0.00 0.00 0.00 0.03 0.04 0.11 0.10 0.08 0.08 0.18 0.13 0.02 0.00 0.00 0.00 0.00 0.00 0.00 0.00 0.00 0.00 0.00 0.00 0.00
0.00 0.00 0.00 0.00 0.00 0.00 0.03 0.01 0.01 0.01 0.02 0.00 0.00 0.00 0.02 0.08 0.03 0.01 0.00 0.00 0.00 0.00 0.00 0.20 0.10 0.01 0.00 0.01 0.10 0.22 0.22 0.08 0.02 0.13 0.24 0.11 0.01 0.00 0.00 0.00 0.00 0.00 0.00 0.00 0.00 0.00 0.00 0.00 0.00
0.00 0.00 0.00 0.00 0.00 0.00 0.01 0.01 0.03 0.01 0.00 0.00 0.00 0.00 0.03 0.04 0.02 0.01 0.00 0.01 0.01 0.00 0.13 0.53 0.27 0.11 0.10 0.12 0.25 0.55 0.35 0.10 0.05 0.08 0.09 0.03 0.01 0.01 0.00 0.00 0.00 0.00 0.00 0.00 0.00 0.00 0.00 0.00 0.00
0.00 0.00 0.00 0.00 0.00 0.00 0.00 0.00 0.00 0.00 0.00 0.00 0.00 0.00 0.00 0.00 0.02 0.00 0.02 0.02 0.02 0.03 0.27 0.60 0.42 0.33 0.52 0.93 1.15 0.66 0.09 0.02 0.01 0.02 0.03 0.02 0.01 0.00 0.00 0.00 0.00 0.00 0.00 0.00 0.00 0.00 0.00 0.00 0.00
0.00 0.00 0.00 0.00 0.00 0.00 0.00 0.00 0.00 0.00 0.00 0.00 0.00 0.00 0.01 0.00 0.00 0.01 0.07 0.06 0.03 0.05 0.35 0.55 0.55 0.83 1.19 1.03 0.31 0.05 0.01 0.01 0.01 0.02 0.01 0.00 0.00 0.00 0.00 0.00 0.00 0.00 0.00 0.00 0.00 0.00 0.00 0.00 0.00
0.00 0.00 0.00 0.00 0.00 0.00 0.00 0.00 0.00 0.00 0.00 0.00 0.00 0.00 0.01 0.00 0.01 0.04 0.06 0.09 0.10 0.14 0.46 0.60 0.68 0.55 0.26 0.08 0.03 0.02 0.04 0.04 0.02 0.00 0.00 0.00 0.00 0.00 0.00 0.00 0.00 0.00 0.00 0.00 0.00 0.00 0.00 0.00 0.00
0.00 0.00 0.00 0.00 0.00 0.00 0.00 0.00 0.00 0.00 0.00 0.00 0.00 0.00 0.00 0.00 0.00 0.01 0.01 0.05 0.19 0.37 0.36 0.24 0.20 0.12 0.09 0.06 0.06 0.04 0.03 0.01 0.00 0.00 0.00 0.00 0.00 0.00 0.00 0.00 0.00 0.00 0.00 0.00 0.00 0.00 0.00 0.00 0.00
0.00 0.00 0.00 0.00 0.00 0.00 0.00 0.00 0.00 0.00 0.00 0.00 0.00 0.00 0.00 0.00 0.02 0.04 0.06 0.08 0.10 0.05 0.02 0.06 0.11 0.06 0.09 0.05 0.01 0.00 0.00 0.00 0.00 0.00 0.00 0.00 0.00 0.00 0.00 0.00 0.00 0.00 0.00 0.00 0.00 0.00 0.00 0.00 0.00
0.00 0.00 0.00 0.00 0.00 0.00 0.00 0.00 0.02 0.01 0.00 0.00 0.00 0.00 0.01 0.02 0.02 0.02 0.01 0.01 0.00 0.04 0.08 0.12 0.08 0.03 0.02 0.00 0.00 0.00 0.00 0.00 0.00 0.00 0.00 0.00 0.00 0.00 0.00 0.00 0.00 0.00 0.00 0.00 0.00 0.00 0.00 0.00 0.00
0.00 0.00 0.00 0.00 0.00 0.06 0.02 0.00 0.02 0.02 0.00 0.00 0.00 0.00 0.00 0.00 0.00 0.01 0.00 0.02 0.04 0.04 0.08 0.08 0.04 0.02 0.00 0.00 0.00 0.00 0.00 0.00 0.00 0.00 0.00 0.00 0.00 0.00 0.00 0.00 0.00 0.00 0.00 0.00 0.00 0.00 0.00 0.00 0.00
0.00 0.00 0.00 0.00 0.00 0.01 0.01 0.01 0.01 0.00 0.01 0.03 0.02 0.00 0.00 0.01 0.06 0.03 0.00 0.01 0.03 0.05 0.15 0.08 0.03 0.01 0.00 0.00 0.00 0.00 0.00 0.00 0.00 0.00 0.00 0.00 0.00 0.00 0.01 0.00 0.00 0.00 0.00 0.00 0.00 0.00 0.00 0.00 0.00
0.00 0.00 0.00 0.06 0.01 0.00 0.00 0.01 0.00 0.00 0.02 0.11 0.07 0.00 0.00 0.00 0.03 0.01 0.01 0.00 0.00 0.04 0.08 0.04 0.01 0.00 0.00 0.00 0.00 0.00 0.00 0.00 0.00 0.00 0.00 0.00 0.01 0.01 0.00 0.00 0.00 0.00 0.00 0.00 0.00 0.00 0.00 0.00 0.01
0.00 0.00 0.00 0.09 0.05 0.00 0.01 0.01 0.00 0.00 0.00 0.00 0.00 0.00 0.00 0.00 0.00 0.00 0.01 0.00 0.00 0.04 0.02 0.02 0.00 0.00 0.00 0.00 0.00 0.00 0.00 0.00 0.00 0.00 0.00 0.00 0.00 0.00 0.00 0.00 0.00 0.00 0.00 0.00 0.00 0.01 0.01 0.03 0.04
0.00 0.00 0.00 0.00 0.01 0.00 0.00 0.00 0.00 0.00 0.00 0.00 0.00 0.00 0.00 0.00 0.00 0.00 0.00 0.00 0.00 0.03 0.00 0.00 0.00 0.00 0.00 0.00 0.00 0.00 0.00 0.00 0.00 0.00 0.00 0.00 0.00 0.00 0.00 0.00 0.00 0.00 0.00 0.00 0.01 0.01 0.03 0.04 0.05
0.00 0.00 0.00 0.00 0.00 0.00 0.00 0.00 0.00 0.01 0.00 0.00 0.00 0.00 0.00 0.00 0.00 0.00 0.00 0.00 0.00 0.00 0.00 0.00 0.00 0.00 0.00 0.00 0.00 0.00 0.00 0.00 0.00 0.00 0.00 0.00 0.00 0.00 0.00 0.00 0.00 0.00 0.00 0.00 0.01 0.01 0.02 0.04 0.04
0.00 0.00 0.00 0.00 0.00 0.00 0.00 0.00 0.00 0.00 0.00 0.00 0.00 0.00 0.00 0.00 0.00 0.00 0.00 0.00 0.00 0.00 0.00 0.00 0.00 0.00 0.00 0.00 0.00 0.00 0.00 0.00 0.00 0.00 0.00 0.00 0.00 0.00 0.00 0.00 0.00 0.00 0.00 0.00 0.01 0.03 0.04 0.03 0.02
0.00 0.00 0.01 0.00 0.00 0.00 0.00 0.00 0.00 0.00 0.00 0.00 0.00 0.00 0.00 0.00 0.00 0.00 0.00 0.00 0.00 0.00 0.00 0.00 0.00 0.00 0.00 0.00 0.00 0.00 0.00 0.00 0.00 0.00 0.00 0.00 0.00 0.01 0.00 0.00 0.00 0.00 0.00 0.01 0.03 0.02 0.01 0.01 0.00

GFSSGP_prec_precacc24_039.txt.gz
Total_Precipitation_Accumulation
0.00 0.00 0.00 0.00 0.00 0.00 0.00 0.00 0.00 0.10 0.09 0.04 0.04 0.07 0.09 0.10 0.23 0.36 0.35 0.45 0.19 0.26 0.05 0.06 0.15 0.01 0.00 0.00 0.00 0.00 0.00 0.00 0.00 0.00 0.00 0.00 0.00 0.00 0.00 0.00 0.00 0.00 0.00 0.00 0.00 0.00 0.00 0.00 0.00
0.00 0.00 0.00 0.00 0.00 0.00 0.00 0.00 0.02 0.08 0.12 0.10 0.09 0.09 0.10 0.16 0.17 0.36 0.36 0.42 0.29 0.15 0.03 0.05 0.15 0.08 0.03 0.04 0.05 0.00 0.00 0.00 0.00 0.00 0.00 0.00 0.00 0.00 0.00 0.00 0.00 0.00 0.00 0.00 0.00 0.00 0.00 0.00 0.00
0.00 0.00 0.00 0.00 0.00 0.00 0.00 0.02 0.04 0.04 0.08 0.08 0.05 0.05 0.12 0.28 0.30 0.50 0.35 0.51 0.35 0.11 0.07 0.09 0.12 0.19 0.20 0.18 0.11 0.00 0.00 0.00 0.00 0.00 0.00 0.00 0.00 0.00 0.00 0.00 0.00 0.00 0.00 0.00 0.00 0.00 0.00 0.00 0.00
0.00 0.00 0.00 0.00 0.00 0.00 0.00 0.01 0.10 0.03 0.08 0.11 0.06 0.06 0.11 0.22 0.22 0.20 0.22 0.49 0.61 0.54 0.30 0.15 0.15 0.42 0.45 0.30 0.10 0.00 0.00 0.00 0.00 0.00 0.00 0.00 0.00 0.00 0.00 0.00 0.00 0.00 0.00 0.00 0.00 0.00 0.00 0.00 0.00
0.00 0.00 0.00 0.00 0.00 0.00 0.00 0.00 0.01 0.06 0.14 0.13 0.10 0.03 0.06 0.08 0.10 0.25 0.53 0.65 1.21 1.06 0.76 0.22 0.36 0.64 0.52 0.27 0.04 0.00 0.00 0.00 0.00 0.00 0.00 0.00 0.00 0.00 0.00 0.00 0.00 0.00 0.00 0.00 0.00 0.00 0.00 0.00 0.00
0.00 0.00 0.00 0.00 0.00 0.00 0.02 0.02 0.06 0.19 0.28 0.28 0.15 0.23 0.16 0.19 0.19 0.40 1.16 1.45 1.84 1.11 1.19 0.71 0.88 0.83 0.62 0.14 0.00 0.00 0.00 0.00 0.00 0.00 0.00 0.00 0.00 0.00 0.00 0.00 0.00 0.00 0.00 0.00 0.00 0.00 0.00 0.00 0.00
0.00 0.00 0.00 0.00 0.00 0.00 0.01 0.10 0.29 0.38 0.18 0.06 0.04 0.15 0.19 0.28 0.21 0.28 0.90 3.07 3.77 3.71 3.46 2.77 1.37 0.69 0.29 0.01 0.00 0.00 0.00 0.00 0.00 0.00 0.00 0.00 0.00 0.00 0.00 0.00 0.00 0.00 0.00 0.00 0.00 0.00 0.00 0.00 0.00
0.00 0.00 0.00 0.00 0.00 0.02 0.08 0.17 0.18 0.18 0.13 0.11 0.05 0.25 0.20 0.32 0.28 0.57 0.85 2.37 3.61 5.80 5.16 3.62 2.07 0.60 0.08 0.01 0.00 0.00 0.00 0.00 0.00 0.00 0.00 0.00 0.00 0.00 0.00 0.00 0.00 0.00 0.00 0.00 0.00 0.00 0.00 0.00 0.00
0.00 0.00 0.00 0.00 0.01 0.04 0.09 0.13 0.19 0.19 0.03 0.03 0.05 0.13 0.29 0.55 0.49 0.58 0.83 1.62 3.03 3.39 3.13 2.94 1.84 0.63 0.07 0.01 0.00 0.00 0.00 0.00 0.00 0.00 0.00 0.00 0.00 0.00 0.00 0.00 0.00 0.00 0.00 0.00 0.00 0.00 0.00 0.00 0.00
0.00 0.00 0.00 0.00 0.01 0.08 0.25 0.29 0.26 0.12 0.12 0.08 0.17 0.41 0.53 0.46 0.44 0.36 0.74 1.09 1.72 1.68 2.18 1.38 0.70 0.23 0.05 0.00 0.00 0.00 0.00 0.00 0.00 0.00 0.00 0.02 0.00 0.00 0.00 0.00 0.00 0.00 0.00 0.00 0.00 0.00 0.00 0.00 0.00
0.00 0.00 0.00 0.00 0.01 0.08 0.09 0.02 0.01 0.04 0.08 0.15 0.29 0.55 0.52 0.37 0.32 0.25 0.32 0.68 0.64 0.41 0.29 0.19 0.18 0.01 0.00 0.00 0.00 0.00 0.00 0.00 0.01 0.04 0.05 0.05 0.02 0.02 0.02 0.04 0.00 0.00 0.00 0.00 0.00 0.00 0.00 0.00 0.00
0.00 0.00 0.00 0.00 0.00 0.01 0.01 0.01 0.00 0.05 0.43 0.25 0.37 0.15 0.26 0.21 0.20 0.22 0.27 0.24 0.11 0.09 0.02 0.01 0.02 0.00 0.00 0.00 0.00 0.00 0.00 0.02 0.08 0.09 0.05 0.06 0.05 0.05 0.01 0.01 0.00 0.00 0.00 0.00 0.00 0.00 0.00 0.00 0.00
0.00 0.00 0.00 0.00 0.03 0.02 0.07 0.04 0.01 0.05 0.01 0.12 0.13 0.07 0.09 0.13 0.10 0.11 0.12 0.11 0.00 0.01 0.00 0.00 0.01 0.00 0.00 0.00 0.00 0.01 0.03 0.07 0.11 0.05 0.04 0.03 0.01 0.02 0.01 0.00 0.00 0.00 0.00 0.00 0.00 0.00 0.00 0.00 0.00
0.00 0.00 0.00 0.00 0.02 0.01 0.04 0.02 0.03 0.06 0.04 0.03 0.04 0.05 0.03 0.05 0.02 0.03 0.01 0.00 0.00 0.00 0.00 0.00 0.00 0.00 0.00 0.00 0.03 0.04 0.11 0.10 0.08 0.08 0.18 0.13 0.02 0.00 0.00 0.00 0.00 0.00 0.00 0.00 0.00 0.00 0.00 0.00 0.00
0.00 0.00 0.00 0.00 0.00 0.01 0.03 0.01 0.01 0.01 0.02 0.00 0.00 0.00 0.02 0.08 0.03 0.01 0.00 0.00 0.00 0.00 0.00 0.16 0.08 0.01 0.00 0.01 0.10 0.22 0.22 0.08 0.03 0.13 0.24 0.11 0.01 0.00 0.00 0.00 0.00 0.00 0.00 0.00 0.00 0.00 0.00 0.00 0.00
0.00 0.00 0.00 0.00 0.00 0.00 0.01 0.01 0.03 0.01 0.00 0.00 0.00 0.00 0.03 0.04 0.02 0.01 0.00 0.01 0.01 0.00 0.05 0.34 0.20 0.10 0.09 0.09 0.20 0.51 0.35 0.11 0.05 0.08 0.09 0.03 0.01 0.01 0.00 0.00 0.00 0.00 0.00 0.00 0.00 0.00 0.00 0.00 0.00
0.00 0.00 0.00 0.00 0.00 0.00 0.00 0.00 0.01 0.02 0.00 0.00 0.00 0.00 0.00 0.00 0.02 0.00 0.01 0.01 0.02 0.02 0.11 0.33 0.25 0.23 0.43 0.82 1.04 0.61 0.09 0.02 0.01 0.02 0.03 0.02 0.01 0.00 0.00 0.00 0.00 0.00 0.00 0.00 0.00 0.00 0.00 0.00 0.00
0.00 0.00 0.00 0.00 0.00 0.00 0.00 0.00 0.00 0.01 0.00 0.00 0.00 0.00 0.01 0.00 0.00 0.01 0.04 0.04 0.03 0.02 0.11 0.26 0.31 0.67 1.12 0.93 0.25 0.05 0.01 0.01 0.01 0.02 0.01 0.00 0.00 0.00 0.00 0.00 0.00 0.00 0.00 0.00 0.00 0.00 0.00 0.00 0.00
0.00 0.00 0.00 0.00 0.00 0.00 0.00 0.00 0.00 0.00 0.00 0.00 0.00 0.00 0.01 0.00 0.01 0.04 0.06 0.08 0.08 0.03 0.24 0.36 0.52 0.47 0.23 0.06 0.02 0.01 0.02 0.03 0.02 0.00 0.00 0.00 0.00 0.00 0.00 0.00 0.00 0.00 0.00 0.00 0.00 0.00 0.00 0.00 0.00
0.00 0.00 0.00 0.00 0.00 0.00 0.00 0.00 0.00 0.00 0.00 0.00 0.00 0.00 0.00 0.00 0.00 0.00 0.01 0.05 0.12 0.19 0.24 0.22 0.17 0.10 0.09 0.05 0.04 0.02 0.02 0.00 0.00 0.00 0.00 0.00 0.00 0.00 0.00 0.00 0.00 0.00 0.00 0.00 0.00 0.00 0.00 0.00 0.00
0.00 0.00 0.00 0.00 0.00 0.00 0.00 0.00 0.00 0.00 0.00 0.00 0.00 0.02 0.00 0.00 0.01 0.02 0.03 0.05 0.07 0.02 0.02 0.07 0.13 0.07 0.09 0.04 0.01 0.00 0.00 0.00 0.00 0.00 0.00 0.00 0.00 0.00 0.00 0.00 0.00 0.00 0.00 0.00 0.00 0.00 0.00 0.00 0.00
0.00 0.00 0.00 0.00 0.00 0.00 0.00 0.00 0.02 0.01 0.00 0.00 0.00 0.01 0.01 0.01 0.02 0.01 0.00 0.01 0.00 0.04 0.08 0.12 0.10 0.09 0.03 0.01 0.00 0.00 0.00 0.00 0.00 0.00 0.00 0.00 0.00 0.00 0.00 0.00 0.00 0.00 0.00 0.00 0.00 0.00 0.00 0.00 0.00
0.00 0.00 0.00 0.00 0.00 0.06 0.02 0.00 0.02 0.02 0.00 0.00 0.00 0.00 0.01 0.00 0.00 0.02 0.01 0.03 0.05 0.04 0.08 0.09 0.10 0.10 0.03 0.01 0.00 0.01 0.00 0.00 0.00 0.00 0.00 0.00 0.00 0.00 0.00 0.00 0.00 0.00 0.00 0.00 0.00 0.00 0.00 0.00 0.00
0.00 0.00 0.00 0.00 0.00 0.01 0.01 0.01 0.01 0.00 0.01 0.03 0.02 0.00 0.00 0.01 0.08 0.06 0.04 0.06 0.06 0.07 0.20 0.11 0.10 0.06 0.02 0.02 0.00 0.02 0.01 0.00 0.00 0.00 0.00 0.00 0.00 0.00 0.00 0.00 0.00 0.00 0.00 0.00 0.00 0.00 0.00 0.00 0.00
0.00 0.00 0.00 0.06 0.01 0.00 0.00 0.01 0.00 0.00 0.02 0.11 0.07 0.00 0.00 0.01 0.04 0.02 0.02 0.05 0.05 0.09 0.20 0.10 0.04 0.04 0.03 0.01 0.00 0.00 0.03 0.03 0.03 0.00 0.00 0.00 0.00 0.00 0.00 0.00 0.00 0.00 0.00 0.00 0.00 0.00 0.00 0.00 0.01
0.00 0.00 0.00 0.09 0.05 0.00 0.01 0.01 0.00 0.00 0.00 0.00 0.00 0.00 0.00 0.00 0.00 0.01 0.02 0.03 0.05 0.16 0.17 0.08 0.02 0.02 0.02 0.00 0.00 0.00 0.01 0.03 0.04 0.01 0.00 0.00 0.00 0.00 0.00 0.00 0.00 0.00 0.00 0.00 0.00 0.01 0.01 0.03 0.04
0.00 0.00 0.00 0.00 0.01 0.00 0.00 0.00 0.00 0.00 0.00 0.00 0.00 0.00 0.00 0.00 0.00 0.00 0.00 0.00 0.01 0.17 0.13 0.03 0.01 0.01 0.01 0.00 0.00 0.00 0.01 0.02 0.06 0.02 0.01 0.00 0.00 0.00 0.00 0.00 0.00 0.00 0.00 0.00 0.01 0.01 0.03 0.04 0.05
0.00 0.00 0.00 0.00 0.00 0.00 0.00 0.00 0.00 0.01 0.00 0.00 0.00 0.00 0.00 0.00 0.00 0.00 0.00 0.00 0.00 0.03 0.01 0.00 0.00 0.00 0.00 0.00 0.00 0.02 0.02 0.02 0.02 0.01 0.00 0.00 0.00 0.00 0.00 0.00 0.00 0.00 0.00 0.00 0.01 0.01 0.02 0.04 0.04
0.00 0.00 0.00 0.00 0.00 0.00 0.00 0.00 0.00 0.00 0.00 0.00 0.00 0.00 0.00 0.00 0.00 0.00 0.00 0.00 0.00 0.00 0.00 0.00 0.00 0.00 0.00 0.00 0.00 0.01 0.01 0.01 0.00 0.00 0.00 0.00 0.00 0.00 0.00 0.00 0.00 0.00 0.00 0.00 0.01 0.03 0.04 0.03 0.02
0.00 0.00 0.01 0.00 0.00 0.00 0.00 0.00 0.00 0.00 0.00 0.00 0.00 0.00 0.00 0.00 0.00 0.00 0.00 0.00 0.00 0.00 0.00 0.00 0.00 0.00 0.00 0.01 0.01 0.02 0.02 0.01 0.00 0.00 0.00 0.00 0.00 0.00 0.00 0.00 0.00 0.00 0.00 0.01 0.03 0.02 0.01 0.01 0.00

GFSSGP_prec_precacc24_042.txt.gz
Total_Precipitation_Accumulation
0.00 0.00 0.00 0.00 0.00 0.00 0.00 0.00 0.00 0.10 0.07 0.02 0.02 0.03 0.06 0.11 0.22 0.34 0.33 0.46 0.19 0.26 0.06 0.06 0.15 0.01 0.00 0.00 0.00 0.00 0.00 0.00 0.00 0.00 0.00 0.00 0.00 0.00 0.00 0.00 0.00 0.00 0.00 0.00 0.00 0.00 0.00 0.00 0.00
0.00 0.00 0.00 0.00 0.00 0.00 0.00 0.00 0.02 0.08 0.13 0.12 0.09 0.08 0.07 0.07 0.19 0.29 0.33 0.44 0.24 0.16 0.04 0.05 0.15 0.08 0.03 0.04 0.05 0.00 0.00 0.00 0.00 0.00 0.00 0.00 0.00 0.00 0.00 0.00 0.00 0.00 0.00 0.00 0.00 0.00 0.00 0.00 0.00
0.00 0.00 0.00 0.00 0.00 0.00 0.00 0.02 0.04 0.07 0.13 0.10 0.07 0.05 0.11 0.16 0.23 0.38 0.34 0.55 0.41 0.14 0.07 0.08 0.12 0.19 0.20 0.18 0.11 0.00 0.00 0.00 0.00 0.00 0.00 0.00 0.00 0.00 0.00 0.00 0.00 0.00 0.00 0.00 0.00 0.00 0.00 0.00 0.00
0.00 0.00 0.00 0.00 0.00 0.00 0.00 0.01 0.10 0.03 0.09 0.11 0.06 0.04 0.08 0.15 0.14 0.13 0.23 0.64 0.78 0.59 0.29 0.17 0.19 0.42 0.45 0.30 0.10 0.00 0.00 0.00 0.00 0.00 0.00 0.00 0.00 0.00 0.00 0.00 0.00 0.00 0.00 0.00 0.00 0.00 0.00 0.00 0.00
0.00 0.00 0.00 0.00 0.00 0.00 0.00 0.00 0.01 0.06 0.14 0.13 0.11 0.04 0.07 0.08 0.10 0.23 0.56 0.89 1.45 1.29 0.92 0.36 0.47 0.64 0.52 0.27 0.04 0.00 0.00 0.00 0.00 0.00 0.00 0.00 0.00 0.00 0.00 0.00 0.00 0.00 0.00 0.00 0.00 0.00 0.00 0.00 0.00
0.00 0.00 0.00 0.00 0.00 0.00 0.02 0.02 0.06 0.19 0.28 0.29 0.17 0.22 0.16 0.18 0.16 0.39 1.20 1.60 2.00 1.50 1.69 0.95 1.08 0.95 0.63 0.14 0.00 0.00 0.00 0.00 0.00 0.00 0.00 0.00 0.00 0.00 0.00 0.00 0.00 0.00 0.00 0.00 0.00 0.00 0.00 0.00 0.00
0.00 0.00 0.00 0.00 0.00 0.00 0.01 0.10 0.29 0.42 0.21 0.11 0.04 0.15 0.21 0.35 0.21 0.29 0.92 3.07 3.82 4.24 4.39 3.62 1.94 0.94 0.34 0.01 0.00 0.00 0.00 0.00 0.00 0.00 0.00 0.00 0.00 0.00 0.00 0.00 0.00 0.00 0.00 0.00 0.00 0.00 0.00 0.00 0.00
0.00 0.00 0.00 0.00 0.00 0.02 0.08 0.17 0.18 0.19 0.20 0.14 0.06 0.25 0.23 0.40 0.32 0.58 0.87 2.37 3.69 6.69 6.35 4.33 2.39 0.80 0.10 0.01 0.00 0.00 0.00 0.00 0.00 0.00 0.00 0.00 0.00 0.00 0.00 0.00 0.00 0.00 0.00 0.00 0.00 0.00 0.00 0.00 0.00
0.00 0.00 0.00 0.00 0.01 0.04 0.09 0.13 0.19 0.21 0.04 0.03 0.05 0.14 0.32 0.62 0.54 0.59 0.82 1.62 3.14 3.85 3.91 3.92 2.18 0.66 0.08 0.01 0.00 0.00 0.00 0.00 0.00 0.00 0.00 0.00 0.00 0.00 0.00 0.00 0.00 0.00 0.00 0.00 0.00 0.00 0.00 0.00 0.00
0.00 0.00 0.00 0.00 0.01 0.08 0.25 0.29 0.27 0.13 0.12 0.08 0.18 0.43 0.59 0.51 0.48 0.38 0.74 1.09 1.73 1.81 2.47 1.68 0.87 0.28 0.08 0.02 0.00 0.00 0.00 0.00 0.00 0.00 0.00 0.02 0.00 0.00 0.00 0.00 0.00 0.00 0.00 0.00 0.00 0.00 0.00 0.00 0.00
0.00 0.00 0.00 0.00 0.01 0.08 0.09 0.02 0.01 0.04 0.08 0.16 0.30 0.57 0.60 0.44 0.38 0.26 0.33 0.69 0.65 0.42 0.31 0.30 0.31 0.09 0.03 0.00 0.00 0.00 0.00 0.00 0.01 0.04 0.05 0.05 0.02 0.02 0.02 0.04 0.00 0.00 0.00 0.00 0.00 0.00 0.00 0.00 0.00
0.00 0.00 0.00 0.00 0.00 0.01 0.01 0.01 0.00 0.05 0.43 0.25 0.40 0.22 0.30 0.23 0.20 0.22 0.27 0.25 0.12 0.09 0.03 0.05 0.06 0.01 0.00 0.00 0.00 0.00 0.00 0.02 0.08 0.09 0.05 0.06 0.05 0.05 0.01 0.01 0.00 0.00 0.00 0.00 0.00 0.00 0.00 0.00 0.00
0.00 0.00 0.00 0.00 0.03 0.02 0.07 0.04 0.01 0.05 0.01 0.12 0.15 0.07 0.10 0.13 0.10 0.11 0.12 0.11 0.00 0.01 0.00 0.00 0.01 0.00 0.00 0.00 0.00 0.01 0.03 0.07 0.11 0.05 0.04 0.03 0.01 0.02 0.01 0.00 0.00 0.00 0.00 0.00 0.00 0.00 0.00 0.00 0.00
0.00 0.00 0.00 0.00 0.02 0.01 0.04 0.02 0.03 0.06 0.04 0.03 0.04 0.05 0.03 0.05 0.02 0.03 0.01 0.00 0.00 0.00 0.00 0.00 0.00 0.00 0.00 0.00 0.03 0.04 0.10 0.09 0.08 0.09 0.19 0.14 0.02 0.00 0.00 0.00 0.00 0.00 0.00 0.00 0.00 0.00 0.00 0.00 0.00
0.00 0.00 0.00 0.00 0.01 0.01 0.03 0.01 0.01 0.01 0.02 0.00 0.00 0.00 0.02 0.08 0.03 0.01 0.00 0.00 0.00 0.00 0.00 0.06 0.06 0.01 0.00 0.01 0.10 0.18 0.12 0.04 0.05 0.15 0.25 0.14 0.02 0.00 0.00 0.00 0.00 0.00 0.00 0.00 0.00 0.00 0.00 0.00 0.00
0.00 0.00 0.00 0.00 0.00 0.00 0.01 0.01 0.03 0.01 0.00 0.00 0.00 0.00 0.03 0.04 0.02 0.00 0.00 0.00 0.00 0.00 0.01 0.13 0.14 0.09 0.06 0.05 0.14 0.36 0.28 0.12 0.07 0.09 0.10 0.04 0.01 0.01 0.00 0.00 0.00 0.00 0.00 0.00 0.00 0.00 0.00 0.00 0.00
0.00 0.00 0.00 0.00 0.00 0.00 0.00 0.00 0.01 0.02 0.00 0.00 0.00 0.00 0.00 0.00 0.02 0.00 0.00 0.01 0.02 0.02 0.06 0.16 0.19 0.20 0.27 0.58 0.68 0.46 0.10 0.06 0.03 0.03 0.03 0.02 0.01 0.00 0.00 0.00 0.00 0.00 0.00 0.00 0.00 0.00 0.00 0.00 0.00
0.00 0.00 0.00 0.00 0.00 0.00 0.00 0.00 0.00 0.01 0.00 0.00 0.00 0.00 0.01 0.00 0.00 0.00 0.01 0.02 0.01 0.01 0.02 0.14 0.21 0.39 0.85 0.84 0.22 0.04 0.02 0.04 0.01 0.01 0.01 0.00 0.00 0.00 0.00 0.00 0.00 0.00 0.00 0.00 0.00 0.00 0.00 0.00 0.00
0.00 0.00 0.00 0.00 0.00 0.00 0.00 0.00 0.00 0.00 0.00 0.00 0.00 0.00 0.01 0.00 0.01 0.02 0.02 0.04 0.04 0.00 0.10 0.17 0.33 0.31 0.16 0.05 0.02 0.01 0.01 0.01 0.00 0.00 0.00 0.00 0.00 0.00 0.00 0.00 0.00 0.00 0.00 0.00 0.00 0.00 0.00 0.00 0.00
0.00 0.00 0.00 0.00 0.00 0.00 0.00 0.00 0.00 0.00 0.00 0.00 0.00 0.00 0.00 0.00 0.00 0.00 0.01 0.02 0.03 0.03 0.09 0.14 0.09 0.06 0.08 0.05 0.03 0.00 0.00 0.00 0.00 0.00 0.00 0.00 0.00 0.00 0.00 0.00 0.00 0.00 0.00 0.00 0.00 0.00 0.00 0.00 0.00
0.00 0.00 0.00 0.00 0.00 0.00 0.00 0.00 0.00 0.00 0.00 0.00 0.00 0.02 0.00 0.00 0.00 0.01 0.00 0.00 0.01 0.00 0.01 0.07 0.13 0.07 0.09 0.04 0.00 0.00 0.00 0.00 0.00 0.00 0.00 0.00 0.00 0.00 0.00 0.00 0.00 0.00 0.00 0.00 0.00 0.00 0.00 0.00 0.00
0.00 0.00 0.00 0.00 0.00 0.00 0.00 0.00 0.02 0.01 0.00 0.00 0.00 0.01 0.01 0.00 0.01 0.01 0.00 0.01 0.00 0.04 0.08 0.12 0.10 0.09 0.03 0.01 0.00 0.00 0.00 0.00 0.00 0.00 0.00 0.00 0.00 0.00 0.00 0.00 0.00 0.00 0.00 0.00 0.00 0.00 0.00 0.00 0.00
0.00 0.00 0.00 0.00 0.00 0.06 0.02 0.00 0.02 0.02 0.00 0.00 0.00 0.00 0.01 0.00 0.00 0.02 0.01 0.03 0.05 0.04 0.08 0.09 0.10 0.13 0.04 0.02 0.00 0.01 0.01 0.00 0.00 0.00 0.00 0.00 0.00 0.00 0.00 0.00 0.00 0.00 0.00 0.00 0.00 0.00 0.00 0.00 0.00
0.00 0.00 0.00 0.00 0.00 0.01 0.01 0.01 0.01 0.00 0.01 0.03 0.02 0.00 0.00 0.01 0.08 0.06 0.04 0.06 0.06 0.07 0.20 0.11 0.10 0.08 0.07 0.04 0.01 0.04 0.07 0.06 0.03 0.03 0.01 0.00 0.00 0.00 0.00 0.00 0.00 0.00 0.00 0.00 0.00 0.00 0.00 0.00 0.00
0.00 0.00 0.00 0.06 0.01 0.00 0.00 0.01 0.00 0.00 0.02 0.11 0.07 0.00 0.00 0.01 0.04 0.02 0.02 0.05 0.05 0.09 0.20 0.10 0.04 0.05 0.04 0.03 0.03 0.03 0.10 0.07 0.07 0.04 0.02 0.01 0.00 0.00 0.00 0.00 0.00 0.00 0.01 0.02 0.02 0.00 0.00 0.00 0.01
0.00 0.00 0.00 0.09 0.05 0.00 0.01 0.01 0.00 0.00 0.00 0.00 0.00 0.00 0.00 0.00 0.00 0.01 0.02 0.04 0.07 0.17 0.18 0.08 0.03 0.05 0.04 0.01 0.02 0.01 0.05 0.08 0.11 0.07 0.04 0.01 0.00 0.00 0.00 0.00 0.00 0.02 0.05 0.04 0.01 0.01 0.01 0.03 0.04
0.00 0.00 0.00 0.00 0.01 0.00 0.00 0.00 0.00 0.00 0.00 0.00 0.00 0.00 0.00 0.00 0.00 0.00 0.01 0.00 0.02 0.23 0.16 0.04 0.02 0.01 0.02 0.02 0.01 0.01 0.04 0.10 0.22 0.10 0.03 0.01 0.00 0.00 0.00 0.01 0.04 0.05 0.01 0.00 0.01 0.01 0.03 0.04 0.05
0.00 0.00 0.00 0.00 0.00 0.00 0.00 0.00 0.00 0.01 0.00 0.00 0.00 0.00 0.00 0.00 0.00 0.00 0.00 0.00 0.01 0.06 0.03 0.00 0.00 0.00 0.00 0.00 0.04 0.07 0.10 0.12 0.11 0.08 0.03 0.02 0.01 0.01 0.01 0.02 0.01 0.00 0.00 0.00 0.01 0.01 0.02 0.04 0.04
0.00 0.00 0.00 0.00 0.00 0.00 0.00 0.00 0.00 0.00 0.00 0.00 0.00 0.00 0.00 0.00 0.00 0.00 0.00 0.00 0.00 0.00 0.00 0.00 0.00 0.00 0.00 0.00 0.01 0.06 0.08 0.09 0.09 0.06 0.03 0.01 0.00 0.00 0.00 0.00 0.00 0.00 0.00 0.00 0.01 0.03 0.04 0.03 0.02
0.00 0.00 0.01 0.00 0.00 0.00 0.00 0.00 0.00 0.00 0.00 0.00 0.00 0.00 0.00 0.00 0.00 0.00 0.00 0.00 0.00 0.00 0.00 0.01 0.01 0.02 0.03 0.07 0.08 0.13 0.11 0.08 0.04 0.03 0.01 0.00 0.00 0.00 0.00 0.00 0.00 0.00 0.00 0.01 0.03 0.02 0.01 0.01 0.00

GFSSGP_prec_precacc24_048.txt.gz
Total_Precipitation_Accumulation
0.00 0.00 0.00 0.00 0.00 0.00 0.00 0.00 0.00 0.08 0.04 0.02 0.03 0.02 0.05 0.13 0.23 0.28 0.23 0.44 0.18 0.16 0.08 0.02 0.00 0.00 0.00 0.00 0.00 0.00 0.00 0.00 0.00 0.00 0.00 0.00 0.00 0.00 0.00 0.00 0.00 0.00 0.00 0.00 0.00 0.00 0.00 0.00 0.00
0.00 0.00 0.00 0.00 0.00 0.00 0.00 0.00 0.02 0.07 0.10 0.13 0.15 0.06 0.06 0.08 0.10 0.14 0.28 0.41 0.17 0.10 0.07 0.03 0.02 0.03 0.03 0.04 0.03 0.00 0.00 0.00 0.00 0.00 0.00 0.00 0.00 0.00 0.00 0.00 0.00 0.00 0.00 0.00 0.00 0.00 0.00 0.00 0.00
0.00 0.00 0.00 0.00 0.00 0.00 0.00 0.02 0.04 0.07 0.14 0.13 0.08 0.04 0.03 0.06 0.05 0.13 0.25 0.60 0.39 0.14 0.06 0.05 0.08 0.14 0.17 0.14 0.07 0.00 0.00 0.00 0.00 0.00 0.00 0.00 0.00 0.00 0.00 0.00 0.00 0.00 0.00 0.00 0.00 0.00 0.00 0.00 0.00
0.00 0.00 0.00 0.00 0.00 0.00 0.00 0.01 0.10 0.03 0.07 0.07 0.05 0.03 0.06 0.12 0.09 0.11 0.23 0.58 0.70 0.37 0.30 0.21 0.23 0.42 0.38 0.24 0.09 0.00 0.00 0.00 0.00 0.00 0.00 0.00 0.00 0.00 0.00 0.00 0.00 0.00 0.00 0.00 0.00 0.00 0.00 0.00 0.00
0.00 0.00 0.00 0.00 0.00 0.00 0.00 0.00 0.01 0.06 0.13 0.12 0.11 0.05 0.06 0.14 0.12 0.26 0.45 0.77 1.06 1.21 1.15 0.61 0.63 0.63 0.40 0.21 0.04 0.00 0.00 0.00 0.00 0.00 0.00 0.00 0.00 0.00 0.00 0.00 0.00 0.00 0.00 0.00 0.00 0.00 0.00 0.00 0.00
0.00 0.00 0.00 0.00 0.00 0.00 0.02 0.02 0.05 0.18 0.27 0.29 0.17 0.22 0.15 0.16 0.15 0.42 1.16 1.58 2.04 2.14 2.28 1.33 1.22 0.96 0.54 0.14 0.00 0.00 0.00 0.00 0.00 0.00 0.00 0.00 0.00 0.00 0.00 0.00 0.00 0.00 0.00 0.00 0.00 0.00 0.00 0.00 0.00
0.00 0.00 0.00 0.00 0.00 0.00 0.02 0.06 0.28 0.42 0.22 0.11 0.05 0.11 0.22 0.32 0.17 0.29 0.91 3.08 4.20 5.33 5.72 4.33 2.49 1.31 0.49 0.08 0.02 0.00 0.00 0.00 0.00 0.00 0.00 0.00 0.00 0.00 0.00 0.00 0.00 0.00 0.00 0.00 0.00 0.00 0.00 0.00 0.00
0.00 0.00 0.00 0.00 0.00 0.01 0.04 0.12 0.20 0.22 0.22 0.13 0.04 0.25 0.23 0.42 0.32 0.54 0.81 2.37 3.79 7.30 7.80 5.12 3.37 1.52 0.36 0.10 0.04 0.00 0.00 0.00 0.00 0.00 0.00 0.00 0.00 0.00 0.00 0.00 0.00 0.00 0.00 0.00 0.00 0.00 0.00 0.00 0.00
0.00 0.00 0.00 0.00 0.00 0.03 0.09 0.13 0.20 0.22 0.05 0.02 0.04 0.15 0.33 0.64 0.54 0.58 0.78 1.60 3.16 4.01 4.54 4.70 2.84 1.38 0.46 0.19 0.12 0.04 0.01 0.00 0.00 0.00 0.00 0.00 0.00 0.00 0.00 0.00 0.00 0.00 0.00 0.00 0.00 0.00 0.00 0.00 0.00
0.00 0.00 0.00 0.00 0.01 0.06 0.26 0.29 0.27 0.12 0.11 0.06 0.19 0.47 0.66 0.57 0.49 0.38 0.74 1.08 1.73 1.86 2.67 2.18 1.46 0.67 0.35 0.18 0.14 0.02 0.00 0.00 0.00 0.00 0.00 0.02 0.00 0.00 0.00 0.00 0.00 0.00 0.00 0.00 0.00 0.00 0.00 0.00 0.00
0.00 0.00 0.00 0.00 0.01 0.08 0.10 0.02 0.01 0.04 0.08 0.16 0.32 0.64 0.70 0.50 0.39 0.25 0.32 0.70 0.66 0.46 0.44 0.56 0.59 0.36 0.23 0.09 0.07 0.01 0.00 0.00 0.01 0.04 0.05 0.05 0.01 0.02 0.02 0.04 0.00 0.00 0.00 0.00 0.00 0.00 0.00 0.00 0.00
0.00 0.00 0.00 0.00 0.00 0.01 0.01 0.01 0.00 0.05 0.43 0.25 0.43 0.33 0.43 0.28 0.22 0.25 0.28 0.27 0.18 0.18 0.15 0.21 0.17 0.22 0.11 0.06 0.04 0.04 0.02 0.02 0.06 0.08 0.05 0.04 0.04 0.05 0.01 0.01 0.00 0.00 0.00 0.00 0.00 0.00 0.00 0.00 0.00
0.00 0.00 0.00 0.00 0.03 0.02 0.07 0.04 0.01 0.05 0.01 0.12 0.18 0.14 0.13 0.14 0.11 0.12 0.12 0.12 0.02 0.10 0.06 0.08 0.05 0.07 0.07 0.04 0.03 0.03 0.03 0.05 0.09 0.05 0.02 0.02 0.01 0.02 0.01 0.00 0.00 0.00 0.00 0.00 0.00 0.00 0.00 0.00 0.00
0.00 0.00 0.00 0.00 0.02 0.01 0.04 0.02 0.03 0.06 0.04 0.03 0.05 0.06 0.04 0.06 0.03 0.03 0.02 0.00 0.00 0.01 0.01 0.03 0.04 0.02 0.03 0.02 0.04 0.02 0.02 0.01 0.01 0.01 0.01 0.03 0.01 0.00 0.00 0.00 0.00 0.00 0.00 0.00 0.00 0.00 0.00 0.00 0.00
0.00 0.00 0.00 0.00 0.01 0.02 0.04 0.01 0.01 0.01 0.02 0.00 0.00 0.00 0.02 0.08 0.03 0.01 0.00 0.00 0.00 0.00 0.00 0.01 0.02 0.04 0.04 0.01 0.01 0.00 0.00 0.00 0.03 0.03 0.06 0.07 0.03 0.00 0.01 0.00 0.00 0.00 0.00 0.00 0.00 0.00 0.00 0.00 0.00
0.00 0.00 0.00 0.00 0.00 0.02 0.01 0.01 0.03 0.01 0.00 0.00 0.00 0.00 0.03 0.04 0.02 0.00 0.00 0.00 0.00 0.00 0.00 0.00 0.01 0.02 0.02 0.01 0.02 0.10 0.06 0.04 0.06 0.05 0.04 0.03 0.02 0.01 0.00 0.00 0.00 0.00 0.00 0.00 0.00 0.00 0.00 0.00 0.00
0.00 0.00 0.00 0.00 0.00 0.01 0.00 0.00 0.01 0.02 0.00 0.00 0.00 0.00 0.00 0.00 0.02 0.00 0.00 0.00 0.00 0.01 0.00 0.00 0.00 0.05 0.10 0.14 0.21 0.12 0.05 0.05 0.03 0.04 0.04 0.03 0.02 0.03 0.01 0.00 0.00 0.00 0.00 0.00 0.00 0.00 0.00 0.00 0.00
0.00 0.00 0.00 0.00 0.00 0.00 0.00 0.00 0.00 0.01 0.00 0.00 0.00 0.00 0.01 0.00 0.00 0.00 0.00 0.00 0.00 0.01 0.02 0.01 0.01 0.07 0.12 0.22 0.06 0.01 0.01 0.03 0.02 0.02 0.01 0.01 0.02 0.01 0.00 0.00 0.00 0.00 0.00 0.00 0.00 0.00 0.00 0.00 0.00
0.00 0.00 0.00 0.00 0.00 0.00 0.00 0.00 0.00 0.00 0.00 0.00 0.00 0.00 0.01 0.00 0.00 0.00 0.00 0.00 0.00 0.00 0.05 0.05 0.03 0.02 0.04 0.01 0.02 0.01 0.01 0.01 0.00 0.01 0.00 0.00 0.01 0.00 0.00 0.00 0.00 0.00 0.00 0.00 0.00 0.00 0.00 0.00 0.00
0.00 0.00 0.00 0.00 0.00 0.00 0.00 0.00 0.00 0.00 0.00 0.00 0.00 0.00 0.00 0.00 0.00 0.00 0.00 0.00 0.00 0.00 0.02 0.05 0.03 0.04 0.08 0.05 0.03 0.00 0.00 0.00 0.00 0.00 0.00 0.00 0.00 0.00 0.00 0.00 0.00 0.00 0.00 0.00 0.00 0.00 0.00 0.00 0.00
0.00 0.00 0.00 0.00 0.00 0.00 0.00 0.00 0.00 0.00 0.00 0.00 0.00 0.02 0.00 0.00 0.00 0.01 0.00 0.00 0.00 0.00 0.01 0.07 0.13 0.07 0.09 0.04 0.00 0.00 0.00 0.00 0.00 0.01 0.02 0.01 0.00 0.00 0.00 0.00 0.00 0.00 0.00 0.00 0.00 0.00 0.00 0.00 0.00
0.00 0.00 0.00 0.00 0.00 0.00 0.00 0.00 0.02 0.01 0.00 0.00 0.00 0.01 0.01 0.00 0.01 0.01 0.00 0.01 0.00 0.04 0.08 0.12 0.10 0.09 0.03 0.01 0.00 0.00 0.00 0.00 0.02 0.06 0.03 0.02 0.00 0.00 0.00 0.00 0.00 0.00 0.00 0.00 0.00 0.00 0.00 0.00 0.00
0.00 0.00 0.00 0.00 0.00 0.06 0.02 0.00 0.02 0.02 0.00 0.00 0.00 0.00 0.01 0.00 0.00 0.02 0.01 0.03 0.05 0.04 0.08 0.09 0.10 0.13 0.04 0.02 0.00 0.01 0.01 0.01 0.03 0.04 0.04 0.02 0.01 0.00 0.00 0.00 0.00 0.00 0.00 0.00 0.00 0.00 0.00 0.00 0.00
0.00 0.00 0.00 0.00 0.00 0.01 0.01 0.01 0.01 0.00 0.01 0.03 0.02 0.00 0.00 0.01 0.08 0.06 0.04 0.06 0.06 0.07 0.20 0.11 0.11 0.08 0.07 0.04 0.01 0.04 0.07 0.06 0.04 0.05 0.03 0.02 0.02 0.01 0.00 0.00 0.00 0.00 0.00 0.00 0.00 0.00 0.01 0.01 0.00
0.00 0.00 0.00 0.06 0.01 0.00 0.00 0.01 0.00 0.00 0.02 0.11 0.07 0.00 0.00 0.01 0.04 0.02 0.02 0.05 0.05 0.09 0.20 0.10 0.04 0.06 0.04 0.03 0.06 0.10 0.15 0.10 0.08 0.06 0.05 0.05 0.03 0.02 0.02 0.01 0.00 0.01 0.01 0.02 0.06 0.07 0.04 0.01 0.01
0.00 0.00 0.00 0.09 0.05 0.00 0.01 0.01 0.00 0.00 0.00 0.00 0.00 0.00 0.00 0.00 0.00 0.01 0.02 0.05 0.07 0.17 0.18 0.08 0.03 0.06 0.06 0.09 0.06 0.08 0.14 0.12 0.13 0.11 0.08 0.06 0.04 0.03 0.02 0.01 0.01 0.04 0.07 0.08 0.04 0.01 0.01 0.03 0.04
0.00 0.00 0.00 0.00 0.01 0.00 0.00 0.00 0.00 0.00 0.00 0.00 0.00 0.00 0.00 0.00 0.00 0.00 0.01 0.00 0.02 0.23 0.17 0.04 0.02 0.01 0.03 0.12 0.11 0.06 0.15 0.16 0.28 0.17 0.09 0.07 0.07 0.06 0.04 0.03 0.05 0.06 0.02 0.00 0.01 0.01 0.02 0.03 0.05
0.00 0.00 0.00 0.00 0.00 0.00 0.00 0.00 0.00 0.01 0.00 0.00 0.00 0.00 0.00 0.00 0.00 0.00 0.00 0.00 0.01 0.06 0.05 0.01 0.00 0.01 0.00 0.01 0.07 0.08 0.12 0.15 0.18 0.18 0.14 0.15 0.10 0.06 0.04 0.03 0.01 0.00 0.00 0.00 0.00 0.01 0.03 0.06 0.05
0.00 0.00 0.00 0.00 0.00 0.00 0.00 0.00 0.00 0.00 0.00 0.00 0.00 0.00 0.00 0.00 0.00 0.00 0.00 0.00 0.00 0.00 0.00 0.00 0.00 0.01 0.01 0.01 0.03 0.07 0.13 0.18 0.23 0.23 0.18 0.12 0.07 0.04 0.02 0.01 0.00 0.00 0.01 0.01 0.04 0.06 0.05 0.05 0.05
0.00 0.00 0.01 0.00 0.00 0.00 0.00 0.00 0.00 0.00 0.00 0.00 0.00 0.00 0.00 0.00 0.00 0.00 0.00 0.00 0.00 0.00 0.00 0.01 0.01 0.03 0.05 0.09 0.12 0.19 0.20 0.21 0.17 0.16 0.13 0.10 0.07 0.04 0.02 0.03 0.04 0.04 0.02 0.04 0.07 0.08 0.08 0.05 0.01

GFSSGP_prec_precacc24_051.txt.gz
Total_Precipitation_Accumulation
0.00 0.00 0.00 0.00 0.00 0.00 0.00 0.00 0.00 0.04 0.01 0.02 0.03 0.02 0.05 0.22 0.39 0.34 0.26 0.39 0.15 0.20 0.17 0.02 0.01 0.01 0.00 0.00 0.00 0.00 0.00 0.00 0.00 0.00 0.00 0.00 0.00 0.00 0.00 0.00 0.00 0.00 0.01 0.00 0.00 0.00 0.00 0.00 0.00
0.00 0.00 0.00 0.00 0.00 0.00 0.00 0.00 0.02 0.04 0.08 0.12 0.14 0.05 0.06 0.18 0.15 0.11 0.23 0.29 0.17 0.16 0.20 0.05 0.02 0.03 0.03 0.02 0.00 0.00 0.00 0.00 0.00 0.00 0.00 0.00 0.00 0.00 0.00 0.00 0.00 0.00 0.00 0.00 0.00 0.00 0.00 0.00 0.00
0.00 0.00 0.00 0.00 0.00 0.00 0.00 0.02 0.04 0.07 0.14 0.12 0.06 0.03 0.06 0.10 0.05 0.08 0.17 0.68 0.59 0.28 0.23 0.07 0.08 0.13 0.14 0.08 0.02 0.00 0.00 0.00 0.00 0.00 0.00 0.00 0.00 0.00 0.00 0.00 0.00 0.00 0.00 0.00 0.00 0.00 0.00 0.00 0.00
0.00 0.00 0.00 0.00 0.00 0.00 0.00 0.01 0.09 0.02 0.07 0.07 0.04 0.01 0.06 0.13 0.09 0.11 0.21 0.54 0.76 0.37 0.18 0.20 0.22 0.39 0.31 0.12 0.04 0.00 0.00 0.00 0.00 0.00 0.00 0.00 0.00 0.00 0.00 0.00 0.00 0.00 0.00 0.00 0.00 0.00 0.00 0.00 0.00
0.00 0.00 0.00 0.00 0.00 0.00 0.00 0.00 0.01 0.05 0.12 0.12 0.11 0.05 0.06 0.15 0.13 0.26 0.46 0.80 0.83 0.86 0.87 0.61 0.59 0.59 0.25 0.06 0.01 0.00 0.00 0.00 0.00 0.00 0.00 0.00 0.00 0.00 0.00 0.00 0.00 0.00 0.00 0.00 0.00 0.00 0.00 0.00 0.00
0.00 0.00 0.00 0.00 0.00 0.00 0.02 0.02 0.05 0.15 0.25 0.28 0.17 0.22 0.16 0.16 0.17 0.43 1.15 1.46 1.48 1.83 1.93 1.38 1.26 0.91 0.39 0.06 0.01 0.00 0.00 0.00 0.00 0.00 0.00 0.00 0.00 0.00 0.00 0.00 0.00 0.00 0.00 0.00 0.00 0.00 0.00 0.00 0.00
0.00 0.00 0.00 0.00 0.00 0.00 0.02 0.06 0.26 0.41 0.21 0.11 0.05 0.16 0.23 0.31 0.17 0.27 0.79 2.72 3.58 4.48 5.79 4.46 2.60 1.36 0.42 0.08 0.03 0.01 0.00 0.00 0.00 0.00 0.00 0.00 0.00 0.00 0.00 0.00 0.00 0.00 0.00 0.00 0.00 0.00 0.00 0.00 0.00
0.00 0.00 0.00 0.00 0.00 0.00 0.04 0.12 0.18 0.21 0.20 0.12 0.03 0.23 0.26 0.42 0.29 0.40 0.62 1.92 3.56 6.56 8.16 5.56 3.52 1.64 0.44 0.12 0.05 0.04 0.02 0.00 0.00 0.00 0.00 0.00 0.00 0.00 0.00 0.00 0.00 0.00 0.00 0.00 0.00 0.00 0.00 0.00 0.00
0.00 0.00 0.00 0.00 0.00 0.02 0.09 0.13 0.20 0.22 0.05 0.02 0.03 0.16 0.42 0.66 0.51 0.52 0.64 0.94 2.75 3.95 4.55 4.96 3.25 1.67 0.55 0.24 0.18 0.10 0.02 0.00 0.00 0.00 0.00 0.00 0.00 0.00 0.00 0.00 0.00 0.00 0.00 0.00 0.00 0.00 0.00 0.00 0.00
0.00 0.00 0.00 0.00 0.00 0.04 0.26 0.30 0.27 0.12 0.08 0.05 0.22 0.49 0.71 0.67 0.51 0.33 0.68 0.98 1.64 1.96 2.74 2.25 1.56 0.75 0.40 0.27 0.24 0.13 0.02 0.00 0.00 0.00 0.00 0.02 0.00 0.00 0.00 0.00 0.00 0.00 0.00 0.00 0.00 0.00 0.00 0.00 0.00
0.00 0.00 0.00 0.00 0.00 0.04 0.10 0.02 0.01 0.04 0.05 0.15 0.36 0.72 0.84 0.63 0.45 0.22 0.26 0.64 0.64 0.47 0.49 0.60 0.65 0.43 0.30 0.18 0.19 0.12 0.02 0.00 0.01 0.02 0.03 0.03 0.00 0.01 0.02 0.04 0.00 0.00 0.00 0.00 0.00 0.00 0.00 0.00 0.00
0.00 0.00 0.00 0.00 0.00 0.01 0.01 0.01 0.00 0.02 0.10 0.22 0.46 0.41 0.54 0.30 0.22 0.24 0.27 0.26 0.19 0.24 0.19 0.32 0.28 0.38 0.35 0.29 0.22 0.11 0.03 0.01 0.03 0.03 0.01 0.01 0.01 0.02 0.01 0.01 0.00 0.00 0.00 0.00 0.00 0.00 0.00 0.00 0.00
0.00 0.00 0.00 0.00 0.03 0.02 0.07 0.04 0.01 0.05 0.02 0.12 0.19 0.19 0.21 0.16 0.11 0.12 0.13 0.14 0.07 0.16 0.14 0.18 0.20 0.23 0.18 0.14 0.09 0.06 0.02 0.03 0.08 0.02 0.00 0.01 0.01 0.01 0.01 0.00 0.00 0.00 0.00 0.00 0.00 0.00 0.00 0.00 0.00
0.00 0.00 0.00 0.00 0.02 0.01 0.04 0.02 0.03 0.06 0.04 0.03 0.06 0.07 0.05 0.06 0.03 0.03 0.02 0.01 0.07 0.12 0.18 0.15 0.21 0.15 0.10 0.03 0.03 0.02 0.01 0.01 0.01 0.01 0.01 0.01 0.00 0.00 0.00 0.00 0.00 0.00 0.00 0.00 0.00 0.00 0.00 0.00 0.00
0.00 0.00 0.00 0.00 0.01 0.02 0.04 0.07 0.02 0.01 0.02 0.00 0.00 0.00 0.02 0.08 0.04 0.01 0.00 0.00 0.01 0.04 0.04 0.05 0.05 0.06 0.06 0.01 0.01 0.00 0.00 0.00 0.03 0.03 0.06 0.06 0.03 0.00 0.00 0.00 0.00 0.00 0.00 0.00 0.00 0.00 0.00 0.00 0.00
0.00 0.00 0.00 0.01 0.00 0.02 0.03 0.30 0.04 0.01 0.00 0.00 0.00 0.00 0.03 0.04 0.02 0.00 0.00 0.00 0.00 0.00 0.00 0.01 0.01 0.02 0.03 0.01 0.00 0.00 0.01 0.03 0.06 0.05 0.05 0.03 0.02 0.02 0.00 0.00 0.00 0.00 0.00 0.00 0.00 0.00 0.00 0.00 0.00
0.00 0.00 0.00 0.00 0.00 0.01 0.01 0.07 0.01 0.02 0.00 0.00 0.00 0.00 0.00 0.00 0.02 0.00 0.00 0.00 0.00 0.01 0.00 0.01 0.02 0.06 0.07 0.05 0.01 0.01 0.04 0.04 0.03 0.05 0.07 0.04 0.04 0.05 0.02 0.00 0.00 0.00 0.00 0.00 0.00 0.00 0.00 0.00 0.00
0.00 0.00 0.00 0.00 0.00 0.00 0.00 0.01 0.01 0.01 0.00 0.00 0.00 0.00 0.01 0.00 0.00 0.00 0.00 0.00 0.00 0.01 0.02 0.01 0.01 0.06 0.05 0.04 0.02 0.01 0.01 0.03 0.03 0.06 0.03 0.04 0.04 0.01 0.00 0.00 0.00 0.00 0.00 0.00 0.00 0.00 0.00 0.00 0.00
0.00 0.00 0.00 0.00 0.00 0.00 0.00 0.00 0.00 0.00 0.00 0.00 0.00 0.00 0.01 0.00 0.00 0.00 0.00 0.00 0.00 0.00 0.04 0.03 0.03 0.02 0.08 0.02 0.02 0.01 0.00 0.01 0.01 0.04 0.01 0.02 0.02 0.00 0.00 0.00 0.00 0.00 0.00 0.00 0.00 0.00 0.00 0.00 0.00
0.00 0.00 0.00 0.00 0.00 0.00 0.00 0.00 0.00 0.00 0.00 0.00 0.00 0.00 0.00 0.00 0.00 0.00 0.00 0.00 0.00 0.00 0.02 0.04 0.02 0.02 0.10 0.06 0.02 0.00 0.00 0.00 0.00 0.01 0.02 0.02 0.03 0.00 0.00 0.00 0.00 0.00 0.00 0.00 0.00 0.00 0.00 0.00 0.00
0.00 0.00 0.00 0.00 0.00 0.00 0.00 0.00 0.00 0.00 0.00 0.00 0.00 0.02 0.00 0.00 0.00 0.01 0.00 0.00 0.00 0.00 0.00 0.06 0.11 0.05 0.11 0.04 0.00 0.00 0.00 0.00 0.00 0.01 0.03 0.03 0.01 0.00 0.00 0.00 0.00 0.00 0.00 0.00 0.00 0.00 0.00 0.00 0.00
0.00 0.00 0.00 0.00 0.00 0.00 0.00 0.00 0.01 0.01 0.00 0.00 0.00 0.01 0.01 0.00 0.01 0.01 0.00 0.00 0.00 0.04 0.08 0.11 0.08 0.09 0.03 0.01 0.00 0.00 0.00 0.00 0.02 0.06 0.03 0.03 0.03 0.02 0.00 0.00 0.00 0.00 0.00 0.00 0.00 0.00 0.00 0.00 0.00
0.00 0.00 0.00 0.00 0.00 0.06 0.02 0.00 0.01 0.02 0.00 0.00 0.00 0.00 0.01 0.00 0.00 0.02 0.01 0.03 0.05 0.04 0.08 0.09 0.10 0.13 0.04 0.02 0.00 0.01 0.01 0.01 0.03 0.04 0.05 0.03 0.01 0.01 0.01 0.01 0.01 0.00 0.00 0.00 0.00 0.00 0.00 0.00 0.00
0.00 0.00 0.00 0.00 0.00 0.01 0.01 0.01 0.01 0.00 0.01 0.03 0.02 0.00 0.00 0.01 0.08 0.06 0.04 0.06 0.06 0.07 0.20 0.11 0.11 0.08 0.07 0.04 0.01 0.04 0.07 0.06 0.04 0.05 0.04 0.03 0.02 0.01 0.01 0.02 0.01 0.01 0.00 0.00 0.00 0.00 0.01 0.01 0.00
0.00 0.00 0.01 0.08 0.02 0.00 0.00 0.01 0.01 0.01 0.02 0.11 0.07 0.00 0.00 0.01 0.04 0.02 0.02 0.05 0.05 0.09 0.20 0.10 0.04 0.06 0.04 0.03 0.06 0.10 0.15 0.10 0.08 0.06 0.05 0.05 0.03 0.03 0.03 0.03 0.02 0.01 0.01 0.02 0.06 0.06 0.04 0.01 0.00
0.00 0.00 0.01 0.14 0.07 0.02 0.02 0.01 0.00 0.00 0.00 0.00 0.00 0.00 0.00 0.00 0.00 0.01 0.02 0.05 0.07 0.17 0.18 0.08 0.03 0.06 0.06 0.12 0.16 0.14 0.15 0.12 0.13 0.11 0.08 0.06 0.05 0.04 0.03 0.02 0.02 0.04 0.07 0.08 0.04 0.01 0.01 0.01 0.01
0.00 0.00 0.00 0.01 0.02 0.00 0.01 0.00 0.00 0.00 0.00 0.00 0.00 0.00 0.00 0.00 0.00 0.00 0.01 0.00 0.02 0.23 0.17 0.04 0.02 0.01 0.03 0.15 0.22 0.13 0.21 0.17 0.28 0.17 0.10 0.09 0.12 0.08 0.05 0.05 0.06 0.06 0.02 0.01 0.02 0.03 0.02 0.01 0.02
0.00 0.00 0.00 0.00 0.02 0.01 0.00 0.00 0.00 0.01 0.00 0.00 0.00 0.00 0.00 0.00 0.00 0.00 0.00 0.00 0.01 0.06 0.05 0.01 0.00 0.01 0.00 0.01 0.07 0.08 0.12 0.17 0.19 0.19 0.19 0.22 0.16 0.09 0.06 0.04 0.02 0.01 0.01 0.01 0.00 0.01 0.03 0.06 0.07
0.00 0.00 0.00 0.00 0.00 0.01 0.00 0.00 0.00 0.00 0.00 0.00 0.00 0.00 0.00 0.00 0.00 0.00 0.00 0.00 0.00 0.00 0.00 0.00 0.00 0.01 0.01 0.01 0.03 0.07 0.14 0.18 0.24 0.24 0.23 0.16 0.09 0.06 0.03 0.02 0.02 0.01 0.01 0.02 0.05 0.08 0.06 0.06 0.11
0.00 0.00 0.01 0.00 0.00 0.00 0.00 0.00 0.00 0.00 0.00 0.00 0.00 0.00 0.00 0.00 0.00 0.00 0.00 0.00 0.00 0.00 0.00 0.01 0.01 0.03 0.05 0.09 0.12 0.20 0.21 0.21 0.18 0.16 0.14 0.10 0.08 0.05 0.03 0.05 0.08 0.10 0.13 0.18 0.19 0.12 0.10 0.12 0.09

GFSSGP_prec_precacc24_057.txt.gz
Total_Precipitation_Accumulation
0.00 0.00 0.00 0.00 0.00 0.00 0.00 0.00 0.00 0.00 0.00 0.02 0.07 0.09 0.12 0.24 0.36 0.27 0.24 0.74 0.94 0.86 0.83 1.20 0.29 0.07 0.02 0.01 0.00 0.00 0.00 0.00 0.00 0.00 0.00 0.00 0.00 0.00 0.00 0.00 0.00 0.00 0.01 0.00 0.00 0.00 0.00 0.00 0.00
0.00 0.00 0.00 0.00 0.00 0.00 0.00 0.00 0.00 0.00 0.04 0.14 0.18 0.10 0.06 0.37 0.27 0.11 0.26 0.31 0.33 0.32 0.30 0.47 0.37 0.11 0.03 0.00 0.00 0.00 0.00 0.00 0.00 0.00 0.00 0.00 0.00 0.00 0.00 0.00 0.00 0.01 0.00 0.00 0.00 0.00 0.00 0.00 0.00
0.00 0.00 0.00 0.00 0.00 0.00 0.00 0.00 0.01 0.05 0.13 0.12 0.06 0.03 0.17 0.73 0.42 0.18 0.18 0.52 0.66 0.43 0.34 0.23 0.55 0.35 0.12 0.01 0.00 0.00 0.00 0.00 0.00 0.00 0.00 0.00 0.00 0.00 0.00 0.00 0.01 0.01 0.00 0.00 0.00 0.00 0.00 0.00 0.00
0.00 0.00 0.00 0.00 0.00 0.00 0.00 0.00 0.00 0.01 0.04 0.05 0.04 0.06 0.33 0.38 0.39 0.31 0.27 0.45 0.82 0.59 0.27 0.31 0.59 1.18 0.68 0.06 0.00 0.00 0.00 0.00 0.00 0.00 0.00 0.00 0.00 0.00 0.00 0.00 0.00 0.01 0.00 0.00 0.00 0.00 0.00 0.00 0.00
0.00 0.00 0.00 0.00 0.00 0.00 0.00 0.00 0.01 0.03 0.06 0.06 0.06 0.05 0.69 0.65 0.32 0.46 0.62 0.90 0.75 0.78 0.83 0.64 0.69 0.61 1.01 0.52 0.08 0.00 0.00 0.00 0.00 0.00 0.00 0.00 0.00 0.00 0.00 0.00 0.00 0.00 0.00 0.00 0.00 0.00 0.00 0.00 0.00
0.00 0.00 0.00 0.00 0.00 0.00 0.01 0.01 0.05 0.12 0.10 0.10 0.06 0.08 0.55 0.31 0.31 0.50 0.90 1.02 1.42 1.99 1.76 1.23 1.14 0.84 0.38 0.32 0.39 0.04 0.00 0.00 0.00 0.00 0.00 0.00 0.00 0.00 0.00 0.01 0.01 0.00 0.00 0.00 0.00 0.00 0.00 0.00 0.00
0.00 0.00 0.00 0.00 0.00 0.00 0.01 0.04 0.16 0.34 0.21 0.10 0.09 0.36 0.82 0.69 0.39 0.42 0.91 2.21 3.09 4.33 5.08 3.13 2.11 1.29 0.74 0.41 0.23 0.12 0.01 0.00 0.00 0.00 0.00 0.00 0.00 0.01 0.00 0.00 0.00 0.00 0.00 0.00 0.00 0.00 0.00 0.00 0.00
0.00 0.00 0.00 0.00 0.00 0.00 0.01 0.06 0.12 0.18 0.36 0.31 0.10 0.48 0.85 0.51 0.47 0.41 0.47 1.82 3.28 5.76 6.92 4.42 2.75 1.58 0.81 0.62 0.30 0.13 0.07 0.01 0.00 0.00 0.00 0.00 0.03 0.02 0.00 0.00 0.00 0.00 0.00 0.00 0.00 0.00 0.00 0.00 0.00
0.00 0.00 0.00 0.00 0.00 0.01 0.02 0.05 0.17 0.08 0.18 0.29 0.19 0.40 0.48 0.47 0.55 0.33 0.20 0.41 1.76 2.81 3.18 3.30 2.33 1.55 0.90 0.86 0.62 0.24 0.11 0.01 0.00 0.00 0.02 0.03 0.06 0.08 0.02 0.00 0.00 0.00 0.00 0.00 0.00 0.00 0.00 0.00 0.00
0.00 0.00 0.00 0.00 0.00 0.00 0.02 0.01 0.02 0.03 0.23 0.16 0.28 0.27 0.54 0.60 0.44 0.35 0.17 0.23 0.38 0.98 1.31 1.39 1.22 0.72 0.46 0.33 0.34 0.32 0.21 0.06 0.00 0.01 0.02 0.02 0.02 0.01 0.00 0.00 0.00 0.00 0.00 0.00 0.00 0.00 0.00 0.00 0.00
0.00 0.00 0.00 0.00 0.00 0.02 0.02 0.04 0.11 0.03 0.16 0.26 0.56 0.37 0.59 0.57 0.30 0.07 0.03 0.09 0.12 0.26 0.47 0.61 0.67 0.49 0.34 0.22 0.22 0.16 0.12 0.08 0.00 0.00 0.00 0.00 0.01 0.00 0.00 0.00 0.00 0.00 0.00 0.00 0.00 0.00 0.00 0.00 0.00
0.00 0.00 0.00 0.00 0.00 0.01 0.01 0.09 0.17 0.13 0.24 0.14 0.13 0.27 0.30 0.16 0.07 0.04 0.03 0.07 0.14 0.23 0.34 0.44 0.36 0.49 0.42 0.32 0.28 0.22 0.16 0.04 0.03 0.02 0.00 0.01 0.00 0.00 0.00 0.00 0.00 0.00 0.00 0.00 0.00 0.00 0.00 0.00 0.00
0.00 0.00 0.00 0.00 0.00 0.01 0.06 0.04 0.07 0.60 0.27 0.08 0.10 0.14 0.13 0.05 0.03 0.02 0.01 0.03 0.14 0.25 0.34 0.44 0.32 0.36 0.32 0.30 0.30 0.26 0.16 0.06 0.09 0.03 0.02 0.00 0.00 0.01 0.00 0.00 0.00 0.00 0.00 0.00 0.00 0.00 0.00 0.00 0.00
0.00 0.00 0.00 0.00 0.00 0.01 0.02 0.05 0.07 0.59 0.26 0.02 0.04 0.05 0.03 0.03 0.01 0.01 0.01 0.02 0.12 0.28 0.34 0.41 0.49 0.26 0.32 0.31 0.28 0.26 0.11 0.05 0.08 0.05 0.05 0.02 0.01 0.00 0.00 0.00 0.00 0.00 0.00 0.00 0.00 0.00 0.00 0.00 0.00
0.00 0.00 0.00 0.00 0.01 0.02 0.02 0.09 0.16 0.39 0.12 0.05 0.00 0.01 0.04 0.07 0.02 0.00 0.00 0.00 0.02 0.10 0.14 0.20 0.24 0.31 0.23 0.14 0.18 0.13 0.08 0.06 0.09 0.07 0.08 0.08 0.04 0.00 0.00 0.00 0.01 0.00 0.00 0.00 0.00 0.00 0.00 0.00 0.00
0.00 0.00 0.00 0.02 0.00 0.02 0.03 0.48 0.12 0.05 0.07 0.06 0.00 0.00 0.03 0.04 0.01 0.00 0.00 0.00 0.00 0.00 0.02 0.04 0.04 0.07 0.10 0.06 0.06 0.02 0.02 0.06 0.09 0.07 0.06 0.03 0.02 0.02 0.01 0.01 0.00 0.00 0.00 0.00 0.00 0.00 0.00 0.00 0.00
0.00 0.00 0.00 0.00 0.00 0.01 0.02 0.18 0.15 0.05 0.06 0.08 0.01 0.00 0.00 0.00 0.02 0.00 0.00 0.00 0.00 0.00 0.00 0.01 0.02 0.02 0.03 0.02 0.00 0.00 0.04 0.05 0.04 0.06 0.08 0.05 0.06 0.08 0.04 0.01 0.00 0.01 0.02 0.00 0.00 0.00 0.00 0.00 0.00
0.00 0.00 0.00 0.00 0.00 0.00 0.00 0.02 0.15 0.05 0.05 0.06 0.02 0.00 0.00 0.00 0.00 0.00 0.00 0.00 0.00 0.00 0.00 0.00 0.00 0.02 0.04 0.04 0.00 0.00 0.02 0.03 0.03 0.06 0.03 0.08 0.10 0.08 0.07 0.05 0.03 0.04 0.01 0.00 0.00 0.00 0.00 0.00 0.00
0.00 0.00 0.00 0.00 0.00 0.00 0.00 0.01 0.02 0.03 0.04 0.04 0.02 0.01 0.00 0.00 0.00 0.00 0.00 0.00 0.00 0.00 0.00 0.00 0.00 0.01 0.08 0.02 0.00 0.00 0.00 0.01 0.01 0.04 0.01 0.04 0.07 0.04 0.07 0.09 0.07 0.08 0.00 0.00 0.00 0.00 0.00 0.00 0.00
0.00 0.00 0.00 0.00 0.00 0.00 0.00 0.00 0.00 0.01 0.17 0.03 0.01 0.01 0.00 0.00 0.00 0.00 0.00 0.00 0.00 0.00 0.00 0.02 0.01 0.01 0.07 0.03 0.00 0.00 0.00 0.00 0.00 0.01 0.03 0.06 0.10 0.04 0.04 0.07 0.04 0.03 0.00 0.00 0.00 0.00 0.00 0.00 0.00
0.00 0.00 0.00 0.00 0.00 0.00 0.00 0.00 0.00 0.00 0.02 0.04 0.03 0.03 0.00 0.00 0.00 0.00 0.00 0.00 0.00 0.00 0.00 0.01 0.04 0.02 0.04 0.00 0.00 0.00 0.00 0.00 0.00 0.01 0.03 0.04 0.04 0.03 0.00 0.04 0.01 0.00 0.00 0.00 0.00 0.00 0.00 0.00 0.00
0.00 0.00 0.00 0.00 0.00 0.00 0.00 0.00 0.00 0.00 0.00 0.05 0.01 0.01 0.01 0.00 0.01 0.00 0.00 0.00 0.00 0.01 0.02 0.03 0.06 0.07 0.02 0.00 0.01 0.00 0.00 0.00 0.02 0.06 0.03 0.04 0.05 0.05 0.02 0.01 0.00 0.00 0.00 0.00 0.00 0.00 0.00 0.00 0.00
0.00 0.00 0.00 0.00 0.00 0.00 0.00 0.00 0.00 0.00 0.00 0.00 0.00 0.01 0.01 0.00 0.00 0.01 0.01 0.02 0.04 0.04 0.05 0.06 0.09 0.12 0.03 0.01 0.00 0.02 0.01 0.01 0.03 0.04 0.05 0.03 0.02 0.03 0.03 0.01 0.03 0.01 0.01 0.01 0.00 0.00 0.00 0.00 0.00
0.00 0.00 0.00 0.00 0.00 0.00 0.00 0.00 0.00 0.00 0.00 0.00 0.00 0.01 0.00 0.01 0.04 0.03 0.04 0.06 0.04 0.06 0.19 0.10 0.10 0.08 0.06 0.04 0.01 0.06 0.13 0.08 0.06 0.05 0.04 0.05 0.04 0.01 0.04 0.04 0.03 0.04 0.04 0.05 0.04 0.04 0.04 0.04 0.02
0.00 0.00 0.00 0.03 0.01 0.00 0.00 0.00 0.00 0.00 0.00 0.00 0.00 0.00 0.00 0.00 0.01 0.01 0.02 0.05 0.04 0.08 0.20 0.10 0.04 0.06 0.04 0.03 0.06 0.10 0.21 0.17 0.17 0.09 0.06 0.13 0.08 0.03 0.07 0.14 0.08 0.05 0.07 0.06 0.08 0.09 0.06 0.05 0.02
0.00 0.00 0.01 0.08 0.06 0.02 0.03 0.00 0.00 0.00 0.00 0.00 0.00 0.00 0.00 0.00 0.00 0.01 0.02 0.05 0.07 0.17 0.18 0.08 0.03 0.06 0.06 0.13 0.25 0.22 0.21 0.28 0.40 0.30 0.15 0.24 0.14 0.10 0.12 0.13 0.21 0.13 0.11 0.10 0.07 0.05 0.06 0.07 0.09
0.00 0.00 0.00 0.01 0.01 0.03 0.04 0.00 0.00 0.00 0.00 0.00 0.00 0.00 0.00 0.00 0.00 0.00 0.01 0.00 0.02 0.23 0.17 0.04 0.02 0.02 0.03 0.15 0.26 0.15 0.36 0.63 0.50 0.40 0.34 0.33 0.34 0.34 0.29 0.33 0.34 0.27 0.16 0.08 0.05 0.06 0.05 0.03 0.06
0.00 0.00 0.00 0.00 0.05 0.05 0.00 0.00 0.00 0.00 0.00 0.00 0.00 0.00 0.00 0.00 0.00 0.00 0.00 0.00 0.01 0.06 0.05 0.01 0.02 0.06 0.04 0.05 0.08 0.11 0.18 0.30 0.36 0.32 0.27 0.40 0.50 0.35 0.43 0.41 0.29 0.13 0.04 0.02 0.02 0.02 0.05 0.13 0.19
0.00 0.00 0.00 0.00 0.00 0.04 0.03 0.00 0.00 0.00 0.00 0.00 0.00 0.00 0.00 0.00 0.00 0.00 0.00 0.00 0.00 0.00 0.00 0.00 0.01 0.08 0.12 0.30 0.33 0.25 0.34 0.34 0.42 0.31 0.37 0.28 0.24 0.35 0.37 0.17 0.05 0.03 0.03 0.05 0.10 0.16 0.20 0.22 0.25
0.00 0.00 0.00 0.01 0.00 0.01 0.01 0.00 0.00 0.00 0.00 0.00 0.00 0.00 0.00 0.00 0.00 0.00 0.00 0.00 0.00 0.00 0.00 0.01 0.01 0.12 0.27 0.67 0.85 0.57 0.67 0.55 0.44 0.33 0.24 0.25 0.17 0.12 0.08 0.06 0.09 0.12 0.18 0.26 0.30 0.24 0.21 0.19 0.16

GFSSGP_prec_precacc24_060.txt.gz
Total_Precipitation_Accumulation
0.00 0.00 0.00 0.00 0.00 0.00 0.00 0.00 0.00 0.00 0.00 0.02 0.07 0.09 0.12 0.24 0.36 0.27 0.23 0.69 0.94 0.86 0.83 1.88 1.57 0.97 0.09 0.01 0.00 0.00 0.00 0.00 0.00 0.00 0.00 0.00 0.00 0.00 0.00 0.00 0.00 0.00 0.01 0.00 0.00 0.00 0.00 0.00 0.00
0.00 0.00 0.00 0.00 0.00 0.00 0.00 0.00 0.00 0.00 0.04 0.14 0.18 0.10 0.06 0.37 0.28 0.12 0.26 0.28 0.33 0.32 0.29 0.60 1.48 1.46 0.32 0.01 0.00 0.00 0.00 0.00 0.00 0.00 0.00 0.00 0.00 0.00 0.00 0.00 0.00 0.01 0.00 0.00 0.00 0.00 0.00 0.00 0.00
0.00 0.00 0.00 0.00 0.00 0.00 0.00 0.00 0.01 0.05 0.13 0.12 0.06 0.03 0.17 0.73 0.41 0.18 0.13 0.40 0.62 0.42 0.36 0.27 0.60 0.57 0.28 0.04 0.00 0.00 0.00 0.00 0.00 0.00 0.00 0.00 0.00 0.00 0.00 0.00 0.01 0.01 0.00 0.00 0.00 0.00 0.00 0.00 0.00
0.00 0.00 0.00 0.00 0.00 0.00 0.00 0.00 0.00 0.01 0.04 0.05 0.04 0.06 0.33 0.37 0.40 0.31 0.23 0.39 0.78 0.61 0.37 0.48 1.00 1.48 0.99 0.48 0.21 0.05 0.00 0.00 0.00 0.00 0.00 0.00 0.00 0.00 0.00 0.00 0.00 0.01 0.00 0.00 0.00 0.00 0.00 0.00 0.00
0.00 0.00 0.00 0.00 0.00 0.00 0.00 0.00 0.00 0.01 0.04 0.05 0.05 0.04 0.69 0.64 0.31 0.40 0.62 0.98 0.81 0.86 0.98 0.89 1.13 0.99 1.47 1.98 1.26 0.31 0.00 0.00 0.00 0.00 0.00 0.00 0.00 0.00 0.00 0.00 0.00 0.00 0.00 0.00 0.00 0.00 0.00 0.00 0.00
0.00 0.00 0.00 0.00 0.00 0.00 0.00 0.00 0.00 0.04 0.04 0.07 0.06 0.07 0.55 0.26 0.26 0.40 0.86 1.16 1.44 2.09 1.92 1.42 1.30 1.02 0.42 0.96 2.34 0.92 0.02 0.00 0.00 0.01 0.01 0.00 0.00 0.00 0.00 0.01 0.01 0.00 0.00 0.00 0.00 0.00 0.00 0.00 0.00
0.00 0.00 0.00 0.00 0.00 0.00 0.00 0.00 0.06 0.24 0.17 0.09 0.08 0.35 0.82 0.61 0.34 0.37 0.74 1.08 2.26 3.50 4.55 3.16 2.11 1.29 0.81 0.54 1.12 1.04 0.12 0.01 0.00 0.01 0.02 0.02 0.01 0.01 0.00 0.00 0.00 0.00 0.00 0.00 0.00 0.00 0.00 0.00 0.00
0.00 0.00 0.00 0.00 0.00 0.00 0.00 0.02 0.08 0.12 0.35 0.29 0.08 0.44 0.82 0.42 0.36 0.36 0.39 0.99 2.03 4.04 5.28 3.80 2.55 1.55 0.86 0.77 0.56 0.33 0.12 0.03 0.00 0.00 0.01 0.05 0.05 0.02 0.00 0.00 0.00 0.00 0.00 0.00 0.00 0.00 0.00 0.00 0.00
0.00 0.00 0.00 0.00 0.00 0.00 0.01 0.03 0.16 0.07 0.19 0.28 0.16 0.35 0.38 0.30 0.38 0.30 0.20 0.28 1.11 2.04 2.44 2.96 2.21 1.52 1.05 1.05 0.87 0.38 0.13 0.02 0.00 0.02 0.06 0.04 0.07 0.08 0.02 0.00 0.00 0.00 0.00 0.00 0.00 0.00 0.00 0.00 0.00
0.00 0.00 0.00 0.00 0.00 0.00 0.02 0.01 0.02 0.03 0.22 0.17 0.21 0.13 0.32 0.42 0.31 0.31 0.18 0.11 0.20 0.76 1.13 1.23 1.17 0.72 0.56 0.51 0.43 0.34 0.21 0.06 0.00 0.01 0.03 0.04 0.04 0.03 0.00 0.00 0.00 0.00 0.00 0.00 0.00 0.00 0.00 0.00 0.00
0.00 0.00 0.00 0.00 0.00 0.00 0.02 0.04 0.11 0.03 0.17 0.31 0.55 0.25 0.41 0.43 0.25 0.06 0.05 0.07 0.10 0.29 0.49 0.60 0.68 0.52 0.37 0.27 0.23 0.16 0.12 0.08 0.01 0.01 0.01 0.02 0.01 0.00 0.00 0.00 0.00 0.00 0.00 0.00 0.00 0.00 0.00 0.00 0.00
0.00 0.00 0.00 0.00 0.00 0.00 0.00 0.08 0.17 0.13 0.31 0.19 0.14 0.27 0.29 0.12 0.05 0.05 0.03 0.08 0.20 0.31 0.44 0.51 0.39 0.52 0.45 0.34 0.29 0.22 0.16 0.04 0.03 0.02 0.01 0.01 0.00 0.00 0.00 0.00 0.00 0.00 0.00 0.00 0.00 0.00 0.00 0.00 0.00
0.00 0.00 0.00 0.00 0.00 0.00 0.00 0.01 0.07 0.60 0.28 0.08 0.07 0.14 0.14 0.03 0.02 0.02 0.02 0.04 0.17 0.32 0.45 0.50 0.33 0.37 0.33 0.31 0.32 0.26 0.16 0.06 0.09 0.03 0.02 0.00 0.00 0.01 0.00 0.00 0.00 0.00 0.00 0.00 0.00 0.00 0.00 0.00 0.00
0.00 0.00 0.00 0.00 0.00 0.00 0.00 0.05 0.07 0.59 0.26 0.02 0.02 0.03 0.02 0.00 0.01 0.01 0.01 0.02 0.15 0.35 0.40 0.50 0.55 0.28 0.33 0.34 0.33 0.29 0.12 0.06 0.08 0.05 0.05 0.02 0.01 0.00 0.00 0.00 0.00 0.00 0.00 0.00 0.00 0.00 0.00 0.00 0.00
0.00 0.00 0.00 0.00 0.00 0.01 0.01 0.09 0.16 0.39 0.12 0.05 0.00 0.00 0.03 0.00 0.00 0.00 0.00 0.00 0.03 0.13 0.17 0.31 0.30 0.38 0.25 0.15 0.19 0.15 0.10 0.06 0.09 0.08 0.08 0.08 0.04 0.00 0.00 0.00 0.01 0.00 0.00 0.00 0.00 0.00 0.00 0.00 0.00
0.00 0.00 0.00 0.02 0.00 0.02 0.03 0.48 0.11 0.04 0.07 0.06 0.00 0.00 0.00 0.00 0.00 0.00 0.00 0.00 0.00 0.00 0.04 0.09 0.09 0.09 0.15 0.07 0.06 0.02 0.02 0.06 0.09 0.08 0.06 0.03 0.02 0.02 0.01 0.04 0.03 0.00 0.00 0.00 0.00 0.00 0.00 0.00 0.00
0.00 0.00 0.00 0.00 0.00 0.01 0.02 0.18 0.15 0.05 0.06 0.08 0.01 0.00 0.00 0.00 0.00 0.00 0.00 0.00 0.00 0.00 0.00 0.05 0.05 0.04 0.04 0.02 0.00 0.00 0.04 0.05 0.04 0.06 0.08 0.06 0.06 0.08 0.04 0.02 0.00 0.01 0.02 0.00 0.00 0.00 0.00 0.00 0.00
0.00 0.00 0.00 0.00 0.00 0.00 0.00 0.02 0.15 0.05 0.05 0.06 0.02 0.00 0.00 0.00 0.00 0.00 0.00 0.00 0.00 0.00 0.00 0.00 0.01 0.02 0.04 0.04 0.00 0.00 0.02 0.03 0.03 0.06 0.03 0.08 0.10 0.08 0.07 0.05 0.03 0.04 0.05 0.00 0.00 0.00 0.00 0.00 0.00
0.00 0.00 0.00 0.00 0.00 0.00 0.00 0.01 0.02 0.03 0.03 0.03 0.02 0.01 0.00 0.00 0.00 0.00 0.00 0.00 0.00 0.00 0.00 0.00 0.00 0.01 0.08 0.02 0.00 0.00 0.00 0.01 0.01 0.04 0.01 0.04 0.07 0.04 0.07 0.09 0.07 0.09 0.04 0.01 0.00 0.00 0.00 0.00 0.00
0.00 0.00 0.00 0.00 0.00 0.00 0.00 0.00 0.00 0.01 0.17 0.03 0.01 0.01 0.00 0.00 0.00 0.00 0.00 0.00 0.00 0.00 0.00 0.01 0.00 0.01 0.07 0.03 0.00 0.00 0.00 0.00 0.00 0.01 0.03 0.06 0.10 0.04 0.04 0.07 0.04 0.03 0.02 0.00 0.00 0.00 0.00 0.00 0.00
0.00 0.00 0.00 0.00 0.00 0.00 0.00 0.00 0.00 0.00 0.02 0.04 0.03 0.03 0.00 0.00 0.00 0.00 0.00 0.00 0.00 0.00 0.00 0.00 0.02 0.02 0.03 0.00 0.00 0.00 0.00 0.00 0.00 0.01 0.03 0.04 0.04 0.03 0.00 0.04 0.01 0.00 0.00 0.00 0.00 0.00 0.00 0.00 0.00
0.00 0.00 0.00 0.00 0.00 0.00 0.00 0.00 0.00 0.00 0.00 0.05 0.01 0.01 0.01 0.00 0.00 0.00 0.00 0.00 0.00 0.00 0.00 0.00 0.02 0.05 0.01 0.00 0.01 0.00 0.00 0.00 0.02 0.06 0.03 0.04 0.05 0.05 0.02 0.01 0.01 0.00 0.00 0.00 0.00 0.00 0.00 0.00 0.00
0.00 0.00 0.00 0.00 0.00 0.00 0.00 0.00 0.00 0.00 0.00 0.00 0.00 0.01 0.01 0.00 0.00 0.01 0.01 0.01 0.01 0.00 0.00 0.01 0.06 0.10 0.03 0.01 0.00 0.02 0.01 0.01 0.03 0.04 0.05 0.03 0.02 0.03 0.03 0.02 0.06 0.02 0.01 0.04 0.05 0.02 0.01 0.01 0.01
0.00 0.00 0.00 0.00 0.00 0.00 0.00 0.00 0.00 0.00 0.00 0.00 0.00 0.01 0.00 0.01 0.03 0.03 0.03 0.05 0.02 0.01 0.05 0.03 0.08 0.07 0.06 0.04 0.01 0.06 0.13 0.08 0.06 0.05 0.04 0.05 0.04 0.01 0.04 0.05 0.03 0.05 0.04 0.09 0.11 0.08 0.06 0.05 0.04
0.00 0.00 0.00 0.03 0.01 0.00 0.00 0.00 0.00 0.00 0.00 0.00 0.00 0.00 0.00 0.00 0.00 0.01 0.01 0.05 0.04 0.05 0.13 0.06 0.03 0.06 0.04 0.03 0.06 0.10 0.21 0.17 0.17 0.09 0.06 0.13 0.08 0.03 0.07 0.15 0.11 0.09 0.18 0.19 0.19 0.14 0.09 0.07 0.14
0.00 0.00 0.01 0.08 0.06 0.02 0.03 0.00 0.00 0.00 0.00 0.00 0.00 0.00 0.00 0.00 0.00 0.00 0.01 0.05 0.07 0.13 0.16 0.07 0.03 0.06 0.06 0.13 0.25 0.22 0.21 0.28 0.40 0.30 0.16 0.24 0.14 0.10 0.12 0.21 0.35 0.31 0.29 0.25 0.17 0.10 0.10 0.10 0.13
0.00 0.00 0.00 0.01 0.01 0.03 0.04 0.00 0.00 0.00 0.00 0.00 0.00 0.00 0.00 0.00 0.00 0.00 0.00 0.00 0.02 0.20 0.17 0.04 0.02 0.02 0.03 0.15 0.26 0.15 0.36 0.63 0.50 0.40 0.37 0.34 0.35 0.34 0.29 0.36 0.47 0.47 0.36 0.34 0.19 0.12 0.06 0.04 0.07
0.00 0.00 0.00 0.00 0.05 0.05 0.00 0.00 0.00 0.00 0.00 0.00 0.00 0.00 0.00 0.00 0.00 0.00 0.00 0.00 0.01 0.06 0.05 0.01 0.02 0.06 0.08 0.05 0.08 0.11 0.18 0.30 0.40 0.33 0.37 0.57 0.54 0.35 0.43 0.45 0.43 0.36 0.22 0.14 0.08 0.05 0.06 0.14 0.20
0.00 0.00 0.00 0.00 0.00 0.04 0.03 0.00 0.00 0.00 0.00 0.00 0.00 0.00 0.00 0.00 0.00 0.00 0.00 0.00 0.00 0.00 0.00 0.00 0.01 0.09 0.16 0.34 0.39 0.26 0.37 0.35 0.58 0.57 0.72 0.57 0.46 0.43 0.49 0.35 0.18 0.08 0.10 0.10 0.11 0.17 0.21 0.22 0.26
0.00 0.00 0.00 0.01 0.00 0.01 0.01 0.00 0.00 0.00 0.00 0.00 0.00 0.00 0.00 0.00 0.00 0.00 0.00 0.00 0.00 0.00 0.00 0.01 0.01 0.13 0.34 0.93 1.08 0.71 0.85 0.70 0.66 0.75 0.72 0.72 0.50 0.19 0.14 0.16 0.13 0.14 0.19 0.27 0.31 0.25 0.22 0.20 0.18

GFSSGP_prec_precacc24_063.txt.gz
Total_Precipitation_Accumulation
0.00 0.00 0.00 0.00 0.00 0.00 0.00 0.00 0.00 0.00 0.00 0.02 0.07 0.09 0.12 0.24 0.35 0.26 0.22 0.66 0.94 0.86 0.84 1.95 1.89 1.65 0.89 0.39 0.10 0.00 0.00 0.00 0.00 0.00 0.00 0.00 0.00 0.00 0.00 0.00 0.00 0.00 0.01 0.00 0.00 0.00 0.00 0.00 0.00
0.00 0.00 0.00 0.00 0.00 0.00 0.00 0.00 0.00 0.00 0.04 0.14 0.18 0.10 0.06 0.37 0.28 0.12 0.26 0.28 0.33 0.33 0.29 0.62 1.51 1.61 1.08 0.61 0.25 0.05 0.00 0.00 0.00 0.00 0.00 0.00 0.00 0.00 0.00 0.00 0.00 0.01 0.00 0.00 0.00 0.00 0.00 0.00 0.00
0.00 0.00 0.00 0.00 0.00 0.00 0.00 0.00 0.00 0.04 0.07 0.06 0.04 0.03 0.17 0.72 0.41 0.18 0.14 0.38 0.61 0.41 0.35 0.26 0.62 0.59 0.45 0.41 0.29 0.09 0.00 0.00 0.00 0.00 0.00 0.00 0.00 0.00 0.00 0.00 0.01 0.01 0.00 0.00 0.00 0.00 0.00 0.00 0.00
0.00 0.00 0.00 0.00 0.00 0.00 0.00 0.00 0.00 0.00 0.00 0.00 0.00 0.06 0.32 0.34 0.40 0.31 0.22 0.36 0.75 0.60 0.36 0.45 1.00 1.51 1.11 0.69 0.37 0.15 0.05 0.01 0.00 0.00 0.00 0.00 0.00 0.00 0.00 0.00 0.00 0.01 0.00 0.00 0.00 0.00 0.00 0.00 0.00
0.00 0.00 0.00 0.00 0.00 0.00 0.00 0.00 0.00 0.00 0.00 0.00 0.02 0.03 0.67 0.61 0.31 0.39 0.61 0.94 0.82 0.82 0.96 0.82 1.11 1.12 1.66 2.17 1.43 0.72 0.35 0.05 0.01 0.00 0.00 0.00 0.00 0.00 0.00 0.00 0.00 0.00 0.00 0.00 0.00 0.00 0.00 0.00 0.00
0.00 0.00 0.00 0.00 0.00 0.00 0.00 0.00 0.00 0.00 0.00 0.02 0.04 0.07 0.53 0.21 0.26 0.40 0.84 1.02 1.28 1.91 1.93 1.42 1.23 1.60 1.12 1.16 2.52 1.61 0.63 0.13 0.03 0.02 0.01 0.00 0.00 0.00 0.00 0.01 0.01 0.00 0.00 0.00 0.00 0.00 0.00 0.00 0.00
0.00 0.00 0.00 0.00 0.00 0.00 0.00 0.00 0.05 0.21 0.14 0.07 0.06 0.35 0.80 0.51 0.30 0.37 0.72 0.64 1.33 2.96 3.63 2.64 2.12 2.38 2.52 1.32 1.38 1.53 0.66 0.16 0.08 0.02 0.02 0.02 0.01 0.01 0.00 0.00 0.00 0.00 0.00 0.00 0.00 0.00 0.00 0.00 0.00
0.00 0.00 0.00 0.00 0.00 0.00 0.00 0.01 0.06 0.11 0.32 0.28 0.08 0.44 0.79 0.31 0.28 0.29 0.33 0.53 0.79 3.10 4.39 2.87 2.32 1.72 1.15 1.13 0.67 0.49 0.33 0.18 0.10 0.05 0.03 0.05 0.05 0.02 0.00 0.00 0.00 0.00 0.00 0.00 0.00 0.00 0.00 0.00 0.00
0.00 0.00 0.00 0.00 0.00 0.00 0.01 0.02 0.14 0.07 0.19 0.28 0.16 0.35 0.36 0.22 0.27 0.23 0.20 0.27 0.60 1.55 2.07 2.80 2.24 1.61 1.16 1.20 0.98 0.48 0.24 0.21 0.23 0.14 0.11 0.04 0.07 0.08 0.02 0.00 0.00 0.00 0.00 0.00 0.00 0.00 0.00 0.00 0.00
0.00 0.00 0.00 0.00 0.00 0.00 0.02 0.01 0.02 0.03 0.22 0.16 0.20 0.11 0.27 0.35 0.20 0.24 0.17 0.16 0.27 0.68 0.97 1.14 1.19 0.80 0.63 0.80 0.78 0.46 0.30 0.11 0.19 0.20 0.07 0.04 0.04 0.03 0.00 0.00 0.00 0.00 0.00 0.00 0.00 0.00 0.00 0.00 0.00
0.00 0.00 0.00 0.00 0.00 0.00 0.02 0.04 0.11 0.03 0.17 0.28 0.52 0.23 0.39 0.39 0.22 0.06 0.06 0.10 0.14 0.39 0.53 0.66 0.79 0.63 0.43 0.36 0.36 0.17 0.14 0.10 0.07 0.09 0.06 0.02 0.02 0.00 0.00 0.00 0.00 0.00 0.00 0.00 0.00 0.00 0.00 0.00 0.00
0.00 0.00 0.00 0.00 0.00 0.00 0.00 0.08 0.17 0.13 0.31 0.16 0.11 0.27 0.29 0.12 0.04 0.05 0.03 0.09 0.22 0.41 0.60 0.75 0.57 0.66 0.55 0.44 0.37 0.24 0.17 0.04 0.04 0.03 0.02 0.01 0.00 0.00 0.00 0.00 0.00 0.00 0.00 0.00 0.00 0.00 0.00 0.00 0.00
0.00 0.00 0.00 0.00 0.00 0.00 0.00 0.00 0.07 0.60 0.28 0.04 0.06 0.14 0.14 0.03 0.02 0.02 0.02 0.04 0.18 0.39 0.60 0.73 0.50 0.50 0.46 0.40 0.37 0.28 0.16 0.06 0.09 0.04 0.03 0.00 0.00 0.01 0.00 0.00 0.00 0.00 0.00 0.00 0.00 0.00 0.00 0.00 0.00
0.00 0.00 0.00 0.00 0.00 0.00 0.00 0.05 0.07 0.59 0.26 0.02 0.02 0.03 0.02 0.00 0.01 0.01 0.01 0.02 0.15 0.38 0.52 0.68 0.79 0.41 0.41 0.41 0.37 0.35 0.16 0.08 0.09 0.06 0.05 0.02 0.01 0.00 0.00 0.00 0.00 0.00 0.00 0.00 0.00 0.00 0.00 0.00 0.00
0.00 0.00 0.00 0.00 0.00 0.01 0.01 0.09 0.16 0.39 0.12 0.05 0.00 0.00 0.03 0.00 0.00 0.00 0.00 0.00 0.03 0.14 0.22 0.38 0.48 0.54 0.35 0.17 0.23 0.18 0.15 0.10 0.09 0.08 0.08 0.08 0.04 0.00 0.00 0.00 0.01 0.00 0.00 0.00 0.00 0.00 0.00 0.00 0.00
0.00 0.00 0.00 0.02 0.00 0.02 0.03 0.47 0.11 0.04 0.07 0.06 0.00 0.00 0.00 0.00 0.00 0.00 0.00 0.00 0.00 0.01 0.05 0.13 0.19 0.27 0.31 0.12 0.09 0.06 0.03 0.06 0.10 0.08 0.06 0.03 0.02 0.02 0.01 0.04 0.03 0.00 0.00 0.00 0.00 0.00 0.00 0.00 0.00
0.00 0.00 0.00 0.00 0.00 0.01 0.02 0.18 0.14 0.04 0.06 0.08 0.01 0.00 0.00 0.00 0.00 0.00 0.00 0.00 0.00 0.00 0.01 0.08 0.10 0.13 0.08 0.07 0.03 0.02 0.05 0.05 0.04 0.06 0.08 0.06 0.06 0.08 0.04 0.02 0.00 0.01 0.02 0.00 0.00 0.00 0.00 0.00 0.00
0.00 0.00 0.00 0.00 0.00 0.00 0.00 0.02 0.15 0.05 0.05 0.06 0.02 0.00 0.00 0.00 0.00 0.00 0.00 0.00 0.00 0.00 0.00 0.00 0.02 0.06 0.07 0.05 0.02 0.01 0.03 0.03 0.03 0.06 0.03 0.08 0.10 0.08 0.07 0.05 0.03 0.05 0.05 0.00 0.00 0.00 0.00 0.00 0.00
0.00 0.00 0.00 0.00 0.00 0.00 0.00 0.01 0.02 0.03 0.03 0.03 0.02 0.00 0.00 0.00 0.00 0.00 0.00 0.00 0.00 0.00 0.00 0.00 0.00 0.01 0.08 0.02 0.00 0.01 0.02 0.02 0.01 0.04 0.01 0.05 0.07 0.05 0.07 0.09 0.07 0.09 0.04 0.01 0.00 0.00 0.00 0.00 0.00
0.00 0.00 0.00 0.00 0.00 0.00 0.00 0.00 0.00 0.01 0.17 0.03 0.01 0.00 0.00 0.00 0.00 0.00 0.00 0.00 0.00 0.00 0.00 0.00 0.00 0.01 0.07 0.03 0.00 0.00 0.00 0.00 0.00 0.01 0.03 0.06 0.10 0.04 0.04 0.07 0.04 0.03 0.02 0.02 0.00 0.00 0.00 0.00 0.00
0.00 0.00 0.00 0.00 0.00 0.00 0.00 0.00 0.00 0.00 0.02 0.04 0.03 0.01 0.00 0.00 0.00 0.00 0.00 0.00 0.00 0.00 0.00 0.00 0.00 0.00 0.03 0.00 0.00 0.00 0.00 0.00 0.00 0.01 0.03 0.04 0.04 0.03 0.00 0.04 0.01 0.00 0.00 0.00 0.00 0.00 0.01 0.01 0.00
0.00 0.00 0.00 0.00 0.00 0.00 0.00 0.00 0.00 0.00 0.00 0.05 0.01 0.00 0.00 0.00 0.00 0.00 0.00 0.00 0.00 0.00 0.00 0.00 0.00 0.00 0.00 0.00 0.01 0.00 0.00 0.00 0.02 0.06 0.03 0.04 0.05 0.05 0.02 0.01 0.01 0.00 0.00 0.00 0.00 0.02 0.02 0.03 0.02
0.00 0.00 0.00 0.00 0.00 0.00 0.00 0.00 0.00 0.00 0.00 0.00 0.00 0.00 0.00 0.00 0.00 0.00 0.00 0.00 0.00 0.00 0.00 0.00 0.00 0.02 0.01 0.00 0.00 0.01 0.01 0.01 0.03 0.04 0.05 0.03 0.02 0.03 0.03 0.02 0.06 0.02 0.01 0.04 0.05 0.03 0.05 0.05 0.03
0.00 0.00 0.00 0.00 0.00 0.00 0.00 0.00 0.00 0.00 0.00 0.00 0.00 0.01 0.00 0.00 0.00 0.00 0.00 0.00 0.00 0.00 0.00 0.00 0.01 0.02 0.05 0.02 0.01 0.04 0.11 0.08 0.05 0.05 0.04 0.05 0.04 0.01 0.04 0.05 0.03 0.06 0.04 0.09 0.12 0.16 0.12 0.10 0.08
0.00 0.00 0.00 0.03 0.01 0.00 0.00 0.00 0.00 0.00 0.00 0.00 0.00 0.00 0.00 0.00 0.00 0.00 0.00 0.00 0.00 0.00 0.00 0.00 0.00 0.02 0.01 0.02 0.05 0.09 0.18 0.15 0.15 0.08 0.06 0.13 0.08 0.03 0.07 0.15 0.11 0.09 0.20 0.24 0.31 0.28 0.19 0.18 0.18
0.00 0.00 0.01 0.08 0.06 0.02 0.03 0.00 0.00 0.00 0.00 0.00 0.00 0.00 0.00 0.00 0.00 0.00 0.00 0.02 0.02 0.01 0.00 0.00 0.01 0.04 0.04 0.13 0.25 0.21 0.19 0.25 0.35 0.29 0.16 0.24 0.14 0.10 0.13 0.21 0.35 0.31 0.32 0.32 0.33 0.38 0.50 0.28 0.18
0.00 0.00 0.00 0.01 0.01 0.03 0.04 0.00 0.00 0.00 0.00 0.00 0.00 0.00 0.00 0.00 0.00 0.00 0.00 0.00 0.01 0.07 0.04 0.02 0.02 0.01 0.03 0.15 0.26 0.15 0.35 0.61 0.45 0.38 0.36 0.37 0.39 0.36 0.30 0.36 0.47 0.48 0.40 0.50 0.55 0.45 0.22 0.08 0.08
0.00 0.00 0.00 0.00 0.05 0.05 0.00 0.00 0.00 0.00 0.00 0.00 0.00 0.00 0.00 0.00 0.00 0.00 0.00 0.00 0.01 0.03 0.03 0.02 0.06 0.13 0.14 0.05 0.08 0.10 0.16 0.28 0.38 0.32 0.36 0.59 0.63 0.47 0.51 0.47 0.47 0.41 0.30 0.31 0.32 0.20 0.10 0.15 0.20
0.00 0.00 0.00 0.00 0.00 0.04 0.03 0.00 0.00 0.00 0.00 0.00 0.00 0.00 0.00 0.00 0.00 0.00 0.00 0.00 0.00 0.00 0.00 0.00 0.01 0.15 0.29 0.46 0.41 0.26 0.36 0.35 0.57 0.60 0.75 0.59 0.55 0.63 0.64 0.41 0.26 0.20 0.31 0.27 0.18 0.22 0.22 0.23 0.26
0.00 0.00 0.00 0.01 0.00 0.01 0.01 0.00 0.00 0.00 0.00 0.00 0.00 0.00 0.00 0.00 0.00 0.00 0.00 0.00 0.00 0.00 0.00 0.01 0.01 0.13 0.41 1.15 1.23 0.75 0.88 0.77 0.73 0.80 0.77 0.81 0.78 0.72 0.53 0.30 0.19 0.20 0.24 0.31 0.34 0.26 0.22 0.20 0.18

GFSSGP_prec_precacc24_069.txt.gz
Total_Precipitation_Accumulation
0.00 0.00 0.00 0.00 0.00 0.00 0.00 0.00 0.00 0.00 0.00 0.00 0.05 0.08 0.08 0.15 0.26 0.24 0.22 0.62 0.93 0.86 0.85 1.99 1.90 1.66 0.91 0.46 0.23 0.12 0.02 0.00 0.00 0.00 0.00 0.00 0.00 0.00 0.00 0.00 0.00 0.00 0.01 0.00 0.00 0.00 0.01 0.01 0.00
0.00 0.00 0.00 0.00 0.00 0.00 0.00 0.00 0.00 0.00 0.00 0.04 0.08 0.07 0.05 0.33 0.21 0.08 0.19 0.20 0.30 0.37 0.52 0.77 1.54 1.64 1.08 0.65 0.34 0.24 0.10 0.01 0.00 0.00 0.00 0.00 0.00 0.00 0.00 0.00 0.00 0.01 0.00 0.00 0.00 0.01 0.00 0.00 0.00
0.00 0.00 0.00 0.00 0.00 0.00 0.00 0.00 0.00 0.00 0.00 0.01 0.00 0.02 0.16 0.71 0.40 0.14 0.09 0.29 0.55 0.46 0.68 0.35 0.76 0.67 0.45 0.41 0.32 0.32 0.24 0.06 0.00 0.00 0.00 0.00 0.00 0.01 0.01 0.00 0.01 0.01 0.01 0.00 0.01 0.00 0.00 0.00 0.00
0.00 0.00 0.00 0.00 0.00 0.00 0.00 0.00 0.00 0.00 0.00 0.00 0.00 0.05 0.29 0.31 0.38 0.27 0.18 0.14 0.54 0.62 0.77 0.52 1.02 1.48 1.11 0.69 0.43 0.27 0.21 0.10 0.01 0.00 0.00 0.00 0.00 0.01 0.01 0.00 0.01 0.01 0.01 0.01 0.00 0.00 0.00 0.00 0.00
0.00 0.00 0.00 0.00 0.00 0.00 0.00 0.00 0.00 0.00 0.00 0.00 0.01 0.01 0.63 0.55 0.26 0.38 0.57 0.66 0.53 0.62 1.03 0.69 0.89 1.06 1.71 2.21 1.52 0.86 0.47 0.13 0.02 0.00 0.00 0.00 0.00 0.01 0.01 0.01 0.00 0.01 0.00 0.00 0.00 0.00 0.00 0.00 0.00
0.00 0.00 0.00 0.00 0.00 0.00 0.00 0.00 0.00 0.00 0.00 0.00 0.01 0.05 0.47 0.17 0.19 0.37 0.80 0.80 1.00 1.29 1.35 1.20 0.99 1.39 1.21 1.35 2.62 1.82 0.85 0.29 0.07 0.02 0.02 0.01 0.00 0.01 0.01 0.01 0.01 0.00 0.00 0.00 0.00 0.00 0.00 0.00 0.00
0.00 0.00 0.00 0.00 0.00 0.00 0.00 0.00 0.02 0.15 0.09 0.02 0.05 0.35 0.74 0.41 0.24 0.33 0.71 0.59 1.05 2.06 2.41 1.79 1.31 1.91 2.88 2.03 1.68 1.96 1.17 0.40 0.19 0.04 0.02 0.02 0.01 0.02 0.00 0.00 0.00 0.00 0.00 0.00 0.00 0.00 0.00 0.00 0.00
0.00 0.00 0.00 0.00 0.00 0.00 0.00 0.00 0.02 0.05 0.23 0.25 0.08 0.44 0.76 0.21 0.22 0.28 0.32 0.53 0.73 2.12 2.83 1.98 1.77 1.83 1.30 2.04 1.77 1.34 0.87 0.61 0.32 0.12 0.04 0.05 0.05 0.02 0.00 0.00 0.00 0.00 0.00 0.00 0.00 0.00 0.00 0.00 0.00
0.00 0.00 0.00 0.00 0.00 0.00 0.01 0.01 0.12 0.03 0.17 0.28 0.16 0.34 0.32 0.12 0.22 0.23 0.24 0.31 0.53 1.14 1.02 2.05 3.53 2.50 1.95 1.66 1.89 1.38 0.92 0.69 0.58 0.31 0.14 0.04 0.07 0.08 0.02 0.00 0.00 0.00 0.00 0.00 0.00 0.00 0.00 0.00 0.00
0.00 0.00 0.00 0.00 0.00 0.00 0.02 0.01 0.02 0.03 0.22 0.15 0.18 0.07 0.17 0.27 0.16 0.21 0.18 0.19 0.30 0.54 0.69 0.82 1.79 1.98 1.41 1.58 1.71 1.06 0.85 0.46 0.58 0.45 0.13 0.04 0.04 0.03 0.00 0.00 0.00 0.00 0.00 0.00 0.00 0.00 0.00 0.00 0.00
0.00 0.00 0.00 0.00 0.00 0.00 0.01 0.04 0.11 0.03 0.17 0.26 0.49 0.18 0.28 0.31 0.15 0.05 0.07 0.12 0.20 0.49 0.71 0.81 0.98 0.92 0.71 0.74 0.57 0.41 0.34 0.30 0.34 0.38 0.13 0.02 0.02 0.00 0.00 0.00 0.00 0.00 0.00 0.00 0.00 0.00 0.00 0.00 0.00
0.00 0.00 0.00 0.00 0.00 0.00 0.00 0.08 0.17 0.13 0.31 0.16 0.06 0.17 0.21 0.08 0.02 0.02 0.02 0.07 0.21 0.41 0.69 0.93 0.71 0.87 0.89 0.61 0.40 0.30 0.19 0.10 0.14 0.15 0.07 0.01 0.00 0.00 0.00 0.00 0.00 0.00 0.00 0.00 0.00 0.00 0.00 0.00 0.00
0.00 0.00 0.00 0.00 0.00 0.00 0.00 0.00 0.07 0.60 0.28 0.04 0.04 0.11 0.13 0.02 0.01 0.01 0.01 0.04 0.18 0.38 0.67 0.91 0.71 0.70 0.68 0.53 0.40 0.30 0.16 0.07 0.12 0.07 0.06 0.00 0.00 0.01 0.00 0.00 0.00 0.00 0.00 0.00 0.00 0.00 0.00 0.00 0.00
0.00 0.00 0.00 0.00 0.00 0.00 0.00 0.05 0.07 0.59 0.26 0.02 0.01 0.02 0.02 0.00 0.01 0.01 0.01 0.03 0.15 0.39 0.54 0.87 1.05 0.77 0.76 0.57 0.43 0.40 0.22 0.08 0.10 0.07 0.07 0.01 0.01 0.00 0.00 0.00 0.00 0.00 0.00 0.00 0.00 0.00 0.00 0.00 0.00
0.00 0.00 0.00 0.00 0.00 0.00 0.00 0.09 0.16 0.39 0.12 0.05 0.00 0.00 0.03 0.00 0.00 0.00 0.00 0.01 0.03 0.14 0.26 0.62 0.79 0.93 0.87 0.45 0.34 0.31 0.31 0.18 0.11 0.07 0.04 0.02 0.01 0.00 0.00 0.00 0.01 0.00 0.00 0.00 0.00 0.00 0.00 0.00 0.00
0.00 0.00 0.00 0.02 0.00 0.00 0.03 0.47 0.11 0.04 0.07 0.06 0.00 0.00 0.00 0.00 0.00 0.00 0.00 0.00 0.00 0.01 0.07 0.19 0.42 0.73 0.79 0.62 0.26 0.42 0.21 0.14 0.11 0.10 0.06 0.01 0.01 0.01 0.01 0.04 0.03 0.00 0.00 0.00 0.00 0.00 0.00 0.00 0.00
0.00 0.00 0.00 0.00 0.00 0.00 0.02 0.18 0.14 0.04 0.06 0.08 0.01 0.00 0.00 0.00 0.00 0.00 0.00 0.00 0.00 0.00 0.01 0.10 0.25 0.52 0.63 0.47 0.20 0.26 0.21 0.07 0.12 0.14 0.12 0.05 0.05 0.07 0.04 0.02 0.00 0.01 0.02 0.00 0.00 0.00 0.00 0.00 0.00
0.00 0.00 0.00 0.00 0.00 0.00 0.00 0.02 0.15 0.05 0.05 0.06 0.02 0.00 0.00 0.00 0.00 0.00 0.00 0.00 0.00 0.00 0.01 0.01 0.10 0.26 0.33 0.19 0.19 0.10 0.10 0.04 0.06 0.14 0.10 0.09 0.10 0.08 0.07 0.05 0.03 0.05 0.05 0.00 0.00 0.00 0.00 0.00 0.00
0.00 0.00 0.00 0.00 0.00 0.00 0.00 0.01 0.02 0.03 0.03 0.03 0.02 0.00 0.00 0.00 0.00 0.00 0.00 0.00 0.00 0.00 0.00 0.00 0.00 0.05 0.15 0.06 0.09 0.07 0.08 0.03 0.04 0.07 0.08 0.08 0.07 0.05 0.07 0.09 0.08 0.10 0.05 0.02 0.00 0.01 0.01 0.01 0.00
0.00 0.00 0.00 0.00 0.00 0.00 0.00 0.00 0.00 0.01 0.17 0.03 0.01 0.00 0.00 0.00 0.00 0.00 0.00 0.00 0.00 0.00 0.00 0.00 0.00 0.01 0.07 0.04 0.02 0.02 0.06 0.05 0.03 0.04 0.07 0.09 0.10 0.05 0.08 0.09 0.05 0.05 0.05 0.05 0.03 0.04 0.02 0.03 0.01
0.00 0.00 0.00 0.00 0.00 0.00 0.00 0.00 0.00 0.00 0.02 0.04 0.03 0.01 0.00 0.00 0.00 0.00 0.00 0.00 0.00 0.00 0.00 0.00 0.00 0.00 0.03 0.00 0.02 0.02 0.05 0.10 0.05 0.05 0.09 0.08 0.06 0.05 0.03 0.11 0.09 0.08 0.05 0.05 0.06 0.06 0.04 0.03 0.02
0.00 0.00 0.00 0.00 0.00 0.00 0.00 0.00 0.00 0.00 0.00 0.05 0.01 0.00 0.00 0.00 0.00 0.00 0.00 0.00 0.00 0.00 0.00 0.00 0.00 0.00 0.00 0.00 0.01 0.01 0.01 0.04 0.04 0.01 0.03 0.07 0.07 0.06 0.02 0.02 0.03 0.05 0.05 0.05 0.05 0.06 0.03 0.03 0.03
0.00 0.00 0.00 0.00 0.00 0.00 0.00 0.00 0.00 0.00 0.00 0.00 0.00 0.00 0.00 0.00 0.00 0.00 0.00 0.00 0.00 0.00 0.00 0.00 0.00 0.00 0.00 0.00 0.00 0.01 0.00 0.00 0.01 0.02 0.04 0.05 0.04 0.04 0.04 0.02 0.07 0.03 0.02 0.05 0.06 0.05 0.05 0.06 0.05
0.00 0.00 0.00 0.00 0.00 0.00 0.00 0.00 0.00 0.00 0.00 0.00 0.00 0.01 0.00 0.00 0.00 0.00 0.00 0.00 0.00 0.00 0.00 0.00 0.00 0.00 0.00 0.00 0.00 0.02 0.06 0.02 0.01 0.00 0.01 0.04 0.03 0.01 0.04 0.05 0.04 0.06 0.04 0.09 0.12 0.16 0.13 0.19 0.18
0.00 0.00 0.00 0.03 0.01 0.00 0.00 0.00 0.00 0.00 0.00 0.00 0.00 0.00 0.00 0.00 0.00 0.00 0.00 0.00 0.00 0.00 0.00 0.00 0.00 0.00 0.00 0.00 0.01 0.04 0.10 0.10 0.10 0.03 0.02 0.09 0.06 0.02 0.07 0.15 0.11 0.08 0.20 0.22 0.25 0.25 0.26 0.32 0.41
0.00 0.00 0.01 0.08 0.06 0.02 0.03 0.00 0.00 0.00 0.00 0.00 0.00 0.00 0.00 0.00 0.00 0.00 0.00 0.00 0.00 0.00 0.00 0.00 0.00 0.00 0.00 0.05 0.19 0.19 0.15 0.19 0.28 0.19 0.08 0.19 0.12 0.08 0.12 0.21 0.35 0.28 0.25 0.24 0.30 0.44 0.61 0.70 0.63
0.00 0.00 0.00 0.01 0.01 0.03 0.04 0.00 0.00 0.00 0.00 0.00 0.00 0.00 0.00 0.00 0.00 0.00 0.00 0.00 0.00 0.00 0.01 0.00 0.01 0.00 0.00 0.05 0.21 0.13 0.31 0.53 0.25 0.24 0.28 0.31 0.36 0.34 0.28 0.34 0.42 0.42 0.38 0.50 0.57 0.54 0.38 0.26 0.21
0.00 0.00 0.00 0.00 0.05 0.05 0.00 0.00 0.00 0.00 0.00 0.00 0.00 0.00 0.00 0.00 0.00 0.00 0.00 0.00 0.00 0.00 0.01 0.00 0.07 0.20 0.18 0.05 0.02 0.03 0.06 0.16 0.24 0.17 0.25 0.50 0.59 0.45 0.50 0.47 0.48 0.42 0.31 0.31 0.34 0.30 0.22 0.23 0.25
0.00 0.00 0.00 0.00 0.00 0.04 0.03 0.00 0.00 0.00 0.00 0.00 0.00 0.00 0.00 0.00 0.00 0.00 0.00 0.00 0.00 0.00 0.00 0.00 0.01 0.16 0.36 0.58 0.45 0.20 0.25 0.19 0.36 0.41 0.62 0.53 0.52 0.62 0.67 0.47 0.35 0.29 0.42 0.46 0.33 0.31 0.31 0.31 0.34
0.00 0.00 0.00 0.01 0.00 0.01 0.01 0.00 0.00 0.00 0.00 0.00 0.00 0.00 0.00 0.00 0.00 0.00 0.00 0.00 0.00 0.00 0.00 0.00 0.00 0.10 0.38 1.20 1.25 0.66 0.70 0.58 0.59 0.68 0.69 0.77 0.77 0.71 0.56 0.37 0.29 0.30 0.33 0.51 0.65 0.57 0.50 0.47 0.41

GFSSGP_prec_precacc24_072.txt.gz
Total_Precipitation_Accumulation
0.00 0.00 0.00 0.00 0.00 0.00 0.00 0.00 0.00 0.00 0.00 0.00 0.05 0.08 0.08 0.14 0.21 0.19 0.21 0.62 0.92 0.85 0.83 1.99 1.91 1.70 0.95 0.46 0.23 0.12 0.02 0.00 0.00 0.00 0.00 0.00 0.00 0.00 0.00 0.00 0.00 0.02 0.02 0.01 0.00 0.00 0.01 0.01 0.00
0.00 0.00 0.00 0.00 0.00 0.00 0.00 0.00 0.00 0.00 0.00 0.03 0.04 0.05 0.02 0.30 0.19 0.06 0.16 0.18 0.30 0.36 0.50 0.78 1.62 1.81 1.15 0.66 0.34 0.24 0.10 0.01 0.00 0.00 0.00 0.00 0.00 0.00 0.00 0.00 0.00 0.01 0.01 0.01 0.00 0.01 0.01 0.00 0.00
0.00 0.00 0.00 0.00 0.00 0.00 0.00 0.00 0.00 0.00 0.00 0.00 0.00 0.00 0.15 0.68 0.37 0.11 0.08 0.25 0.54 0.49 0.72 0.42 0.96 1.07 1.02 0.58 0.33 0.32 0.24 0.06 0.00 0.00 0.00 0.00 0.00 0.01 0.01 0.00 0.01 0.01 0.01 0.00 0.01 0.01 0.00 0.00 0.00
0.00 0.00 0.00 0.00 0.00 0.00 0.00 0.00 0.00 0.00 0.00 0.00 0.00 0.05 0.28 0.28 0.33 0.24 0.17 0.10 0.55 0.68 1.10 0.78 1.18 1.75 1.50 1.38 0.55 0.28 0.21 0.10 0.01 0.00 0.00 0.00 0.00 0.01 0.01 0.01 0.01 0.01 0.01 0.01 0.00 0.00 0.00 0.00 0.00
0.00 0.00 0.00 0.00 0.00 0.00 0.00 0.00 0.00 0.00 0.00 0.00 0.01 0.01 0.63 0.52 0.23 0.36 0.55 0.60 0.51 0.62 1.15 0.71 0.81 1.01 1.82 2.65 1.73 0.88 0.47 0.13 0.02 0.00 0.00 0.00 0.00 0.01 0.01 0.01 0.01 0.02 0.01 0.01 0.00 0.00 0.00 0.00 0.00
0.00 0.00 0.00 0.00 0.00 0.00 0.00 0.00 0.00 0.00 0.00 0.00 0.01 0.05 0.46 0.17 0.18 0.35 0.76 0.77 0.81 0.94 1.14 1.04 0.87 1.32 1.21 1.59 2.84 1.94 0.86 0.30 0.08 0.02 0.03 0.01 0.00 0.01 0.01 0.01 0.02 0.02 0.01 0.00 0.00 0.00 0.00 0.00 0.00
0.00 0.00 0.00 0.00 0.00 0.00 0.00 0.00 0.02 0.15 0.09 0.02 0.05 0.35 0.72 0.40 0.24 0.33 0.68 0.55 0.93 1.45 1.77 1.59 1.23 1.86 2.86 2.12 1.91 2.34 1.47 0.46 0.19 0.04 0.05 0.03 0.01 0.02 0.00 0.00 0.01 0.01 0.00 0.00 0.00 0.00 0.00 0.00 0.00
0.00 0.00 0.00 0.00 0.00 0.00 0.00 0.00 0.02 0.05 0.23 0.25 0.08 0.40 0.73 0.19 0.22 0.28 0.32 0.51 0.67 1.77 1.90 1.89 1.58 1.54 1.28 2.19 1.86 1.46 1.13 0.84 0.42 0.16 0.06 0.06 0.05 0.02 0.00 0.00 0.00 0.00 0.00 0.00 0.00 0.00 0.00 0.00 0.00
0.00 0.00 0.00 0.00 0.00 0.00 0.00 0.01 0.12 0.03 0.17 0.28 0.16 0.33 0.31 0.11 0.22 0.22 0.24 0.29 0.50 1.07 0.73 1.89 3.43 2.41 2.07 2.05 2.01 1.48 1.07 0.87 0.78 0.48 0.22 0.07 0.07 0.08 0.02 0.00 0.00 0.00 0.00 0.00 0.00 0.00 0.00 0.00 0.00
0.00 0.00 0.00 0.00 0.00 0.00 0.00 0.01 0.02 0.03 0.22 0.15 0.17 0.05 0.13 0.24 0.15 0.21 0.19 0.19 0.30 0.53 0.61 0.67 1.72 2.05 1.62 2.55 2.53 1.41 1.10 0.65 0.70 0.58 0.25 0.10 0.06 0.03 0.00 0.00 0.01 0.00 0.00 0.00 0.00 0.00 0.00 0.00 0.00
0.00 0.00 0.00 0.00 0.00 0.00 0.01 0.04 0.11 0.03 0.17 0.26 0.48 0.13 0.21 0.25 0.14 0.04 0.06 0.12 0.20 0.47 0.60 0.64 0.83 0.88 0.95 1.56 1.26 1.15 0.79 0.60 0.52 0.54 0.23 0.07 0.03 0.00 0.00 0.00 0.00 0.00 0.00 0.00 0.00 0.00 0.00 0.00 0.00
0.00 0.00 0.00 0.00 0.00 0.00 0.00 0.08 0.17 0.13 0.31 0.16 0.05 0.09 0.12 0.05 0.01 0.02 0.01 0.06 0.17 0.36 0.61 0.78 0.61 0.76 1.01 1.11 0.75 0.56 0.46 0.33 0.32 0.33 0.16 0.03 0.01 0.00 0.00 0.00 0.00 0.00 0.00 0.00 0.00 0.00 0.00 0.00 0.00
0.00 0.00 0.00 0.00 0.00 0.00 0.00 0.00 0.07 0.60 0.28 0.04 0.01 0.07 0.10 0.02 0.01 0.01 0.01 0.04 0.16 0.30 0.63 0.85 0.70 0.71 0.76 0.61 0.52 0.40 0.23 0.22 0.27 0.21 0.11 0.01 0.00 0.01 0.00 0.00 0.00 0.00 0.00 0.00 0.00 0.00 0.00 0.00 0.00
0.00 0.00 0.00 0.00 0.00 0.00 0.00 0.05 0.07 0.59 0.26 0.02 0.01 0.01 0.02 0.00 0.01 0.01 0.01 0.02 0.15 0.38 0.54 0.85 1.08 0.79 0.82 0.61 0.50 0.46 0.25 0.13 0.20 0.17 0.08 0.01 0.01 0.00 0.00 0.00 0.00 0.00 0.00 0.00 0.00 0.00 0.00 0.00 0.00
0.00 0.00 0.00 0.00 0.00 0.00 0.00 0.09 0.16 0.39 0.12 0.05 0.00 0.00 0.02 0.00 0.00 0.00 0.00 0.01 0.03 0.15 0.26 0.62 0.91 1.01 0.92 0.56 0.47 0.37 0.35 0.20 0.16 0.12 0.05 0.01 0.01 0.00 0.00 0.00 0.01 0.00 0.00 0.00 0.00 0.00 0.00 0.00 0.00
0.00 0.00 0.00 0.02 0.00 0.00 0.03 0.47 0.11 0.04 0.07 0.06 0.00 0.00 0.00 0.00 0.00 0.00 0.00 0.00 0.00 0.01 0.07 0.21 0.43 0.75 0.84 0.66 0.44 0.54 0.28 0.21 0.15 0.13 0.06 0.01 0.01 0.01 0.00 0.04 0.03 0.00 0.00 0.00 0.00 0.00 0.00 0.00 0.00
0.00 0.00 0.00 0.00 0.00 0.00 0.02 0.18 0.14 0.04 0.06 0.08 0.01 0.00 0.00 0.00 0.00 0.00 0.00 0.00 0.00 0.00 0.02 0.11 0.27 0.58 0.68 0.55 0.32 0.36 0.37 0.18 0.18 0.15 0.12 0.05 0.04 0.05 0.04 0.02 0.00 0.01 0.02 0.00 0.00 0.00 0.00 0.00 0.00
0.00 0.00 0.00 0.00 0.00 0.00 0.00 0.02 0.15 0.05 0.05 0.06 0.02 0.00 0.00 0.00 0.00 0.00 0.00 0.00 0.00 0.00 0.01 0.02 0.10 0.33 0.51 0.31 0.27 0.17 0.20 0.16 0.18 0.22 0.12 0.08 0.09 0.07 0.06 0.05 0.03 0.05 0.05 0.00 0.00 0.00 0.00 0.00 0.00
0.00 0.00 0.00 0.00 0.00 0.00 0.00 0.01 0.02 0.03 0.03 0.03 0.02 0.00 0.00 0.00 0.00 0.00 0.00 0.00 0.00 0.00 0.01 0.01 0.01 0.08 0.18 0.14 0.13 0.13 0.12 0.08 0.10 0.12 0.10 0.08 0.07 0.04 0.07 0.09 0.08 0.10 0.05 0.02 0.00 0.01 0.03 0.01 0.00
0.00 0.00 0.00 0.00 0.00 0.00 0.00 0.00 0.00 0.01 0.17 0.03 0.01 0.00 0.00 0.00 0.00 0.00 0.00 0.00 0.00 0.00 0.00 0.00 0.00 0.02 0.07 0.05 0.03 0.06 0.10 0.08 0.05 0.08 0.10 0.11 0.10 0.05 0.08 0.09 0.05 0.05 0.05 0.05 0.03 0.04 0.03 0.05 0.05
0.00 0.00 0.00 0.00 0.00 0.00 0.00 0.00 0.00 0.00 0.02 0.04 0.03 0.01 0.00 0.00 0.00 0.00 0.00 0.00 0.00 0.00 0.00 0.00 0.00 0.00 0.03 0.00 0.02 0.04 0.08 0.13 0.07 0.08 0.12 0.15 0.07 0.05 0.03 0.11 0.09 0.08 0.05 0.05 0.06 0.06 0.04 0.04 0.05
0.00 0.00 0.00 0.00 0.00 0.00 0.00 0.00 0.00 0.00 0.00 0.05 0.01 0.00 0.00 0.00 0.00 0.00 0.00 0.00 0.00 0.00 0.00 0.00 0.00 0.00 0.00 0.00 0.01 0.01 0.01 0.04 0.04 0.01 0.06 0.16 0.12 0.06 0.03 0.02 0.04 0.05 0.05 0.08 0.07 0.06 0.04 0.06 0.11
0.00 0.00 0.00 0.00 0.00 0.00 0.00 0.00 0.00 0.00 0.00 0.00 0.00 0.00 0.00 0.00 0.00 0.00 0.00 0.00 0.00 0.00 0.00 0.00 0.00 0.00 0.00 0.00 0.00 0.01 0.00 0.00 0.02 0.03 0.06 0.14 0.19 0.06 0.05 0.03 0.09 0.05 0.03 0.11 0.13 0.07 0.06 0.07 0.12
0.00 0.00 0.00 0.00 0.00 0.00 0.00 0.00 0.00 0.00 0.00 0.00 0.00 0.01 0.00 0.00 0.00 0.00 0.00 0.00 0.00 0.00 0.00 0.00 0.00 0.00 0.00 0.00 0.00 0.02 0.05 0.02 0.01 0.01 0.02 0.06 0.10 0.05 0.05 0.05 0.06 0.10 0.08 0.14 0.18 0.21 0.19 0.22 0.21
0.00 0.00 0.00 0.02 0.01 0.00 0.00 0.00 0.00 0.00 0.00 0.00 0.00 0.00 0.00 0.00 0.00 0.00 0.00 0.00 0.00 0.00 0.00 0.00 0.00 0.00 0.00 0.00 0.00 0.00 0.06 0.08 0.09 0.03 0.01 0.08 0.05 0.01 0.05 0.14 0.11 0.09 0.22 0.25 0.28 0.30 0.31 0.35 0.44
0.00 0.00 0.01 0.08 0.06 0.02 0.03 0.00 0.00 0.00 0.00 0.00 0.00 0.00 0.00 0.00 0.00 0.00 0.00 0.00 0.00 0.00 0.00 0.00 0.00 0.00 0.00 0.03 0.18 0.14 0.07 0.16 0.27 0.19 0.08 0.18 0.10 0.07 0.10 0.20 0.35 0.29 0.26 0.27 0.33 0.45 0.62 0.70 0.63
0.00 0.00 0.00 0.01 0.01 0.03 0.04 0.00 0.00 0.00 0.00 0.00 0.00 0.00 0.00 0.00 0.00 0.00 0.00 0.00 0.00 0.00 0.00 0.00 0.01 0.00 0.00 0.03 0.16 0.09 0.21 0.47 0.23 0.23 0.28 0.30 0.32 0.31 0.26 0.33 0.42 0.42 0.38 0.51 0.58 0.54 0.37 0.26 0.21
0.00 0.00 0.00 0.00 0.05 0.05 0.00 0.00 0.00 0.00 0.00 0.00 0.00 0.00 0.00 0.00 0.00 0.00 0.00 0.00 0.00 0.00 0.00 0.00 0.07 0.20 0.18 0.05 0.01 0.03 0.06 0.15 0.22 0.16 0.23 0.44 0.53 0.41 0.48 0.47 0.48 0.42 0.30 0.31 0.34 0.30 0.20 0.21 0.24
0.00 0.00 0.00 0.00 0.00 0.04 0.03 0.00 0.00 0.00 0.00 0.00 0.00 0.00 0.00 0.00 0.00 0.00 0.00 0.00 0.00 0.00 0.00 0.00 0.00 0.16 0.36 0.58 0.45 0.20 0.24 0.18 0.34 0.37 0.56 0.48 0.48 0.60 0.65 0.46 0.35 0.29 0.41 0.44 0.30 0.26 0.28 0.30 0.31
0.00 0.00 0.00 0.01 0.00 0.01 0.01 0.00 0.00 0.00 0.00 0.00 0.00 0.00 0.00 0.00 0.00 0.00 0.00 0.00 0.00 0.00 0.00 0.00 0.00 0.10 0.38 1.20 1.25 0.66 0.70 0.57 0.57 0.65 0.64 0.71 0.72 0.68 0.54 0.35 0.26 0.26 0.32 0.47 0.58 0.51 0.45 0.43 0.44

GFSSGP_prec_precacc24_075.txt.gz
Total_Precipitation_Accumulation
0.00 0.00 0.00 0.00 0.00 0.00 0.00 0.00 0.00 0.00 0.00 0.00 0.05 0.08 0.07 0.03 0.01 0.06 0.13 0.61 0.91 0.79 0.75 1.99 1.90 1.70 1.10 0.55 0.24 0.12 0.03 0.00 0.00 0.00 0.00 0.00 0.00 0.01 0.00 0.00 0.00 0.01 0.02 0.01 0.01 0.01 0.01 0.01 0.00
0.00 0.00 0.00 0.00 0.00 0.00 0.00 0.00 0.00 0.00 0.00 0.03 0.04 0.05 0.01 0.19 0.14 0.03 0.12 0.15 0.24 0.31 0.38 0.80 1.62 1.85 1.45 0.99 0.49 0.28 0.11 0.01 0.00 0.00 0.00 0.00 0.00 0.01 0.00 0.01 0.00 0.01 0.01 0.01 0.00 0.01 0.01 0.00 0.00
0.00 0.00 0.00 0.00 0.00 0.00 0.00 0.00 0.00 0.00 0.00 0.00 0.00 0.00 0.12 0.64 0.37 0.11 0.06 0.04 0.19 0.32 0.57 0.58 1.00 1.18 1.41 1.56 1.22 0.59 0.28 0.06 0.00 0.00 0.00 0.00 0.00 0.01 0.01 0.00 0.01 0.01 0.01 0.00 0.01 0.01 0.01 0.00 0.00
0.00 0.00 0.00 0.00 0.00 0.00 0.00 0.00 0.00 0.00 0.00 0.00 0.00 0.05 0.28 0.27 0.32 0.24 0.17 0.09 0.34 0.51 1.11 0.92 1.49 2.17 1.82 1.85 1.93 1.09 0.32 0.10 0.01 0.00 0.00 0.00 0.00 0.01 0.01 0.01 0.01 0.01 0.01 0.01 0.01 0.01 0.00 0.00 0.00
0.00 0.00 0.00 0.00 0.00 0.00 0.00 0.00 0.00 0.00 0.00 0.00 0.01 0.01 0.63 0.50 0.22 0.36 0.53 0.48 0.40 0.50 1.08 0.74 0.84 1.09 1.86 2.78 2.63 2.00 0.88 0.16 0.02 0.00 0.00 0.00 0.00 0.01 0.01 0.02 0.01 0.02 0.01 0.01 0.01 0.00 0.00 0.00 0.00
0.00 0.00 0.00 0.00 0.00 0.00 0.00 0.00 0.00 0.00 0.00 0.00 0.01 0.05 0.44 0.16 0.16 0.34 0.73 0.73 0.63 0.70 0.85 0.92 0.74 1.32 1.25 1.65 3.50 2.75 1.54 0.43 0.08 0.02 0.03 0.01 0.00 0.01 0.02 0.02 0.01 0.01 0.01 0.00 0.00 0.00 0.00 0.00 0.00
0.00 0.00 0.00 0.00 0.00 0.00 0.00 0.00 0.02 0.15 0.09 0.02 0.05 0.30 0.70 0.39 0.23 0.31 0.61 0.51 0.78 1.12 1.15 1.42 1.10 1.76 2.95 2.29 2.24 3.10 2.26 0.76 0.22 0.09 0.11 0.04 0.02 0.02 0.00 0.01 0.01 0.01 0.00 0.00 0.00 0.00 0.00 0.00 0.00
0.00 0.00 0.00 0.00 0.00 0.00 0.00 0.00 0.02 0.05 0.23 0.25 0.08 0.37 0.68 0.19 0.21 0.27 0.30 0.48 0.52 1.45 1.24 1.42 1.39 1.44 1.25 2.32 2.13 2.04 1.95 1.67 0.85 0.31 0.19 0.17 0.11 0.03 0.00 0.00 0.01 0.00 0.00 0.00 0.00 0.00 0.00 0.00 0.00
0.00 0.00 0.00 0.00 0.00 0.00 0.00 0.00 0.12 0.03 0.17 0.28 0.16 0.31 0.22 0.09 0.21 0.21 0.20 0.29 0.37 0.86 0.63 1.47 2.97 2.18 2.07 2.13 2.08 1.58 1.31 1.39 1.35 0.71 0.34 0.28 0.18 0.11 0.03 0.02 0.00 0.00 0.00 0.00 0.00 0.00 0.00 0.00 0.00
0.00 0.00 0.00 0.00 0.00 0.00 0.00 0.00 0.02 0.03 0.22 0.15 0.14 0.03 0.08 0.12 0.11 0.21 0.18 0.16 0.25 0.37 0.52 0.62 1.60 1.96 1.62 2.56 2.67 1.48 1.24 0.85 0.96 0.78 0.36 0.35 0.23 0.06 0.02 0.01 0.01 0.00 0.00 0.00 0.00 0.00 0.00 0.00 0.00
0.00 0.00 0.00 0.00 0.00 0.00 0.00 0.04 0.11 0.03 0.16 0.26 0.44 0.05 0.06 0.10 0.06 0.04 0.06 0.12 0.18 0.43 0.56 0.61 0.78 0.85 0.90 1.51 1.24 1.28 1.12 0.93 0.65 0.69 0.39 0.32 0.28 0.03 0.04 0.03 0.01 0.00 0.00 0.00 0.00 0.00 0.00 0.00 0.00
0.00 0.00 0.00 0.00 0.00 0.00 0.00 0.08 0.17 0.13 0.31 0.16 0.03 0.01 0.02 0.02 0.01 0.02 0.01 0.06 0.16 0.31 0.57 0.68 0.51 0.61 0.78 1.03 0.94 0.65 0.77 0.82 0.57 0.55 0.42 0.28 0.18 0.02 0.01 0.01 0.00 0.00 0.00 0.00 0.00 0.00 0.00 0.00 0.00
0.00 0.00 0.00 0.00 0.00 0.00 0.00 0.00 0.07 0.60 0.27 0.04 0.00 0.01 0.02 0.00 0.00 0.00 0.01 0.01 0.12 0.25 0.56 0.76 0.56 0.56 0.65 0.54 0.67 0.55 0.36 0.59 0.49 0.45 0.41 0.28 0.07 0.02 0.01 0.01 0.00 0.00 0.00 0.00 0.00 0.00 0.00 0.00 0.00
0.00 0.00 0.00 0.00 0.00 0.00 0.00 0.05 0.07 0.59 0.26 0.02 0.00 0.00 0.01 0.00 0.00 0.00 0.01 0.02 0.09 0.28 0.38 0.73 0.92 0.69 0.77 0.61 0.54 0.50 0.34 0.31 0.51 0.46 0.33 0.22 0.04 0.01 0.01 0.01 0.00 0.00 0.00 0.00 0.00 0.00 0.00 0.00 0.00
0.00 0.00 0.00 0.00 0.00 0.00 0.00 0.04 0.15 0.39 0.12 0.05 0.00 0.00 0.02 0.00 0.00 0.00 0.00 0.01 0.02 0.11 0.23 0.58 0.89 1.02 0.93 0.57 0.54 0.41 0.39 0.31 0.35 0.36 0.24 0.12 0.02 0.00 0.00 0.01 0.01 0.00 0.00 0.00 0.00 0.00 0.00 0.00 0.00
0.00 0.00 0.00 0.00 0.00 0.00 0.00 0.19 0.10 0.04 0.07 0.06 0.00 0.00 0.00 0.00 0.00 0.00 0.00 0.00 0.00 0.01 0.08 0.20 0.43 0.76 0.87 0.67 0.64 0.70 0.31 0.28 0.25 0.26 0.15 0.06 0.01 0.00 0.00 0.04 0.03 0.00 0.00 0.00 0.00 0.00 0.00 0.00 0.00
0.00 0.00 0.00 0.00 0.00 0.00 0.01 0.12 0.14 0.04 0.06 0.08 0.01 0.00 0.00 0.00 0.00 0.00 0.00 0.00 0.00 0.00 0.03 0.11 0.27 0.57 0.70 0.62 0.44 0.48 0.48 0.23 0.22 0.18 0.10 0.03 0.02 0.03 0.02 0.02 0.00 0.01 0.02 0.00 0.00 0.00 0.00 0.00 0.00
0.00 0.00 0.00 0.00 0.00 0.00 0.00 0.01 0.15 0.05 0.05 0.06 0.02 0.00 0.00 0.00 0.00 0.00 0.00 0.00 0.00 0.00 0.01 0.03 0.11 0.32 0.50 0.39 0.32 0.30 0.33 0.22 0.24 0.20 0.10 0.05 0.06 0.06 0.06 0.05 0.03 0.05 0.05 0.00 0.00 0.00 0.00 0.00 0.00
0.00 0.00 0.00 0.00 0.00 0.00 0.00 0.00 0.02 0.03 0.03 0.03 0.02 0.00 0.00 0.00 0.00 0.00 0.00 0.00 0.00 0.00 0.01 0.01 0.02 0.08 0.14 0.19 0.21 0.18 0.19 0.10 0.13 0.11 0.10 0.06 0.05 0.04 0.07 0.09 0.08 0.10 0.05 0.02 0.00 0.01 0.03 0.01 0.00
0.00 0.00 0.00 0.00 0.00 0.00 0.00 0.00 0.00 0.01 0.17 0.03 0.01 0.00 0.00 0.00 0.00 0.00 0.00 0.00 0.00 0.00 0.00 0.01 0.01 0.01 0.01 0.03 0.04 0.07 0.10 0.10 0.06 0.08 0.08 0.09 0.08 0.05 0.08 0.09 0.05 0.05 0.05 0.05 0.03 0.04 0.03 0.05 0.05
0.00 0.00 0.00 0.00 0.00 0.00 0.00 0.00 0.00 0.00 0.02 0.04 0.03 0.01 0.00 0.00 0.00 0.00 0.00 0.00 0.00 0.00 0.00 0.00 0.01 0.00 0.01 0.01 0.03 0.05 0.12 0.22 0.14 0.12 0.12 0.13 0.05 0.05 0.03 0.11 0.09 0.08 0.05 0.05 0.06 0.06 0.05 0.10 0.06
0.00 0.00 0.00 0.00 0.00 0.00 0.00 0.00 0.00 0.00 0.00 0.05 0.01 0.00 0.00 0.00 0.00 0.00 0.00 0.00 0.00 0.00 0.00 0.00 0.00 0.01 0.00 0.00 0.02 0.01 0.02 0.08 0.08 0.05 0.07 0.15 0.10 0.04 0.02 0.02 0.04 0.05 0.05 0.08 0.07 0.06 0.04 0.16 0.22
0.00 0.00 0.00 0.00 0.00 0.00 0.00 0.00 0.00 0.00 0.00 0.00 0.00 0.00 0.00 0.00 0.00 0.00 0.00 0.00 0.00 0.00 0.00 0.00 0.00 0.00 0.00 0.00 0.01 0.01 0.00 0.00 0.02 0.06 0.10 0.17 0.21 0.06 0.03 0.03 0.08 0.05 0.03 0.13 0.18 0.11 0.08 0.14 0.23
0.00 0.00 0.00 0.00 0.00 0.00 0.00 0.00 0.00 0.00 0.00 0.00 0.00 0.01 0.00 0.00 0.00 0.00 0.00 0.00 0.00 0.00 0.00 0.00 0.00 0.00 0.00 0.00 0.00 0.02 0.06 0.02 0.01 0.02 0.03 0.07 0.16 0.10 0.05 0.04 0.04 0.09 0.10 0.17 0.22 0.26 0.25 0.30 0.30
0.00 0.00 0.00 0.01 0.00 0.00 0.00 0.00 0.00 0.00 0.00 0.00 0.00 0.00 0.00 0.00 0.00 0.00 0.00 0.00 0.00 0.00 0.00 0.00 0.00 0.00 0.00 0.00 0.00 0.00 0.06 0.08 0.09 0.03 0.01 0.08 0.05 0.03 0.05 0.13 0.10 0.09 0.21 0.25 0.31 0.32 0.34 0.40 0.48
0.00 0.00 0.00 0.03 0.03 0.01 0.02 0.00 0.00 0.00 0.00 0.00 0.00 0.00 0.00 0.00 0.00 0.00 0.00 0.00 0.00 0.00 0.00 0.00 0.00 0.00 0.00 0.00 0.09 0.08 0.06 0.16 0.27 0.19 0.08 0.18 0.09 0.06 0.09 0.18 0.34 0.28 0.26 0.27 0.33 0.46 0.64 0.73 0.67
0.00 0.00 0.00 0.00 0.00 0.03 0.03 0.00 0.00 0.00 0.00 0.00 0.00 0.00 0.00 0.00 0.00 0.00 0.00 0.00 0.00 0.00 0.00 0.00 0.01 0.00 0.00 0.00 0.04 0.02 0.15 0.46 0.23 0.23 0.27 0.28 0.27 0.28 0.24 0.31 0.41 0.42 0.38 0.51 0.57 0.53 0.38 0.28 0.22
0.00 0.00 0.00 0.00 0.03 0.04 0.00 0.00 0.00 0.00 0.00 0.00 0.00 0.00 0.00 0.00 0.00 0.00 0.00 0.00 0.00 0.00 0.00 0.00 0.07 0.20 0.18 0.05 0.01 0.03 0.06 0.13 0.21 0.15 0.18 0.36 0.47 0.38 0.46 0.46 0.47 0.41 0.30 0.31 0.36 0.31 0.21 0.20 0.23
0.00 0.00 0.00 0.00 0.00 0.03 0.03 0.00 0.00 0.00 0.00 0.00 0.00 0.00 0.00 0.00 0.00 0.00 0.00 0.00 0.00 0.00 0.00 0.00 0.00 0.16 0.36 0.58 0.45 0.19 0.23 0.18 0.34 0.36 0.51 0.44 0.46 0.58 0.64 0.45 0.34 0.28 0.41 0.44 0.29 0.25 0.26 0.27 0.27
0.00 0.00 0.00 0.01 0.01 0.01 0.01 0.00 0.00 0.00 0.00 0.00 0.00 0.00 0.00 0.00 0.00 0.00 0.00 0.00 0.00 0.00 0.00 0.00 0.00 0.10 0.38 1.20 1.25 0.65 0.69 0.57 0.57 0.64 0.64 0.71 0.71 0.67 0.53 0.33 0.22 0.21 0.22 0.33 0.46 0.46 0.41 0.37 0.36

GFSSGP_prec_precacc24_078.txt.gz
Total_Precipitation_Accumulation
0.00 0.00 0.00 0.00 0.00 0.00 0.00 0.00 0.00 0.00 0.00 0.00 0.00 0.00 0.00 0.00 0.00 0.04 0.02 0.00 0.09 0.51 0.74 1.99 1.89 1.70 1.13 0.58 0.27 0.14 0.04 0.01 0.00 0.00 0.00 0.00 0.00 0.01 0.00 0.00 0.00 0.01 0.03 0.02 0.02 0.01 0.01 0.01 0.00
0.00 0.00 0.00 0.00 0.00 0.00 0.00 0.00 0.00 0.00 0.00 0.00 0.00 0.00 0.00 0.00 0.01 0.02 0.06 0.01 0.04 0.14 0.37 0.75 1.57 1.85 1.52 1.26 0.92 0.63 0.28 0.04 0.00 0.00 0.00 0.00 0.00 0.01 0.01 0.01 0.00 0.01 0.02 0.01 0.01 0.01 0.01 0.00 0.00
0.00 0.00 0.00 0.00 0.00 0.00 0.00 0.00 0.00 0.00 0.00 0.00 0.00 0.00 0.03 0.06 0.08 0.02 0.05 0.02 0.07 0.19 0.52 0.45 0.69 1.19 1.45 1.65 1.95 1.59 0.91 0.20 0.01 0.01 0.00 0.00 0.00 0.02 0.02 0.01 0.00 0.01 0.01 0.01 0.02 0.01 0.01 0.00 0.00
0.00 0.00 0.00 0.00 0.00 0.00 0.00 0.00 0.00 0.00 0.00 0.00 0.00 0.00 0.04 0.13 0.22 0.06 0.08 0.06 0.16 0.24 1.01 0.87 1.39 2.20 1.86 1.91 2.36 2.13 1.53 0.84 0.11 0.04 0.00 0.00 0.00 0.01 0.01 0.01 0.02 0.02 0.01 0.01 0.01 0.01 0.00 0.00 0.00
0.00 0.00 0.00 0.00 0.00 0.00 0.00 0.00 0.00 0.00 0.00 0.00 0.00 0.01 0.07 0.25 0.17 0.30 0.46 0.35 0.27 0.31 0.94 0.70 0.81 1.10 1.84 2.79 2.66 2.26 2.21 1.42 0.34 0.05 0.01 0.01 0.00 0.01 0.01 0.02 0.03 0.02 0.01 0.01 0.01 0.00 0.00 0.00 0.00
0.00 0.00 0.00 0.00 0.00 0.00 0.00 0.00 0.00 0.00 0.00 0.00 0.01 0.04 0.07 0.02 0.10 0.26 0.69 0.58 0.38 0.38 0.70 0.83 0.72 1.26 1.19 1.63 3.50 2.87 2.62 1.86 0.63 0.13 0.04 0.01 0.00 0.01 0.01 0.01 0.01 0.01 0.01 0.00 0.00 0.00 0.00 0.00 0.00
0.00 0.00 0.00 0.00 0.00 0.00 0.00 0.00 0.02 0.14 0.05 0.01 0.05 0.21 0.50 0.30 0.14 0.25 0.55 0.46 0.61 0.86 0.93 1.31 0.99 1.64 2.85 2.22 2.24 3.13 3.02 2.33 0.98 0.23 0.13 0.04 0.02 0.03 0.00 0.00 0.01 0.01 0.00 0.00 0.00 0.00 0.00 0.00 0.00
0.00 0.00 0.00 0.00 0.00 0.00 0.00 0.00 0.02 0.04 0.07 0.03 0.04 0.22 0.16 0.08 0.15 0.21 0.27 0.39 0.21 1.08 1.02 1.30 1.23 1.30 1.00 2.09 2.07 2.11 2.92 3.36 1.73 0.61 0.44 0.19 0.11 0.04 0.01 0.00 0.01 0.00 0.00 0.00 0.00 0.00 0.00 0.00 0.00
0.00 0.00 0.00 0.00 0.00 0.00 0.00 0.00 0.00 0.02 0.15 0.18 0.05 0.19 0.05 0.01 0.08 0.15 0.17 0.24 0.17 0.52 0.52 1.37 2.79 2.09 1.85 1.75 1.88 1.56 1.55 2.50 2.99 1.32 0.72 0.45 0.22 0.16 0.05 0.02 0.00 0.00 0.00 0.00 0.00 0.00 0.00 0.00 0.00
0.00 0.00 0.00 0.00 0.00 0.00 0.00 0.00 0.01 0.02 0.21 0.11 0.02 0.00 0.06 0.09 0.05 0.16 0.17 0.12 0.21 0.21 0.38 0.55 1.56 2.01 1.72 2.60 2.60 1.39 1.19 1.05 2.14 1.51 0.65 0.44 0.36 0.31 0.25 0.04 0.01 0.00 0.00 0.00 0.00 0.00 0.00 0.00 0.00
0.00 0.00 0.00 0.00 0.00 0.00 0.00 0.00 0.00 0.02 0.10 0.17 0.02 0.00 0.04 0.06 0.04 0.02 0.06 0.11 0.17 0.34 0.46 0.54 0.73 0.91 1.00 1.59 1.25 1.25 1.08 0.93 1.14 1.25 0.50 0.37 0.39 0.27 0.39 0.06 0.01 0.00 0.00 0.00 0.00 0.00 0.00 0.00 0.00
0.00 0.00 0.00 0.00 0.00 0.00 0.00 0.00 0.00 0.11 0.31 0.14 0.02 0.00 0.01 0.02 0.01 0.01 0.01 0.04 0.14 0.27 0.48 0.64 0.47 0.56 0.76 1.02 0.90 0.56 0.68 0.82 0.79 1.07 0.48 0.38 0.26 0.11 0.22 0.06 0.01 0.00 0.00 0.00 0.00 0.00 0.00 0.00 0.00
0.00 0.00 0.00 0.00 0.00 0.00 0.00 0.00 0.06 0.59 0.25 0.04 0.00 0.01 0.02 0.00 0.00 0.00 0.01 0.01 0.08 0.21 0.47 0.68 0.51 0.50 0.57 0.41 0.47 0.36 0.28 0.66 0.56 0.61 0.54 0.38 0.16 0.06 0.07 0.10 0.00 0.00 0.00 0.00 0.00 0.00 0.00 0.00 0.00
0.00 0.00 0.00 0.00 0.00 0.00 0.00 0.00 0.01 0.36 0.21 0.01 0.00 0.00 0.01 0.00 0.00 0.00 0.00 0.01 0.06 0.22 0.30 0.53 0.81 0.61 0.57 0.36 0.33 0.35 0.35 0.42 0.63 0.54 0.42 0.35 0.13 0.05 0.03 0.04 0.01 0.00 0.00 0.00 0.00 0.00 0.00 0.00 0.00
0.00 0.00 0.00 0.00 0.00 0.00 0.00 0.00 0.00 0.03 0.05 0.05 0.00 0.00 0.02 0.00 0.00 0.00 0.00 0.01 0.02 0.08 0.16 0.46 0.78 0.88 0.79 0.46 0.43 0.37 0.41 0.37 0.52 0.48 0.40 0.25 0.10 0.06 0.02 0.02 0.02 0.00 0.00 0.00 0.00 0.00 0.00 0.00 0.00
0.00 0.00 0.00 0.00 0.00 0.00 0.00 0.00 0.00 0.00 0.04 0.06 0.00 0.00 0.00 0.00 0.00 0.00 0.00 0.00 0.00 0.01 0.08 0.20 0.43 0.75 0.83 0.64 0.61 0.70 0.32 0.29 0.31 0.36 0.33 0.16 0.04 0.04 0.03 0.06 0.03 0.00 0.00 0.00 0.00 0.00 0.00 0.00 0.00
0.00 0.00 0.00 0.00 0.00 0.00 0.00 0.00 0.00 0.00 0.04 0.08 0.01 0.00 0.00 0.00 0.00 0.00 0.00 0.00 0.00 0.00 0.03 0.11 0.27 0.57 0.71 0.62 0.44 0.49 0.48 0.24 0.25 0.24 0.17 0.08 0.02 0.01 0.02 0.03 0.02 0.02 0.03 0.00 0.00 0.00 0.00 0.00 0.00
0.00 0.00 0.00 0.00 0.00 0.00 0.00 0.00 0.01 0.01 0.05 0.06 0.02 0.00 0.00 0.00 0.00 0.00 0.00 0.00 0.00 0.00 0.01 0.03 0.11 0.33 0.50 0.39 0.34 0.31 0.35 0.23 0.25 0.22 0.13 0.04 0.01 0.00 0.01 0.04 0.06 0.08 0.06 0.00 0.00 0.00 0.00 0.00 0.00
0.00 0.00 0.00 0.00 0.00 0.00 0.00 0.00 0.01 0.02 0.03 0.03 0.02 0.00 0.00 0.00 0.00 0.00 0.00 0.00 0.00 0.00 0.01 0.02 0.03 0.08 0.14 0.20 0.23 0.19 0.22 0.11 0.13 0.11 0.10 0.04 0.00 0.00 0.00 0.03 0.07 0.11 0.05 0.02 0.00 0.01 0.03 0.01 0.00
0.00 0.00 0.00 0.00 0.00 0.00 0.00 0.00 0.00 0.00 0.13 0.03 0.01 0.00 0.00 0.00 0.00 0.00 0.00 0.00 0.00 0.00 0.00 0.01 0.01 0.02 0.01 0.03 0.05 0.07 0.11 0.10 0.07 0.08 0.08 0.07 0.01 0.02 0.07 0.07 0.03 0.04 0.05 0.05 0.03 0.04 0.03 0.05 0.05
0.00 0.00 0.00 0.00 0.00 0.00 0.00 0.00 0.00 0.00 0.01 0.04 0.03 0.01 0.00 0.00 0.00 0.00 0.00 0.00 0.00 0.00 0.00 0.00 0.01 0.01 0.01 0.01 0.03 0.05 0.13 0.22 0.16 0.13 0.12 0.12 0.03 0.02 0.03 0.11 0.09 0.08 0.05 0.05 0.06 0.06 0.05 0.10 0.06
0.00 0.00 0.00 0.00 0.00 0.00 0.00 0.00 0.00 0.00 0.00 0.05 0.01 0.00 0.00 0.00 0.00 0.00 0.00 0.00 0.00 0.00 0.00 0.00 0.00 0.01 0.01 0.01 0.02 0.02 0.02 0.08 0.08 0.06 0.07 0.15 0.10 0.02 0.01 0.02 0.04 0.05 0.05 0.08 0.07 0.06 0.04 0.20 0.25
0.00 0.00 0.00 0.00 0.00 0.00 0.00 0.00 0.00 0.00 0.00 0.00 0.00 0.00 0.00 0.00 0.00 0.00 0.00 0.00 0.00 0.00 0.00 0.00 0.00 0.01 0.00 0.01 0.01 0.01 0.01 0.00 0.03 0.07 0.11 0.16 0.21 0.06 0.03 0.02 0.08 0.04 0.03 0.12 0.18 0.11 0.12 0.19 0.24
0.00 0.00 0.00 0.00 0.00 0.00 0.00 0.00 0.00 0.00 0.00 0.00 0.00 0.01 0.00 0.00 0.00 0.00 0.00 0.00 0.00 0.00 0.00 0.00 0.00 0.00 0.00 0.01 0.01 0.02 0.04 0.02 0.02 0.02 0.03 0.06 0.15 0.10 0.05 0.04 0.04 0.08 0.08 0.14 0.21 0.28 0.27 0.35 0.35
0.00 0.00 0.01 0.01 0.00 0.00 0.00 0.00 0.00 0.00 0.00 0.00 0.00 0.00 0.00 0.00 0.00 0.00 0.00 0.00 0.00 0.00 0.00 0.00 0.00 0.00 0.00 0.00 0.01 0.01 0.02 0.04 0.09 0.03 0.00 0.03 0.05 0.03 0.03 0.10 0.09 0.08 0.20 0.23 0.30 0.33 0.36 0.42 0.49
0.00 0.01 0.03 0.01 0.00 0.01 0.00 0.00 0.00 0.00 0.00 0.00 0.00 0.00 0.00 0.00 0.00 0.00 0.00 0.00 0.00 0.00 0.00 0.00 0.00 0.00 0.00 0.00 0.00 0.00 0.00 0.01 0.04 0.13 0.07 0.12 0.08 0.04 0.06 0.15 0.33 0.28 0.25 0.26 0.32 0.46 0.63 0.70 0.62
0.01 0.00 0.01 0.02 0.03 0.03 0.00 0.00 0.00 0.00 0.00 0.00 0.00 0.00 0.00 0.00 0.00 0.00 0.00 0.00 0.00 0.00 0.00 0.00 0.01 0.00 0.00 0.00 0.00 0.00 0.00 0.01 0.02 0.08 0.14 0.18 0.16 0.16 0.17 0.24 0.36 0.39 0.36 0.49 0.57 0.52 0.36 0.27 0.20
0.00 0.00 0.01 0.03 0.02 0.02 0.01 0.00 0.00 0.00 0.00 0.00 0.00 0.00 0.00 0.00 0.00 0.00 0.00 0.00 0.00 0.00 0.00 0.00 0.07 0.20 0.17 0.03 0.00 0.00 0.00 0.00 0.07 0.06 0.17 0.30 0.33 0.21 0.33 0.35 0.40 0.38 0.29 0.30 0.35 0.31 0.20 0.19 0.19
0.00 0.00 0.02 0.02 0.01 0.01 0.01 0.00 0.00 0.00 0.00 0.00 0.00 0.00 0.00 0.00 0.00 0.00 0.00 0.00 0.00 0.00 0.00 0.00 0.00 0.16 0.33 0.40 0.28 0.12 0.14 0.11 0.30 0.35 0.48 0.39 0.38 0.49 0.60 0.42 0.32 0.27 0.40 0.42 0.25 0.17 0.15 0.12 0.15
0.00 0.00 0.00 0.03 0.04 0.02 0.01 0.01 0.00 0.00 0.00 0.00 0.00 0.00 0.00 0.00 0.00 0.00 0.00 0.00 0.00 0.00 0.00 0.00 0.00 0.08 0.30 0.93 0.98 0.53 0.62 0.52 0.52 0.57 0.58 0.66 0.70 0.66 0.53 0.33 0.22 0.19 0.16 0.25 0.35 0.34 0.32 0.32 0.33

GFSSGP_prec_precacc24_081.txt.gz
Total_Precipitation_Accumulation
0.00 0.00 0.00 0.00 0.00 0.00 0.00 0.00 0.00 0.00 0.00 0.00 0.00 0.00 0.00 0.00 0.00 0.01 0.01 0.00 0.02 0.04 0.06 0.82 1.63 1.64 1.13 0.58 0.27 0.15 0.05 0.01 0.00 0.00 0.00 0.00 0.00 0.00 0.00 0.00 0.00 0.02 0.03 0.02 0.02 0.02 0.01 0.01 0.00
0.00 0.00 0.00 0.00 0.00 0.00 0.00 0.00 0.00 0.00 0.00 0.00 0.00 0.00 0.00 0.00 0.01 0.01 0.02 0.01 0.04 0.10 0.28 0.37 1.26 1.76 1.51 1.27 0.96 0.69 0.37 0.05 0.00 0.00 0.00 0.00 0.00 0.01 0.01 0.01 0.01 0.01 0.02 0.02 0.02 0.02 0.01 0.00 0.00
0.00 0.00 0.00 0.00 0.00 0.00 0.00 0.00 0.00 0.00 0.00 0.00 0.00 0.00 0.00 0.00 0.00 0.00 0.02 0.02 0.06 0.16 0.46 0.42 0.50 0.91 1.37 1.70 2.08 1.79 1.20 0.61 0.21 0.05 0.00 0.00 0.00 0.01 0.01 0.01 0.00 0.01 0.04 0.02 0.02 0.02 0.01 0.00 0.00
0.00 0.00 0.00 0.00 0.00 0.00 0.00 0.00 0.00 0.00 0.00 0.00 0.00 0.00 0.00 0.00 0.02 0.01 0.02 0.02 0.10 0.23 0.98 0.80 1.14 1.27 1.26 1.97 2.61 2.31 1.84 1.84 1.35 0.71 0.12 0.00 0.00 0.01 0.01 0.01 0.02 0.04 0.03 0.01 0.01 0.01 0.00 0.00 0.00
0.00 0.00 0.00 0.00 0.00 0.00 0.00 0.00 0.00 0.00 0.00 0.00 0.00 0.00 0.00 0.00 0.01 0.00 0.05 0.14 0.21 0.29 0.94 0.68 0.74 0.84 0.93 2.30 2.66 2.35 2.24 1.68 1.24 1.18 0.67 0.09 0.04 0.04 0.01 0.02 0.03 0.04 0.02 0.01 0.01 0.00 0.00 0.00 0.00
0.00 0.00 0.00 0.00 0.00 0.00 0.00 0.00 0.00 0.00 0.00 0.00 0.01 0.00 0.00 0.00 0.00 0.03 0.16 0.38 0.27 0.35 0.68 0.79 0.65 1.09 1.00 1.36 3.14 2.83 2.62 1.92 1.00 0.73 1.22 0.26 0.02 0.02 0.02 0.02 0.03 0.02 0.01 0.00 0.00 0.00 0.00 0.00 0.00
0.00 0.00 0.00 0.00 0.00 0.00 0.00 0.00 0.00 0.00 0.00 0.00 0.00 0.00 0.00 0.00 0.00 0.01 0.10 0.27 0.54 0.83 0.91 1.22 0.88 1.54 2.57 1.96 2.06 3.02 3.01 2.36 1.37 1.04 0.79 0.36 0.05 0.02 0.01 0.01 0.02 0.01 0.00 0.00 0.00 0.00 0.00 0.00 0.00
0.00 0.00 0.00 0.00 0.00 0.00 0.00 0.00 0.00 0.00 0.00 0.00 0.00 0.00 0.00 0.00 0.00 0.00 0.08 0.26 0.19 1.02 0.90 1.11 1.13 1.21 0.89 1.82 1.90 2.06 2.88 3.47 2.18 1.72 1.40 0.52 0.11 0.02 0.01 0.00 0.01 0.00 0.00 0.00 0.00 0.00 0.00 0.00 0.00
0.00 0.00 0.00 0.00 0.00 0.00 0.00 0.00 0.00 0.00 0.01 0.00 0.00 0.00 0.00 0.00 0.01 0.02 0.11 0.15 0.16 0.46 0.35 1.20 2.70 2.04 1.78 1.57 1.69 1.49 1.51 2.56 3.54 2.38 1.71 0.85 0.23 0.08 0.04 0.03 0.00 0.00 0.00 0.00 0.00 0.00 0.00 0.00 0.00
0.00 0.00 0.00 0.00 0.00 0.00 0.00 0.00 0.00 0.00 0.00 0.01 0.00 0.00 0.00 0.04 0.03 0.03 0.08 0.11 0.18 0.18 0.35 0.51 1.51 2.08 1.75 2.61 2.63 1.32 1.10 1.04 2.60 2.83 1.61 0.69 0.46 0.31 0.27 0.06 0.01 0.00 0.00 0.00 0.00 0.00 0.00 0.00 0.00
0.00 0.00 0.00 0.00 0.00 0.00 0.00 0.00 0.00 0.00 0.02 0.06 0.01 0.00 0.01 0.03 0.03 0.02 0.04 0.08 0.16 0.30 0.42 0.52 0.67 0.91 1.01 1.59 1.27 1.25 1.06 0.93 1.29 2.31 1.12 0.56 0.45 0.27 0.44 0.08 0.01 0.00 0.00 0.00 0.00 0.00 0.00 0.00 0.00
0.00 0.00 0.00 0.00 0.00 0.00 0.00 0.00 0.00 0.00 0.08 0.06 0.01 0.00 0.00 0.01 0.01 0.01 0.01 0.02 0.11 0.23 0.41 0.56 0.42 0.51 0.72 1.01 0.94 0.61 0.71 0.82 0.81 1.40 0.92 0.53 0.28 0.12 0.27 0.07 0.01 0.00 0.00 0.00 0.00 0.00 0.00 0.00 0.00
0.00 0.00 0.00 0.00 0.00 0.00 0.00 0.00 0.00 0.00 0.01 0.00 0.00 0.00 0.01 0.00 0.00 0.00 0.00 0.01 0.05 0.15 0.35 0.50 0.45 0.43 0.51 0.38 0.47 0.40 0.34 0.68 0.54 0.67 0.82 0.50 0.19 0.06 0.09 0.10 0.00 0.00 0.00 0.00 0.00 0.00 0.00 0.00 0.00
0.00 0.00 0.00 0.00 0.00 0.00 0.00 0.00 0.00 0.00 0.00 0.00 0.00 0.00 0.00 0.00 0.00 0.00 0.00 0.01 0.03 0.11 0.22 0.47 0.65 0.59 0.55 0.33 0.29 0.28 0.30 0.44 0.61 0.53 0.45 0.44 0.17 0.06 0.04 0.04 0.01 0.00 0.00 0.00 0.00 0.00 0.00 0.00 0.00
0.00 0.00 0.00 0.00 0.00 0.00 0.00 0.00 0.00 0.00 0.00 0.00 0.00 0.00 0.00 0.00 0.00 0.00 0.00 0.01 0.01 0.05 0.13 0.43 0.71 0.78 0.76 0.44 0.37 0.29 0.35 0.37 0.52 0.48 0.43 0.29 0.16 0.09 0.02 0.02 0.01 0.00 0.00 0.00 0.00 0.00 0.00 0.00 0.00
0.00 0.00 0.00 0.00 0.00 0.00 0.00 0.00 0.00 0.00 0.00 0.00 0.00 0.00 0.00 0.00 0.00 0.00 0.00 0.00 0.00 0.01 0.06 0.18 0.41 0.73 0.80 0.63 0.59 0.68 0.30 0.28 0.35 0.40 0.37 0.23 0.11 0.06 0.04 0.05 0.03 0.00 0.00 0.00 0.00 0.00 0.00 0.00 0.00
0.00 0.00 0.00 0.00 0.00 0.00 0.00 0.00 0.00 0.00 0.00 0.00 0.00 0.00 0.00 0.00 0.00 0.00 0.00 0.00 0.00 0.00 0.03 0.11 0.28 0.57 0.70 0.61 0.44 0.49 0.48 0.24 0.28 0.26 0.21 0.12 0.06 0.03 0.03 0.03 0.03 0.03 0.01 0.00 0.00 0.00 0.00 0.00 0.00
0.00 0.00 0.00 0.00 0.00 0.00 0.00 0.00 0.00 0.00 0.00 0.00 0.00 0.00 0.00 0.00 0.00 0.00 0.00 0.00 0.00 0.00 0.01 0.03 0.11 0.33 0.51 0.39 0.34 0.31 0.35 0.23 0.26 0.22 0.14 0.05 0.01 0.00 0.01 0.03 0.11 0.11 0.09 0.01 0.00 0.00 0.00 0.00 0.00
0.00 0.00 0.00 0.00 0.00 0.00 0.00 0.00 0.00 0.00 0.00 0.00 0.00 0.00 0.00 0.00 0.00 0.00 0.00 0.00 0.00 0.00 0.01 0.02 0.03 0.08 0.15 0.20 0.23 0.19 0.22 0.11 0.14 0.11 0.11 0.05 0.00 0.00 0.00 0.00 0.08 0.06 0.07 0.03 0.00 0.01 0.03 0.01 0.00
0.00 0.00 0.00 0.00 0.00 0.00 0.00 0.00 0.00 0.00 0.00 0.00 0.00 0.00 0.00 0.00 0.00 0.00 0.00 0.00 0.00 0.00 0.00 0.01 0.01 0.02 0.01 0.04 0.05 0.07 0.11 0.10 0.07 0.08 0.08 0.06 0.00 0.01 0.03 0.02 0.01 0.03 0.06 0.05 0.03 0.04 0.03 0.05 0.05
0.00 0.00 0.00 0.00 0.00 0.00 0.00 0.00 0.00 0.00 0.00 0.00 0.00 0.00 0.00 0.00 0.00 0.00 0.00 0.00 0.00 0.00 0.00 0.00 0.01 0.01 0.01 0.01 0.04 0.05 0.13 0.22 0.16 0.13 0.11 0.12 0.03 0.02 0.03 0.07 0.08 0.08 0.06 0.05 0.06 0.06 0.05 0.10 0.06
0.00 0.00 0.00 0.00 0.02 0.03 0.00 0.00 0.00 0.00 0.00 0.00 0.00 0.00 0.00 0.00 0.00 0.00 0.00 0.00 0.00 0.00 0.00 0.00 0.00 0.01 0.01 0.01 0.02 0.02 0.03 0.08 0.08 0.06 0.07 0.15 0.08 0.01 0.01 0.01 0.03 0.05 0.05 0.08 0.07 0.06 0.04 0.20 0.25
0.01 0.00 0.02 0.06 0.02 0.01 0.00 0.00 0.00 0.00 0.00 0.00 0.00 0.00 0.00 0.00 0.00 0.00 0.00 0.00 0.00 0.00 0.00 0.00 0.00 0.01 0.00 0.01 0.01 0.01 0.01 0.01 0.03 0.07 0.11 0.16 0.20 0.04 0.02 0.02 0.06 0.04 0.02 0.12 0.18 0.11 0.12 0.19 0.24
0.03 0.03 0.10 0.08 0.05 0.06 0.01 0.00 0.00 0.00 0.00 0.00 0.00 0.00 0.00 0.00 0.00 0.00 0.00 0.00 0.00 0.00 0.00 0.00 0.00 0.00 0.01 0.01 0.01 0.01 0.01 0.01 0.00 0.02 0.03 0.05 0.14 0.10 0.02 0.02 0.03 0.06 0.06 0.12 0.19 0.26 0.27 0.36 0.35
0.03 0.07 0.19 0.12 0.06 0.03 0.00 0.00 0.00 0.00 0.00 0.00 0.00 0.00 0.00 0.00 0.00 0.00 0.00 0.00 0.00 0.00 0.00 0.00 0.00 0.00 0.00 0.00 0.01 0.01 0.01 0.01 0.00 0.00 0.00 0.00 0.01 0.03 0.01 0.02 0.04 0.05 0.15 0.21 0.30 0.33 0.37 0.42 0.50
0.02 0.07 0.12 0.04 0.01 0.01 0.00 0.00 0.00 0.00 0.00 0.00 0.00 0.00 0.00 0.00 0.00 0.00 0.00 0.00 0.00 0.00 0.00 0.00 0.00 0.00 0.00 0.00 0.00 0.00 0.00 0.01 0.00 0.00 0.02 0.00 0.00 0.00 0.00 0.07 0.15 0.19 0.22 0.24 0.30 0.43 0.59 0.67 0.60
0.01 0.02 0.02 0.08 0.13 0.09 0.00 0.00 0.00 0.00 0.00 0.00 0.00 0.00 0.00 0.00 0.00 0.00 0.00 0.00 0.00 0.00 0.00 0.00 0.01 0.00 0.00 0.00 0.00 0.00 0.00 0.00 0.01 0.00 0.03 0.04 0.04 0.02 0.00 0.03 0.13 0.22 0.25 0.44 0.54 0.50 0.35 0.26 0.17
0.00 0.01 0.10 0.30 0.17 0.08 0.01 0.01 0.00 0.00 0.00 0.00 0.00 0.00 0.00 0.00 0.00 0.00 0.00 0.00 0.00 0.00 0.00 0.00 0.05 0.16 0.14 0.01 0.00 0.00 0.00 0.00 0.04 0.02 0.11 0.19 0.13 0.13 0.09 0.09 0.20 0.29 0.27 0.30 0.35 0.30 0.18 0.13 0.10
0.00 0.01 0.17 0.18 0.03 0.06 0.04 0.04 0.01 0.00 0.00 0.00 0.00 0.00 0.00 0.00 0.00 0.00 0.00 0.00 0.00 0.00 0.00 0.00 0.00 0.08 0.25 0.29 0.15 0.02 0.02 0.01 0.16 0.28 0.38 0.31 0.31 0.29 0.30 0.31 0.30 0.26 0.39 0.41 0.24 0.16 0.12 0.11 0.12
0.00 0.00 0.04 0.14 0.10 0.03 0.06 0.11 0.04 0.04 0.00 0.00 0.00 0.00 0.00 0.00 0.00 0.00 0.00 0.00 0.00 0.00 0.00 0.00 0.00 0.01 0.16 0.61 0.52 0.29 0.23 0.23 0.31 0.47 0.53 0.56 0.62 0.61 0.48 0.32 0.21 0.19 0.16 0.25 0.35 0.34 0.31 0.29 0.29

GFSSGP_prec_precacc24_084.txt.gz
Total_Precipitation_Accumulation
0.00 0.00 0.00 0.00 0.00 0.00 0.00 0.00 0.00 0.00 0.00 0.00 0.00 0.00 0.00 0.00 0.00 0.01 0.01 0.00 0.02 0.03 0.05 0.14 0.34 0.75 1.06 0.57 0.27 0.15 0.05 0.01 0.00 0.00 0.00 0.00 0.00 0.00 0.00 0.00 0.00 0.02 0.03 0.02 0.03 0.02 0.02 0.01 0.00
0.00 0.00 0.00 0.00 0.00 0.00 0.00 0.00 0.00 0.00 0.00 0.00 0.00 0.00 0.00 0.00 0.00 0.00 0.01 0.01 0.04 0.10 0.28 0.25 0.16 0.40 1.21 1.26 0.96 0.69 0.37 0.05 0.00 0.00 0.00 0.00 0.00 0.01 0.01 0.01 0.01 0.01 0.02 0.02 0.03 0.03 0.01 0.00 0.00
0.00 0.00 0.00 0.00 0.00 0.00 0.00 0.00 0.00 0.00 0.00 0.00 0.00 0.00 0.00 0.00 0.00 0.00 0.01 0.01 0.06 0.16 0.44 0.38 0.44 0.67 1.19 1.67 2.08 1.79 1.21 0.62 0.29 0.19 0.11 0.05 0.01 0.01 0.01 0.01 0.00 0.01 0.04 0.02 0.03 0.02 0.01 0.00 0.00
0.00 0.00 0.00 0.00 0.00 0.00 0.00 0.00 0.00 0.00 0.00 0.00 0.00 0.00 0.00 0.00 0.00 0.00 0.01 0.01 0.09 0.22 0.89 0.63 0.72 0.91 0.91 1.65 2.53 2.36 1.95 1.93 1.50 1.19 0.66 0.36 0.16 0.04 0.01 0.01 0.02 0.04 0.04 0.02 0.02 0.01 0.00 0.00 0.00
0.00 0.00 0.00 0.00 0.00 0.00 0.00 0.00 0.00 0.00 0.00 0.00 0.00 0.00 0.00 0.00 0.00 0.00 0.00 0.01 0.12 0.20 0.78 0.42 0.28 0.40 0.40 0.85 1.52 2.19 2.31 1.76 1.35 1.45 1.45 0.80 0.42 0.15 0.02 0.02 0.04 0.08 0.04 0.01 0.01 0.01 0.00 0.00 0.00
0.00 0.00 0.00 0.00 0.00 0.00 0.00 0.00 0.00 0.00 0.00 0.00 0.00 0.00 0.00 0.00 0.00 0.00 0.00 0.01 0.12 0.16 0.48 0.54 0.37 0.80 0.90 0.72 1.19 2.00 2.68 2.00 1.04 0.74 1.57 0.98 0.50 0.25 0.08 0.04 0.06 0.06 0.02 0.00 0.00 0.00 0.00 0.00 0.00
0.00 0.00 0.00 0.00 0.00 0.00 0.00 0.00 0.00 0.00 0.00 0.00 0.00 0.00 0.00 0.00 0.00 0.00 0.02 0.04 0.15 0.54 0.77 0.98 0.68 1.38 2.45 1.82 1.16 2.13 2.93 2.36 1.38 1.03 0.88 0.97 0.69 0.43 0.13 0.05 0.03 0.01 0.00 0.00 0.00 0.00 0.00 0.00 0.00
0.00 0.00 0.00 0.00 0.00 0.00 0.00 0.00 0.00 0.00 0.00 0.00 0.00 0.00 0.00 0.00 0.00 0.00 0.03 0.03 0.12 0.90 0.83 1.02 1.04 1.05 0.78 1.67 1.64 1.86 2.83 3.45 2.19 1.71 1.42 0.84 0.65 0.50 0.21 0.05 0.01 0.00 0.00 0.00 0.00 0.00 0.00 0.00 0.00
0.00 0.00 0.00 0.00 0.00 0.00 0.00 0.00 0.00 0.00 0.00 0.00 0.00 0.00 0.00 0.00 0.00 0.02 0.07 0.11 0.13 0.41 0.32 1.09 2.53 1.89 1.60 1.38 1.44 1.37 1.51 2.56 3.54 2.37 1.78 1.35 0.52 0.42 0.20 0.12 0.02 0.00 0.00 0.00 0.00 0.00 0.00 0.00 0.00
0.00 0.00 0.00 0.00 0.00 0.00 0.00 0.00 0.00 0.00 0.00 0.00 0.00 0.00 0.00 0.00 0.00 0.02 0.05 0.09 0.16 0.15 0.30 0.48 1.47 2.05 1.66 2.45 2.58 1.33 1.12 1.06 2.60 2.85 2.01 1.26 0.67 0.48 0.31 0.08 0.02 0.00 0.00 0.00 0.00 0.00 0.00 0.00 0.00
0.00 0.00 0.00 0.00 0.00 0.00 0.00 0.00 0.00 0.00 0.00 0.00 0.00 0.00 0.00 0.00 0.00 0.00 0.03 0.07 0.14 0.25 0.37 0.50 0.65 0.89 0.98 1.54 1.28 1.27 1.08 0.94 1.28 2.41 1.86 1.08 0.68 0.42 0.48 0.09 0.01 0.00 0.00 0.00 0.00 0.00 0.00 0.00 0.00
0.00 0.00 0.00 0.00 0.00 0.00 0.00 0.00 0.00 0.00 0.00 0.00 0.00 0.00 0.00 0.00 0.00 0.00 0.00 0.01 0.04 0.15 0.30 0.49 0.39 0.48 0.69 0.99 0.94 0.63 0.74 0.83 0.81 1.59 1.64 0.95 0.43 0.18 0.28 0.07 0.01 0.00 0.00 0.00 0.00 0.00 0.00 0.00 0.00
0.00 0.00 0.00 0.00 0.00 0.00 0.00 0.00 0.00 0.00 0.00 0.00 0.00 0.00 0.00 0.00 0.00 0.00 0.00 0.00 0.02 0.08 0.25 0.43 0.44 0.43 0.49 0.37 0.45 0.39 0.35 0.69 0.55 0.76 1.20 0.78 0.25 0.08 0.09 0.10 0.00 0.00 0.00 0.00 0.00 0.00 0.00 0.00 0.00
0.00 0.00 0.00 0.00 0.00 0.00 0.00 0.00 0.00 0.00 0.00 0.00 0.00 0.00 0.00 0.00 0.00 0.00 0.00 0.00 0.00 0.04 0.16 0.39 0.60 0.57 0.54 0.30 0.23 0.24 0.29 0.46 0.63 0.58 0.59 0.59 0.20 0.06 0.04 0.04 0.01 0.00 0.00 0.00 0.00 0.00 0.00 0.00 0.00
0.00 0.00 0.00 0.00 0.00 0.00 0.00 0.00 0.00 0.00 0.00 0.00 0.00 0.00 0.00 0.00 0.00 0.00 0.00 0.00 0.00 0.02 0.10 0.32 0.65 0.71 0.74 0.44 0.36 0.27 0.33 0.38 0.55 0.51 0.47 0.36 0.17 0.09 0.02 0.02 0.01 0.00 0.00 0.00 0.00 0.00 0.00 0.00 0.00
0.00 0.00 0.00 0.00 0.00 0.00 0.00 0.00 0.00 0.00 0.00 0.00 0.00 0.00 0.00 0.00 0.00 0.00 0.00 0.00 0.00 0.00 0.04 0.13 0.36 0.71 0.75 0.62 0.59 0.68 0.31 0.29 0.38 0.43 0.38 0.24 0.11 0.06 0.04 0.02 0.00 0.00 0.00 0.00 0.00 0.00 0.00 0.00 0.00
0.00 0.00 0.00 0.00 0.00 0.00 0.00 0.00 0.00 0.00 0.00 0.00 0.00 0.00 0.00 0.00 0.00 0.00 0.00 0.00 0.00 0.00 0.02 0.07 0.25 0.55 0.70 0.61 0.44 0.49 0.48 0.24 0.31 0.28 0.23 0.13 0.07 0.04 0.03 0.03 0.02 0.03 0.01 0.00 0.00 0.00 0.00 0.00 0.00
0.00 0.00 0.00 0.00 0.00 0.00 0.00 0.00 0.00 0.00 0.00 0.00 0.00 0.00 0.00 0.00 0.00 0.00 0.00 0.00 0.00 0.00 0.01 0.03 0.11 0.33 0.51 0.39 0.34 0.31 0.35 0.23 0.28 0.24 0.17 0.06 0.02 0.01 0.02 0.03 0.11 0.10 0.05 0.01 0.00 0.00 0.00 0.00 0.00
0.00 0.00 0.00 0.00 0.00 0.00 0.00 0.00 0.00 0.00 0.00 0.00 0.00 0.00 0.00 0.00 0.00 0.00 0.00 0.00 0.00 0.00 0.01 0.02 0.03 0.09 0.15 0.20 0.23 0.20 0.22 0.11 0.15 0.12 0.16 0.07 0.01 0.02 0.01 0.01 0.08 0.05 0.04 0.02 0.00 0.01 0.03 0.01 0.00
0.00 0.00 0.00 0.00 0.00 0.00 0.00 0.00 0.00 0.00 0.00 0.00 0.00 0.00 0.00 0.00 0.00 0.00 0.00 0.00 0.00 0.00 0.00 0.01 0.01 0.03 0.02 0.04 0.05 0.07 0.11 0.10 0.07 0.09 0.11 0.08 0.01 0.03 0.05 0.02 0.01 0.03 0.05 0.05 0.03 0.04 0.03 0.05 0.05
0.00 0.00 0.00 0.00 0.00 0.00 0.00 0.00 0.00 0.00 0.00 0.00 0.00 0.00 0.00 0.00 0.00 0.00 0.00 0.00 0.00 0.00 0.00 0.00 0.01 0.01 0.01 0.02 0.04 0.05 0.13 0.23 0.16 0.13 0.12 0.13 0.03 0.02 0.04 0.07 0.08 0.09 0.07 0.06 0.06 0.06 0.05 0.10 0.06
0.00 0.00 0.00 0.01 0.03 0.04 0.00 0.01 0.00 0.00 0.00 0.00 0.00 0.00 0.00 0.00 0.00 0.00 0.00 0.00 0.00 0.00 0.00 0.00 0.00 0.01 0.01 0.02 0.02 0.02 0.03 0.09 0.08 0.06 0.07 0.15 0.09 0.02 0.01 0.02 0.03 0.06 0.08 0.08 0.07 0.06 0.04 0.20 0.25
0.01 0.00 0.02 0.06 0.02 0.01 0.00 0.04 0.00 0.00 0.00 0.00 0.00 0.00 0.00 0.00 0.00 0.00 0.00 0.00 0.00 0.00 0.00 0.00 0.00 0.01 0.01 0.01 0.02 0.01 0.01 0.01 0.03 0.07 0.11 0.16 0.20 0.04 0.02 0.02 0.03 0.04 0.04 0.09 0.14 0.09 0.10 0.18 0.23
0.03 0.03 0.11 0.09 0.06 0.11 0.01 0.04 0.02 0.00 0.00 0.00 0.00 0.00 0.00 0.00 0.00 0.00 0.00 0.00 0.00 0.00 0.00 0.00 0.00 0.00 0.01 0.01 0.02 0.01 0.01 0.01 0.01 0.02 0.03 0.05 0.14 0.10 0.02 0.01 0.02 0.05 0.06 0.09 0.12 0.22 0.25 0.35 0.34
0.03 0.11 0.26 0.17 0.13 0.09 0.00 0.00 0.00 0.00 0.00 0.00 0.00 0.00 0.00 0.00 0.00 0.00 0.00 0.00 0.00 0.00 0.00 0.00 0.00 0.00 0.00 0.00 0.01 0.01 0.01 0.01 0.00 0.00 0.00 0.00 0.01 0.03 0.01 0.00 0.00 0.01 0.05 0.09 0.19 0.28 0.33 0.40 0.38
0.02 0.14 0.20 0.09 0.03 0.01 0.00 0.00 0.00 0.00 0.00 0.00 0.00 0.00 0.00 0.00 0.00 0.00 0.00 0.00 0.00 0.00 0.00 0.00 0.00 0.00 0.00 0.00 0.00 0.01 0.00 0.01 0.00 0.00 0.00 0.00 0.00 0.00 0.00 0.00 0.00 0.01 0.05 0.09 0.20 0.38 0.56 0.66 0.56
0.01 0.04 0.04 0.16 0.20 0.12 0.00 0.00 0.00 0.00 0.00 0.00 0.00 0.00 0.00 0.00 0.00 0.00 0.00 0.00 0.00 0.00 0.00 0.00 0.01 0.00 0.00 0.00 0.00 0.00 0.00 0.00 0.00 0.00 0.00 0.03 0.04 0.02 0.00 0.00 0.00 0.02 0.04 0.18 0.41 0.45 0.33 0.25 0.17
0.00 0.03 0.22 0.39 0.22 0.12 0.01 0.02 0.01 0.01 0.00 0.00 0.00 0.00 0.00 0.00 0.00 0.00 0.00 0.00 0.00 0.00 0.00 0.00 0.05 0.15 0.10 0.01 0.00 0.00 0.00 0.00 0.00 0.00 0.00 0.02 0.09 0.12 0.09 0.05 0.05 0.06 0.09 0.19 0.29 0.27 0.18 0.12 0.09
0.00 0.03 0.24 0.29 0.05 0.09 0.08 0.10 0.04 0.02 0.01 0.01 0.00 0.00 0.00 0.00 0.00 0.00 0.00 0.00 0.00 0.00 0.00 0.00 0.00 0.07 0.21 0.25 0.09 0.00 0.00 0.00 0.00 0.02 0.03 0.03 0.09 0.20 0.18 0.12 0.17 0.21 0.32 0.36 0.23 0.15 0.11 0.10 0.11
0.00 0.00 0.05 0.22 0.19 0.06 0.09 0.18 0.20 0.07 0.02 0.00 0.00 0.00 0.00 0.00 0.00 0.00 0.00 0.00 0.00 0.00 0.00 0.00 0.00 0.00 0.09 0.35 0.30 0.15 0.05 0.08 0.09 0.06 0.05 0.09 0.29 0.53 0.43 0.22 0.18 0.16 0.15 0.24 0.34 0.33 0.30 0.28 0.27

GFSSGP_prec_precacc24_087.txt.gz
Total_Precipitation_Accumulation
0.00 0.00 0.00 0.00 0.00 0.00 0.00 0.00 0.00 0.00 0.00 0.00 0.00 0.00 0.00 0.00 0.00 0.00 0.01 0.00 0.01 0.02 0.03 0.07 0.02 0.06 0.25 0.20 0.18 0.14 0.05 0.01 0.00 0.00 0.00 0.00 0.02 0.05 0.03 0.02 0.00 0.02 0.03 0.02 0.03 0.03 0.03 0.02 0.00
0.00 0.00 0.00 0.00 0.00 0.00 0.00 0.00 0.00 0.00 0.00 0.00 0.00 0.00 0.00 0.00 0.00 0.00 0.00 0.00 0.03 0.08 0.28 0.22 0.13 0.25 0.46 0.67 0.72 0.64 0.37 0.05 0.00 0.00 0.01 0.06 0.09 0.07 0.06 0.04 0.01 0.01 0.03 0.02 0.03 0.05 0.03 0.01 0.00
0.00 0.00 0.00 0.00 0.00 0.00 0.00 0.00 0.00 0.00 0.00 0.00 0.00 0.00 0.00 0.00 0.00 0.00 0.00 0.01 0.05 0.16 0.44 0.38 0.42 0.65 1.02 1.30 1.80 1.71 1.21 0.62 0.29 0.19 0.14 0.17 0.15 0.13 0.08 0.02 0.01 0.02 0.05 0.03 0.04 0.04 0.02 0.00 0.00
0.00 0.00 0.00 0.00 0.00 0.00 0.00 0.00 0.00 0.00 0.00 0.00 0.00 0.00 0.00 0.00 0.00 0.00 0.01 0.01 0.09 0.22 0.89 0.63 0.70 0.88 0.79 1.46 2.41 2.27 1.90 1.92 1.51 1.22 0.69 0.39 0.30 0.26 0.15 0.07 0.06 0.06 0.04 0.03 0.05 0.04 0.01 0.00 0.00
0.00 0.00 0.00 0.00 0.00 0.00 0.00 0.00 0.00 0.00 0.00 0.00 0.00 0.00 0.00 0.00 0.00 0.00 0.00 0.01 0.06 0.18 0.73 0.40 0.23 0.27 0.21 0.66 1.42 1.91 2.09 1.86 1.49 1.53 1.53 0.89 0.57 0.35 0.24 0.15 0.11 0.10 0.04 0.02 0.02 0.03 0.01 0.00 0.00
0.00 0.00 0.00 0.00 0.00 0.00 0.00 0.00 0.00 0.00 0.00 0.00 0.00 0.00 0.00 0.00 0.00 0.00 0.00 0.01 0.10 0.14 0.33 0.36 0.25 0.16 0.20 0.52 1.03 1.37 2.19 2.08 1.27 0.90 1.62 1.02 0.59 0.51 0.37 0.27 0.18 0.13 0.06 0.01 0.01 0.01 0.00 0.00 0.00
0.00 0.00 0.00 0.00 0.00 0.00 0.00 0.00 0.00 0.00 0.00 0.00 0.00 0.00 0.00 0.00 0.00 0.00 0.01 0.02 0.10 0.15 0.43 0.67 0.35 0.23 0.74 1.04 0.91 1.71 2.54 2.41 1.46 1.13 0.90 0.98 0.72 0.63 0.42 0.29 0.24 0.14 0.07 0.02 0.00 0.00 0.00 0.00 0.00
0.00 0.00 0.00 0.00 0.00 0.00 0.00 0.00 0.00 0.00 0.00 0.00 0.00 0.00 0.00 0.00 0.00 0.00 0.02 0.03 0.09 0.19 0.20 0.61 0.75 0.84 0.49 1.30 1.53 1.71 2.66 3.34 2.10 1.67 1.41 0.84 0.66 0.69 0.46 0.31 0.35 0.23 0.07 0.01 0.01 0.00 0.00 0.00 0.00
0.00 0.00 0.00 0.00 0.00 0.00 0.00 0.00 0.00 0.00 0.00 0.00 0.00 0.00 0.00 0.00 0.00 0.01 0.04 0.07 0.08 0.19 0.10 0.89 2.30 1.72 1.47 1.22 1.33 1.27 1.40 2.38 3.32 2.25 1.72 1.35 0.53 0.53 0.42 0.37 0.36 0.19 0.03 0.00 0.01 0.00 0.00 0.00 0.00
0.00 0.00 0.00 0.00 0.00 0.00 0.00 0.00 0.00 0.00 0.00 0.00 0.00 0.00 0.00 0.00 0.00 0.00 0.03 0.04 0.07 0.05 0.16 0.40 1.35 1.93 1.57 2.15 2.23 1.21 1.03 1.03 2.42 2.66 1.97 1.26 0.68 0.55 0.52 0.34 0.35 0.11 0.00 0.00 0.00 0.00 0.00 0.00 0.00
0.00 0.00 0.00 0.00 0.00 0.00 0.00 0.00 0.00 0.00 0.00 0.00 0.00 0.00 0.00 0.00 0.00 0.00 0.01 0.04 0.10 0.14 0.24 0.38 0.53 0.77 0.92 1.46 1.15 1.26 1.06 0.92 1.24 2.34 1.82 1.10 0.74 0.51 0.70 0.29 0.22 0.08 0.00 0.00 0.00 0.00 0.00 0.00 0.00
0.00 0.00 0.00 0.00 0.00 0.00 0.00 0.00 0.00 0.00 0.00 0.00 0.00 0.00 0.00 0.00 0.00 0.00 0.00 0.00 0.02 0.04 0.15 0.25 0.21 0.33 0.59 0.90 0.85 0.61 0.74 0.84 0.80 1.58 1.66 1.06 0.65 0.31 0.44 0.14 0.07 0.02 0.00 0.00 0.00 0.00 0.00 0.00 0.00
0.00 0.00 0.00 0.00 0.00 0.00 0.00 0.00 0.00 0.00 0.00 0.00 0.00 0.00 0.00 0.00 0.00 0.00 0.00 0.00 0.01 0.01 0.10 0.21 0.26 0.29 0.37 0.27 0.40 0.38 0.34 0.70 0.55 0.75 1.36 1.08 0.58 0.19 0.16 0.12 0.01 0.00 0.00 0.00 0.00 0.00 0.00 0.00 0.00
0.00 0.00 0.00 0.00 0.00 0.00 0.00 0.00 0.00 0.00 0.00 0.00 0.00 0.00 0.00 0.00 0.00 0.00 0.00 0.00 0.00 0.01 0.04 0.21 0.35 0.44 0.46 0.23 0.19 0.18 0.25 0.44 0.64 0.59 0.75 1.11 0.50 0.17 0.05 0.05 0.01 0.00 0.00 0.00 0.00 0.00 0.00 0.00 0.00
0.00 0.00 0.00 0.00 0.00 0.00 0.00 0.00 0.00 0.00 0.00 0.00 0.00 0.00 0.00 0.00 0.00 0.00 0.00 0.00 0.00 0.01 0.04 0.25 0.47 0.55 0.64 0.41 0.32 0.24 0.29 0.34 0.55 0.53 0.64 0.83 0.45 0.19 0.03 0.02 0.01 0.00 0.00 0.00 0.00 0.00 0.00 0.00 0.00
0.00 0.00 0.00 0.00 0.00 0.00 0.00 0.00 0.00 0.00 0.00 0.00 0.00 0.00 0.00 0.00 0.00 0.00 0.00 0.00 0.00 0.00 0.02 0.09 0.27 0.52 0.60 0.58 0.56 0.65 0.29 0.29 0.40 0.46 0.52 0.53 0.45 0.14 0.06 0.02 0.00 0.00 0.00 0.00 0.00 0.00 0.00 0.00 0.00
0.00 0.00 0.00 0.00 0.00 0.00 0.00 0.00 0.00 0.00 0.00 0.00 0.00 0.00 0.00 0.00 0.00 0.00 0.00 0.00 0.00 0.00 0.02 0.04 0.19 0.47 0.66 0.56 0.41 0.48 0.47 0.25 0.33 0.33 0.31 0.27 0.36 0.13 0.05 0.04 0.02 0.03 0.01 0.00 0.00 0.00 0.00 0.00 0.00
0.00 0.00 0.00 0.00 0.00 0.00 0.00 0.00 0.00 0.00 0.00 0.00 0.00 0.00 0.00 0.00 0.00 0.00 0.00 0.00 0.00 0.00 0.01 0.03 0.09 0.30 0.48 0.38 0.32 0.30 0.34 0.23 0.30 0.28 0.29 0.15 0.17 0.12 0.04 0.05 0.10 0.10 0.05 0.01 0.00 0.00 0.00 0.00 0.00
0.00 0.00 0.00 0.00 0.00 0.00 0.00 0.00 0.00 0.00 0.00 0.00 0.00 0.00 0.00 0.00 0.00 0.00 0.00 0.00 0.00 0.00 0.01 0.02 0.03 0.09 0.15 0.20 0.23 0.19 0.22 0.11 0.16 0.14 0.25 0.23 0.11 0.08 0.04 0.04 0.09 0.05 0.04 0.02 0.00 0.01 0.03 0.01 0.00
0.00 0.00 0.00 0.00 0.00 0.00 0.00 0.00 0.00 0.00 0.00 0.00 0.00 0.00 0.00 0.00 0.00 0.00 0.00 0.00 0.00 0.00 0.00 0.01 0.01 0.03 0.02 0.04 0.05 0.07 0.11 0.11 0.08 0.10 0.15 0.26 0.16 0.09 0.09 0.06 0.02 0.03 0.04 0.04 0.03 0.04 0.03 0.05 0.05
0.00 0.00 0.00 0.00 0.00 0.00 0.00 0.00 0.00 0.00 0.00 0.00 0.00 0.00 0.00 0.00 0.00 0.00 0.00 0.00 0.00 0.00 0.00 0.00 0.01 0.01 0.01 0.02 0.04 0.05 0.13 0.23 0.17 0.15 0.16 0.26 0.11 0.08 0.10 0.16 0.10 0.09 0.07 0.05 0.05 0.06 0.04 0.09 0.06
0.00 0.00 0.00 0.01 0.03 0.04 0.00 0.01 0.00 0.00 0.00 0.00 0.00 0.00 0.00 0.00 0.00 0.00 0.00 0.00 0.00 0.00 0.00 0.00 0.00 0.01 0.01 0.02 0.02 0.02 0.03 0.09 0.09 0.06 0.08 0.19 0.13 0.05 0.04 0.08 0.07 0.07 0.08 0.08 0.07 0.04 0.02 0.17 0.23
0.01 0.00 0.02 0.06 0.02 0.01 0.00 0.05 0.00 0.00 0.00 0.00 0.00 0.00 0.00 0.00 0.00 0.00 0.00 0.00 0.00 0.00 0.00 0.00 0.00 0.01 0.01 0.01 0.02 0.01 0.01 0.01 0.03 0.07 0.11 0.17 0.23 0.05 0.04 0.04 0.05 0.04 0.05 0.10 0.14 0.08 0.07 0.14 0.21
0.03 0.03 0.11 0.09 0.07 0.11 0.01 0.04 0.02 0.00 0.00 0.00 0.00 0.00 0.00 0.00 0.00 0.00 0.00 0.00 0.00 0.00 0.00 0.00 0.00 0.00 0.01 0.01 0.02 0.01 0.01 0.01 0.01 0.03 0.03 0.05 0.14 0.11 0.03 0.02 0.03 0.05 0.07 0.10 0.12 0.15 0.19 0.31 0.30
0.03 0.11 0.26 0.18 0.15 0.09 0.00 0.00 0.00 0.00 0.00 0.00 0.00 0.00 0.00 0.00 0.00 0.00 0.00 0.00 0.00 0.00 0.00 0.00 0.00 0.00 0.00 0.00 0.01 0.01 0.01 0.01 0.00 0.00 0.00 0.00 0.01 0.03 0.01 0.01 0.01 0.01 0.02 0.04 0.10 0.16 0.25 0.29 0.34
0.02 0.14 0.21 0.12 0.06 0.03 0.00 0.00 0.00 0.00 0.00 0.00 0.00 0.00 0.00 0.00 0.00 0.00 0.00 0.00 0.00 0.00 0.00 0.00 0.00 0.00 0.00 0.00 0.00 0.01 0.00 0.01 0.00 0.00 0.00 0.00 0.00 0.00 0.00 0.00 0.00 0.00 0.01 0.03 0.05 0.11 0.16 0.48 0.51
0.01 0.04 0.04 0.18 0.24 0.18 0.01 0.00 0.00 0.00 0.00 0.00 0.00 0.00 0.00 0.00 0.00 0.00 0.00 0.00 0.00 0.00 0.00 0.00 0.00 0.00 0.00 0.00 0.00 0.00 0.00 0.00 0.00 0.00 0.00 0.00 0.00 0.00 0.00 0.00 0.00 0.00 0.00 0.02 0.04 0.12 0.18 0.22 0.17
0.00 0.03 0.24 0.46 0.26 0.14 0.01 0.04 0.03 0.01 0.00 0.00 0.00 0.00 0.00 0.00 0.00 0.00 0.00 0.00 0.00 0.00 0.00 0.00 0.01 0.08 0.04 0.01 0.00 0.00 0.00 0.00 0.00 0.00 0.00 0.00 0.00 0.00 0.01 0.02 0.02 0.01 0.01 0.01 0.05 0.12 0.14 0.12 0.09
0.00 0.03 0.24 0.35 0.13 0.14 0.09 0.16 0.22 0.04 0.02 0.01 0.00 0.00 0.00 0.00 0.00 0.00 0.00 0.00 0.00 0.00 0.00 0.00 0.00 0.02 0.08 0.13 0.06 0.00 0.00 0.00 0.00 0.00 0.00 0.00 0.00 0.01 0.03 0.06 0.09 0.09 0.11 0.20 0.16 0.11 0.10 0.10 0.10
0.00 0.00 0.05 0.25 0.22 0.13 0.13 0.20 0.42 0.22 0.07 0.00 0.00 0.00 0.00 0.00 0.00 0.00 0.00 0.00 0.00 0.00 0.00 0.01 0.01 0.00 0.02 0.13 0.14 0.08 0.01 0.00 0.01 0.01 0.00 0.00 0.00 0.01 0.04 0.09 0.11 0.11 0.10 0.20 0.31 0.31 0.29 0.28 0.26

GFSSGP_prec_precacc24_090.txt.gz
Total_Precipitation_Accumulation
0.00 0.00 0.00 0.00 0.00 0.00 0.00 0.00 0.00 0.00 0.00 0.00 0.00 0.00 0.00 0.00 0.00 0.00 0.01 0.00 0.01 0.02 0.02 0.02 0.01 0.07 0.24 0.13 0.04 0.03 0.02 0.01 0.00 0.00 0.00 0.01 0.06 0.09 0.04 0.03 0.00 0.02 0.03 0.03 0.03 0.04 0.05 0.03 0.01
0.00 0.00 0.00 0.00 0.00 0.00 0.00 0.00 0.00 0.00 0.00 0.00 0.00 0.00 0.00 0.00 0.00 0.00 0.00 0.00 0.03 0.04 0.11 0.10 0.10 0.24 0.46 0.62 0.62 0.46 0.27 0.06 0.01 0.00 0.06 0.25 0.26 0.20 0.21 0.22 0.08 0.02 0.03 0.03 0.03 0.06 0.04 0.02 0.00
0.00 0.00 0.00 0.00 0.00 0.00 0.00 0.00 0.00 0.00 0.00 0.00 0.00 0.00 0.00 0.00 0.00 0.00 0.00 0.01 0.05 0.14 0.34 0.29 0.33 0.63 1.02 1.31 1.76 1.48 0.98 0.57 0.30 0.21 0.24 0.26 0.23 0.23 0.17 0.11 0.05 0.05 0.07 0.06 0.06 0.06 0.03 0.01 0.00
0.00 0.00 0.00 0.00 0.00 0.00 0.00 0.00 0.00 0.00 0.00 0.00 0.00 0.00 0.00 0.00 0.00 0.00 0.01 0.01 0.07 0.21 0.87 0.52 0.62 0.88 0.79 1.46 2.35 2.15 1.74 1.84 1.50 1.22 0.70 0.41 0.34 0.33 0.28 0.23 0.24 0.17 0.11 0.08 0.08 0.05 0.02 0.00 0.00
0.00 0.00 0.00 0.00 0.00 0.00 0.00 0.00 0.00 0.00 0.00 0.00 0.00 0.00 0.00 0.00 0.00 0.00 0.00 0.01 0.06 0.15 0.69 0.34 0.21 0.26 0.17 0.64 1.39 1.83 2.05 1.82 1.51 1.53 1.53 0.91 0.60 0.37 0.30 0.25 0.27 0.21 0.09 0.07 0.05 0.04 0.01 0.00 0.00
0.00 0.00 0.00 0.00 0.00 0.00 0.00 0.00 0.00 0.00 0.00 0.00 0.00 0.00 0.00 0.00 0.00 0.00 0.00 0.00 0.09 0.12 0.28 0.26 0.15 0.13 0.10 0.39 1.02 1.25 2.12 2.07 1.37 0.93 1.63 1.05 0.65 0.56 0.40 0.30 0.26 0.21 0.12 0.05 0.03 0.02 0.00 0.00 0.00
0.00 0.00 0.00 0.00 0.00 0.00 0.00 0.00 0.00 0.00 0.00 0.00 0.00 0.00 0.00 0.00 0.00 0.00 0.00 0.02 0.09 0.07 0.21 0.45 0.25 0.14 0.23 0.44 0.76 1.41 2.28 2.47 1.56 1.18 0.90 1.01 0.78 0.70 0.45 0.30 0.30 0.24 0.14 0.12 0.04 0.00 0.00 0.00 0.00
0.00 0.00 0.00 0.00 0.00 0.00 0.00 0.00 0.00 0.00 0.00 0.00 0.00 0.00 0.00 0.00 0.00 0.00 0.00 0.02 0.07 0.18 0.14 0.38 0.36 0.43 0.28 0.44 0.55 1.03 2.35 3.24 2.12 1.69 1.41 0.85 0.69 0.70 0.46 0.31 0.38 0.44 0.29 0.12 0.05 0.00 0.00 0.00 0.00
0.00 0.00 0.00 0.00 0.00 0.00 0.00 0.00 0.00 0.00 0.00 0.00 0.00 0.00 0.00 0.00 0.00 0.00 0.01 0.06 0.08 0.19 0.07 0.14 0.49 0.87 1.24 1.05 0.85 0.96 1.25 2.20 3.19 2.20 1.71 1.36 0.53 0.53 0.42 0.37 0.42 0.40 0.33 0.14 0.02 0.00 0.00 0.00 0.00
0.00 0.00 0.00 0.00 0.00 0.00 0.00 0.00 0.00 0.00 0.00 0.00 0.00 0.00 0.00 0.00 0.00 0.00 0.01 0.03 0.04 0.03 0.05 0.19 0.58 1.51 1.46 2.11 2.20 1.13 0.93 0.87 2.14 2.55 1.93 1.26 0.68 0.55 0.52 0.35 0.43 0.50 0.25 0.13 0.00 0.00 0.00 0.00 0.00
0.00 0.00 0.00 0.00 0.00 0.00 0.00 0.00 0.00 0.00 0.00 0.00 0.00 0.00 0.00 0.00 0.00 0.00 0.00 0.03 0.03 0.02 0.06 0.23 0.39 0.55 0.78 1.42 1.14 1.24 1.02 0.83 1.03 2.16 1.76 1.10 0.74 0.53 0.70 0.30 0.34 0.70 0.30 0.11 0.01 0.00 0.00 0.00 0.00
0.00 0.00 0.00 0.00 0.00 0.00 0.00 0.00 0.00 0.00 0.00 0.00 0.00 0.00 0.00 0.00 0.00 0.00 0.00 0.00 0.00 0.01 0.03 0.10 0.06 0.12 0.42 0.88 0.85 0.60 0.74 0.82 0.73 1.50 1.62 1.06 0.65 0.33 0.47 0.17 0.20 0.58 0.12 0.01 0.00 0.00 0.00 0.00 0.00
0.00 0.00 0.00 0.00 0.00 0.00 0.00 0.00 0.00 0.00 0.00 0.00 0.00 0.00 0.00 0.00 0.00 0.00 0.00 0.00 0.00 0.01 0.02 0.11 0.10 0.14 0.23 0.21 0.37 0.36 0.34 0.70 0.54 0.73 1.34 1.09 0.60 0.22 0.24 0.19 0.11 0.40 0.05 0.00 0.00 0.00 0.00 0.00 0.00
0.00 0.00 0.00 0.00 0.00 0.00 0.00 0.00 0.00 0.00 0.00 0.00 0.00 0.00 0.00 0.00 0.00 0.00 0.00 0.00 0.00 0.01 0.02 0.13 0.25 0.27 0.37 0.16 0.15 0.15 0.21 0.44 0.62 0.57 0.73 1.16 0.63 0.31 0.25 0.17 0.07 0.23 0.05 0.00 0.00 0.00 0.00 0.00 0.00
0.00 0.00 0.00 0.00 0.00 0.00 0.00 0.00 0.00 0.00 0.00 0.00 0.00 0.00 0.00 0.00 0.00 0.00 0.00 0.00 0.00 0.00 0.02 0.06 0.33 0.24 0.44 0.28 0.24 0.17 0.26 0.29 0.51 0.53 0.63 0.94 0.70 0.45 0.21 0.15 0.06 0.06 0.01 0.00 0.00 0.00 0.00 0.00 0.00
0.00 0.00 0.00 0.00 0.00 0.00 0.00 0.00 0.00 0.00 0.00 0.00 0.00 0.00 0.00 0.00 0.00 0.00 0.00 0.00 0.00 0.00 0.01 0.04 0.15 0.26 0.34 0.36 0.50 0.60 0.26 0.25 0.35 0.42 0.54 0.77 0.79 0.50 0.24 0.11 0.03 0.01 0.00 0.00 0.00 0.00 0.00 0.00 0.00
0.00 0.00 0.00 0.00 0.00 0.00 0.00 0.00 0.00 0.00 0.00 0.00 0.00 0.00 0.00 0.00 0.00 0.00 0.00 0.00 0.00 0.00 0.01 0.03 0.10 0.35 0.48 0.41 0.33 0.45 0.45 0.22 0.30 0.32 0.37 0.56 0.79 0.39 0.13 0.07 0.05 0.04 0.01 0.00 0.00 0.00 0.00 0.00 0.00
0.00 0.00 0.00 0.00 0.00 0.00 0.00 0.00 0.00 0.00 0.00 0.00 0.00 0.00 0.00 0.00 0.00 0.00 0.00 0.00 0.00 0.00 0.01 0.02 0.05 0.23 0.34 0.32 0.21 0.24 0.32 0.23 0.29 0.27 0.33 0.32 0.56 0.33 0.11 0.07 0.13 0.11 0.05 0.01 0.00 0.00 0.00 0.00 0.00
0.00 0.00 0.00 0.00 0.00 0.00 0.00 0.00 0.00 0.00 0.00 0.00 0.00 0.00 0.00 0.00 0.00 0.00 0.00 0.00 0.00 0.00 0.01 0.01 0.03 0.07 0.12 0.18 0.16 0.16 0.18 0.11 0.15 0.14 0.34 0.34 0.29 0.34 0.12 0.06 0.10 0.05 0.03 0.01 0.00 0.01 0.03 0.01 0.00
0.00 0.00 0.00 0.00 0.00 0.00 0.00 0.00 0.00 0.00 0.00 0.00 0.00 0.00 0.00 0.00 0.00 0.00 0.00 0.00 0.00 0.00 0.00 0.01 0.01 0.02 0.02 0.04 0.04 0.06 0.07 0.10 0.07 0.10 0.18 0.51 0.26 0.27 0.18 0.10 0.04 0.02 0.02 0.03 0.03 0.04 0.03 0.05 0.05
0.00 0.00 0.00 0.00 0.00 0.00 0.00 0.00 0.00 0.00 0.00 0.00 0.00 0.00 0.00 0.00 0.00 0.00 0.00 0.00 0.00 0.00 0.00 0.00 0.01 0.01 0.01 0.02 0.04 0.05 0.12 0.22 0.17 0.15 0.17 0.38 0.27 0.18 0.23 0.20 0.12 0.05 0.06 0.05 0.05 0.06 0.04 0.09 0.05
0.00 0.00 0.00 0.01 0.03 0.04 0.00 0.01 0.00 0.00 0.00 0.00 0.00 0.00 0.00 0.00 0.00 0.00 0.00 0.00 0.00 0.00 0.00 0.00 0.00 0.01 0.01 0.02 0.02 0.02 0.02 0.08 0.08 0.06 0.09 0.22 0.22 0.17 0.18 0.23 0.16 0.08 0.08 0.08 0.07 0.04 0.02 0.17 0.23
0.01 0.00 0.02 0.06 0.02 0.01 0.00 0.05 0.00 0.00 0.00 0.00 0.00 0.00 0.00 0.00 0.00 0.00 0.00 0.00 0.00 0.00 0.00 0.00 0.00 0.01 0.01 0.01 0.02 0.02 0.01 0.01 0.03 0.07 0.11 0.19 0.30 0.12 0.17 0.13 0.16 0.08 0.06 0.10 0.14 0.08 0.07 0.13 0.19
0.03 0.03 0.11 0.09 0.07 0.11 0.01 0.04 0.02 0.00 0.00 0.00 0.00 0.00 0.00 0.00 0.00 0.00 0.00 0.00 0.00 0.00 0.00 0.00 0.00 0.00 0.01 0.01 0.02 0.01 0.01 0.01 0.01 0.03 0.03 0.06 0.16 0.16 0.11 0.14 0.09 0.09 0.08 0.11 0.12 0.15 0.17 0.22 0.23
0.03 0.11 0.26 0.18 0.15 0.09 0.00 0.00 0.00 0.00 0.00 0.00 0.00 0.00 0.00 0.00 0.00 0.00 0.00 0.00 0.00 0.00 0.00 0.00 0.00 0.00 0.00 0.01 0.01 0.01 0.01 0.01 0.00 0.00 0.00 0.00 0.01 0.04 0.02 0.05 0.05 0.05 0.03 0.04 0.10 0.12 0.15 0.15 0.13
0.02 0.14 0.21 0.12 0.06 0.04 0.00 0.00 0.00 0.00 0.00 0.00 0.00 0.00 0.00 0.00 0.00 0.00 0.00 0.00 0.00 0.00 0.00 0.00 0.00 0.00 0.00 0.00 0.01 0.01 0.00 0.01 0.00 0.00 0.00 0.00 0.00 0.00 0.00 0.00 0.01 0.01 0.02 0.03 0.04 0.05 0.06 0.07 0.08
0.01 0.04 0.04 0.18 0.24 0.19 0.01 0.00 0.00 0.00 0.00 0.00 0.00 0.00 0.00 0.00 0.00 0.00 0.00 0.00 0.00 0.00 0.00 0.00 0.00 0.00 0.00 0.00 0.00 0.00 0.00 0.00 0.00 0.00 0.00 0.00 0.00 0.00 0.00 0.00 0.00 0.00 0.01 0.02 0.03 0.03 0.03 0.05 0.07
0.00 0.03 0.24 0.47 0.31 0.17 0.01 0.04 0.04 0.02 0.01 0.00 0.00 0.00 0.00 0.00 0.00 0.00 0.00 0.00 0.00 0.00 0.00 0.00 0.00 0.01 0.01 0.00 0.00 0.00 0.00 0.00 0.00 0.00 0.00 0.00 0.00 0.00 0.00 0.00 0.00 0.00 0.00 0.01 0.02 0.02 0.02 0.05 0.07
0.00 0.03 0.24 0.35 0.14 0.19 0.12 0.18 0.33 0.18 0.07 0.01 0.00 0.00 0.00 0.00 0.00 0.00 0.00 0.00 0.00 0.00 0.00 0.00 0.00 0.00 0.01 0.04 0.03 0.00 0.00 0.00 0.00 0.00 0.00 0.00 0.00 0.00 0.00 0.00 0.00 0.00 0.00 0.06 0.06 0.04 0.03 0.03 0.06
0.00 0.00 0.05 0.26 0.23 0.15 0.17 0.22 0.45 0.27 0.13 0.05 0.01 0.01 0.00 0.00 0.00 0.00 0.00 0.00 0.00 0.00 0.00 0.02 0.04 0.02 0.00 0.03 0.07 0.05 0.00 0.00 0.00 0.00 0.00 0.00 0.00 0.00 0.00 0.00 0.01 0.03 0.04 0.07 0.14 0.21 0.22 0.24 0.24

GFSSGP_prec_precacc24_093.txt.gz
Total_Precipitation_Accumulation
0.00 0.00 0.00 0.00 0.00 0.00 0.00 0.00 0.00 0.00 0.00 0.00 0.00 0.00 0.00 0.00 0.00 0.00 0.01 0.00 0.01 0.00 0.01 0.01 0.01 0.07 0.24 0.13 0.04 0.03 0.03 0.02 0.01 0.00 0.00 0.01 0.06 0.09 0.04 0.03 0.00 0.02 0.03 0.03 0.03 0.03 0.05 0.03 0.02
0.00 0.00 0.00 0.00 0.00 0.00 0.00 0.00 0.00 0.00 0.00 0.00 0.00 0.00 0.00 0.00 0.00 0.00 0.00 0.00 0.02 0.01 0.01 0.06 0.09 0.24 0.47 0.62 0.62 0.46 0.29 0.08 0.02 0.00 0.07 0.32 0.36 0.27 0.27 0.27 0.11 0.03 0.05 0.04 0.03 0.06 0.04 0.02 0.01
0.00 0.00 0.00 0.00 0.00 0.00 0.00 0.00 0.00 0.00 0.00 0.00 0.00 0.00 0.00 0.00 0.00 0.00 0.00 0.00 0.02 0.06 0.10 0.26 0.28 0.58 1.03 1.31 1.76 1.48 0.98 0.59 0.32 0.33 0.43 0.39 0.38 0.40 0.31 0.25 0.15 0.09 0.10 0.09 0.07 0.08 0.04 0.01 0.02
0.00 0.00 0.00 0.00 0.00 0.00 0.00 0.00 0.00 0.00 0.00 0.00 0.00 0.00 0.00 0.00 0.00 0.00 0.01 0.01 0.02 0.10 0.46 0.46 0.60 0.88 0.80 1.47 2.35 2.16 1.74 1.84 1.50 1.23 0.72 0.45 0.39 0.41 0.41 0.42 0.47 0.35 0.17 0.10 0.12 0.07 0.03 0.00 0.00
0.00 0.00 0.00 0.00 0.00 0.00 0.00 0.00 0.00 0.00 0.00 0.00 0.00 0.00 0.00 0.00 0.00 0.00 0.00 0.00 0.03 0.09 0.31 0.21 0.19 0.26 0.18 0.64 1.38 1.85 2.10 1.88 1.59 1.54 1.53 0.92 0.61 0.40 0.36 0.46 0.60 0.56 0.34 0.18 0.08 0.05 0.01 0.00 0.00
0.00 0.00 0.00 0.00 0.00 0.00 0.00 0.00 0.00 0.00 0.00 0.00 0.00 0.00 0.00 0.00 0.00 0.00 0.00 0.00 0.04 0.02 0.07 0.07 0.12 0.14 0.11 0.38 1.02 1.27 2.18 2.13 1.42 0.96 1.63 1.05 0.66 0.57 0.46 0.42 0.35 0.34 0.25 0.17 0.09 0.02 0.00 0.00 0.00
0.00 0.00 0.00 0.00 0.00 0.00 0.00 0.00 0.00 0.00 0.00 0.00 0.00 0.00 0.00 0.00 0.00 0.00 0.00 0.01 0.04 0.02 0.08 0.14 0.09 0.07 0.19 0.37 0.68 1.35 2.14 2.35 1.51 1.20 0.91 1.02 0.80 0.71 0.52 0.35 0.32 0.30 0.22 0.17 0.08 0.02 0.00 0.00 0.00
0.00 0.00 0.00 0.00 0.00 0.00 0.00 0.00 0.00 0.00 0.00 0.00 0.00 0.00 0.00 0.00 0.00 0.00 0.00 0.01 0.03 0.06 0.04 0.23 0.19 0.13 0.19 0.38 0.45 0.90 2.19 3.05 2.01 1.65 1.42 0.89 0.72 0.72 0.48 0.32 0.39 0.53 0.47 0.24 0.06 0.04 0.01 0.00 0.00
0.00 0.00 0.00 0.00 0.00 0.00 0.00 0.00 0.00 0.00 0.00 0.00 0.00 0.00 0.00 0.00 0.00 0.00 0.00 0.01 0.03 0.09 0.02 0.07 0.20 0.40 0.52 0.73 0.43 0.39 0.76 1.99 3.02 2.08 1.70 1.37 0.55 0.55 0.42 0.37 0.44 0.44 0.51 0.40 0.14 0.08 0.02 0.00 0.00
0.00 0.00 0.00 0.00 0.00 0.00 0.00 0.00 0.00 0.00 0.00 0.00 0.00 0.00 0.00 0.00 0.00 0.00 0.00 0.01 0.03 0.02 0.03 0.08 0.11 0.49 0.67 1.35 1.30 0.62 0.50 0.69 2.04 2.42 1.91 1.26 0.68 0.55 0.52 0.35 0.46 0.55 0.40 0.46 0.22 0.08 0.01 0.00 0.00
0.00 0.00 0.00 0.00 0.00 0.00 0.00 0.00 0.00 0.00 0.00 0.00 0.00 0.00 0.00 0.00 0.00 0.00 0.00 0.00 0.02 0.01 0.03 0.11 0.14 0.31 0.57 1.06 0.93 1.02 0.86 0.73 0.97 2.05 1.75 1.10 0.74 0.53 0.70 0.30 0.37 0.75 0.64 0.50 0.23 0.06 0.01 0.00 0.00
0.00 0.00 0.00 0.00 0.00 0.00 0.00 0.00 0.00 0.00 0.00 0.00 0.00 0.00 0.00 0.00 0.00 0.00 0.00 0.00 0.00 0.01 0.02 0.03 0.02 0.04 0.18 0.70 0.82 0.56 0.72 0.78 0.71 1.47 1.61 1.06 0.65 0.34 0.47 0.17 0.22 0.72 0.70 0.44 0.14 0.01 0.00 0.00 0.00
0.00 0.00 0.00 0.00 0.00 0.00 0.00 0.00 0.00 0.00 0.00 0.00 0.00 0.00 0.00 0.00 0.00 0.00 0.00 0.00 0.00 0.01 0.01 0.02 0.04 0.04 0.12 0.15 0.37 0.35 0.34 0.69 0.52 0.72 1.34 1.09 0.60 0.22 0.25 0.19 0.12 0.50 0.53 0.49 0.09 0.00 0.00 0.00 0.00
0.00 0.00 0.00 0.00 0.00 0.00 0.00 0.00 0.00 0.00 0.00 0.00 0.00 0.00 0.00 0.00 0.00 0.00 0.00 0.00 0.00 0.01 0.02 0.01 0.09 0.07 0.12 0.07 0.14 0.14 0.19 0.43 0.62 0.57 0.73 1.16 0.64 0.32 0.30 0.21 0.08 0.30 0.33 0.30 0.10 0.01 0.00 0.00 0.00
0.00 0.00 0.00 0.00 0.00 0.00 0.00 0.00 0.00 0.00 0.00 0.00 0.00 0.00 0.00 0.00 0.00 0.00 0.00 0.00 0.00 0.00 0.01 0.01 0.16 0.16 0.13 0.14 0.21 0.11 0.13 0.26 0.51 0.52 0.64 0.95 0.71 0.48 0.29 0.26 0.10 0.16 0.17 0.12 0.07 0.01 0.00 0.00 0.00
0.00 0.00 0.00 0.00 0.00 0.00 0.00 0.00 0.00 0.00 0.00 0.00 0.00 0.00 0.00 0.00 0.00 0.00 0.00 0.00 0.00 0.00 0.01 0.03 0.04 0.06 0.12 0.07 0.39 0.30 0.13 0.20 0.34 0.41 0.54 0.79 0.82 0.54 0.38 0.25 0.13 0.15 0.14 0.06 0.02 0.00 0.00 0.00 0.00
0.00 0.00 0.00 0.00 0.00 0.00 0.00 0.00 0.00 0.00 0.00 0.00 0.00 0.00 0.00 0.00 0.00 0.00 0.00 0.00 0.00 0.00 0.01 0.02 0.04 0.08 0.11 0.16 0.25 0.25 0.28 0.20 0.25 0.26 0.35 0.61 0.91 0.52 0.35 0.26 0.11 0.18 0.13 0.04 0.01 0.00 0.00 0.00 0.00
0.00 0.00 0.00 0.00 0.00 0.00 0.00 0.00 0.00 0.00 0.00 0.00 0.00 0.00 0.00 0.00 0.00 0.00 0.00 0.00 0.00 0.00 0.01 0.02 0.02 0.10 0.22 0.24 0.16 0.22 0.27 0.21 0.27 0.21 0.29 0.48 0.96 0.58 0.31 0.25 0.18 0.21 0.13 0.03 0.00 0.00 0.00 0.00 0.00
0.00 0.00 0.00 0.00 0.00 0.00 0.00 0.00 0.00 0.00 0.00 0.00 0.00 0.00 0.00 0.00 0.00 0.00 0.00 0.00 0.00 0.00 0.00 0.01 0.03 0.05 0.09 0.16 0.14 0.14 0.16 0.10 0.14 0.13 0.30 0.38 0.65 0.67 0.25 0.12 0.14 0.09 0.05 0.01 0.00 0.00 0.02 0.01 0.00
0.00 0.00 0.00 0.00 0.00 0.00 0.00 0.00 0.00 0.00 0.00 0.00 0.00 0.00 0.00 0.00 0.00 0.00 0.00 0.00 0.00 0.00 0.00 0.01 0.01 0.02 0.02 0.03 0.03 0.05 0.06 0.06 0.05 0.08 0.16 0.61 0.47 0.45 0.29 0.12 0.05 0.02 0.02 0.01 0.00 0.00 0.01 0.02 0.04
0.00 0.00 0.00 0.00 0.00 0.00 0.00 0.00 0.00 0.00 0.00 0.00 0.00 0.00 0.00 0.00 0.00 0.00 0.00 0.00 0.00 0.00 0.00 0.00 0.01 0.01 0.01 0.02 0.02 0.03 0.09 0.13 0.13 0.12 0.13 0.40 0.36 0.30 0.36 0.21 0.11 0.03 0.02 0.01 0.00 0.00 0.01 0.07 0.04
0.00 0.00 0.00 0.01 0.03 0.04 0.00 0.01 0.00 0.00 0.00 0.00 0.00 0.00 0.00 0.00 0.00 0.00 0.00 0.00 0.00 0.00 0.00 0.00 0.00 0.01 0.01 0.02 0.02 0.01 0.02 0.05 0.05 0.05 0.06 0.20 0.25 0.26 0.32 0.30 0.18 0.06 0.03 0.03 0.02 0.00 0.01 0.17 0.21
0.01 0.00 0.02 0.06 0.02 0.01 0.00 0.05 0.00 0.00 0.00 0.00 0.00 0.00 0.00 0.00 0.00 0.00 0.00 0.00 0.00 0.00 0.00 0.00 0.00 0.01 0.01 0.01 0.02 0.02 0.01 0.01 0.02 0.06 0.10 0.18 0.29 0.24 0.32 0.34 0.26 0.14 0.07 0.10 0.13 0.07 0.07 0.13 0.19
0.03 0.03 0.11 0.09 0.07 0.11 0.01 0.04 0.02 0.00 0.00 0.00 0.00 0.00 0.00 0.00 0.00 0.00 0.00 0.00 0.00 0.00 0.00 0.00 0.00 0.00 0.01 0.01 0.02 0.01 0.01 0.01 0.01 0.03 0.03 0.06 0.18 0.17 0.21 0.38 0.30 0.20 0.15 0.15 0.14 0.15 0.17 0.21 0.19
0.03 0.11 0.26 0.18 0.15 0.09 0.00 0.00 0.00 0.00 0.00 0.00 0.00 0.00 0.00 0.00 0.00 0.00 0.00 0.00 0.00 0.00 0.00 0.00 0.00 0.00 0.00 0.01 0.01 0.01 0.01 0.01 0.00 0.00 0.00 0.00 0.03 0.05 0.03 0.10 0.18 0.16 0.10 0.07 0.13 0.13 0.15 0.15 0.11
0.02 0.14 0.21 0.12 0.06 0.04 0.00 0.00 0.00 0.00 0.00 0.00 0.00 0.00 0.00 0.00 0.00 0.00 0.00 0.00 0.00 0.00 0.00 0.00 0.00 0.00 0.00 0.01 0.01 0.01 0.00 0.01 0.00 0.00 0.00 0.00 0.00 0.01 0.02 0.01 0.05 0.07 0.04 0.04 0.05 0.05 0.06 0.07 0.07
0.01 0.04 0.04 0.18 0.24 0.19 0.01 0.00 0.00 0.00 0.00 0.00 0.00 0.00 0.00 0.00 0.00 0.00 0.00 0.00 0.00 0.00 0.00 0.00 0.00 0.00 0.00 0.00 0.01 0.00 0.01 0.00 0.00 0.00 0.00 0.00 0.00 0.00 0.02 0.02 0.02 0.05 0.03 0.02 0.03 0.03 0.03 0.04 0.04
0.00 0.03 0.24 0.47 0.31 0.17 0.01 0.04 0.04 0.02 0.01 0.00 0.00 0.00 0.00 0.00 0.00 0.00 0.00 0.00 0.00 0.00 0.00 0.00 0.00 0.00 0.00 0.00 0.00 0.00 0.00 0.00 0.00 0.00 0.00 0.00 0.00 0.00 0.00 0.02 0.03 0.01 0.02 0.01 0.03 0.03 0.02 0.05 0.06
0.00 0.03 0.24 0.35 0.14 0.19 0.12 0.18 0.33 0.18 0.07 0.01 0.00 0.01 0.01 0.01 0.00 0.00 0.00 0.00 0.00 0.00 0.00 0.01 0.00 0.01 0.00 0.00 0.00 0.00 0.00 0.01 0.00 0.00 0.00 0.00 0.00 0.00 0.00 0.00 0.00 0.00 0.00 0.00 0.01 0.01 0.01 0.01 0.02
0.00 0.00 0.05 0.26 0.23 0.16 0.19 0.23 0.45 0.27 0.14 0.06 0.06 0.04 0.03 0.07 0.10 0.01 0.00 0.00 0.00 0.00 0.01 0.03 0.04 0.03 0.01 0.01 0.00 0.00 0.00 0.00 0.00 0.00 0.00 0.00 0.00 0.00 0.00 0.00 0.00 0.00 0.00 0.00 0.00 0.00 0.00 0.01 0.04

GFSSGP_prec_precacc24_096.txt.gz
Total_Precipitation_Accumulation
0.00 0.00 0.00 0.00 0.00 0.00 0.00 0.00 0.00 0.00 0.00 0.00 0.00 0.00 0.00 0.00 0.00 0.00 0.01 0.00 0.00 0.00 0.01 0.01 0.01 0.03 0.20 0.13 0.04 0.03 0.03 0.03 0.01 0.03 0.06 0.05 0.06 0.09 0.04 0.03 0.01 0.01 0.02 0.02 0.03 0.03 0.05 0.03 0.02
0.00 0.00 0.00 0.00 0.00 0.00 0.00 0.00 0.00 0.00 0.00 0.00 0.00 0.00 0.00 0.00 0.00 0.00 0.00 0.00 0.00 0.00 0.01 0.04 0.01 0.07 0.40 0.61 0.62 0.46 0.29 0.08 0.02 0.01 0.11 0.33 0.36 0.27 0.27 0.27 0.11 0.03 0.04 0.04 0.04 0.07 0.04 0.03 0.03
0.00 0.00 0.00 0.00 0.00 0.00 0.00 0.00 0.00 0.00 0.00 0.00 0.00 0.00 0.00 0.00 0.00 0.00 0.00 0.00 0.00 0.01 0.04 0.19 0.07 0.18 0.46 1.14 1.75 1.47 0.98 0.60 0.33 0.37 0.61 0.68 0.70 0.67 0.52 0.39 0.24 0.09 0.11 0.10 0.10 0.09 0.04 0.01 0.03
0.00 0.00 0.00 0.00 0.00 0.00 0.00 0.00 0.00 0.00 0.00 0.00 0.00 0.00 0.00 0.00 0.00 0.00 0.00 0.00 0.00 0.02 0.09 0.17 0.43 0.59 0.42 0.78 2.24 2.16 1.74 1.84 1.53 1.29 0.78 0.50 0.47 0.51 0.49 0.54 0.69 0.56 0.32 0.19 0.21 0.11 0.03 0.00 0.00
0.00 0.00 0.00 0.00 0.00 0.00 0.00 0.00 0.00 0.00 0.00 0.00 0.00 0.00 0.00 0.00 0.00 0.00 0.00 0.00 0.00 0.04 0.08 0.11 0.18 0.23 0.07 0.21 1.18 1.83 2.10 1.90 1.70 1.63 1.55 0.93 0.62 0.41 0.37 0.47 0.67 0.81 0.88 0.65 0.29 0.06 0.01 0.00 0.00
0.00 0.00 0.00 0.00 0.00 0.00 0.00 0.00 0.00 0.00 0.00 0.00 0.00 0.00 0.00 0.00 0.00 0.00 0.00 0.00 0.00 0.00 0.02 0.05 0.11 0.13 0.07 0.12 0.79 1.15 2.18 2.17 1.45 1.07 1.68 1.07 0.66 0.57 0.46 0.43 0.37 0.37 0.65 0.80 0.45 0.12 0.01 0.00 0.00
0.00 0.00 0.00 0.00 0.00 0.00 0.00 0.00 0.00 0.00 0.00 0.00 0.00 0.00 0.00 0.00 0.00 0.00 0.00 0.00 0.00 0.00 0.01 0.08 0.07 0.06 0.16 0.22 0.44 0.97 1.84 2.31 1.55 1.28 1.01 1.09 0.83 0.71 0.52 0.38 0.33 0.30 0.25 0.34 0.33 0.22 0.08 0.01 0.00
0.00 0.00 0.00 0.00 0.00 0.00 0.00 0.00 0.00 0.00 0.00 0.00 0.00 0.00 0.00 0.00 0.00 0.00 0.00 0.00 0.01 0.01 0.00 0.03 0.13 0.10 0.10 0.19 0.34 0.77 1.92 2.81 1.91 1.66 1.53 1.10 0.94 0.78 0.49 0.33 0.40 0.54 0.50 0.36 0.24 0.26 0.16 0.05 0.00
0.00 0.00 0.00 0.00 0.00 0.00 0.00 0.00 0.00 0.00 0.00 0.00 0.00 0.00 0.00 0.00 0.00 0.00 0.00 0.01 0.01 0.01 0.01 0.03 0.11 0.16 0.18 0.22 0.22 0.27 0.62 1.81 2.82 1.92 1.66 1.43 0.57 0.56 0.43 0.38 0.44 0.46 0.55 0.56 0.45 0.35 0.17 0.07 0.02
0.00 0.00 0.00 0.00 0.00 0.00 0.00 0.00 0.00 0.00 0.00 0.00 0.00 0.00 0.00 0.00 0.00 0.00 0.00 0.00 0.02 0.01 0.03 0.06 0.05 0.24 0.29 0.24 0.36 0.25 0.26 0.51 1.92 2.28 1.80 1.20 0.67 0.55 0.52 0.35 0.45 0.56 0.44 0.60 0.59 0.40 0.18 0.10 0.01
0.00 0.00 0.00 0.00 0.00 0.00 0.00 0.00 0.00 0.00 0.00 0.00 0.00 0.00 0.00 0.00 0.00 0.00 0.00 0.00 0.01 0.01 0.02 0.03 0.08 0.18 0.17 0.16 0.20 0.28 0.42 0.43 0.78 1.89 1.65 1.06 0.72 0.53 0.71 0.30 0.40 0.78 0.69 0.61 0.51 0.29 0.16 0.10 0.03
0.00 0.00 0.00 0.00 0.00 0.00 0.00 0.00 0.00 0.00 0.00 0.00 0.00 0.00 0.00 0.00 0.00 0.00 0.00 0.00 0.00 0.00 0.01 0.02 0.02 0.01 0.01 0.17 0.44 0.27 0.43 0.55 0.52 1.28 1.53 1.04 0.66 0.34 0.48 0.18 0.27 0.80 0.77 0.49 0.28 0.17 0.14 0.08 0.04
0.00 0.00 0.00 0.00 0.00 0.00 0.00 0.00 0.00 0.00 0.00 0.00 0.00 0.00 0.00 0.00 0.00 0.00 0.00 0.00 0.00 0.01 0.00 0.01 0.02 0.01 0.01 0.03 0.23 0.24 0.28 0.55 0.37 0.58 1.29 1.09 0.62 0.24 0.26 0.21 0.21 0.58 0.56 0.64 0.31 0.18 0.12 0.05 0.02
0.00 0.00 0.00 0.00 0.00 0.00 0.00 0.00 0.00 0.00 0.00 0.00 0.00 0.00 0.00 0.00 0.00 0.00 0.00 0.00 0.00 0.00 0.01 0.01 0.02 0.03 0.02 0.02 0.06 0.08 0.17 0.39 0.52 0.47 0.72 1.17 0.67 0.34 0.33 0.26 0.17 0.34 0.34 0.50 0.47 0.16 0.09 0.04 0.00
0.00 0.00 0.00 0.00 0.00 0.00 0.00 0.00 0.00 0.00 0.00 0.00 0.00 0.00 0.00 0.00 0.00 0.00 0.00 0.00 0.00 0.00 0.00 0.01 0.02 0.04 0.04 0.02 0.09 0.05 0.10 0.24 0.46 0.47 0.64 0.95 0.73 0.51 0.36 0.34 0.18 0.18 0.19 0.23 0.34 0.13 0.07 0.02 0.00
0.00 0.00 0.00 0.00 0.00 0.00 0.00 0.00 0.00 0.00 0.00 0.00 0.00 0.00 0.00 0.00 0.00 0.00 0.00 0.00 0.00 0.00 0.01 0.01 0.01 0.02 0.05 0.03 0.21 0.17 0.06 0.12 0.30 0.38 0.54 0.79 0.83 0.57 0.46 0.34 0.18 0.18 0.16 0.11 0.17 0.05 0.04 0.02 0.01
0.00 0.00 0.00 0.00 0.00 0.00 0.00 0.00 0.00 0.00 0.00 0.00 0.00 0.00 0.00 0.00 0.00 0.00 0.00 0.00 0.00 0.00 0.01 0.01 0.02 0.01 0.05 0.08 0.12 0.14 0.12 0.09 0.18 0.24 0.35 0.62 0.92 0.56 0.43 0.40 0.24 0.23 0.19 0.09 0.08 0.03 0.03 0.01 0.01
0.00 0.00 0.00 0.00 0.00 0.00 0.00 0.00 0.00 0.00 0.00 0.00 0.00 0.00 0.00 0.00 0.00 0.00 0.00 0.00 0.00 0.00 0.00 0.01 0.02 0.02 0.03 0.11 0.08 0.15 0.17 0.10 0.15 0.12 0.28 0.50 0.99 0.68 0.54 0.54 0.33 0.33 0.23 0.17 0.09 0.03 0.03 0.02 0.00
0.00 0.00 0.00 0.00 0.00 0.00 0.00 0.00 0.00 0.00 0.00 0.00 0.00 0.00 0.00 0.00 0.00 0.00 0.00 0.00 0.00 0.00 0.00 0.01 0.02 0.02 0.03 0.08 0.10 0.08 0.11 0.06 0.08 0.08 0.29 0.40 0.70 0.82 0.51 0.42 0.34 0.23 0.16 0.11 0.05 0.01 0.01 0.01 0.00
0.01 0.00 0.00 0.00 0.00 0.00 0.00 0.00 0.00 0.00 0.00 0.00 0.00 0.00 0.00 0.00 0.00 0.00 0.00 0.00 0.00 0.00 0.00 0.01 0.01 0.02 0.02 0.02 0.02 0.02 0.02 0.03 0.04 0.04 0.15 0.61 0.62 0.66 0.53 0.35 0.22 0.16 0.13 0.10 0.04 0.01 0.01 0.00 0.01
0.00 0.00 0.00 0.00 0.00 0.00 0.00 0.00 0.00 0.00 0.00 0.00 0.00 0.00 0.00 0.00 0.00 0.00 0.00 0.00 0.00 0.00 0.00 0.00 0.01 0.01 0.01 0.01 0.02 0.01 0.05 0.11 0.11 0.08 0.10 0.34 0.41 0.50 0.45 0.40 0.22 0.13 0.11 0.05 0.01 0.00 0.01 0.06 0.01
0.00 0.00 0.00 0.01 0.03 0.04 0.00 0.01 0.00 0.00 0.00 0.00 0.00 0.00 0.00 0.00 0.00 0.00 0.00 0.00 0.00 0.00 0.00 0.00 0.00 0.01 0.01 0.02 0.02 0.01 0.02 0.05 0.05 0.05 0.05 0.11 0.21 0.34 0.42 0.38 0.29 0.13 0.11 0.04 0.01 0.00 0.00 0.14 0.14
0.01 0.00 0.02 0.06 0.02 0.01 0.00 0.05 0.00 0.00 0.00 0.00 0.00 0.00 0.00 0.00 0.00 0.00 0.00 0.00 0.00 0.00 0.00 0.00 0.00 0.01 0.01 0.01 0.02 0.02 0.01 0.01 0.02 0.05 0.08 0.08 0.14 0.23 0.39 0.43 0.31 0.16 0.08 0.05 0.06 0.04 0.06 0.12 0.12
0.03 0.03 0.11 0.09 0.07 0.11 0.01 0.04 0.02 0.00 0.00 0.00 0.00 0.00 0.00 0.00 0.00 0.00 0.00 0.00 0.00 0.00 0.00 0.00 0.00 0.00 0.01 0.01 0.02 0.01 0.01 0.01 0.01 0.02 0.03 0.04 0.10 0.15 0.27 0.48 0.36 0.21 0.14 0.11 0.09 0.10 0.11 0.17 0.16
0.03 0.11 0.26 0.18 0.15 0.09 0.00 0.00 0.00 0.00 0.00 0.00 0.00 0.00 0.00 0.00 0.00 0.00 0.00 0.00 0.00 0.00 0.00 0.00 0.00 0.00 0.00 0.01 0.01 0.01 0.01 0.00 0.00 0.01 0.01 0.00 0.03 0.05 0.08 0.18 0.29 0.23 0.15 0.11 0.13 0.11 0.12 0.13 0.09
0.02 0.14 0.21 0.12 0.06 0.04 0.00 0.00 0.00 0.00 0.00 0.00 0.00 0.00 0.00 0.00 0.00 0.00 0.00 0.00 0.00 0.00 0.00 0.00 0.00 0.00 0.00 0.01 0.01 0.01 0.00 0.01 0.00 0.00 0.01 0.01 0.01 0.01 0.02 0.03 0.10 0.14 0.15 0.07 0.07 0.07 0.07 0.07 0.07
0.01 0.04 0.04 0.18 0.24 0.19 0.01 0.00 0.00 0.00 0.00 0.00 0.00 0.00 0.00 0.00 0.00 0.00 0.00 0.00 0.00 0.00 0.00 0.00 0.00 0.00 0.00 0.00 0.01 0.01 0.01 0.01 0.00 0.00 0.01 0.01 0.01 0.00 0.02 0.02 0.04 0.11 0.17 0.12 0.04 0.04 0.03 0.05 0.04
0.00 0.03 0.24 0.47 0.31 0.17 0.01 0.04 0.05 0.02 0.01 0.00 0.00 0.00 0.00 0.00 0.00 0.00 0.00 0.00 0.00 0.00 0.00 0.00 0.01 0.00 0.00 0.00 0.00 0.00 0.00 0.00 0.00 0.00 0.00 0.00 0.00 0.00 0.00 0.03 0.05 0.04 0.08 0.13 0.06 0.03 0.03 0.05 0.05
0.00 0.03 0.24 0.35 0.14 0.19 0.12 0.18 0.33 0.18 0.07 0.02 0.00 0.01 0.01 0.01 0.00 0.00 0.00 0.00 0.00 0.00 0.00 0.01 0.01 0.01 0.01 0.00 0.00 0.00 0.00 0.01 0.00 0.00 0.00 0.00 0.00 0.00 0.00 0.00 0.02 0.04 0.01 0.03 0.02 0.01 0.02 0.02 0.02
0.00 0.00 0.05 0.26 0.23 0.16 0.19 0.23 0.45 0.27 0.14 0.07 0.06 0.04 0.03 0.07 0.11 0.04 0.02 0.01 0.01 0.00 0.01 0.03 0.05 0.04 0.02 0.01 0.01 0.00 0.00 0.00 0.01 0.00 0.00 0.00 0.00 0.00 0.00 0.00 0.00 0.00 0.00 0.00 0.00 0.00 0.00 0.00 0.00

GFSSGP_prec_precacc24_099.txt.gz
Total_Precipitation_Accumulation
0.00 0.00 0.00 0.00 0.00 0.00 0.00 0.00 0.00 0.00 0.00 0.00 0.00 0.00 0.00 0.00 0.00 0.00 0.00 0.00 0.00 0.00 0.00 0.01 0.01 0.02 0.04 0.03 0.03 0.02 0.03 0.03 0.02 0.03 0.10 0.17 0.11 0.16 0.10 0.03 0.01 0.01 0.02 0.02 0.02 0.03 0.04 0.03 0.02
0.00 0.00 0.00 0.00 0.00 0.00 0.00 0.00 0.00 0.00 0.00 0.00 0.00 0.00 0.00 0.00 0.00 0.00 0.00 0.00 0.00 0.00 0.00 0.00 0.00 0.02 0.10 0.28 0.47 0.42 0.28 0.08 0.02 0.01 0.12 0.35 0.38 0.34 0.36 0.29 0.11 0.03 0.03 0.04 0.04 0.09 0.05 0.03 0.03
0.00 0.00 0.00 0.00 0.00 0.00 0.00 0.00 0.00 0.00 0.00 0.00 0.00 0.00 0.00 0.00 0.00 0.00 0.00 0.00 0.00 0.00 0.00 0.01 0.03 0.07 0.07 0.16 0.87 1.21 0.94 0.60 0.33 0.38 0.62 0.78 0.92 0.93 0.76 0.55 0.28 0.13 0.14 0.16 0.19 0.17 0.06 0.01 0.03
0.00 0.00 0.00 0.00 0.00 0.00 0.00 0.00 0.00 0.00 0.00 0.00 0.00 0.00 0.00 0.00 0.00 0.00 0.00 0.00 0.00 0.01 0.01 0.03 0.12 0.17 0.10 0.31 0.86 1.35 1.63 1.86 1.57 1.33 0.87 0.60 0.52 0.56 0.61 0.83 1.04 0.91 0.64 0.44 0.48 0.31 0.04 0.00 0.00
0.00 0.00 0.00 0.00 0.00 0.00 0.00 0.00 0.00 0.00 0.00 0.00 0.00 0.00 0.00 0.00 0.00 0.00 0.00 0.00 0.00 0.01 0.02 0.04 0.13 0.15 0.03 0.07 0.27 0.71 1.69 1.90 1.78 1.69 1.58 0.95 0.63 0.43 0.38 0.50 0.80 1.19 1.62 1.38 0.82 0.28 0.05 0.06 0.09
0.00 0.00 0.00 0.00 0.00 0.00 0.00 0.00 0.00 0.00 0.00 0.00 0.00 0.00 0.00 0.00 0.00 0.00 0.00 0.00 0.00 0.00 0.01 0.01 0.11 0.09 0.02 0.05 0.12 0.34 1.50 2.08 1.53 1.18 1.76 1.10 0.69 0.58 0.46 0.44 0.38 0.38 0.75 1.22 1.19 0.92 0.30 0.18 0.08
0.00 0.00 0.00 0.00 0.00 0.00 0.00 0.00 0.00 0.00 0.00 0.00 0.00 0.00 0.00 0.00 0.00 0.00 0.00 0.00 0.00 0.00 0.01 0.03 0.04 0.05 0.02 0.05 0.10 0.21 1.04 2.01 1.53 1.25 0.98 1.15 0.83 0.71 0.52 0.38 0.32 0.29 0.28 0.46 0.53 0.63 0.53 0.36 0.18
0.00 0.00 0.00 0.00 0.00 0.00 0.00 0.00 0.00 0.00 0.00 0.00 0.00 0.00 0.00 0.00 0.00 0.00 0.00 0.00 0.00 0.00 0.00 0.01 0.04 0.04 0.05 0.04 0.05 0.15 1.09 1.98 1.49 1.55 1.44 1.08 0.95 0.80 0.50 0.35 0.41 0.55 0.50 0.36 0.29 0.41 0.44 0.35 0.21
0.00 0.00 0.00 0.00 0.00 0.00 0.00 0.00 0.00 0.00 0.00 0.00 0.00 0.00 0.00 0.00 0.00 0.00 0.00 0.00 0.00 0.00 0.00 0.00 0.04 0.07 0.09 0.09 0.09 0.12 0.36 1.29 2.24 1.72 1.56 1.29 0.56 0.57 0.47 0.39 0.44 0.46 0.56 0.59 0.53 0.48 0.40 0.30 0.23
0.00 0.00 0.00 0.00 0.00 0.00 0.00 0.00 0.00 0.00 0.00 0.00 0.00 0.00 0.00 0.00 0.00 0.00 0.00 0.00 0.00 0.00 0.01 0.01 0.02 0.20 0.23 0.15 0.13 0.08 0.12 0.31 1.67 2.10 1.69 1.02 0.59 0.60 0.54 0.38 0.47 0.56 0.47 0.64 0.66 0.67 0.47 0.34 0.16
0.00 0.00 0.00 0.00 0.00 0.00 0.00 0.00 0.00 0.00 0.00 0.00 0.00 0.00 0.00 0.00 0.00 0.00 0.00 0.00 0.00 0.00 0.01 0.02 0.06 0.14 0.15 0.12 0.10 0.05 0.09 0.12 0.67 1.78 1.51 0.83 0.53 0.58 0.72 0.30 0.42 0.79 0.71 0.66 0.57 0.44 0.36 0.31 0.22
0.00 0.00 0.00 0.00 0.00 0.00 0.00 0.00 0.00 0.00 0.00 0.00 0.00 0.00 0.00 0.00 0.00 0.00 0.00 0.00 0.00 0.00 0.00 0.00 0.01 0.00 0.01 0.01 0.06 0.11 0.12 0.07 0.28 1.07 1.29 0.83 0.53 0.36 0.50 0.19 0.33 0.89 0.83 0.54 0.33 0.20 0.23 0.31 0.28
0.00 0.00 0.00 0.00 0.00 0.00 0.00 0.00 0.00 0.00 0.00 0.00 0.00 0.00 0.00 0.00 0.00 0.00 0.00 0.00 0.00 0.00 0.00 0.00 0.00 0.00 0.00 0.01 0.02 0.06 0.14 0.17 0.15 0.34 0.99 0.84 0.58 0.25 0.28 0.25 0.28 0.67 0.61 0.69 0.34 0.19 0.24 0.26 0.25
0.00 0.00 0.00 0.00 0.00 0.00 0.00 0.00 0.00 0.00 0.00 0.00 0.00 0.00 0.00 0.00 0.00 0.00 0.00 0.00 0.00 0.00 0.00 0.00 0.01 0.01 0.00 0.00 0.01 0.02 0.07 0.22 0.21 0.17 0.47 0.96 0.65 0.37 0.35 0.31 0.23 0.42 0.39 0.52 0.47 0.17 0.22 0.25 0.17
0.00 0.00 0.00 0.00 0.00 0.00 0.00 0.00 0.00 0.00 0.00 0.00 0.00 0.00 0.00 0.00 0.00 0.00 0.00 0.00 0.00 0.00 0.00 0.00 0.01 0.01 0.01 0.01 0.01 0.01 0.05 0.14 0.28 0.25 0.45 0.85 0.73 0.55 0.40 0.39 0.26 0.24 0.26 0.24 0.35 0.23 0.29 0.26 0.16
0.00 0.00 0.00 0.00 0.00 0.00 0.00 0.00 0.00 0.00 0.00 0.00 0.00 0.00 0.00 0.00 0.00 0.00 0.00 0.00 0.00 0.00 0.00 0.00 0.01 0.01 0.01 0.01 0.01 0.01 0.01 0.06 0.21 0.26 0.46 0.75 0.83 0.61 0.55 0.41 0.26 0.25 0.21 0.14 0.18 0.11 0.21 0.23 0.09
0.00 0.00 0.00 0.00 0.00 0.00 0.00 0.00 0.00 0.00 0.00 0.00 0.00 0.00 0.00 0.00 0.00 0.00 0.00 0.00 0.00 0.00 0.00 0.00 0.01 0.01 0.01 0.00 0.01 0.02 0.02 0.05 0.14 0.19 0.33 0.62 0.93 0.58 0.53 0.49 0.32 0.28 0.22 0.10 0.09 0.07 0.11 0.16 0.09
0.00 0.00 0.00 0.00 0.00 0.00 0.00 0.00 0.00 0.00 0.00 0.00 0.00 0.00 0.00 0.00 0.00 0.00 0.00 0.00 0.00 0.00 0.00 0.00 0.00 0.01 0.01 0.01 0.03 0.02 0.04 0.04 0.08 0.11 0.28 0.51 1.01 0.69 0.57 0.62 0.47 0.37 0.28 0.19 0.10 0.06 0.12 0.13 0.05
0.00 0.00 0.01 0.00 0.00 0.00 0.00 0.00 0.00 0.00 0.00 0.00 0.00 0.00 0.00 0.00 0.00 0.00 0.00 0.00 0.00 0.00 0.00 0.00 0.01 0.01 0.02 0.02 0.03 0.03 0.05 0.04 0.06 0.07 0.29 0.42 0.74 0.86 0.59 0.60 0.56 0.40 0.25 0.17 0.09 0.04 0.06 0.12 0.07
0.03 0.05 0.01 0.00 0.00 0.00 0.00 0.00 0.00 0.00 0.00 0.00 0.00 0.00 0.00 0.00 0.00 0.00 0.00 0.00 0.00 0.00 0.00 0.00 0.00 0.01 0.01 0.01 0.01 0.00 0.01 0.02 0.03 0.05 0.16 0.64 0.66 0.68 0.60 0.62 0.52 0.36 0.27 0.27 0.18 0.05 0.05 0.07 0.06
0.00 0.00 0.00 0.00 0.00 0.00 0.00 0.00 0.00 0.00 0.00 0.00 0.00 0.00 0.00 0.00 0.00 0.00 0.00 0.00 0.00 0.00 0.00 0.00 0.00 0.00 0.01 0.01 0.01 0.00 0.01 0.02 0.05 0.06 0.10 0.35 0.42 0.51 0.49 0.57 0.55 0.29 0.25 0.18 0.15 0.06 0.03 0.03 0.04
0.00 0.00 0.00 0.01 0.03 0.04 0.00 0.01 0.00 0.00 0.00 0.00 0.00 0.00 0.00 0.00 0.00 0.00 0.00 0.00 0.00 0.00 0.00 0.00 0.00 0.01 0.01 0.02 0.01 0.01 0.01 0.02 0.02 0.02 0.04 0.11 0.20 0.35 0.43 0.42 0.48 0.27 0.26 0.20 0.11 0.05 0.03 0.06 0.03
0.01 0.00 0.02 0.06 0.02 0.01 0.00 0.05 0.00 0.00 0.00 0.00 0.00 0.00 0.00 0.00 0.00 0.00 0.00 0.00 0.00 0.00 0.00 0.00 0.00 0.00 0.01 0.01 0.01 0.01 0.01 0.01 0.01 0.02 0.03 0.06 0.11 0.23 0.39 0.46 0.49 0.35 0.26 0.20 0.10 0.03 0.07 0.07 0.02
0.03 0.03 0.11 0.09 0.07 0.11 0.01 0.04 0.02 0.00 0.00 0.00 0.00 0.00 0.00 0.00 0.00 0.00 0.00 0.00 0.00 0.00 0.00 0.00 0.00 0.00 0.01 0.01 0.01 0.01 0.01 0.01 0.01 0.01 0.02 0.02 0.05 0.11 0.27 0.52 0.51 0.42 0.32 0.24 0.11 0.07 0.08 0.12 0.09
0.03 0.11 0.26 0.19 0.16 0.09 0.00 0.00 0.00 0.00 0.00 0.00 0.00 0.00 0.00 0.00 0.00 0.00 0.00 0.00 0.00 0.00 0.00 0.00 0.00 0.00 0.00 0.01 0.01 0.01 0.01 0.00 0.00 0.01 0.01 0.01 0.02 0.03 0.07 0.18 0.37 0.36 0.31 0.21 0.14 0.11 0.12 0.10 0.07
0.02 0.14 0.22 0.13 0.07 0.04 0.00 0.00 0.00 0.00 0.00 0.00 0.00 0.00 0.00 0.00 0.00 0.00 0.00 0.00 0.00 0.00 0.00 0.00 0.00 0.00 0.00 0.01 0.01 0.01 0.00 0.00 0.00 0.00 0.01 0.01 0.01 0.01 0.02 0.04 0.13 0.26 0.29 0.17 0.15 0.13 0.10 0.10 0.06
0.01 0.04 0.05 0.19 0.24 0.19 0.01 0.00 0.00 0.00 0.00 0.00 0.00 0.00 0.00 0.00 0.00 0.00 0.00 0.00 0.00 0.00 0.00 0.00 0.00 0.00 0.00 0.00 0.01 0.01 0.01 0.01 0.00 0.00 0.01 0.01 0.01 0.00 0.02 0.02 0.06 0.17 0.22 0.21 0.13 0.10 0.09 0.09 0.08
0.00 0.03 0.24 0.47 0.32 0.17 0.01 0.04 0.08 0.04 0.01 0.00 0.00 0.00 0.00 0.00 0.00 0.00 0.00 0.00 0.00 0.00 0.00 0.00 0.01 0.00 0.00 0.01 0.00 0.00 0.00 0.00 0.00 0.00 0.01 0.01 0.01 0.00 0.00 0.03 0.05 0.06 0.11 0.18 0.11 0.03 0.02 0.03 0.03
0.00 0.04 0.24 0.35 0.14 0.21 0.13 0.24 0.35 0.19 0.07 0.02 0.00 0.01 0.01 0.01 0.00 0.00 0.00 0.00 0.00 0.00 0.00 0.01 0.01 0.02 0.01 0.00 0.01 0.00 0.00 0.01 0.00 0.00 0.01 0.00 0.00 0.00 0.01 0.00 0.02 0.04 0.02 0.06 0.11 0.06 0.01 0.01 0.00
0.00 0.01 0.05 0.27 0.24 0.16 0.20 0.30 0.46 0.27 0.14 0.07 0.06 0.04 0.03 0.07 0.11 0.04 0.02 0.02 0.01 0.02 0.03 0.04 0.06 0.04 0.02 0.02 0.02 0.00 0.00 0.00 0.01 0.00 0.01 0.00 0.00 0.00 0.01 0.01 0.00 0.00 0.00 0.01 0.02 0.04 0.01 0.00 0.01

GFSSGP_prec_precacc24_102.txt.gz
Total_Precipitation_Accumulation
0.00 0.00 0.00 0.00 0.00 0.00 0.00 0.00 0.00 0.00 0.00 0.00 0.00 0.00 0.00 0.00 0.00 0.00 0.00 0.00 0.00 0.00 0.00 0.00 0.01 0.01 0.01 0.00 0.00 0.01 0.02 0.02 0.02 0.04 0.11 0.18 0.13 0.18 0.10 0.02 0.01 0.03 0.08 0.06 0.02 0.03 0.04 0.03 0.02
0.00 0.00 0.00 0.00 0.00 0.00 0.00 0.00 0.00 0.00 0.00 0.00 0.00 0.00 0.00 0.00 0.00 0.00 0.00 0.00 0.00 0.00 0.00 0.00 0.00 0.01 0.01 0.01 0.04 0.07 0.12 0.05 0.03 0.03 0.14 0.36 0.38 0.34 0.36 0.30 0.13 0.06 0.08 0.09 0.06 0.11 0.05 0.03 0.03
0.00 0.00 0.00 0.00 0.00 0.00 0.00 0.00 0.00 0.00 0.00 0.00 0.00 0.00 0.00 0.00 0.00 0.00 0.00 0.00 0.00 0.00 0.00 0.00 0.01 0.01 0.02 0.07 0.14 0.20 0.31 0.46 0.33 0.39 0.64 0.81 0.96 0.96 0.80 0.69 0.46 0.39 0.43 0.36 0.32 0.25 0.09 0.01 0.03
0.00 0.00 0.00 0.00 0.00 0.00 0.00 0.00 0.00 0.00 0.00 0.00 0.00 0.00 0.00 0.00 0.00 0.00 0.00 0.00 0.00 0.00 0.00 0.01 0.05 0.03 0.05 0.25 0.43 0.30 0.42 1.12 1.48 1.32 0.92 0.65 0.56 0.58 0.62 0.89 1.31 1.56 1.36 0.82 0.86 0.72 0.22 0.02 0.00
0.00 0.00 0.00 0.00 0.00 0.00 0.00 0.00 0.00 0.00 0.00 0.00 0.00 0.00 0.00 0.00 0.00 0.00 0.00 0.00 0.00 0.00 0.00 0.01 0.06 0.06 0.03 0.07 0.24 0.44 0.36 0.64 1.50 1.72 1.59 0.97 0.66 0.46 0.43 0.52 0.86 1.57 2.67 2.05 1.13 0.77 0.42 0.26 0.22
0.00 0.00 0.00 0.00 0.00 0.00 0.00 0.00 0.00 0.00 0.00 0.00 0.00 0.00 0.00 0.00 0.00 0.00 0.00 0.00 0.00 0.00 0.00 0.00 0.05 0.04 0.02 0.05 0.12 0.22 0.42 0.65 0.99 1.09 1.78 1.11 0.71 0.60 0.49 0.46 0.40 0.39 0.81 1.31 1.29 1.36 0.75 0.44 0.31
0.00 0.00 0.00 0.00 0.00 0.00 0.00 0.00 0.00 0.00 0.00 0.00 0.00 0.00 0.00 0.00 0.00 0.00 0.00 0.00 0.00 0.00 0.00 0.00 0.03 0.05 0.02 0.05 0.08 0.17 0.28 0.44 0.77 1.11 0.97 1.15 0.83 0.71 0.58 0.41 0.34 0.29 0.28 0.46 0.53 0.65 0.66 0.55 0.39
0.00 0.00 0.00 0.00 0.00 0.00 0.00 0.00 0.00 0.00 0.00 0.00 0.00 0.00 0.00 0.00 0.00 0.00 0.00 0.00 0.00 0.00 0.00 0.00 0.02 0.03 0.04 0.04 0.04 0.06 0.10 0.29 0.62 1.25 1.20 1.08 0.99 0.81 0.52 0.36 0.43 0.56 0.52 0.36 0.29 0.41 0.48 0.44 0.31
0.00 0.00 0.00 0.00 0.00 0.00 0.00 0.00 0.00 0.00 0.00 0.00 0.00 0.00 0.00 0.00 0.00 0.00 0.00 0.00 0.00 0.00 0.00 0.00 0.02 0.04 0.04 0.06 0.07 0.07 0.08 0.17 0.60 1.10 1.18 1.16 0.63 0.62 0.49 0.47 0.47 0.48 0.56 0.59 0.53 0.48 0.41 0.36 0.31
0.00 0.00 0.00 0.00 0.00 0.00 0.00 0.00 0.00 0.00 0.00 0.00 0.00 0.00 0.00 0.00 0.00 0.00 0.00 0.00 0.00 0.00 0.00 0.00 0.01 0.13 0.09 0.05 0.11 0.06 0.09 0.09 0.49 1.37 1.40 0.98 0.51 0.46 0.41 0.41 0.48 0.57 0.47 0.64 0.66 0.68 0.52 0.39 0.21
0.00 0.00 0.00 0.00 0.00 0.00 0.00 0.00 0.00 0.00 0.00 0.00 0.00 0.00 0.00 0.00 0.00 0.00 0.00 0.00 0.00 0.00 0.00 0.00 0.01 0.05 0.04 0.02 0.07 0.05 0.06 0.07 0.18 1.22 1.41 0.80 0.42 0.42 0.53 0.32 0.44 0.81 0.71 0.66 0.58 0.44 0.37 0.34 0.28
0.00 0.00 0.00 0.00 0.00 0.00 0.00 0.00 0.00 0.00 0.00 0.00 0.00 0.00 0.00 0.00 0.00 0.00 0.00 0.00 0.00 0.00 0.00 0.00 0.01 0.00 0.01 0.01 0.05 0.09 0.09 0.04 0.05 0.55 1.24 0.76 0.47 0.31 0.34 0.20 0.38 0.92 0.86 0.56 0.34 0.21 0.24 0.32 0.35
0.00 0.00 0.00 0.00 0.00 0.00 0.00 0.00 0.00 0.00 0.00 0.00 0.00 0.00 0.00 0.00 0.00 0.00 0.00 0.00 0.00 0.00 0.00 0.00 0.00 0.00 0.00 0.01 0.02 0.05 0.10 0.07 0.05 0.18 0.85 0.74 0.51 0.24 0.26 0.22 0.34 0.75 0.72 0.76 0.38 0.20 0.24 0.27 0.33
0.00 0.00 0.00 0.00 0.00 0.00 0.00 0.00 0.00 0.00 0.00 0.00 0.00 0.00 0.00 0.00 0.00 0.00 0.00 0.00 0.00 0.00 0.00 0.00 0.00 0.00 0.00 0.00 0.01 0.01 0.03 0.09 0.11 0.10 0.36 0.82 0.57 0.35 0.36 0.32 0.28 0.48 0.52 0.60 0.48 0.18 0.22 0.25 0.24
0.00 0.00 0.00 0.00 0.00 0.00 0.00 0.00 0.00 0.00 0.00 0.00 0.00 0.00 0.00 0.00 0.00 0.00 0.00 0.00 0.00 0.00 0.00 0.00 0.00 0.00 0.00 0.00 0.01 0.01 0.02 0.08 0.12 0.13 0.28 0.71 0.64 0.49 0.39 0.40 0.29 0.29 0.33 0.29 0.38 0.26 0.30 0.28 0.26
0.00 0.00 0.00 0.00 0.00 0.00 0.00 0.00 0.00 0.00 0.00 0.00 0.00 0.00 0.00 0.00 0.00 0.00 0.00 0.00 0.00 0.00 0.00 0.00 0.00 0.00 0.00 0.00 0.00 0.01 0.01 0.04 0.14 0.16 0.28 0.64 0.80 0.57 0.52 0.41 0.32 0.34 0.28 0.18 0.20 0.11 0.22 0.31 0.26
0.00 0.00 0.00 0.00 0.00 0.00 0.00 0.00 0.00 0.00 0.00 0.00 0.00 0.00 0.00 0.00 0.00 0.00 0.00 0.00 0.00 0.00 0.00 0.00 0.00 0.01 0.00 0.00 0.00 0.01 0.01 0.03 0.11 0.14 0.25 0.56 0.92 0.58 0.52 0.49 0.37 0.37 0.31 0.15 0.10 0.07 0.11 0.23 0.26
0.00 0.00 0.00 0.00 0.00 0.00 0.00 0.00 0.00 0.00 0.00 0.00 0.00 0.00 0.00 0.00 0.00 0.00 0.00 0.00 0.00 0.00 0.00 0.00 0.00 0.01 0.01 0.00 0.01 0.01 0.02 0.03 0.08 0.09 0.25 0.49 1.00 0.69 0.58 0.62 0.49 0.41 0.31 0.22 0.11 0.06 0.13 0.16 0.15
0.00 0.00 0.02 0.00 0.00 0.00 0.00 0.00 0.00 0.00 0.00 0.00 0.00 0.00 0.00 0.00 0.00 0.00 0.00 0.00 0.00 0.00 0.00 0.00 0.00 0.01 0.01 0.01 0.00 0.02 0.02 0.03 0.05 0.07 0.29 0.42 0.74 0.87 0.62 0.62 0.57 0.43 0.27 0.18 0.11 0.04 0.07 0.20 0.19
0.03 0.08 0.03 0.00 0.00 0.01 0.00 0.00 0.00 0.00 0.00 0.00 0.00 0.00 0.00 0.00 0.00 0.00 0.00 0.00 0.00 0.00 0.00 0.00 0.00 0.00 0.01 0.01 0.00 0.00 0.01 0.02 0.03 0.05 0.16 0.64 0.66 0.70 0.62 0.63 0.52 0.40 0.36 0.33 0.21 0.06 0.06 0.15 0.18
0.00 0.01 0.00 0.00 0.02 0.06 0.02 0.01 0.00 0.00 0.00 0.00 0.00 0.00 0.00 0.00 0.00 0.00 0.00 0.00 0.00 0.00 0.00 0.00 0.00 0.00 0.01 0.01 0.01 0.00 0.01 0.02 0.03 0.05 0.10 0.35 0.42 0.52 0.50 0.58 0.59 0.42 0.43 0.46 0.31 0.09 0.04 0.06 0.16
0.00 0.00 0.00 0.02 0.11 0.09 0.00 0.01 0.00 0.00 0.00 0.00 0.00 0.00 0.00 0.00 0.00 0.00 0.00 0.00 0.00 0.00 0.00 0.00 0.00 0.00 0.00 0.01 0.01 0.00 0.00 0.01 0.01 0.01 0.04 0.11 0.20 0.35 0.43 0.42 0.53 0.38 0.42 0.39 0.31 0.15 0.08 0.06 0.07
0.01 0.00 0.02 0.07 0.04 0.02 0.01 0.07 0.00 0.00 0.00 0.00 0.00 0.00 0.00 0.00 0.00 0.00 0.00 0.00 0.00 0.00 0.00 0.00 0.00 0.00 0.00 0.01 0.01 0.01 0.00 0.00 0.01 0.01 0.02 0.05 0.11 0.23 0.39 0.46 0.50 0.44 0.41 0.33 0.22 0.17 0.12 0.08 0.05
0.03 0.03 0.10 0.09 0.07 0.14 0.01 0.04 0.02 0.00 0.00 0.00 0.00 0.00 0.00 0.00 0.00 0.00 0.00 0.00 0.00 0.00 0.00 0.00 0.00 0.00 0.01 0.01 0.01 0.01 0.00 0.00 0.01 0.01 0.02 0.02 0.05 0.11 0.27 0.52 0.52 0.49 0.46 0.43 0.24 0.16 0.13 0.12 0.11
0.03 0.11 0.25 0.19 0.17 0.10 0.00 0.00 0.00 0.00 0.00 0.00 0.00 0.00 0.00 0.00 0.00 0.00 0.00 0.00 0.00 0.00 0.00 0.00 0.00 0.00 0.00 0.01 0.01 0.01 0.00 0.00 0.00 0.01 0.01 0.01 0.02 0.03 0.08 0.18 0.37 0.41 0.45 0.42 0.37 0.26 0.19 0.18 0.14
0.02 0.13 0.20 0.15 0.07 0.03 0.01 0.01 0.00 0.01 0.00 0.00 0.00 0.00 0.00 0.00 0.00 0.00 0.00 0.00 0.00 0.00 0.00 0.00 0.00 0.00 0.00 0.01 0.01 0.01 0.00 0.00 0.00 0.00 0.01 0.01 0.01 0.01 0.02 0.04 0.13 0.29 0.42 0.35 0.34 0.31 0.20 0.18 0.15
0.00 0.04 0.05 0.23 0.24 0.26 0.03 0.02 0.02 0.01 0.01 0.00 0.00 0.00 0.00 0.00 0.00 0.00 0.00 0.00 0.00 0.00 0.00 0.00 0.00 0.00 0.00 0.00 0.01 0.01 0.01 0.00 0.00 0.00 0.01 0.01 0.02 0.01 0.02 0.02 0.06 0.18 0.27 0.31 0.25 0.26 0.25 0.21 0.17
0.00 0.03 0.29 0.51 0.39 0.24 0.02 0.07 0.14 0.09 0.02 0.00 0.00 0.00 0.00 0.00 0.00 0.00 0.00 0.00 0.00 0.00 0.00 0.00 0.01 0.00 0.01 0.01 0.01 0.01 0.01 0.00 0.00 0.00 0.00 0.01 0.02 0.00 0.00 0.03 0.05 0.06 0.12 0.21 0.18 0.12 0.11 0.13 0.10
0.01 0.07 0.25 0.35 0.14 0.23 0.20 0.41 0.47 0.29 0.12 0.02 0.00 0.01 0.01 0.01 0.00 0.00 0.00 0.00 0.00 0.00 0.00 0.04 0.03 0.02 0.01 0.01 0.01 0.01 0.01 0.01 0.00 0.00 0.01 0.00 0.01 0.00 0.01 0.00 0.02 0.04 0.03 0.07 0.12 0.09 0.05 0.02 0.02
0.01 0.02 0.07 0.28 0.21 0.16 0.30 0.59 0.50 0.31 0.14 0.07 0.06 0.04 0.03 0.07 0.11 0.04 0.02 0.02 0.02 0.03 0.05 0.07 0.08 0.05 0.03 0.03 0.03 0.02 0.01 0.01 0.01 0.00 0.01 0.00 0.01 0.01 0.01 0.01 0.00 0.00 0.01 0.01 0.03 0.07 0.06 0.07 0.04

GFSSGP_prec_precacc24_105.txt.gz
Total_Precipitation_Accumulation
0.00 0.00 0.00 0.00 0.00 0.00 0.00 0.00 0.00 0.00 0.00 0.00 0.00 0.00 0.00 0.00 0.00 0.00 0.00 0.00 0.00 0.00 0.00 0.00 0.01 0.01 0.01 0.00 0.00 0.00 0.01 0.02 0.02 0.04 0.11 0.19 0.14 0.20 0.10 0.02 0.01 0.05 0.11 0.07 0.02 0.05 0.05 0.03 0.02
0.00 0.00 0.00 0.00 0.00 0.00 0.00 0.00 0.00 0.00 0.00 0.00 0.00 0.00 0.00 0.00 0.00 0.00 0.00 0.00 0.00 0.00 0.00 0.00 0.00 0.01 0.01 0.00 0.00 0.00 0.03 0.04 0.03 0.03 0.14 0.36 0.41 0.39 0.41 0.33 0.14 0.08 0.18 0.28 0.16 0.15 0.06 0.05 0.03
0.00 0.00 0.00 0.00 0.00 0.00 0.00 0.00 0.00 0.00 0.00 0.00 0.00 0.00 0.00 0.00 0.00 0.00 0.00 0.00 0.00 0.00 0.00 0.00 0.00 0.01 0.02 0.02 0.01 0.01 0.02 0.05 0.13 0.34 0.64 0.81 0.98 1.01 0.87 0.77 0.65 0.65 0.73 0.72 0.66 0.44 0.18 0.04 0.04
0.00 0.00 0.00 0.00 0.00 0.00 0.00 0.00 0.00 0.00 0.00 0.00 0.00 0.00 0.00 0.00 0.00 0.00 0.00 0.00 0.00 0.00 0.00 0.00 0.00 0.01 0.03 0.13 0.18 0.12 0.12 0.12 0.24 0.65 0.80 0.65 0.57 0.62 0.70 1.00 1.43 1.61 1.59 1.17 1.20 1.04 0.43 0.16 0.08
0.00 0.00 0.00 0.00 0.00 0.00 0.00 0.00 0.00 0.00 0.00 0.00 0.00 0.00 0.00 0.00 0.00 0.00 0.00 0.00 0.00 0.00 0.00 0.00 0.00 0.01 0.02 0.04 0.16 0.35 0.33 0.38 0.59 0.59 0.93 0.89 0.64 0.46 0.49 0.55 0.87 1.57 2.99 2.42 1.31 0.94 0.50 0.38 0.37
0.00 0.00 0.00 0.00 0.00 0.00 0.00 0.00 0.00 0.00 0.00 0.00 0.00 0.00 0.00 0.00 0.00 0.00 0.00 0.00 0.00 0.00 0.00 0.00 0.01 0.01 0.02 0.05 0.11 0.21 0.41 0.59 0.62 0.48 0.60 0.86 0.71 0.61 0.55 0.53 0.40 0.41 0.86 1.34 1.34 1.49 0.87 0.46 0.36
0.00 0.00 0.00 0.00 0.00 0.00 0.00 0.00 0.00 0.00 0.00 0.00 0.00 0.00 0.00 0.00 0.00 0.00 0.00 0.00 0.00 0.00 0.00 0.00 0.01 0.01 0.02 0.05 0.08 0.17 0.28 0.41 0.37 0.30 0.31 0.83 0.80 0.72 0.64 0.46 0.35 0.30 0.30 0.47 0.53 0.65 0.66 0.55 0.39
0.00 0.00 0.00 0.00 0.00 0.00 0.00 0.00 0.00 0.00 0.00 0.00 0.00 0.00 0.00 0.00 0.00 0.00 0.00 0.00 0.00 0.00 0.00 0.00 0.00 0.01 0.03 0.03 0.03 0.05 0.10 0.17 0.16 0.15 0.24 0.75 0.96 0.85 0.54 0.38 0.43 0.57 0.53 0.40 0.29 0.41 0.48 0.44 0.31
0.00 0.00 0.00 0.00 0.00 0.00 0.00 0.00 0.00 0.00 0.00 0.00 0.00 0.00 0.00 0.00 0.00 0.00 0.00 0.00 0.00 0.00 0.00 0.00 0.00 0.01 0.02 0.04 0.04 0.06 0.07 0.11 0.05 0.04 0.16 0.73 0.56 0.63 0.50 0.51 0.50 0.49 0.57 0.61 0.54 0.48 0.41 0.36 0.31
0.00 0.00 0.00 0.00 0.00 0.00 0.00 0.00 0.00 0.00 0.00 0.00 0.00 0.00 0.00 0.00 0.00 0.00 0.00 0.00 0.00 0.00 0.00 0.00 0.00 0.01 0.01 0.03 0.07 0.05 0.07 0.06 0.02 0.05 0.43 0.72 0.39 0.46 0.45 0.44 0.51 0.60 0.49 0.64 0.66 0.68 0.52 0.39 0.21
0.00 0.00 0.00 0.00 0.00 0.00 0.00 0.00 0.00 0.00 0.00 0.00 0.00 0.00 0.00 0.00 0.00 0.00 0.00 0.00 0.00 0.00 0.00 0.00 0.00 0.00 0.00 0.01 0.05 0.05 0.05 0.04 0.03 0.16 0.78 0.61 0.35 0.42 0.49 0.31 0.46 0.84 0.74 0.67 0.58 0.44 0.37 0.34 0.28
0.00 0.00 0.00 0.00 0.00 0.00 0.00 0.00 0.00 0.00 0.00 0.00 0.00 0.00 0.00 0.00 0.00 0.00 0.00 0.00 0.00 0.00 0.00 0.00 0.00 0.00 0.00 0.00 0.01 0.03 0.05 0.03 0.02 0.21 0.81 0.60 0.45 0.30 0.29 0.19 0.38 0.94 0.88 0.56 0.34 0.21 0.24 0.32 0.35
0.00 0.00 0.00 0.00 0.00 0.00 0.00 0.00 0.00 0.00 0.00 0.00 0.00 0.00 0.00 0.00 0.00 0.00 0.00 0.00 0.00 0.00 0.00 0.00 0.00 0.00 0.00 0.00 0.01 0.00 0.02 0.03 0.02 0.10 0.56 0.62 0.49 0.23 0.24 0.21 0.34 0.75 0.72 0.76 0.38 0.20 0.24 0.27 0.33
0.00 0.00 0.00 0.00 0.00 0.00 0.00 0.00 0.00 0.00 0.00 0.00 0.00 0.00 0.00 0.00 0.00 0.00 0.00 0.00 0.00 0.00 0.00 0.00 0.00 0.00 0.00 0.00 0.01 0.01 0.01 0.04 0.05 0.08 0.31 0.73 0.52 0.34 0.35 0.32 0.29 0.48 0.53 0.62 0.50 0.18 0.26 0.27 0.24
0.00 0.00 0.00 0.00 0.00 0.00 0.00 0.00 0.00 0.00 0.00 0.00 0.00 0.00 0.00 0.00 0.00 0.00 0.00 0.00 0.00 0.00 0.00 0.00 0.00 0.00 0.00 0.00 0.01 0.01 0.01 0.03 0.06 0.09 0.25 0.67 0.59 0.46 0.39 0.40 0.29 0.31 0.38 0.34 0.44 0.37 0.35 0.29 0.26
0.00 0.00 0.00 0.00 0.00 0.00 0.00 0.00 0.00 0.00 0.00 0.00 0.00 0.00 0.00 0.00 0.00 0.00 0.00 0.00 0.00 0.00 0.00 0.00 0.00 0.00 0.00 0.00 0.00 0.01 0.01 0.03 0.07 0.10 0.24 0.58 0.73 0.55 0.52 0.41 0.32 0.38 0.34 0.21 0.30 0.20 0.26 0.31 0.26
0.00 0.00 0.00 0.00 0.00 0.00 0.00 0.00 0.00 0.00 0.00 0.00 0.00 0.00 0.00 0.00 0.00 0.00 0.00 0.00 0.00 0.00 0.00 0.00 0.00 0.00 0.00 0.00 0.00 0.01 0.01 0.03 0.07 0.12 0.22 0.52 0.87 0.55 0.51 0.49 0.37 0.38 0.37 0.21 0.17 0.10 0.12 0.23 0.27
0.00 0.00 0.00 0.00 0.00 0.00 0.00 0.00 0.00 0.00 0.00 0.00 0.00 0.00 0.00 0.00 0.00 0.00 0.00 0.00 0.00 0.00 0.00 0.00 0.00 0.00 0.00 0.00 0.01 0.01 0.02 0.03 0.07 0.09 0.24 0.48 1.00 0.69 0.58 0.61 0.43 0.35 0.30 0.28 0.19 0.10 0.14 0.17 0.16
0.00 0.00 0.02 0.00 0.00 0.00 0.00 0.00 0.00 0.00 0.00 0.00 0.00 0.00 0.00 0.00 0.00 0.00 0.00 0.00 0.00 0.00 0.00 0.00 0.00 0.00 0.01 0.00 0.00 0.02 0.02 0.03 0.05 0.07 0.28 0.42 0.74 0.87 0.62 0.62 0.50 0.40 0.25 0.17 0.13 0.09 0.08 0.20 0.20
0.03 0.08 0.03 0.00 0.01 0.04 0.02 0.00 0.00 0.00 0.00 0.00 0.00 0.00 0.00 0.00 0.00 0.00 0.00 0.00 0.00 0.00 0.00 0.00 0.00 0.00 0.01 0.00 0.00 0.00 0.01 0.02 0.03 0.05 0.16 0.64 0.66 0.70 0.62 0.63 0.52 0.40 0.35 0.34 0.23 0.09 0.07 0.15 0.20
0.00 0.01 0.00 0.00 0.04 0.13 0.06 0.03 0.00 0.00 0.00 0.00 0.00 0.00 0.00 0.00 0.00 0.00 0.00 0.00 0.00 0.00 0.00 0.00 0.00 0.00 0.01 0.00 0.00 0.00 0.01 0.02 0.02 0.05 0.10 0.35 0.42 0.52 0.50 0.58 0.59 0.42 0.43 0.46 0.36 0.17 0.07 0.07 0.19
0.00 0.00 0.00 0.02 0.14 0.14 0.10 0.07 0.00 0.00 0.00 0.00 0.00 0.00 0.00 0.00 0.00 0.00 0.00 0.00 0.00 0.00 0.00 0.00 0.01 0.03 0.01 0.01 0.00 0.00 0.00 0.01 0.01 0.01 0.04 0.11 0.20 0.35 0.43 0.42 0.53 0.38 0.42 0.41 0.46 0.39 0.29 0.14 0.12
0.00 0.00 0.00 0.03 0.08 0.04 0.06 0.19 0.01 0.01 0.01 0.00 0.00 0.00 0.00 0.00 0.00 0.00 0.00 0.00 0.00 0.00 0.00 0.00 0.00 0.04 0.04 0.01 0.00 0.00 0.00 0.00 0.01 0.01 0.02 0.05 0.11 0.23 0.39 0.46 0.50 0.44 0.42 0.36 0.32 0.44 0.38 0.29 0.09
0.01 0.01 0.06 0.07 0.06 0.09 0.01 0.08 0.02 0.01 0.01 0.00 0.00 0.00 0.00 0.00 0.00 0.00 0.00 0.00 0.00 0.00 0.00 0.00 0.00 0.00 0.02 0.01 0.00 0.00 0.00 0.00 0.01 0.01 0.02 0.02 0.05 0.11 0.27 0.52 0.52 0.49 0.46 0.50 0.38 0.34 0.34 0.20 0.16
0.01 0.06 0.11 0.17 0.18 0.07 0.00 0.00 0.00 0.00 0.00 0.00 0.01 0.01 0.00 0.00 0.00 0.00 0.00 0.00 0.00 0.00 0.00 0.00 0.00 0.00 0.01 0.01 0.01 0.00 0.00 0.00 0.00 0.01 0.01 0.01 0.02 0.03 0.08 0.19 0.38 0.41 0.46 0.48 0.56 0.46 0.30 0.25 0.18
0.01 0.08 0.13 0.13 0.06 0.03 0.01 0.02 0.00 0.01 0.01 0.01 0.01 0.00 0.01 0.00 0.00 0.00 0.00 0.00 0.00 0.00 0.00 0.00 0.00 0.00 0.01 0.01 0.01 0.01 0.01 0.00 0.00 0.00 0.01 0.01 0.01 0.01 0.02 0.04 0.13 0.29 0.43 0.39 0.48 0.56 0.36 0.27 0.22
0.01 0.03 0.04 0.19 0.20 0.24 0.05 0.04 0.02 0.03 0.26 0.07 0.02 0.00 0.00 0.00 0.00 0.00 0.00 0.00 0.00 0.00 0.00 0.00 0.00 0.00 0.01 0.00 0.01 0.01 0.05 0.01 0.00 0.00 0.01 0.01 0.02 0.01 0.02 0.02 0.06 0.18 0.27 0.32 0.32 0.46 0.44 0.36 0.31
0.00 0.02 0.20 0.28 0.48 0.47 0.06 0.11 0.21 0.23 0.68 0.24 0.00 0.00 0.00 0.00 0.00 0.00 0.00 0.00 0.00 0.00 0.00 0.00 0.01 0.00 0.01 0.01 0.03 0.05 0.08 0.05 0.02 0.00 0.00 0.01 0.02 0.01 0.00 0.03 0.05 0.06 0.12 0.21 0.18 0.20 0.31 0.33 0.26
0.01 0.08 0.11 0.24 0.18 0.47 0.37 0.64 0.69 0.69 0.45 0.10 0.00 0.01 0.01 0.01 0.00 0.00 0.00 0.00 0.00 0.01 0.02 0.05 0.03 0.02 0.02 0.03 0.05 0.06 0.06 0.06 0.03 0.00 0.01 0.00 0.01 0.00 0.01 0.00 0.02 0.04 0.03 0.07 0.13 0.12 0.13 0.13 0.12
0.01 0.02 0.04 0.25 0.26 0.32 0.45 0.77 0.87 0.64 0.16 0.07 0.06 0.04 0.03 0.07 0.11 0.04 0.02 0.02 0.02 0.04 0.08 0.09 0.09 0.07 0.05 0.06 0.05 0.04 0.05 0.04 0.02 0.00 0.01 0.01 0.01 0.01 0.01 0.01 0.00 0.00 0.01 0.01 0.03 0.08 0.07 0.09 0.07

GFSSGP_prec_precacc24_108.txt.gz
Total_Precipitation_Accumulation
0.00 0.00 0.00 0.00 0.00 0.00 0.00 0.00 0.00 0.00 0.00 0.00 0.00 0.00 0.00 0.00 0.00 0.00 0.00 0.00 0.00 0.00 0.00 0.00 0.01 0.01 0.01 0.00 0.00 0.00 0.01 0.02 0.02 0.04 0.11 0.19 0.14 0.20 0.10 0.02 0.02 0.07 0.21 0.20 0.14 0.15 0.15 0.09 0.03
0.00 0.00 0.00 0.00 0.00 0.00 0.00 0.00 0.00 0.00 0.00 0.00 0.00 0.00 0.00 0.00 0.00 0.00 0.00 0.00 0.00 0.00 0.00 0.00 0.00 0.01 0.01 0.00 0.00 0.00 0.03 0.04 0.03 0.03 0.14 0.37 0.42 0.40 0.42 0.35 0.18 0.19 0.32 0.45 0.35 0.29 0.17 0.08 0.05
0.00 0.00 0.00 0.00 0.00 0.00 0.00 0.00 0.00 0.00 0.00 0.00 0.00 0.00 0.00 0.00 0.00 0.00 0.00 0.00 0.00 0.00 0.00 0.00 0.00 0.01 0.02 0.00 0.00 0.00 0.01 0.03 0.05 0.21 0.54 0.76 0.98 1.02 0.88 0.82 0.71 0.69 0.74 0.76 0.73 0.56 0.24 0.08 0.04
0.00 0.00 0.00 0.00 0.00 0.00 0.00 0.00 0.00 0.00 0.00 0.00 0.00 0.00 0.00 0.00 0.00 0.00 0.00 0.00 0.00 0.00 0.00 0.00 0.00 0.01 0.02 0.03 0.04 0.02 0.01 0.03 0.09 0.17 0.26 0.31 0.41 0.60 0.72 1.02 1.43 1.60 1.58 1.16 1.20 1.06 0.45 0.20 0.13
0.00 0.00 0.00 0.00 0.00 0.00 0.00 0.00 0.00 0.00 0.00 0.00 0.00 0.00 0.00 0.00 0.00 0.00 0.00 0.00 0.00 0.00 0.00 0.00 0.00 0.01 0.02 0.03 0.13 0.20 0.25 0.30 0.49 0.31 0.15 0.18 0.26 0.34 0.49 0.55 0.86 1.54 2.98 2.42 1.32 0.94 0.50 0.38 0.40
0.00 0.00 0.00 0.00 0.00 0.00 0.00 0.00 0.00 0.00 0.00 0.00 0.00 0.00 0.00 0.00 0.00 0.00 0.00 0.00 0.00 0.00 0.00 0.00 0.00 0.01 0.02 0.05 0.11 0.17 0.34 0.50 0.57 0.47 0.24 0.14 0.23 0.38 0.49 0.51 0.38 0.43 0.87 1.34 1.34 1.49 0.87 0.46 0.36
0.00 0.00 0.00 0.00 0.00 0.00 0.00 0.00 0.00 0.00 0.00 0.00 0.00 0.00 0.00 0.00 0.00 0.00 0.00 0.00 0.00 0.00 0.00 0.00 0.01 0.01 0.02 0.05 0.08 0.14 0.26 0.40 0.37 0.30 0.20 0.21 0.16 0.32 0.52 0.42 0.35 0.31 0.30 0.47 0.53 0.65 0.66 0.55 0.39
0.00 0.00 0.00 0.00 0.00 0.00 0.00 0.00 0.00 0.00 0.00 0.00 0.00 0.00 0.00 0.00 0.00 0.00 0.00 0.00 0.00 0.00 0.00 0.00 0.00 0.01 0.03 0.03 0.03 0.04 0.09 0.17 0.16 0.15 0.20 0.38 0.40 0.36 0.33 0.33 0.43 0.61 0.55 0.40 0.29 0.41 0.48 0.44 0.31
0.00 0.00 0.00 0.00 0.00 0.00 0.00 0.00 0.00 0.00 0.00 0.00 0.00 0.00 0.00 0.00 0.00 0.00 0.00 0.00 0.00 0.00 0.00 0.00 0.00 0.00 0.02 0.04 0.04 0.04 0.06 0.10 0.05 0.03 0.07 0.21 0.26 0.29 0.34 0.41 0.50 0.54 0.58 0.61 0.54 0.48 0.41 0.36 0.31
0.00 0.00 0.00 0.00 0.00 0.00 0.00 0.00 0.00 0.00 0.00 0.00 0.00 0.00 0.00 0.00 0.00 0.00 0.00 0.00 0.00 0.00 0.00 0.00 0.00 0.00 0.01 0.02 0.03 0.02 0.05 0.04 0.02 0.02 0.01 0.12 0.16 0.27 0.41 0.42 0.51 0.61 0.50 0.64 0.66 0.68 0.52 0.39 0.21
0.00 0.00 0.00 0.00 0.00 0.00 0.00 0.00 0.00 0.00 0.00 0.00 0.00 0.00 0.00 0.00 0.00 0.00 0.00 0.00 0.00 0.00 0.00 0.00 0.00 0.00 0.00 0.01 0.02 0.02 0.04 0.03 0.02 0.04 0.04 0.07 0.13 0.27 0.46 0.30 0.46 0.84 0.75 0.68 0.58 0.44 0.37 0.34 0.28
0.00 0.00 0.00 0.00 0.00 0.00 0.00 0.00 0.00 0.00 0.00 0.00 0.00 0.00 0.00 0.00 0.00 0.00 0.00 0.00 0.00 0.00 0.00 0.00 0.00 0.00 0.00 0.00 0.01 0.01 0.02 0.02 0.01 0.01 0.08 0.17 0.31 0.24 0.28 0.19 0.38 0.94 0.89 0.57 0.34 0.21 0.24 0.32 0.35
0.00 0.00 0.00 0.00 0.00 0.00 0.00 0.00 0.00 0.00 0.00 0.00 0.00 0.00 0.00 0.00 0.00 0.00 0.00 0.00 0.00 0.00 0.00 0.00 0.00 0.00 0.00 0.00 0.01 0.00 0.01 0.02 0.01 0.01 0.19 0.34 0.42 0.22 0.24 0.21 0.34 0.75 0.72 0.76 0.38 0.20 0.24 0.27 0.33
0.00 0.00 0.00 0.00 0.00 0.00 0.00 0.00 0.00 0.00 0.00 0.00 0.00 0.00 0.00 0.00 0.00 0.00 0.00 0.00 0.00 0.00 0.00 0.00 0.00 0.00 0.00 0.00 0.01 0.01 0.01 0.01 0.03 0.03 0.17 0.58 0.49 0.33 0.35 0.32 0.29 0.48 0.53 0.62 0.50 0.18 0.26 0.28 0.25
0.00 0.00 0.00 0.00 0.00 0.00 0.00 0.00 0.00 0.00 0.00 0.00 0.00 0.00 0.00 0.00 0.00 0.00 0.00 0.00 0.00 0.00 0.00 0.00 0.00 0.00 0.00 0.00 0.01 0.01 0.01 0.01 0.03 0.05 0.20 0.60 0.57 0.46 0.39 0.40 0.29 0.31 0.38 0.34 0.44 0.37 0.35 0.31 0.28
0.00 0.00 0.00 0.00 0.00 0.00 0.00 0.00 0.00 0.00 0.00 0.00 0.00 0.00 0.00 0.00 0.00 0.00 0.00 0.00 0.00 0.00 0.00 0.00 0.00 0.00 0.00 0.00 0.00 0.01 0.01 0.02 0.04 0.07 0.22 0.57 0.73 0.55 0.52 0.41 0.32 0.38 0.34 0.21 0.30 0.20 0.28 0.34 0.28
0.00 0.00 0.00 0.00 0.00 0.00 0.00 0.00 0.00 0.00 0.00 0.00 0.00 0.00 0.00 0.00 0.00 0.00 0.00 0.00 0.00 0.00 0.00 0.00 0.00 0.00 0.00 0.00 0.00 0.01 0.01 0.03 0.04 0.10 0.19 0.51 0.86 0.54 0.51 0.49 0.37 0.38 0.37 0.22 0.17 0.10 0.13 0.24 0.28
0.00 0.00 0.00 0.00 0.00 0.00 0.00 0.00 0.00 0.00 0.00 0.00 0.00 0.00 0.00 0.00 0.00 0.00 0.00 0.00 0.00 0.00 0.00 0.00 0.00 0.00 0.00 0.00 0.01 0.01 0.02 0.03 0.04 0.07 0.20 0.46 0.99 0.68 0.57 0.61 0.43 0.35 0.30 0.29 0.19 0.12 0.16 0.18 0.18
0.00 0.00 0.02 0.00 0.00 0.00 0.00 0.00 0.00 0.00 0.00 0.00 0.00 0.00 0.00 0.00 0.00 0.00 0.00 0.00 0.00 0.00 0.00 0.00 0.00 0.00 0.00 0.00 0.00 0.02 0.02 0.03 0.04 0.06 0.23 0.39 0.74 0.86 0.61 0.62 0.50 0.40 0.26 0.18 0.14 0.12 0.12 0.22 0.21
0.05 0.09 0.04 0.00 0.01 0.06 0.04 0.01 0.00 0.00 0.00 0.00 0.00 0.00 0.00 0.00 0.00 0.00 0.00 0.00 0.00 0.00 0.00 0.00 0.00 0.00 0.00 0.00 0.00 0.00 0.01 0.02 0.02 0.04 0.13 0.62 0.65 0.68 0.61 0.63 0.52 0.39 0.35 0.34 0.24 0.09 0.08 0.15 0.21
0.02 0.02 0.00 0.00 0.05 0.17 0.10 0.03 0.00 0.00 0.00 0.00 0.00 0.00 0.00 0.00 0.00 0.00 0.00 0.00 0.00 0.00 0.00 0.00 0.00 0.00 0.00 0.00 0.00 0.00 0.01 0.01 0.02 0.04 0.09 0.34 0.41 0.52 0.50 0.57 0.59 0.42 0.42 0.46 0.36 0.17 0.08 0.07 0.19
0.06 0.02 0.01 0.01 0.13 0.16 0.17 0.09 0.00 0.00 0.00 0.00 0.00 0.00 0.00 0.00 0.00 0.00 0.00 0.00 0.00 0.00 0.00 0.00 0.02 0.05 0.03 0.03 0.01 0.00 0.00 0.01 0.01 0.01 0.04 0.11 0.20 0.35 0.43 0.41 0.53 0.37 0.39 0.41 0.46 0.39 0.31 0.19 0.19
0.00 0.01 0.01 0.02 0.09 0.08 0.08 0.17 0.00 0.02 0.01 0.00 0.01 0.01 0.00 0.00 0.00 0.00 0.00 0.00 0.00 0.00 0.00 0.00 0.01 0.07 0.10 0.08 0.05 0.04 0.01 0.00 0.00 0.01 0.02 0.05 0.11 0.23 0.39 0.46 0.50 0.43 0.40 0.37 0.33 0.46 0.41 0.39 0.25
0.02 0.02 0.09 0.12 0.08 0.06 0.01 0.05 0.00 0.01 0.03 0.04 0.05 0.03 0.00 0.00 0.00 0.00 0.00 0.00 0.00 0.00 0.00 0.00 0.00 0.00 0.02 0.03 0.01 0.02 0.02 0.00 0.01 0.01 0.02 0.02 0.05 0.11 0.27 0.52 0.53 0.50 0.46 0.49 0.39 0.36 0.41 0.35 0.39
0.02 0.05 0.08 0.22 0.21 0.03 0.00 0.01 0.01 0.07 0.09 0.12 0.05 0.02 0.01 0.00 0.00 0.00 0.00 0.00 0.00 0.00 0.00 0.00 0.00 0.00 0.01 0.01 0.01 0.01 0.03 0.00 0.00 0.01 0.01 0.01 0.02 0.03 0.08 0.19 0.38 0.41 0.46 0.48 0.56 0.51 0.43 0.53 0.47
0.03 0.02 0.05 0.21 0.09 0.04 0.02 0.02 0.03 0.12 0.27 0.18 0.06 0.01 0.01 0.00 0.00 0.00 0.00 0.00 0.00 0.00 0.00 0.00 0.00 0.00 0.01 0.01 0.00 0.01 0.02 0.02 0.00 0.00 0.01 0.01 0.01 0.01 0.02 0.04 0.14 0.29 0.43 0.39 0.49 0.61 0.52 0.47 0.58
0.01 0.01 0.04 0.15 0.15 0.22 0.05 0.08 0.15 0.06 0.38 0.31 0.10 0.02 0.00 0.00 0.00 0.00 0.00 0.00 0.00 0.00 0.00 0.00 0.00 0.00 0.01 0.00 0.01 0.02 0.07 0.04 0.01 0.00 0.01 0.01 0.02 0.01 0.02 0.03 0.06 0.19 0.27 0.32 0.32 0.47 0.53 0.51 0.44
0.00 0.02 0.11 0.20 0.46 0.50 0.08 0.13 0.35 0.40 0.79 0.62 0.07 0.02 0.00 0.01 0.00 0.00 0.00 0.00 0.00 0.00 0.00 0.00 0.01 0.00 0.01 0.01 0.04 0.08 0.15 0.13 0.07 0.01 0.01 0.01 0.02 0.01 0.01 0.03 0.05 0.06 0.13 0.22 0.19 0.21 0.32 0.47 0.43
0.01 0.07 0.06 0.14 0.19 0.63 0.59 0.80 0.85 0.92 0.67 0.56 0.28 0.08 0.01 0.01 0.00 0.00 0.00 0.00 0.00 0.01 0.02 0.06 0.04 0.02 0.02 0.04 0.08 0.10 0.14 0.13 0.10 0.06 0.01 0.01 0.01 0.00 0.01 0.00 0.02 0.05 0.03 0.07 0.13 0.12 0.14 0.19 0.37
0.02 0.02 0.05 0.19 0.33 0.54 0.92 1.22 1.36 1.02 0.30 0.22 0.21 0.07 0.03 0.07 0.11 0.04 0.02 0.02 0.02 0.04 0.08 0.13 0.14 0.10 0.06 0.06 0.07 0.09 0.16 0.13 0.10 0.08 0.04 0.02 0.01 0.01 0.01 0.01 0.00 0.01 0.02 0.02 0.05 0.09 0.09 0.13 0.15

GFSSGP_prec_precacc24_111.txt.gz
Total_Precipitation_Accumulation
0.00 0.00 0.00 0.00 0.00 0.00 0.00 0.00 0.00 0.00 0.00 0.00 0.00 0.00 0.00 0.00 0.00 0.00 0.00 0.00 0.00 0.00 0.00 0.00 0.01 0.01 0.01 0.00 0.00 0.00 0.01 0.02 0.02 0.04 0.11 0.19 0.13 0.15 0.08 0.01 0.03 0.10 0.26 0.26 0.17 0.18 0.18 0.13 0.05
0.00 0.00 0.00 0.00 0.00 0.00 0.00 0.00 0.00 0.00 0.00 0.00 0.00 0.00 0.00 0.00 0.00 0.00 0.00 0.00 0.00 0.00 0.00 0.00 0.00 0.01 0.01 0.00 0.00 0.00 0.03 0.04 0.03 0.03 0.13 0.31 0.33 0.34 0.37 0.32 0.18 0.20 0.33 0.47 0.36 0.29 0.20 0.08 0.05
0.00 0.00 0.00 0.00 0.00 0.00 0.00 0.00 0.00 0.00 0.00 0.00 0.00 0.00 0.00 0.00 0.00 0.00 0.00 0.00 0.00 0.00 0.00 0.00 0.00 0.01 0.02 0.00 0.00 0.00 0.01 0.03 0.05 0.20 0.51 0.64 0.84 0.90 0.82 0.80 0.71 0.69 0.74 0.75 0.71 0.54 0.22 0.08 0.04
0.00 0.00 0.00 0.00 0.00 0.00 0.00 0.00 0.00 0.00 0.00 0.00 0.00 0.00 0.00 0.00 0.00 0.00 0.00 0.00 0.00 0.00 0.00 0.00 0.00 0.01 0.02 0.01 0.01 0.01 0.00 0.03 0.08 0.15 0.23 0.27 0.27 0.38 0.58 0.95 1.40 1.59 1.58 1.15 1.17 1.04 0.44 0.20 0.13
0.00 0.00 0.00 0.00 0.00 0.00 0.00 0.00 0.00 0.00 0.00 0.00 0.00 0.00 0.00 0.00 0.00 0.00 0.00 0.00 0.00 0.00 0.00 0.00 0.00 0.01 0.02 0.03 0.05 0.07 0.13 0.16 0.34 0.24 0.07 0.09 0.12 0.15 0.27 0.42 0.79 1.53 2.98 2.41 1.31 0.92 0.50 0.38 0.40
0.00 0.00 0.00 0.00 0.00 0.00 0.00 0.00 0.00 0.00 0.00 0.00 0.00 0.00 0.00 0.00 0.00 0.00 0.00 0.00 0.00 0.00 0.00 0.00 0.00 0.01 0.02 0.04 0.09 0.10 0.22 0.30 0.31 0.30 0.19 0.10 0.14 0.12 0.20 0.27 0.26 0.36 0.83 1.33 1.33 1.48 0.87 0.46 0.36
0.00 0.00 0.00 0.00 0.00 0.00 0.00 0.00 0.00 0.00 0.00 0.00 0.00 0.00 0.00 0.00 0.00 0.00 0.00 0.00 0.00 0.00 0.00 0.00 0.01 0.01 0.02 0.05 0.07 0.08 0.10 0.21 0.20 0.19 0.18 0.19 0.13 0.12 0.24 0.18 0.15 0.20 0.23 0.45 0.52 0.65 0.66 0.55 0.39
0.00 0.00 0.00 0.00 0.00 0.00 0.00 0.00 0.00 0.00 0.00 0.00 0.00 0.00 0.00 0.00 0.00 0.00 0.00 0.00 0.00 0.00 0.00 0.00 0.00 0.01 0.03 0.03 0.02 0.03 0.06 0.13 0.14 0.14 0.20 0.38 0.39 0.17 0.09 0.08 0.10 0.38 0.48 0.39 0.28 0.41 0.48 0.44 0.31
0.00 0.00 0.00 0.00 0.00 0.00 0.00 0.00 0.00 0.00 0.00 0.00 0.00 0.00 0.00 0.00 0.00 0.00 0.00 0.00 0.00 0.00 0.00 0.00 0.00 0.00 0.02 0.04 0.04 0.04 0.06 0.09 0.05 0.03 0.07 0.21 0.26 0.18 0.12 0.16 0.17 0.38 0.55 0.60 0.53 0.48 0.41 0.36 0.31
0.00 0.00 0.00 0.00 0.00 0.00 0.00 0.00 0.00 0.00 0.00 0.00 0.00 0.00 0.00 0.00 0.00 0.00 0.00 0.00 0.00 0.00 0.00 0.00 0.00 0.00 0.01 0.02 0.03 0.02 0.05 0.02 0.01 0.02 0.01 0.12 0.15 0.19 0.20 0.15 0.18 0.50 0.51 0.65 0.66 0.68 0.52 0.39 0.21
0.00 0.00 0.00 0.00 0.00 0.00 0.00 0.00 0.00 0.00 0.00 0.00 0.00 0.00 0.00 0.00 0.00 0.00 0.00 0.00 0.00 0.00 0.00 0.00 0.00 0.00 0.00 0.01 0.02 0.02 0.03 0.03 0.02 0.04 0.03 0.05 0.06 0.18 0.24 0.10 0.25 0.77 0.75 0.68 0.58 0.44 0.37 0.34 0.28
0.00 0.00 0.00 0.00 0.00 0.00 0.00 0.00 0.00 0.00 0.00 0.00 0.00 0.00 0.00 0.00 0.00 0.00 0.00 0.00 0.00 0.00 0.00 0.00 0.00 0.00 0.00 0.00 0.01 0.01 0.01 0.01 0.01 0.01 0.04 0.07 0.09 0.10 0.12 0.12 0.32 0.92 0.89 0.57 0.34 0.21 0.24 0.32 0.35
0.00 0.00 0.00 0.00 0.00 0.00 0.00 0.00 0.00 0.00 0.00 0.00 0.00 0.00 0.00 0.00 0.00 0.00 0.00 0.00 0.00 0.00 0.00 0.00 0.00 0.00 0.00 0.00 0.00 0.00 0.01 0.01 0.01 0.00 0.01 0.04 0.10 0.10 0.18 0.20 0.34 0.74 0.72 0.76 0.38 0.20 0.24 0.27 0.33
0.00 0.00 0.00 0.00 0.00 0.00 0.00 0.00 0.00 0.00 0.00 0.00 0.00 0.00 0.00 0.00 0.00 0.00 0.00 0.00 0.00 0.00 0.00 0.00 0.00 0.00 0.00 0.00 0.01 0.01 0.01 0.01 0.01 0.01 0.01 0.06 0.19 0.23 0.34 0.31 0.29 0.48 0.53 0.62 0.50 0.18 0.26 0.28 0.25
0.00 0.00 0.00 0.00 0.00 0.00 0.00 0.00 0.00 0.00 0.00 0.00 0.00 0.00 0.00 0.00 0.00 0.00 0.00 0.00 0.00 0.00 0.00 0.00 0.00 0.00 0.00 0.00 0.01 0.00 0.01 0.01 0.01 0.03 0.03 0.13 0.30 0.36 0.38 0.40 0.29 0.31 0.38 0.34 0.44 0.37 0.35 0.31 0.28
0.00 0.00 0.00 0.00 0.00 0.00 0.00 0.00 0.00 0.00 0.00 0.00 0.00 0.00 0.00 0.00 0.00 0.00 0.00 0.00 0.00 0.00 0.00 0.00 0.00 0.00 0.00 0.00 0.00 0.01 0.01 0.01 0.02 0.04 0.08 0.27 0.39 0.48 0.50 0.40 0.32 0.38 0.34 0.21 0.30 0.20 0.28 0.34 0.28
0.00 0.00 0.00 0.00 0.00 0.00 0.00 0.00 0.00 0.00 0.00 0.00 0.00 0.00 0.00 0.00 0.00 0.00 0.00 0.00 0.00 0.00 0.00 0.00 0.00 0.00 0.00 0.00 0.00 0.00 0.00 0.02 0.02 0.04 0.11 0.37 0.57 0.45 0.49 0.48 0.37 0.38 0.37 0.22 0.17 0.10 0.13 0.24 0.29
0.00 0.00 0.00 0.00 0.00 0.00 0.00 0.00 0.00 0.00 0.00 0.00 0.00 0.00 0.00 0.00 0.00 0.00 0.00 0.00 0.00 0.00 0.00 0.00 0.00 0.00 0.00 0.00 0.01 0.01 0.01 0.02 0.03 0.03 0.08 0.38 0.84 0.58 0.55 0.59 0.43 0.35 0.30 0.29 0.19 0.12 0.16 0.18 0.19
0.01 0.01 0.03 0.01 0.00 0.00 0.00 0.00 0.00 0.00 0.00 0.00 0.00 0.00 0.00 0.00 0.00 0.00 0.00 0.00 0.00 0.00 0.00 0.00 0.00 0.00 0.00 0.00 0.00 0.01 0.01 0.02 0.03 0.04 0.14 0.23 0.63 0.79 0.58 0.59 0.49 0.40 0.26 0.18 0.14 0.12 0.13 0.23 0.23
0.05 0.09 0.04 0.01 0.01 0.06 0.04 0.01 0.00 0.00 0.00 0.00 0.00 0.00 0.00 0.00 0.00 0.00 0.00 0.00 0.00 0.00 0.00 0.00 0.00 0.00 0.00 0.00 0.00 0.00 0.01 0.01 0.02 0.03 0.09 0.44 0.50 0.62 0.57 0.59 0.51 0.39 0.35 0.34 0.24 0.10 0.08 0.16 0.22
0.02 0.02 0.00 0.01 0.05 0.17 0.10 0.03 0.00 0.00 0.00 0.00 0.00 0.00 0.00 0.00 0.00 0.00 0.00 0.00 0.00 0.00 0.00 0.00 0.00 0.00 0.00 0.00 0.01 0.00 0.01 0.03 0.03 0.03 0.05 0.21 0.34 0.46 0.44 0.49 0.56 0.42 0.42 0.46 0.37 0.18 0.09 0.08 0.20
0.06 0.02 0.01 0.01 0.14 0.16 0.17 0.09 0.00 0.00 0.00 0.00 0.00 0.00 0.00 0.00 0.00 0.00 0.00 0.00 0.00 0.00 0.00 0.00 0.02 0.05 0.03 0.08 0.04 0.03 0.01 0.00 0.01 0.01 0.03 0.06 0.16 0.31 0.40 0.35 0.48 0.37 0.40 0.41 0.46 0.40 0.31 0.20 0.20
0.00 0.01 0.02 0.03 0.10 0.09 0.09 0.17 0.01 0.04 0.02 0.02 0.01 0.01 0.00 0.00 0.00 0.00 0.00 0.00 0.00 0.00 0.00 0.00 0.02 0.08 0.11 0.09 0.09 0.13 0.04 0.03 0.01 0.03 0.03 0.05 0.09 0.22 0.37 0.44 0.48 0.43 0.39 0.37 0.33 0.47 0.44 0.41 0.27
0.02 0.03 0.10 0.13 0.09 0.07 0.01 0.05 0.00 0.03 0.10 0.08 0.07 0.04 0.02 0.01 0.00 0.00 0.00 0.00 0.00 0.00 0.00 0.00 0.00 0.01 0.05 0.07 0.05 0.03 0.03 0.01 0.02 0.02 0.02 0.02 0.04 0.10 0.26 0.51 0.52 0.50 0.46 0.48 0.39 0.36 0.43 0.38 0.42
0.02 0.06 0.10 0.23 0.21 0.03 0.00 0.02 0.01 0.14 0.16 0.18 0.12 0.07 0.03 0.01 0.01 0.00 0.00 0.00 0.00 0.00 0.00 0.00 0.00 0.00 0.01 0.01 0.03 0.04 0.09 0.01 0.00 0.01 0.01 0.01 0.02 0.03 0.08 0.19 0.38 0.42 0.47 0.47 0.55 0.50 0.43 0.56 0.50
0.03 0.02 0.07 0.28 0.21 0.05 0.03 0.04 0.06 0.14 0.36 0.26 0.09 0.04 0.03 0.01 0.00 0.00 0.00 0.00 0.00 0.00 0.00 0.00 0.00 0.00 0.01 0.01 0.01 0.03 0.05 0.04 0.03 0.00 0.01 0.02 0.01 0.01 0.02 0.04 0.14 0.30 0.43 0.40 0.48 0.61 0.52 0.47 0.67
0.01 0.02 0.05 0.16 0.18 0.20 0.07 0.21 0.35 0.15 0.44 0.76 0.42 0.07 0.03 0.02 0.01 0.00 0.00 0.00 0.00 0.00 0.00 0.00 0.00 0.00 0.01 0.00 0.01 0.02 0.07 0.05 0.02 0.03 0.04 0.03 0.02 0.02 0.03 0.03 0.06 0.19 0.27 0.33 0.33 0.48 0.53 0.51 0.49
0.02 0.05 0.11 0.19 0.49 0.49 0.10 0.37 0.89 0.89 0.99 1.04 0.70 0.25 0.08 0.04 0.04 0.01 0.00 0.00 0.00 0.00 0.00 0.00 0.01 0.00 0.01 0.01 0.04 0.08 0.15 0.14 0.10 0.04 0.02 0.05 0.06 0.03 0.02 0.03 0.05 0.06 0.13 0.22 0.19 0.22 0.33 0.48 0.46
0.01 0.07 0.07 0.10 0.13 0.59 0.70 0.87 0.88 1.44 1.13 0.75 0.73 0.40 0.11 0.07 0.06 0.07 0.03 0.00 0.00 0.01 0.02 0.06 0.04 0.02 0.02 0.05 0.09 0.11 0.14 0.14 0.14 0.10 0.06 0.06 0.07 0.04 0.03 0.01 0.02 0.05 0.03 0.08 0.14 0.13 0.16 0.20 0.39
0.03 0.03 0.05 0.16 0.31 0.54 0.96 1.35 1.42 1.07 0.47 0.34 0.36 0.39 0.18 0.10 0.12 0.06 0.04 0.02 0.02 0.04 0.08 0.12 0.12 0.10 0.07 0.08 0.10 0.12 0.18 0.16 0.14 0.12 0.08 0.07 0.08 0.08 0.06 0.02 0.00 0.01 0.02 0.02 0.05 0.09 0.10 0.14 0.16

GFSSGP_prec_precacc24_114.txt.gz
Total_Precipitation_Accumulation
0.00 0.00 0.00 0.00 0.00 0.00 0.00 0.00 0.00 0.00 0.00 0.00 0.00 0.00 0.00 0.00 0.00 0.00 0.00 0.00 0.00 0.00 0.00 0.00 0.00 0.01 0.00 0.00 0.00 0.00 0.01 0.01 0.01 0.04 0.11 0.18 0.08 0.11 0.06 0.00 0.03 0.10 0.27 0.25 0.17 0.18 0.17 0.13 0.06
0.00 0.00 0.00 0.00 0.00 0.00 0.00 0.00 0.00 0.00 0.00 0.00 0.00 0.00 0.00 0.00 0.00 0.00 0.00 0.00 0.00 0.00 0.00 0.00 0.00 0.01 0.01 0.00 0.00 0.00 0.02 0.03 0.02 0.02 0.08 0.12 0.16 0.21 0.22 0.14 0.11 0.19 0.33 0.46 0.36 0.29 0.20 0.10 0.05
0.00 0.00 0.00 0.00 0.00 0.00 0.00 0.00 0.00 0.00 0.00 0.00 0.00 0.00 0.00 0.00 0.00 0.00 0.00 0.00 0.00 0.00 0.00 0.00 0.00 0.01 0.01 0.00 0.00 0.00 0.01 0.02 0.04 0.19 0.40 0.56 0.76 0.81 0.72 0.71 0.66 0.66 0.71 0.72 0.70 0.52 0.21 0.08 0.04
0.00 0.00 0.00 0.00 0.00 0.00 0.00 0.00 0.00 0.00 0.00 0.00 0.00 0.00 0.00 0.00 0.00 0.00 0.00 0.00 0.00 0.00 0.00 0.00 0.00 0.01 0.01 0.01 0.00 0.01 0.00 0.03 0.08 0.14 0.22 0.25 0.23 0.31 0.45 0.79 1.22 1.48 1.51 1.12 1.14 1.03 0.44 0.20 0.13
0.00 0.00 0.00 0.00 0.00 0.00 0.00 0.00 0.00 0.00 0.00 0.00 0.00 0.00 0.00 0.00 0.00 0.00 0.00 0.00 0.00 0.00 0.00 0.00 0.00 0.00 0.01 0.01 0.01 0.02 0.05 0.12 0.32 0.23 0.07 0.06 0.08 0.12 0.21 0.32 0.63 1.41 2.93 2.37 1.28 0.91 0.49 0.38 0.40
0.00 0.00 0.00 0.00 0.00 0.00 0.00 0.00 0.00 0.00 0.00 0.00 0.00 0.00 0.00 0.00 0.00 0.00 0.00 0.00 0.00 0.00 0.00 0.00 0.00 0.00 0.01 0.02 0.02 0.03 0.09 0.18 0.20 0.27 0.18 0.06 0.08 0.07 0.17 0.25 0.18 0.28 0.77 1.29 1.31 1.48 0.87 0.46 0.36
0.00 0.00 0.00 0.00 0.00 0.00 0.00 0.00 0.00 0.00 0.00 0.00 0.00 0.00 0.00 0.00 0.00 0.00 0.00 0.00 0.00 0.00 0.00 0.00 0.00 0.01 0.01 0.02 0.01 0.01 0.00 0.04 0.08 0.13 0.17 0.16 0.06 0.05 0.21 0.17 0.09 0.09 0.16 0.35 0.49 0.64 0.66 0.55 0.39
0.00 0.00 0.00 0.00 0.00 0.00 0.00 0.00 0.00 0.00 0.00 0.00 0.00 0.00 0.00 0.00 0.00 0.00 0.00 0.00 0.00 0.00 0.00 0.00 0.00 0.01 0.02 0.03 0.01 0.00 0.00 0.02 0.06 0.12 0.19 0.37 0.36 0.17 0.09 0.07 0.06 0.17 0.26 0.28 0.24 0.41 0.48 0.44 0.31
0.00 0.00 0.00 0.00 0.00 0.00 0.00 0.00 0.00 0.00 0.00 0.00 0.00 0.00 0.00 0.00 0.00 0.00 0.00 0.00 0.00 0.00 0.00 0.00 0.00 0.00 0.02 0.03 0.04 0.02 0.02 0.04 0.02 0.03 0.07 0.20 0.25 0.18 0.12 0.16 0.11 0.17 0.25 0.46 0.52 0.48 0.41 0.36 0.31
0.00 0.00 0.00 0.00 0.00 0.00 0.00 0.00 0.00 0.00 0.00 0.00 0.00 0.00 0.00 0.00 0.00 0.00 0.00 0.00 0.00 0.00 0.00 0.00 0.00 0.00 0.01 0.02 0.03 0.02 0.04 0.02 0.01 0.02 0.01 0.12 0.15 0.19 0.20 0.14 0.09 0.11 0.26 0.52 0.65 0.68 0.52 0.39 0.21
0.00 0.00 0.00 0.00 0.00 0.00 0.00 0.00 0.00 0.00 0.00 0.00 0.00 0.00 0.00 0.00 0.00 0.00 0.00 0.00 0.00 0.00 0.00 0.00 0.00 0.00 0.00 0.01 0.02 0.02 0.03 0.03 0.01 0.03 0.03 0.05 0.06 0.17 0.23 0.09 0.12 0.14 0.45 0.57 0.57 0.44 0.37 0.34 0.28
0.00 0.00 0.00 0.00 0.00 0.00 0.00 0.00 0.00 0.00 0.00 0.00 0.00 0.00 0.00 0.00 0.00 0.00 0.00 0.00 0.00 0.00 0.00 0.00 0.00 0.00 0.00 0.00 0.01 0.01 0.01 0.01 0.01 0.01 0.04 0.07 0.08 0.08 0.09 0.09 0.19 0.36 0.77 0.56 0.34 0.21 0.24 0.32 0.35
0.00 0.00 0.00 0.00 0.00 0.00 0.00 0.00 0.00 0.00 0.00 0.00 0.00 0.00 0.00 0.00 0.00 0.00 0.00 0.00 0.00 0.00 0.00 0.00 0.00 0.00 0.00 0.00 0.00 0.00 0.01 0.01 0.01 0.00 0.00 0.04 0.08 0.07 0.09 0.13 0.24 0.35 0.67 0.76 0.38 0.20 0.24 0.27 0.33
0.00 0.00 0.00 0.00 0.00 0.00 0.00 0.00 0.00 0.00 0.00 0.00 0.00 0.00 0.00 0.00 0.00 0.00 0.00 0.00 0.00 0.00 0.00 0.00 0.00 0.00 0.00 0.00 0.00 0.00 0.00 0.01 0.01 0.01 0.00 0.01 0.06 0.09 0.14 0.19 0.23 0.25 0.48 0.62 0.50 0.18 0.26 0.28 0.25
0.00 0.00 0.00 0.00 0.00 0.00 0.00 0.00 0.00 0.00 0.00 0.00 0.00 0.00 0.00 0.00 0.00 0.00 0.00 0.00 0.00 0.00 0.00 0.00 0.00 0.00 0.00 0.00 0.00 0.00 0.00 0.00 0.01 0.01 0.01 0.01 0.05 0.10 0.20 0.28 0.24 0.26 0.37 0.34 0.44 0.37 0.35 0.31 0.28
0.00 0.00 0.00 0.00 0.00 0.00 0.00 0.00 0.00 0.00 0.00 0.00 0.00 0.00 0.00 0.00 0.00 0.00 0.00 0.00 0.00 0.00 0.00 0.00 0.00 0.00 0.00 0.00 0.00 0.00 0.00 0.00 0.01 0.01 0.03 0.03 0.05 0.12 0.32 0.32 0.29 0.37 0.34 0.21 0.30 0.20 0.28 0.34 0.28
0.00 0.00 0.00 0.00 0.00 0.00 0.00 0.00 0.00 0.00 0.00 0.00 0.00 0.00 0.00 0.00 0.00 0.00 0.00 0.00 0.00 0.00 0.00 0.00 0.00 0.00 0.00 0.00 0.00 0.00 0.00 0.01 0.00 0.01 0.03 0.08 0.14 0.20 0.41 0.45 0.34 0.37 0.37 0.22 0.17 0.10 0.13 0.24 0.29
0.00 0.00 0.00 0.00 0.00 0.00 0.00 0.00 0.00 0.00 0.00 0.00 0.00 0.00 0.00 0.00 0.00 0.00 0.00 0.00 0.00 0.00 0.00 0.00 0.00 0.00 0.00 0.00 0.01 0.01 0.01 0.01 0.01 0.01 0.03 0.20 0.46 0.36 0.48 0.57 0.40 0.34 0.30 0.29 0.19 0.12 0.16 0.18 0.19
0.01 0.01 0.03 0.01 0.00 0.00 0.00 0.00 0.00 0.00 0.00 0.00 0.00 0.00 0.00 0.00 0.00 0.00 0.00 0.00 0.00 0.00 0.00 0.00 0.00 0.00 0.00 0.00 0.00 0.01 0.01 0.02 0.02 0.02 0.04 0.12 0.46 0.53 0.50 0.56 0.47 0.40 0.26 0.18 0.14 0.12 0.13 0.23 0.23
0.05 0.09 0.04 0.01 0.01 0.06 0.04 0.01 0.00 0.00 0.00 0.00 0.00 0.00 0.00 0.00 0.00 0.00 0.00 0.00 0.00 0.00 0.00 0.00 0.00 0.00 0.00 0.00 0.02 0.01 0.00 0.01 0.01 0.02 0.05 0.19 0.41 0.43 0.44 0.53 0.48 0.39 0.35 0.34 0.24 0.10 0.08 0.16 0.24
0.02 0.02 0.00 0.01 0.05 0.17 0.11 0.03 0.00 0.00 0.00 0.00 0.00 0.00 0.00 0.00 0.00 0.00 0.00 0.00 0.00 0.00 0.00 0.00 0.00 0.00 0.02 0.03 0.03 0.03 0.03 0.03 0.04 0.02 0.04 0.09 0.17 0.34 0.28 0.39 0.49 0.40 0.42 0.47 0.37 0.18 0.09 0.09 0.21
0.06 0.02 0.01 0.01 0.14 0.16 0.17 0.12 0.00 0.00 0.00 0.01 0.00 0.00 0.00 0.00 0.00 0.00 0.00 0.00 0.00 0.00 0.00 0.00 0.02 0.04 0.02 0.08 0.05 0.05 0.02 0.01 0.00 0.01 0.03 0.04 0.07 0.19 0.26 0.20 0.39 0.34 0.39 0.41 0.47 0.40 0.32 0.22 0.21
0.00 0.01 0.02 0.03 0.10 0.10 0.09 0.20 0.01 0.04 0.06 0.11 0.04 0.02 0.00 0.00 0.00 0.00 0.00 0.00 0.00 0.00 0.00 0.00 0.01 0.08 0.12 0.09 0.10 0.13 0.06 0.06 0.02 0.04 0.04 0.06 0.03 0.15 0.24 0.35 0.37 0.39 0.38 0.37 0.33 0.47 0.45 0.43 0.29
0.02 0.03 0.10 0.13 0.10 0.11 0.01 0.05 0.01 0.07 0.21 0.15 0.11 0.06 0.03 0.01 0.00 0.00 0.00 0.00 0.00 0.00 0.00 0.00 0.00 0.01 0.05 0.08 0.07 0.04 0.03 0.01 0.02 0.02 0.03 0.02 0.03 0.05 0.18 0.40 0.47 0.46 0.45 0.48 0.39 0.36 0.44 0.39 0.43
0.02 0.06 0.10 0.24 0.23 0.05 0.00 0.02 0.03 0.16 0.18 0.25 0.18 0.10 0.04 0.01 0.01 0.00 0.00 0.00 0.00 0.00 0.00 0.00 0.01 0.01 0.01 0.03 0.05 0.07 0.10 0.02 0.01 0.02 0.01 0.01 0.02 0.02 0.06 0.14 0.34 0.38 0.47 0.48 0.55 0.51 0.44 0.58 0.52
0.03 0.02 0.08 0.35 0.33 0.16 0.06 0.09 0.18 0.20 0.40 0.31 0.11 0.06 0.06 0.03 0.01 0.01 0.00 0.00 0.00 0.00 0.00 0.00 0.00 0.00 0.01 0.02 0.03 0.04 0.06 0.04 0.04 0.01 0.01 0.02 0.01 0.02 0.02 0.04 0.13 0.29 0.42 0.40 0.49 0.61 0.53 0.48 0.68
0.01 0.03 0.06 0.25 0.23 0.36 0.24 0.49 0.55 0.25 0.54 0.86 0.54 0.11 0.04 0.04 0.02 0.02 0.01 0.00 0.00 0.00 0.00 0.00 0.00 0.00 0.01 0.00 0.01 0.03 0.08 0.05 0.03 0.06 0.08 0.09 0.08 0.05 0.06 0.05 0.06 0.19 0.27 0.33 0.33 0.49 0.54 0.51 0.49
0.02 0.05 0.14 0.25 0.57 0.47 0.29 0.64 1.13 1.10 1.22 1.30 1.01 0.47 0.18 0.06 0.04 0.02 0.02 0.01 0.00 0.00 0.00 0.01 0.01 0.00 0.01 0.01 0.04 0.08 0.14 0.14 0.11 0.05 0.03 0.06 0.09 0.08 0.05 0.06 0.07 0.07 0.13 0.22 0.20 0.23 0.34 0.48 0.45
0.01 0.08 0.07 0.12 0.14 0.55 0.71 0.94 0.92 1.51 1.44 1.11 1.23 1.07 0.35 0.15 0.10 0.09 0.05 0.05 0.01 0.01 0.02 0.06 0.04 0.02 0.02 0.05 0.09 0.10 0.13 0.14 0.14 0.10 0.07 0.06 0.08 0.06 0.05 0.04 0.04 0.06 0.04 0.08 0.14 0.13 0.16 0.20 0.40
0.03 0.03 0.06 0.20 0.31 0.53 1.01 1.44 1.53 1.13 0.59 0.51 0.66 1.00 0.59 0.26 0.23 0.23 0.16 0.10 0.09 0.05 0.08 0.11 0.10 0.08 0.07 0.08 0.10 0.12 0.19 0.16 0.14 0.13 0.09 0.08 0.09 0.11 0.11 0.09 0.04 0.03 0.05 0.05 0.06 0.09 0.10 0.14 0.16

GFSSGP_prec_precacc24_117.txt.gz
Total_Precipitation_Accumulation
0.00 0.00 0.00 0.00 0.00 0.00 0.00 0.00 0.00 0.00 0.00 0.00 0.00 0.00 0.00 0.00 0.00 0.00 0.00 0.00 0.00 0.00 0.00 0.00 0.00 0.00 0.00 0.00 0.00 0.00 0.00 0.01 0.01 0.04 0.11 0.18 0.08 0.11 0.06 0.00 0.03 0.10 0.26 0.25 0.17 0.18 0.17 0.15 0.06
0.00 0.00 0.00 0.00 0.00 0.00 0.00 0.00 0.00 0.00 0.00 0.00 0.00 0.00 0.00 0.00 0.00 0.00 0.00 0.00 0.00 0.00 0.00 0.00 0.00 0.00 0.00 0.00 0.00 0.00 0.00 0.00 0.01 0.02 0.06 0.05 0.06 0.14 0.16 0.09 0.09 0.18 0.31 0.45 0.36 0.29 0.20 0.10 0.04
0.00 0.00 0.00 0.00 0.00 0.00 0.00 0.00 0.00 0.00 0.00 0.00 0.00 0.00 0.00 0.00 0.00 0.00 0.00 0.00 0.00 0.00 0.00 0.00 0.00 0.00 0.00 0.00 0.00 0.00 0.00 0.01 0.02 0.07 0.22 0.43 0.61 0.63 0.58 0.58 0.56 0.62 0.69 0.69 0.68 0.50 0.20 0.07 0.03
0.00 0.00 0.00 0.00 0.00 0.00 0.00 0.00 0.00 0.00 0.00 0.00 0.00 0.00 0.00 0.00 0.00 0.00 0.00 0.00 0.00 0.00 0.00 0.00 0.00 0.00 0.00 0.00 0.00 0.00 0.00 0.02 0.08 0.13 0.20 0.22 0.18 0.22 0.31 0.61 0.98 1.29 1.44 1.09 1.11 1.01 0.43 0.20 0.13
0.00 0.00 0.00 0.00 0.00 0.00 0.00 0.00 0.00 0.00 0.00 0.00 0.00 0.00 0.00 0.00 0.00 0.00 0.00 0.00 0.00 0.00 0.00 0.00 0.00 0.00 0.00 0.00 0.00 0.00 0.01 0.05 0.23 0.23 0.07 0.06 0.07 0.08 0.14 0.11 0.30 1.06 2.68 2.26 1.25 0.90 0.49 0.38 0.40
0.00 0.00 0.00 0.00 0.00 0.00 0.00 0.00 0.00 0.00 0.00 0.00 0.00 0.00 0.00 0.00 0.00 0.00 0.00 0.00 0.00 0.00 0.00 0.00 0.00 0.00 0.00 0.00 0.00 0.00 0.01 0.09 0.13 0.23 0.18 0.06 0.07 0.05 0.10 0.13 0.09 0.15 0.63 1.17 1.25 1.47 0.87 0.46 0.36
0.00 0.00 0.00 0.00 0.00 0.00 0.00 0.00 0.00 0.00 0.00 0.00 0.00 0.00 0.00 0.00 0.00 0.00 0.00 0.00 0.00 0.00 0.00 0.00 0.00 0.00 0.00 0.00 0.00 0.00 0.00 0.02 0.05 0.10 0.16 0.15 0.04 0.02 0.13 0.12 0.06 0.03 0.09 0.30 0.45 0.62 0.65 0.55 0.39
0.00 0.00 0.00 0.00 0.00 0.00 0.00 0.00 0.00 0.00 0.00 0.00 0.00 0.00 0.00 0.00 0.00 0.00 0.00 0.00 0.00 0.00 0.00 0.00 0.00 0.00 0.01 0.02 0.00 0.00 0.00 0.00 0.02 0.09 0.18 0.33 0.33 0.15 0.06 0.06 0.05 0.08 0.09 0.16 0.23 0.36 0.47 0.44 0.31
0.00 0.00 0.00 0.00 0.00 0.00 0.00 0.00 0.00 0.00 0.00 0.00 0.00 0.00 0.00 0.00 0.00 0.00 0.00 0.00 0.00 0.00 0.00 0.00 0.00 0.00 0.01 0.02 0.01 0.01 0.00 0.00 0.00 0.03 0.06 0.19 0.24 0.16 0.12 0.16 0.10 0.13 0.07 0.21 0.40 0.40 0.40 0.35 0.31
0.00 0.00 0.00 0.00 0.00 0.00 0.00 0.00 0.00 0.00 0.00 0.00 0.00 0.00 0.00 0.00 0.00 0.00 0.00 0.00 0.00 0.00 0.00 0.00 0.00 0.00 0.00 0.01 0.02 0.01 0.02 0.01 0.00 0.02 0.01 0.12 0.15 0.19 0.20 0.14 0.07 0.05 0.12 0.19 0.44 0.60 0.51 0.39 0.21
0.00 0.00 0.00 0.00 0.00 0.00 0.00 0.00 0.00 0.00 0.00 0.00 0.00 0.00 0.00 0.00 0.00 0.00 0.00 0.00 0.00 0.00 0.00 0.00 0.00 0.00 0.00 0.01 0.02 0.02 0.03 0.02 0.01 0.03 0.03 0.05 0.06 0.17 0.23 0.09 0.09 0.09 0.10 0.18 0.35 0.38 0.35 0.34 0.28
0.00 0.00 0.00 0.00 0.00 0.00 0.00 0.00 0.00 0.00 0.00 0.00 0.00 0.00 0.00 0.00 0.00 0.00 0.00 0.00 0.00 0.00 0.00 0.00 0.00 0.00 0.00 0.00 0.01 0.01 0.02 0.02 0.01 0.01 0.04 0.07 0.08 0.08 0.09 0.09 0.16 0.21 0.18 0.13 0.20 0.19 0.24 0.32 0.35
0.00 0.00 0.00 0.00 0.00 0.00 0.00 0.00 0.00 0.00 0.00 0.00 0.00 0.00 0.00 0.00 0.00 0.00 0.00 0.00 0.00 0.00 0.00 0.00 0.00 0.00 0.00 0.00 0.00 0.01 0.01 0.01 0.01 0.00 0.00 0.04 0.08 0.07 0.09 0.13 0.23 0.24 0.19 0.27 0.29 0.20 0.24 0.27 0.33
0.00 0.00 0.00 0.00 0.00 0.00 0.00 0.00 0.00 0.00 0.00 0.00 0.00 0.00 0.00 0.00 0.00 0.00 0.00 0.00 0.00 0.00 0.00 0.00 0.00 0.00 0.00 0.00 0.00 0.00 0.00 0.01 0.01 0.01 0.00 0.00 0.05 0.07 0.09 0.15 0.21 0.19 0.21 0.32 0.40 0.17 0.26 0.28 0.25
0.00 0.00 0.00 0.00 0.00 0.00 0.00 0.00 0.00 0.00 0.00 0.00 0.00 0.00 0.00 0.00 0.00 0.00 0.00 0.00 0.00 0.00 0.00 0.00 0.00 0.00 0.00 0.00 0.00 0.00 0.00 0.00 0.01 0.01 0.01 0.01 0.04 0.07 0.13 0.16 0.20 0.16 0.21 0.22 0.37 0.36 0.35 0.31 0.28
0.00 0.00 0.00 0.00 0.00 0.00 0.00 0.00 0.00 0.00 0.00 0.00 0.00 0.00 0.00 0.00 0.00 0.00 0.00 0.00 0.00 0.00 0.00 0.00 0.00 0.00 0.00 0.00 0.00 0.00 0.00 0.00 0.00 0.01 0.02 0.01 0.02 0.07 0.18 0.18 0.19 0.23 0.20 0.16 0.29 0.20 0.28 0.34 0.28
0.00 0.00 0.00 0.00 0.00 0.00 0.00 0.00 0.00 0.00 0.00 0.00 0.00 0.00 0.00 0.00 0.00 0.00 0.00 0.00 0.00 0.00 0.00 0.00 0.00 0.00 0.00 0.00 0.00 0.00 0.00 0.00 0.00 0.01 0.01 0.02 0.02 0.06 0.18 0.26 0.28 0.24 0.26 0.17 0.17 0.10 0.13 0.24 0.29
0.00 0.00 0.00 0.00 0.00 0.00 0.00 0.00 0.00 0.00 0.00 0.00 0.00 0.00 0.00 0.00 0.00 0.00 0.00 0.00 0.00 0.00 0.00 0.00 0.00 0.00 0.00 0.00 0.01 0.00 0.00 0.00 0.00 0.00 0.01 0.04 0.05 0.12 0.28 0.39 0.36 0.25 0.23 0.27 0.19 0.12 0.16 0.18 0.19
0.01 0.01 0.03 0.01 0.00 0.00 0.00 0.00 0.00 0.00 0.00 0.00 0.00 0.00 0.00 0.00 0.00 0.00 0.00 0.00 0.00 0.00 0.00 0.00 0.00 0.00 0.00 0.00 0.00 0.01 0.02 0.01 0.01 0.01 0.02 0.05 0.09 0.20 0.38 0.50 0.43 0.36 0.24 0.17 0.14 0.12 0.13 0.23 0.23
0.05 0.09 0.04 0.01 0.01 0.06 0.04 0.01 0.00 0.00 0.00 0.00 0.00 0.00 0.00 0.00 0.00 0.00 0.00 0.00 0.00 0.00 0.00 0.00 0.01 0.00 0.00 0.00 0.09 0.07 0.04 0.01 0.01 0.01 0.03 0.06 0.19 0.25 0.34 0.52 0.47 0.38 0.35 0.34 0.24 0.10 0.08 0.16 0.24
0.02 0.02 0.00 0.01 0.05 0.17 0.11 0.03 0.00 0.00 0.00 0.00 0.00 0.00 0.00 0.00 0.00 0.00 0.00 0.00 0.00 0.00 0.00 0.00 0.00 0.01 0.07 0.16 0.15 0.09 0.04 0.04 0.03 0.02 0.03 0.03 0.07 0.22 0.14 0.36 0.48 0.40 0.42 0.47 0.37 0.18 0.09 0.09 0.22
0.06 0.02 0.01 0.01 0.14 0.16 0.17 0.13 0.00 0.00 0.00 0.01 0.00 0.00 0.00 0.00 0.00 0.00 0.00 0.00 0.00 0.00 0.00 0.00 0.02 0.07 0.14 0.27 0.07 0.10 0.05 0.01 0.00 0.01 0.02 0.02 0.02 0.09 0.11 0.13 0.35 0.32 0.39 0.41 0.47 0.41 0.33 0.22 0.22
0.00 0.01 0.02 0.03 0.10 0.10 0.09 0.22 0.01 0.05 0.14 0.21 0.12 0.05 0.02 0.02 0.01 0.01 0.00 0.00 0.00 0.00 0.00 0.00 0.01 0.08 0.13 0.11 0.11 0.14 0.07 0.08 0.02 0.04 0.04 0.05 0.03 0.01 0.08 0.14 0.26 0.32 0.36 0.36 0.33 0.47 0.45 0.43 0.29
0.02 0.03 0.10 0.13 0.10 0.11 0.01 0.05 0.01 0.11 0.37 0.40 0.42 0.15 0.07 0.04 0.02 0.02 0.00 0.00 0.00 0.00 0.00 0.00 0.00 0.01 0.05 0.08 0.08 0.05 0.04 0.02 0.02 0.02 0.03 0.02 0.02 0.03 0.09 0.15 0.26 0.34 0.38 0.44 0.37 0.36 0.44 0.39 0.44
0.02 0.06 0.10 0.24 0.23 0.05 0.04 0.04 0.06 0.21 0.25 0.44 0.62 0.31 0.09 0.06 0.05 0.04 0.01 0.00 0.00 0.00 0.00 0.00 0.00 0.01 0.01 0.03 0.05 0.07 0.11 0.03 0.02 0.02 0.01 0.01 0.01 0.01 0.06 0.10 0.20 0.27 0.40 0.45 0.52 0.50 0.44 0.58 0.52
0.03 0.02 0.09 0.39 0.35 0.19 0.13 0.17 0.35 0.31 0.46 0.40 0.24 0.45 0.16 0.07 0.05 0.05 0.02 0.00 0.00 0.00 0.00 0.00 0.00 0.00 0.01 0.01 0.04 0.05 0.07 0.06 0.05 0.01 0.03 0.07 0.03 0.02 0.02 0.03 0.09 0.24 0.41 0.40 0.48 0.62 0.53 0.49 0.69
0.01 0.03 0.07 0.30 0.25 0.45 0.48 0.61 0.70 0.32 0.57 0.90 0.67 0.31 0.19 0.10 0.04 0.03 0.03 0.01 0.01 0.00 0.00 0.00 0.00 0.00 0.01 0.00 0.02 0.03 0.09 0.06 0.06 0.11 0.16 0.12 0.12 0.11 0.11 0.09 0.06 0.16 0.25 0.33 0.33 0.50 0.55 0.52 0.51
0.02 0.06 0.16 0.27 0.59 0.49 0.31 0.66 1.19 1.18 1.31 1.40 1.16 0.73 0.35 0.18 0.16 0.05 0.03 0.02 0.01 0.01 0.00 0.01 0.01 0.01 0.01 0.01 0.03 0.08 0.15 0.16 0.15 0.15 0.11 0.17 0.16 0.18 0.19 0.16 0.10 0.08 0.16 0.24 0.20 0.23 0.34 0.49 0.47
0.01 0.08 0.10 0.15 0.16 0.59 0.74 0.99 1.02 1.62 1.56 1.24 1.40 1.27 0.59 0.32 0.30 0.22 0.09 0.06 0.02 0.02 0.03 0.06 0.04 0.02 0.02 0.05 0.09 0.10 0.13 0.14 0.14 0.12 0.09 0.12 0.15 0.17 0.14 0.18 0.15 0.14 0.09 0.10 0.16 0.14 0.17 0.21 0.40
0.03 0.03 0.08 0.24 0.33 0.57 1.06 1.48 1.61 1.19 0.65 0.62 0.81 1.24 0.95 0.44 0.37 0.39 0.25 0.12 0.11 0.07 0.08 0.10 0.10 0.07 0.06 0.08 0.10 0.12 0.18 0.16 0.14 0.13 0.09 0.09 0.10 0.14 0.17 0.17 0.14 0.11 0.10 0.10 0.09 0.11 0.11 0.15 0.17

GFSSGP_prec_precacc24_120.txt.gz
Total_Precipitation_Accumulation
0.00 0.00 0.00 0.00 0.00 0.00 0.00 0.00 0.00 0.00 0.00 0.00 0.00 0.00 0.00 0.00 0.00 0.00 0.00 0.00 0.00 0.00 0.00 0.00 0.00 0.00 0.00 0.00 0.00 0.00 0.00 0.00 0.00 0.01 0.04 0.14 0.08 0.11 0.06 0.00 0.02 0.10 0.27 0.25 0.17 0.18 0.16 0.15 0.06
0.00 0.00 0.00 0.00 0.00 0.00 0.00 0.00 0.00 0.00 0.00 0.00 0.00 0.00 0.00 0.00 0.00 0.00 0.00 0.00 0.00 0.00 0.00 0.00 0.00 0.00 0.00 0.00 0.00 0.00 0.00 0.00 0.01 0.02 0.03 0.04 0.06 0.14 0.16 0.09 0.09 0.18 0.32 0.45 0.35 0.28 0.20 0.10 0.02
0.00 0.00 0.00 0.00 0.00 0.00 0.00 0.00 0.00 0.00 0.00 0.00 0.00 0.00 0.00 0.00 0.00 0.00 0.00 0.00 0.00 0.00 0.00 0.00 0.00 0.00 0.00 0.00 0.00 0.00 0.00 0.00 0.01 0.02 0.04 0.13 0.29 0.36 0.37 0.44 0.48 0.62 0.67 0.68 0.66 0.49 0.21 0.07 0.01
0.00 0.00 0.00 0.00 0.00 0.00 0.00 0.00 0.00 0.00 0.00 0.00 0.00 0.00 0.00 0.00 0.00 0.00 0.00 0.00 0.00 0.00 0.00 0.00 0.00 0.00 0.00 0.00 0.00 0.00 0.00 0.02 0.05 0.07 0.14 0.16 0.10 0.13 0.23 0.47 0.76 1.09 1.29 1.02 1.04 0.98 0.43 0.20 0.13
0.00 0.00 0.00 0.00 0.00 0.00 0.00 0.00 0.00 0.00 0.00 0.00 0.00 0.00 0.00 0.00 0.00 0.00 0.00 0.00 0.00 0.00 0.00 0.00 0.00 0.00 0.00 0.00 0.00 0.00 0.00 0.03 0.12 0.13 0.04 0.05 0.06 0.07 0.13 0.09 0.22 0.80 2.15 1.81 1.06 0.88 0.49 0.38 0.40
0.00 0.00 0.00 0.00 0.00 0.00 0.00 0.00 0.00 0.00 0.00 0.00 0.00 0.00 0.00 0.00 0.00 0.00 0.00 0.00 0.00 0.00 0.00 0.00 0.00 0.00 0.00 0.00 0.00 0.00 0.00 0.04 0.08 0.13 0.12 0.05 0.06 0.05 0.10 0.11 0.06 0.10 0.23 0.56 0.90 1.37 0.86 0.46 0.36
0.00 0.00 0.00 0.00 0.00 0.00 0.00 0.00 0.00 0.00 0.00 0.00 0.00 0.00 0.00 0.00 0.00 0.00 0.00 0.00 0.00 0.00 0.00 0.00 0.00 0.00 0.00 0.00 0.00 0.00 0.00 0.01 0.00 0.01 0.04 0.07 0.01 0.02 0.12 0.09 0.05 0.03 0.07 0.14 0.20 0.43 0.58 0.54 0.39
0.00 0.00 0.00 0.00 0.00 0.00 0.00 0.00 0.00 0.00 0.00 0.00 0.00 0.00 0.00 0.00 0.00 0.00 0.00 0.00 0.00 0.00 0.00 0.00 0.00 0.00 0.00 0.00 0.00 0.00 0.00 0.00 0.01 0.05 0.06 0.11 0.11 0.08 0.05 0.05 0.04 0.07 0.05 0.04 0.05 0.15 0.32 0.40 0.32
0.00 0.00 0.00 0.00 0.00 0.00 0.00 0.00 0.00 0.00 0.00 0.00 0.00 0.00 0.00 0.00 0.00 0.00 0.00 0.00 0.00 0.00 0.00 0.00 0.00 0.00 0.00 0.00 0.00 0.00 0.00 0.00 0.00 0.02 0.02 0.10 0.22 0.15 0.11 0.16 0.10 0.11 0.03 0.05 0.09 0.13 0.24 0.30 0.29
0.00 0.00 0.00 0.00 0.00 0.00 0.00 0.00 0.00 0.00 0.00 0.00 0.00 0.00 0.00 0.00 0.00 0.00 0.00 0.00 0.00 0.00 0.00 0.00 0.00 0.00 0.00 0.00 0.01 0.01 0.02 0.01 0.00 0.02 0.01 0.12 0.16 0.21 0.20 0.14 0.07 0.04 0.08 0.05 0.07 0.28 0.35 0.29 0.20
0.00 0.00 0.00 0.00 0.00 0.00 0.00 0.00 0.00 0.00 0.00 0.00 0.00 0.00 0.00 0.00 0.00 0.00 0.00 0.00 0.00 0.00 0.00 0.00 0.00 0.00 0.00 0.00 0.01 0.01 0.02 0.02 0.01 0.04 0.03 0.05 0.07 0.19 0.23 0.09 0.06 0.07 0.05 0.07 0.06 0.15 0.20 0.25 0.25
0.00 0.00 0.00 0.00 0.00 0.00 0.00 0.00 0.00 0.00 0.00 0.00 0.00 0.00 0.00 0.00 0.00 0.00 0.00 0.00 0.00 0.00 0.00 0.00 0.00 0.00 0.00 0.00 0.00 0.01 0.01 0.01 0.01 0.01 0.04 0.07 0.07 0.08 0.08 0.08 0.12 0.14 0.11 0.07 0.06 0.03 0.10 0.24 0.32
0.00 0.00 0.00 0.00 0.00 0.00 0.00 0.00 0.00 0.00 0.00 0.00 0.00 0.00 0.00 0.00 0.00 0.00 0.00 0.00 0.00 0.00 0.00 0.00 0.00 0.00 0.00 0.00 0.00 0.00 0.01 0.01 0.01 0.00 0.01 0.03 0.05 0.06 0.08 0.11 0.14 0.16 0.16 0.11 0.07 0.02 0.12 0.22 0.31
0.00 0.00 0.00 0.00 0.00 0.00 0.00 0.00 0.00 0.00 0.00 0.00 0.00 0.00 0.00 0.00 0.00 0.00 0.00 0.00 0.00 0.00 0.00 0.00 0.00 0.00 0.00 0.00 0.00 0.00 0.00 0.01 0.02 0.01 0.00 0.00 0.03 0.06 0.06 0.11 0.12 0.14 0.20 0.12 0.03 0.03 0.17 0.24 0.24
0.00 0.00 0.00 0.00 0.00 0.00 0.00 0.00 0.00 0.00 0.00 0.00 0.00 0.00 0.00 0.00 0.00 0.00 0.00 0.00 0.00 0.00 0.00 0.00 0.00 0.00 0.00 0.00 0.00 0.00 0.00 0.00 0.01 0.01 0.01 0.00 0.01 0.04 0.06 0.09 0.12 0.14 0.18 0.11 0.11 0.24 0.27 0.28 0.27
0.00 0.00 0.00 0.00 0.00 0.00 0.00 0.00 0.00 0.00 0.00 0.00 0.00 0.00 0.00 0.00 0.00 0.00 0.00 0.00 0.00 0.00 0.00 0.00 0.00 0.00 0.00 0.00 0.00 0.00 0.00 0.00 0.00 0.01 0.01 0.01 0.01 0.04 0.10 0.09 0.14 0.20 0.18 0.10 0.13 0.15 0.24 0.32 0.27
0.00 0.00 0.00 0.00 0.00 0.00 0.00 0.00 0.00 0.00 0.00 0.00 0.00 0.00 0.00 0.00 0.00 0.00 0.00 0.00 0.00 0.00 0.00 0.00 0.00 0.00 0.00 0.00 0.00 0.00 0.00 0.00 0.00 0.00 0.01 0.02 0.01 0.02 0.11 0.12 0.15 0.18 0.20 0.13 0.09 0.07 0.10 0.23 0.28
0.00 0.00 0.00 0.00 0.00 0.00 0.00 0.00 0.00 0.00 0.00 0.00 0.00 0.00 0.00 0.00 0.00 0.00 0.00 0.00 0.00 0.00 0.00 0.00 0.00 0.00 0.00 0.00 0.01 0.00 0.00 0.00 0.00 0.00 0.00 0.01 0.02 0.01 0.05 0.11 0.20 0.12 0.13 0.14 0.11 0.10 0.13 0.16 0.19
0.01 0.01 0.03 0.01 0.00 0.00 0.00 0.00 0.00 0.00 0.00 0.00 0.00 0.00 0.00 0.00 0.00 0.00 0.00 0.00 0.00 0.00 0.00 0.00 0.00 0.00 0.00 0.00 0.00 0.01 0.02 0.00 0.00 0.01 0.01 0.02 0.04 0.05 0.11 0.20 0.23 0.22 0.13 0.08 0.09 0.11 0.12 0.22 0.23
0.04 0.09 0.04 0.01 0.01 0.06 0.04 0.01 0.00 0.00 0.00 0.00 0.00 0.00 0.00 0.00 0.00 0.00 0.00 0.00 0.00 0.00 0.00 0.00 0.01 0.00 0.01 0.00 0.09 0.07 0.04 0.00 0.00 0.01 0.01 0.03 0.04 0.03 0.10 0.29 0.30 0.24 0.24 0.26 0.20 0.10 0.08 0.16 0.24
0.02 0.02 0.00 0.01 0.05 0.17 0.11 0.03 0.00 0.00 0.00 0.00 0.00 0.00 0.00 0.00 0.00 0.00 0.00 0.00 0.00 0.00 0.00 0.00 0.01 0.01 0.07 0.16 0.15 0.09 0.05 0.04 0.03 0.01 0.01 0.01 0.01 0.02 0.05 0.18 0.36 0.30 0.32 0.42 0.37 0.18 0.09 0.10 0.22
0.06 0.02 0.01 0.01 0.14 0.16 0.17 0.13 0.00 0.00 0.00 0.03 0.01 0.02 0.02 0.02 0.01 0.00 0.00 0.00 0.00 0.00 0.00 0.00 0.02 0.08 0.16 0.28 0.07 0.10 0.04 0.01 0.00 0.00 0.01 0.01 0.00 0.01 0.02 0.04 0.24 0.26 0.31 0.38 0.47 0.41 0.33 0.23 0.22
0.00 0.01 0.02 0.03 0.10 0.10 0.09 0.22 0.01 0.05 0.14 0.23 0.17 0.16 0.09 0.07 0.05 0.02 0.00 0.00 0.00 0.00 0.00 0.00 0.02 0.12 0.19 0.14 0.13 0.17 0.08 0.08 0.02 0.03 0.03 0.05 0.03 0.00 0.00 0.03 0.20 0.29 0.34 0.35 0.33 0.47 0.45 0.43 0.29
0.02 0.03 0.10 0.13 0.10 0.11 0.01 0.08 0.03 0.14 0.42 0.42 0.47 0.24 0.13 0.10 0.09 0.08 0.06 0.04 0.02 0.01 0.00 0.00 0.01 0.03 0.18 0.20 0.20 0.20 0.19 0.04 0.02 0.02 0.02 0.02 0.01 0.01 0.01 0.04 0.18 0.29 0.35 0.43 0.37 0.36 0.44 0.39 0.44
0.02 0.06 0.10 0.24 0.23 0.05 0.05 0.08 0.11 0.26 0.29 0.49 0.68 0.45 0.18 0.17 0.11 0.11 0.11 0.10 0.10 0.06 0.03 0.01 0.01 0.02 0.10 0.18 0.26 0.19 0.30 0.16 0.02 0.02 0.01 0.01 0.02 0.01 0.01 0.02 0.10 0.19 0.33 0.40 0.49 0.48 0.42 0.57 0.52
0.03 0.02 0.09 0.40 0.35 0.19 0.14 0.20 0.41 0.37 0.52 0.45 0.30 0.62 0.24 0.22 0.16 0.16 0.20 0.09 0.11 0.08 0.04 0.03 0.01 0.01 0.03 0.06 0.15 0.12 0.16 0.08 0.05 0.02 0.04 0.07 0.03 0.01 0.03 0.09 0.13 0.22 0.33 0.35 0.45 0.59 0.52 0.48 0.69
0.01 0.03 0.07 0.32 0.26 0.46 0.50 0.62 0.73 0.32 0.58 0.92 0.72 0.44 0.39 0.20 0.17 0.15 0.14 0.09 0.08 0.08 0.05 0.10 0.05 0.01 0.01 0.01 0.03 0.04 0.10 0.07 0.07 0.12 0.17 0.14 0.14 0.13 0.16 0.20 0.16 0.18 0.19 0.27 0.33 0.49 0.54 0.53 0.51
0.02 0.06 0.17 0.32 0.62 0.51 0.34 0.67 1.20 1.20 1.32 1.42 1.19 0.82 0.64 0.38 0.29 0.12 0.09 0.07 0.06 0.06 0.04 0.05 0.05 0.03 0.01 0.01 0.04 0.08 0.15 0.16 0.15 0.16 0.14 0.21 0.20 0.22 0.26 0.28 0.19 0.10 0.28 0.36 0.34 0.31 0.40 0.52 0.47
0.02 0.09 0.11 0.19 0.18 0.63 0.79 1.03 1.06 1.66 1.60 1.28 1.45 1.34 0.78 0.56 0.59 0.32 0.15 0.07 0.02 0.03 0.04 0.09 0.06 0.02 0.02 0.05 0.08 0.10 0.13 0.15 0.16 0.13 0.12 0.18 0.21 0.24 0.24 0.28 0.24 0.13 0.16 0.28 0.32 0.22 0.19 0.22 0.41
0.03 0.04 0.11 0.32 0.37 0.62 1.10 1.52 1.66 1.23 0.71 0.66 0.87 1.32 1.06 0.58 0.67 0.57 0.36 0.16 0.11 0.07 0.07 0.10 0.12 0.09 0.06 0.07 0.09 0.12 0.18 0.16 0.14 0.13 0.09 0.10 0.13 0.22 0.26 0.20 0.17 0.15 0.13 0.13 0.15 0.17 0.15 0.17 0.19

GFSSGP_prec_precacc24_123.txt.gz
Total_Precipitation_Accumulation
0.00 0.00 0.00 0.00 0.00 0.00 0.00 0.00 0.00 0.00 0.00 0.00 0.00 0.00 0.00 0.00 0.00 0.00 0.00 0.00 0.00 0.00 0.00 0.00 0.00 0.00 0.00 0.00 0.00 0.00 0.00 0.00 0.00 0.01 0.01 0.01 0.04 0.04 0.01 0.00 0.03 0.13 0.28 0.26 0.17 0.18 0.17 0.15 0.06
0.00 0.00 0.00 0.00 0.00 0.00 0.00 0.00 0.00 0.00 0.00 0.00 0.00 0.00 0.00 0.00 0.00 0.00 0.00 0.00 0.00 0.00 0.00 0.00 0.00 0.00 0.00 0.00 0.00 0.00 0.00 0.00 0.01 0.02 0.02 0.01 0.04 0.06 0.07 0.07 0.09 0.20 0.33 0.46 0.34 0.27 0.21 0.10 0.02
0.00 0.00 0.00 0.00 0.00 0.00 0.00 0.00 0.00 0.00 0.00 0.00 0.00 0.00 0.00 0.00 0.00 0.00 0.00 0.00 0.00 0.00 0.00 0.00 0.00 0.00 0.00 0.00 0.00 0.00 0.00 0.00 0.01 0.02 0.02 0.03 0.07 0.10 0.13 0.27 0.44 0.60 0.67 0.65 0.59 0.45 0.21 0.07 0.01
0.00 0.00 0.00 0.00 0.00 0.00 0.00 0.00 0.00 0.00 0.00 0.00 0.00 0.00 0.00 0.00 0.00 0.00 0.00 0.00 0.00 0.00 0.00 0.00 0.00 0.00 0.00 0.00 0.00 0.00 0.00 0.00 0.01 0.03 0.05 0.06 0.04 0.07 0.11 0.19 0.41 0.76 1.00 0.80 0.79 0.82 0.43 0.20 0.13
0.00 0.00 0.00 0.00 0.00 0.00 0.00 0.00 0.00 0.00 0.00 0.00 0.00 0.00 0.00 0.00 0.00 0.00 0.00 0.00 0.00 0.00 0.00 0.00 0.00 0.00 0.00 0.00 0.00 0.00 0.00 0.00 0.04 0.08 0.02 0.02 0.04 0.06 0.12 0.06 0.09 0.43 1.41 1.09 0.60 0.68 0.45 0.32 0.31
0.00 0.00 0.00 0.00 0.00 0.00 0.00 0.00 0.00 0.00 0.00 0.00 0.00 0.00 0.00 0.00 0.00 0.00 0.00 0.00 0.00 0.00 0.00 0.00 0.00 0.00 0.00 0.00 0.00 0.00 0.00 0.00 0.01 0.01 0.04 0.02 0.08 0.06 0.09 0.10 0.05 0.09 0.13 0.16 0.17 0.57 0.57 0.28 0.28
0.00 0.00 0.00 0.00 0.00 0.00 0.00 0.00 0.00 0.00 0.00 0.00 0.00 0.00 0.00 0.00 0.00 0.00 0.00 0.00 0.00 0.00 0.00 0.00 0.00 0.00 0.00 0.00 0.00 0.00 0.00 0.00 0.00 0.00 0.00 0.02 0.03 0.03 0.12 0.09 0.05 0.03 0.04 0.02 0.00 0.02 0.13 0.19 0.22
0.00 0.00 0.00 0.00 0.00 0.00 0.00 0.00 0.00 0.00 0.00 0.00 0.00 0.00 0.00 0.00 0.00 0.00 0.00 0.00 0.00 0.00 0.00 0.00 0.00 0.00 0.00 0.00 0.00 0.00 0.00 0.00 0.00 0.00 0.00 0.02 0.07 0.07 0.05 0.03 0.02 0.06 0.06 0.04 0.00 0.00 0.04 0.10 0.11
0.00 0.00 0.00 0.00 0.00 0.00 0.00 0.00 0.00 0.00 0.00 0.00 0.00 0.00 0.00 0.00 0.00 0.00 0.00 0.00 0.00 0.00 0.00 0.00 0.00 0.00 0.00 0.00 0.00 0.00 0.00 0.00 0.00 0.00 0.00 0.03 0.12 0.13 0.06 0.12 0.09 0.11 0.02 0.01 0.00 0.00 0.01 0.06 0.08
0.00 0.00 0.00 0.00 0.00 0.00 0.00 0.00 0.00 0.00 0.00 0.00 0.00 0.00 0.00 0.00 0.00 0.00 0.00 0.00 0.00 0.00 0.00 0.00 0.00 0.00 0.00 0.00 0.00 0.00 0.00 0.00 0.00 0.00 0.00 0.04 0.07 0.15 0.18 0.10 0.05 0.04 0.04 0.01 0.00 0.01 0.05 0.05 0.06
0.00 0.00 0.00 0.00 0.00 0.00 0.00 0.00 0.00 0.00 0.00 0.00 0.00 0.00 0.00 0.00 0.00 0.00 0.00 0.00 0.00 0.00 0.00 0.00 0.00 0.00 0.00 0.00 0.00 0.00 0.00 0.00 0.00 0.00 0.01 0.02 0.03 0.15 0.22 0.11 0.04 0.06 0.04 0.02 0.01 0.00 0.01 0.03 0.07
0.00 0.00 0.00 0.00 0.00 0.00 0.00 0.00 0.00 0.00 0.00 0.00 0.00 0.00 0.00 0.00 0.00 0.00 0.00 0.00 0.00 0.00 0.00 0.00 0.00 0.00 0.00 0.00 0.00 0.00 0.01 0.01 0.00 0.01 0.03 0.04 0.04 0.07 0.08 0.07 0.05 0.05 0.05 0.03 0.01 0.00 0.00 0.01 0.08
0.00 0.00 0.00 0.00 0.00 0.00 0.00 0.00 0.00 0.00 0.00 0.00 0.00 0.00 0.00 0.00 0.00 0.00 0.00 0.00 0.00 0.00 0.00 0.00 0.00 0.00 0.00 0.00 0.00 0.00 0.01 0.00 0.00 0.00 0.01 0.03 0.03 0.04 0.05 0.07 0.07 0.08 0.11 0.07 0.04 0.01 0.02 0.02 0.08
0.00 0.00 0.00 0.00 0.00 0.00 0.00 0.00 0.00 0.00 0.00 0.00 0.00 0.00 0.00 0.00 0.00 0.00 0.00 0.00 0.00 0.00 0.00 0.00 0.00 0.00 0.00 0.00 0.00 0.00 0.00 0.00 0.01 0.00 0.00 0.01 0.02 0.03 0.04 0.06 0.06 0.07 0.14 0.10 0.04 0.02 0.04 0.04 0.08
0.00 0.00 0.00 0.00 0.00 0.00 0.00 0.00 0.00 0.00 0.00 0.00 0.00 0.00 0.00 0.00 0.00 0.00 0.00 0.00 0.00 0.00 0.00 0.00 0.00 0.00 0.00 0.00 0.00 0.00 0.00 0.00 0.00 0.00 0.00 0.01 0.01 0.00 0.01 0.04 0.05 0.08 0.13 0.10 0.11 0.17 0.07 0.05 0.12
0.00 0.00 0.00 0.00 0.00 0.00 0.00 0.00 0.00 0.00 0.00 0.00 0.00 0.00 0.00 0.00 0.00 0.00 0.00 0.00 0.00 0.00 0.00 0.00 0.00 0.00 0.00 0.00 0.00 0.00 0.00 0.00 0.00 0.00 0.01 0.01 0.00 0.00 0.01 0.02 0.06 0.14 0.14 0.07 0.13 0.11 0.08 0.11 0.19
0.00 0.00 0.00 0.00 0.00 0.00 0.00 0.00 0.00 0.00 0.00 0.00 0.00 0.00 0.00 0.00 0.00 0.00 0.00 0.00 0.00 0.00 0.00 0.00 0.00 0.00 0.00 0.01 0.00 0.00 0.00 0.00 0.00 0.00 0.00 0.01 0.01 0.00 0.01 0.03 0.07 0.14 0.17 0.12 0.09 0.04 0.03 0.09 0.20
0.00 0.00 0.00 0.00 0.00 0.00 0.00 0.00 0.00 0.00 0.00 0.00 0.00 0.00 0.00 0.00 0.00 0.00 0.00 0.00 0.00 0.00 0.00 0.00 0.00 0.00 0.01 0.05 0.02 0.00 0.00 0.00 0.00 0.00 0.00 0.00 0.01 0.00 0.02 0.02 0.07 0.09 0.09 0.12 0.10 0.07 0.05 0.07 0.16
0.01 0.01 0.02 0.01 0.00 0.00 0.00 0.00 0.00 0.00 0.00 0.00 0.00 0.00 0.00 0.00 0.00 0.00 0.00 0.00 0.00 0.00 0.00 0.00 0.00 0.00 0.03 0.09 0.05 0.01 0.02 0.00 0.00 0.00 0.00 0.00 0.00 0.01 0.03 0.02 0.01 0.04 0.04 0.02 0.05 0.09 0.07 0.12 0.17
0.02 0.04 0.03 0.01 0.01 0.06 0.04 0.01 0.00 0.00 0.00 0.00 0.00 0.00 0.00 0.00 0.00 0.00 0.00 0.00 0.00 0.00 0.00 0.00 0.01 0.00 0.01 0.02 0.13 0.10 0.04 0.00 0.00 0.00 0.00 0.00 0.00 0.01 0.03 0.02 0.00 0.04 0.10 0.08 0.06 0.05 0.03 0.10 0.19
0.01 0.02 0.00 0.01 0.05 0.17 0.11 0.03 0.00 0.00 0.00 0.00 0.00 0.00 0.00 0.00 0.00 0.00 0.00 0.00 0.00 0.00 0.00 0.00 0.01 0.01 0.07 0.16 0.17 0.15 0.06 0.04 0.02 0.00 0.00 0.00 0.00 0.01 0.01 0.00 0.03 0.13 0.18 0.29 0.23 0.13 0.06 0.07 0.18
0.06 0.02 0.01 0.01 0.14 0.16 0.17 0.13 0.00 0.00 0.00 0.03 0.01 0.02 0.02 0.02 0.02 0.01 0.00 0.00 0.00 0.00 0.00 0.00 0.02 0.09 0.17 0.30 0.09 0.16 0.06 0.01 0.00 0.00 0.00 0.01 0.00 0.00 0.00 0.00 0.04 0.11 0.16 0.22 0.35 0.36 0.31 0.21 0.22
0.00 0.01 0.02 0.03 0.10 0.10 0.09 0.22 0.01 0.05 0.14 0.23 0.17 0.16 0.09 0.08 0.07 0.04 0.02 0.01 0.00 0.00 0.00 0.00 0.02 0.12 0.22 0.23 0.17 0.24 0.15 0.08 0.02 0.03 0.03 0.04 0.03 0.00 0.00 0.00 0.01 0.09 0.16 0.18 0.24 0.44 0.42 0.42 0.28
0.02 0.03 0.10 0.13 0.10 0.11 0.01 0.08 0.03 0.14 0.43 0.42 0.47 0.24 0.14 0.11 0.10 0.10 0.10 0.08 0.06 0.04 0.02 0.01 0.01 0.05 0.21 0.29 0.33 0.31 0.36 0.20 0.10 0.03 0.02 0.01 0.01 0.01 0.00 0.01 0.02 0.09 0.16 0.27 0.31 0.34 0.42 0.38 0.42
0.02 0.06 0.10 0.23 0.24 0.06 0.05 0.09 0.12 0.26 0.29 0.50 0.69 0.46 0.19 0.19 0.13 0.14 0.18 0.25 0.20 0.16 0.13 0.06 0.03 0.09 0.17 0.35 0.44 0.38 0.65 0.75 0.55 0.33 0.11 0.03 0.05 0.02 0.01 0.01 0.02 0.06 0.17 0.29 0.45 0.46 0.40 0.55 0.51
0.03 0.02 0.08 0.39 0.35 0.19 0.14 0.21 0.42 0.37 0.52 0.45 0.30 0.64 0.26 0.24 0.23 0.26 0.54 0.31 0.23 0.24 0.26 0.17 0.07 0.12 0.17 0.27 0.40 0.44 0.43 0.47 0.52 0.71 0.72 0.16 0.04 0.02 0.04 0.09 0.11 0.12 0.19 0.25 0.38 0.52 0.46 0.44 0.67
0.01 0.03 0.06 0.32 0.26 0.49 0.53 0.63 0.74 0.32 0.58 0.92 0.72 0.45 0.41 0.26 0.30 0.40 0.40 0.21 0.20 0.39 0.32 0.31 0.18 0.12 0.18 0.17 0.25 0.37 0.37 0.34 0.49 0.35 0.50 0.28 0.16 0.15 0.18 0.22 0.17 0.15 0.23 0.28 0.33 0.44 0.50 0.49 0.49
0.02 0.06 0.17 0.35 0.66 0.55 0.39 0.69 1.17 1.19 1.32 1.42 1.20 0.83 0.67 0.45 0.38 0.35 0.51 0.20 0.16 0.33 0.14 0.18 0.20 0.13 0.12 0.16 0.19 0.29 0.35 0.37 0.52 0.49 0.28 0.25 0.21 0.24 0.29 0.31 0.24 0.14 0.31 0.43 0.36 0.40 0.51 0.62 0.52
0.02 0.09 0.13 0.22 0.19 0.65 0.82 1.04 1.05 1.67 1.61 1.29 1.47 1.37 0.82 0.66 0.76 0.46 0.39 0.24 0.13 0.14 0.14 0.22 0.18 0.12 0.07 0.10 0.15 0.19 0.29 0.35 0.52 0.48 0.25 0.22 0.24 0.27 0.27 0.33 0.29 0.16 0.18 0.33 0.33 0.30 0.31 0.33 0.54
0.03 0.04 0.12 0.38 0.41 0.72 1.17 1.51 1.66 1.23 0.71 0.67 0.90 1.36 1.10 0.67 0.95 0.72 0.48 0.31 0.21 0.14 0.12 0.30 0.38 0.31 0.20 0.09 0.09 0.13 0.21 0.31 0.24 0.24 0.14 0.13 0.16 0.25 0.29 0.23 0.20 0.17 0.15 0.17 0.18 0.20 0.22 0.21 0.19

GFSSGP_prec_precacc24_126.txt.gz
Total_Precipitation_Accumulation
0.00 0.00 0.00 0.00 0.00 0.00 0.00 0.00 0.00 0.00 0.00 0.00 0.00 0.00 0.00 0.00 0.00 0.00 0.00 0.00 0.00 0.00 0.00 0.00 0.00 0.00 0.00 0.00 0.00 0.00 0.00 0.00 0.00 0.00 0.00 0.00 0.01 0.01 0.00 0.00 0.02 0.12 0.21 0.24 0.18 0.18 0.17 0.15 0.06
0.00 0.00 0.00 0.00 0.00 0.00 0.00 0.00 0.00 0.00 0.00 0.00 0.00 0.00 0.00 0.00 0.00 0.00 0.00 0.00 0.00 0.00 0.00 0.00 0.00 0.00 0.00 0.00 0.00 0.00 0.00 0.00 0.00 0.00 0.00 0.01 0.04 0.06 0.05 0.05 0.06 0.17 0.30 0.43 0.33 0.26 0.22 0.12 0.02
0.00 0.00 0.00 0.00 0.00 0.00 0.00 0.00 0.00 0.00 0.00 0.00 0.00 0.00 0.00 0.00 0.00 0.00 0.00 0.00 0.00 0.00 0.00 0.00 0.00 0.00 0.00 0.00 0.00 0.00 0.00 0.00 0.00 0.00 0.00 0.01 0.02 0.05 0.08 0.13 0.26 0.34 0.39 0.46 0.51 0.43 0.25 0.08 0.01
0.00 0.00 0.00 0.00 0.00 0.00 0.00 0.00 0.00 0.00 0.00 0.00 0.00 0.00 0.00 0.00 0.00 0.00 0.00 0.00 0.00 0.00 0.00 0.00 0.00 0.00 0.00 0.00 0.00 0.00 0.00 0.00 0.00 0.00 0.00 0.01 0.01 0.05 0.09 0.13 0.14 0.09 0.29 0.43 0.42 0.45 0.27 0.18 0.13
0.00 0.00 0.00 0.00 0.00 0.00 0.00 0.00 0.00 0.00 0.00 0.00 0.00 0.00 0.00 0.00 0.00 0.00 0.00 0.00 0.00 0.00 0.00 0.00 0.00 0.00 0.00 0.00 0.00 0.00 0.00 0.00 0.00 0.00 0.00 0.00 0.01 0.03 0.07 0.04 0.04 0.06 0.38 0.42 0.30 0.19 0.08 0.12 0.18
0.00 0.00 0.00 0.00 0.00 0.00 0.00 0.00 0.00 0.00 0.00 0.00 0.00 0.00 0.00 0.00 0.00 0.00 0.00 0.00 0.00 0.00 0.00 0.00 0.00 0.00 0.00 0.00 0.00 0.00 0.00 0.00 0.00 0.00 0.00 0.01 0.06 0.05 0.07 0.08 0.06 0.10 0.07 0.08 0.07 0.13 0.12 0.02 0.06
0.00 0.00 0.00 0.00 0.00 0.00 0.00 0.00 0.00 0.00 0.00 0.00 0.00 0.00 0.00 0.00 0.00 0.00 0.00 0.00 0.00 0.00 0.00 0.00 0.00 0.00 0.00 0.00 0.00 0.00 0.00 0.00 0.00 0.00 0.00 0.01 0.03 0.02 0.06 0.08 0.05 0.03 0.05 0.03 0.00 0.00 0.00 0.00 0.01
0.00 0.00 0.00 0.00 0.00 0.00 0.00 0.00 0.00 0.00 0.00 0.00 0.00 0.00 0.00 0.00 0.00 0.00 0.00 0.00 0.00 0.00 0.00 0.00 0.00 0.00 0.00 0.00 0.00 0.00 0.00 0.00 0.00 0.00 0.00 0.00 0.03 0.05 0.02 0.03 0.02 0.05 0.05 0.04 0.00 0.00 0.00 0.00 0.01
0.00 0.00 0.00 0.00 0.00 0.00 0.00 0.00 0.00 0.00 0.00 0.00 0.00 0.00 0.00 0.00 0.00 0.00 0.00 0.00 0.00 0.00 0.00 0.01 0.01 0.00 0.00 0.00 0.00 0.00 0.00 0.00 0.00 0.00 0.00 0.00 0.01 0.02 0.02 0.04 0.07 0.10 0.05 0.02 0.00 0.00 0.00 0.00 0.00
0.00 0.00 0.00 0.00 0.00 0.00 0.00 0.00 0.00 0.00 0.00 0.00 0.00 0.00 0.00 0.00 0.00 0.00 0.00 0.00 0.00 0.00 0.00 0.00 0.01 0.04 0.02 0.00 0.00 0.00 0.00 0.00 0.00 0.00 0.00 0.00 0.01 0.03 0.08 0.05 0.04 0.04 0.05 0.01 0.00 0.00 0.00 0.00 0.00
0.00 0.00 0.00 0.00 0.00 0.00 0.00 0.00 0.00 0.00 0.00 0.00 0.00 0.00 0.00 0.00 0.00 0.00 0.00 0.00 0.00 0.00 0.00 0.00 0.00 0.03 0.06 0.01 0.00 0.00 0.00 0.00 0.00 0.00 0.01 0.01 0.02 0.07 0.06 0.06 0.01 0.03 0.03 0.01 0.00 0.00 0.00 0.00 0.02
0.00 0.00 0.00 0.00 0.00 0.00 0.00 0.00 0.00 0.00 0.00 0.00 0.00 0.00 0.00 0.00 0.00 0.00 0.00 0.00 0.00 0.00 0.00 0.00 0.00 0.01 0.01 0.00 0.00 0.00 0.00 0.00 0.00 0.00 0.01 0.02 0.02 0.06 0.06 0.04 0.02 0.02 0.02 0.01 0.00 0.00 0.00 0.00 0.02
0.00 0.00 0.00 0.00 0.00 0.00 0.00 0.00 0.00 0.00 0.00 0.00 0.00 0.00 0.00 0.00 0.00 0.00 0.00 0.00 0.00 0.00 0.00 0.00 0.00 0.00 0.00 0.00 0.00 0.00 0.00 0.00 0.00 0.00 0.01 0.02 0.01 0.05 0.04 0.04 0.02 0.00 0.00 0.01 0.00 0.01 0.02 0.02 0.02
0.00 0.00 0.00 0.00 0.00 0.00 0.00 0.00 0.00 0.00 0.00 0.00 0.00 0.00 0.00 0.00 0.00 0.00 0.00 0.00 0.00 0.00 0.00 0.00 0.00 0.00 0.00 0.00 0.00 0.00 0.00 0.00 0.00 0.00 0.00 0.02 0.01 0.02 0.04 0.03 0.02 0.00 0.02 0.03 0.02 0.02 0.04 0.04 0.01
0.00 0.00 0.00 0.00 0.00 0.00 0.00 0.00 0.00 0.00 0.00 0.00 0.00 0.00 0.00 0.00 0.00 0.00 0.00 0.00 0.00 0.00 0.00 0.00 0.00 0.00 0.00 0.01 0.00 0.00 0.00 0.00 0.00 0.00 0.00 0.01 0.01 0.01 0.01 0.01 0.02 0.04 0.05 0.07 0.08 0.15 0.06 0.03 0.03
0.00 0.00 0.00 0.00 0.00 0.00 0.00 0.00 0.00 0.00 0.00 0.00 0.00 0.00 0.00 0.00 0.00 0.00 0.00 0.00 0.00 0.00 0.00 0.00 0.00 0.00 0.00 0.02 0.02 0.00 0.00 0.00 0.00 0.00 0.00 0.01 0.01 0.00 0.01 0.01 0.00 0.05 0.07 0.04 0.12 0.12 0.08 0.04 0.03
0.00 0.00 0.00 0.00 0.00 0.00 0.00 0.00 0.00 0.00 0.00 0.00 0.00 0.00 0.00 0.00 0.00 0.00 0.00 0.00 0.00 0.00 0.00 0.00 0.00 0.00 0.00 0.05 0.08 0.04 0.02 0.03 0.00 0.00 0.00 0.01 0.01 0.00 0.00 0.01 0.01 0.04 0.07 0.08 0.08 0.06 0.05 0.03 0.03
0.00 0.00 0.00 0.00 0.00 0.00 0.00 0.00 0.00 0.00 0.00 0.00 0.00 0.00 0.00 0.00 0.00 0.00 0.00 0.00 0.00 0.00 0.00 0.00 0.00 0.00 0.01 0.08 0.10 0.09 0.10 0.12 0.02 0.00 0.00 0.00 0.01 0.00 0.00 0.00 0.01 0.02 0.05 0.10 0.09 0.07 0.04 0.03 0.06
0.01 0.01 0.01 0.00 0.00 0.00 0.00 0.00 0.00 0.00 0.00 0.00 0.00 0.00 0.00 0.00 0.00 0.00 0.00 0.00 0.00 0.00 0.00 0.00 0.00 0.00 0.03 0.10 0.11 0.12 0.12 0.11 0.05 0.00 0.00 0.00 0.00 0.00 0.00 0.00 0.00 0.01 0.02 0.02 0.04 0.09 0.07 0.05 0.06
0.02 0.01 0.01 0.01 0.01 0.06 0.04 0.00 0.00 0.00 0.00 0.00 0.00 0.00 0.00 0.00 0.00 0.00 0.00 0.00 0.00 0.00 0.00 0.00 0.01 0.00 0.01 0.02 0.16 0.21 0.21 0.14 0.07 0.00 0.00 0.00 0.00 0.00 0.00 0.00 0.00 0.00 0.01 0.03 0.04 0.05 0.03 0.03 0.07
0.01 0.01 0.00 0.01 0.03 0.11 0.08 0.02 0.00 0.00 0.00 0.00 0.00 0.00 0.00 0.00 0.00 0.00 0.00 0.00 0.00 0.00 0.00 0.00 0.01 0.01 0.07 0.16 0.17 0.23 0.27 0.23 0.17 0.03 0.00 0.00 0.00 0.00 0.00 0.00 0.00 0.00 0.00 0.01 0.06 0.10 0.05 0.04 0.07
0.06 0.02 0.01 0.00 0.06 0.11 0.17 0.13 0.00 0.00 0.00 0.03 0.01 0.02 0.02 0.02 0.02 0.01 0.00 0.00 0.00 0.00 0.00 0.00 0.02 0.09 0.17 0.30 0.10 0.24 0.16 0.12 0.08 0.04 0.00 0.02 0.00 0.00 0.00 0.00 0.00 0.00 0.01 0.03 0.16 0.26 0.26 0.17 0.16
0.00 0.01 0.02 0.02 0.09 0.09 0.09 0.20 0.02 0.05 0.14 0.23 0.17 0.16 0.09 0.08 0.07 0.04 0.02 0.01 0.01 0.00 0.00 0.00 0.02 0.12 0.22 0.23 0.17 0.30 0.26 0.18 0.11 0.07 0.03 0.05 0.03 0.00 0.00 0.00 0.01 0.00 0.01 0.05 0.13 0.31 0.34 0.36 0.25
0.02 0.02 0.10 0.13 0.10 0.09 0.01 0.10 0.07 0.16 0.43 0.42 0.47 0.24 0.14 0.11 0.10 0.10 0.10 0.08 0.06 0.04 0.03 0.01 0.02 0.05 0.21 0.29 0.35 0.39 0.46 0.34 0.18 0.09 0.03 0.01 0.02 0.01 0.00 0.01 0.02 0.02 0.01 0.07 0.17 0.22 0.34 0.32 0.36
0.02 0.05 0.09 0.22 0.24 0.06 0.06 0.12 0.15 0.26 0.29 0.50 0.69 0.46 0.19 0.19 0.13 0.14 0.19 0.26 0.24 0.19 0.14 0.08 0.05 0.10 0.18 0.37 0.47 0.46 0.83 1.02 0.91 0.57 0.20 0.07 0.07 0.02 0.02 0.02 0.02 0.03 0.03 0.08 0.22 0.30 0.31 0.45 0.42
0.03 0.02 0.07 0.37 0.34 0.19 0.14 0.21 0.42 0.36 0.51 0.45 0.30 0.64 0.26 0.24 0.23 0.27 0.58 0.37 0.28 0.30 0.36 0.27 0.14 0.19 0.23 0.32 0.45 0.48 0.55 0.73 1.30 1.42 1.33 0.84 0.29 0.14 0.06 0.12 0.11 0.10 0.07 0.11 0.22 0.36 0.39 0.37 0.59
0.01 0.03 0.05 0.27 0.23 0.40 0.54 0.64 0.73 0.31 0.57 0.92 0.72 0.45 0.41 0.26 0.31 0.46 0.53 0.29 0.26 0.71 0.96 0.55 0.39 0.28 0.29 0.27 0.30 0.41 0.49 0.60 0.95 1.17 1.44 1.34 1.28 0.62 0.31 0.32 0.21 0.17 0.25 0.28 0.30 0.32 0.39 0.41 0.42
0.02 0.05 0.12 0.30 0.60 0.48 0.39 0.71 1.13 1.13 1.31 1.42 1.20 0.83 0.67 0.45 0.39 0.45 0.72 0.28 0.29 1.05 0.80 0.50 0.49 0.38 0.33 0.29 0.27 0.33 0.42 0.57 0.80 1.08 1.73 0.96 0.65 1.18 0.76 0.51 0.41 0.26 0.37 0.47 0.35 0.36 0.48 0.58 0.50
0.01 0.06 0.12 0.21 0.20 0.65 0.79 0.91 0.95 1.57 1.57 1.29 1.47 1.38 0.83 0.68 0.78 0.51 0.64 0.40 0.27 0.56 0.84 0.61 0.48 0.47 0.35 0.24 0.34 0.32 0.40 0.53 0.66 0.64 0.82 1.31 0.64 0.39 0.39 0.44 0.44 0.30 0.25 0.40 0.40 0.34 0.34 0.39 0.58
0.02 0.03 0.11 0.35 0.41 0.76 1.18 1.27 1.62 1.20 0.71 0.67 0.90 1.36 1.10 0.70 1.02 0.78 0.61 0.56 0.42 0.29 0.33 0.57 0.59 0.47 0.46 0.21 0.31 0.34 0.41 0.53 0.50 0.48 0.42 0.40 0.49 0.53 0.42 0.32 0.28 0.23 0.17 0.20 0.23 0.24 0.25 0.24 0.25

GFSSGP_prec_precacc24_129.txt.gz
Total_Precipitation_Accumulation
0.00 0.00 0.00 0.00 0.00 0.00 0.00 0.00 0.00 0.00 0.00 0.00 0.00 0.00 0.00 0.00 0.00 0.00 0.00 0.00 0.00 0.00 0.00 0.00 0.00 0.00 0.00 0.00 0.00 0.00 0.00 0.00 0.00 0.00 0.00 0.00 0.00 0.00 0.00 0.00 0.02 0.10 0.21 0.26 0.20 0.16 0.17 0.19 0.08
0.00 0.00 0.00 0.00 0.00 0.00 0.00 0.00 0.00 0.00 0.00 0.00 0.00 0.00 0.00 0.00 0.00 0.00 0.00 0.00 0.00 0.00 0.00 0.00 0.00 0.00 0.00 0.00 0.00 0.00 0.00 0.00 0.00 0.00 0.00 0.00 0.01 0.01 0.01 0.02 0.05 0.16 0.23 0.26 0.23 0.23 0.22 0.13 0.02
0.00 0.00 0.00 0.00 0.00 0.00 0.00 0.00 0.00 0.00 0.00 0.00 0.00 0.00 0.00 0.00 0.00 0.00 0.00 0.00 0.00 0.00 0.00 0.00 0.00 0.00 0.00 0.00 0.00 0.00 0.00 0.00 0.00 0.00 0.00 0.00 0.00 0.01 0.01 0.05 0.07 0.08 0.07 0.10 0.17 0.24 0.19 0.06 0.00
0.00 0.00 0.00 0.00 0.00 0.00 0.00 0.00 0.00 0.00 0.00 0.00 0.00 0.00 0.00 0.00 0.00 0.00 0.00 0.00 0.00 0.00 0.00 0.00 0.00 0.00 0.00 0.00 0.00 0.00 0.00 0.00 0.00 0.00 0.00 0.00 0.00 0.00 0.01 0.01 0.01 0.03 0.04 0.08 0.08 0.12 0.06 0.04 0.05
0.00 0.00 0.00 0.00 0.00 0.00 0.00 0.00 0.00 0.00 0.00 0.00 0.00 0.00 0.00 0.00 0.00 0.00 0.00 0.00 0.00 0.00 0.00 0.00 0.00 0.00 0.00 0.00 0.00 0.00 0.00 0.00 0.00 0.00 0.00 0.00 0.00 0.00 0.00 0.00 0.03 0.05 0.06 0.05 0.12 0.03 0.00 0.00 0.03
0.00 0.00 0.00 0.00 0.00 0.00 0.00 0.00 0.00 0.00 0.00 0.00 0.00 0.00 0.00 0.00 0.00 0.00 0.00 0.00 0.00 0.00 0.00 0.00 0.00 0.00 0.00 0.00 0.00 0.00 0.00 0.00 0.00 0.00 0.00 0.01 0.04 0.03 0.00 0.00 0.04 0.08 0.02 0.05 0.02 0.00 0.00 0.00 0.00
0.00 0.00 0.00 0.00 0.00 0.00 0.00 0.00 0.00 0.00 0.00 0.00 0.00 0.00 0.00 0.00 0.00 0.00 0.00 0.00 0.00 0.00 0.00 0.00 0.00 0.00 0.00 0.00 0.00 0.00 0.00 0.00 0.00 0.00 0.00 0.01 0.03 0.01 0.00 0.02 0.04 0.02 0.03 0.02 0.00 0.00 0.00 0.00 0.00
0.00 0.00 0.00 0.00 0.00 0.00 0.00 0.00 0.00 0.00 0.00 0.00 0.00 0.00 0.00 0.00 0.00 0.00 0.00 0.00 0.00 0.00 0.00 0.00 0.01 0.00 0.00 0.00 0.00 0.00 0.00 0.00 0.00 0.00 0.00 0.00 0.03 0.01 0.00 0.00 0.02 0.05 0.04 0.00 0.00 0.00 0.00 0.00 0.01
0.00 0.00 0.00 0.00 0.00 0.00 0.00 0.00 0.00 0.00 0.00 0.00 0.00 0.00 0.00 0.00 0.00 0.00 0.00 0.00 0.00 0.00 0.00 0.01 0.01 0.01 0.00 0.00 0.00 0.00 0.00 0.00 0.00 0.00 0.00 0.00 0.00 0.00 0.00 0.00 0.03 0.09 0.04 0.01 0.00 0.00 0.00 0.00 0.00
0.00 0.00 0.00 0.00 0.00 0.00 0.00 0.00 0.00 0.00 0.00 0.00 0.00 0.00 0.00 0.00 0.00 0.00 0.00 0.00 0.00 0.00 0.00 0.00 0.01 0.05 0.04 0.00 0.00 0.00 0.00 0.00 0.00 0.00 0.00 0.00 0.01 0.03 0.02 0.00 0.00 0.01 0.03 0.01 0.00 0.00 0.00 0.00 0.00
0.00 0.00 0.00 0.00 0.00 0.00 0.00 0.00 0.00 0.00 0.00 0.00 0.00 0.00 0.00 0.00 0.00 0.00 0.00 0.00 0.00 0.00 0.00 0.00 0.00 0.04 0.12 0.13 0.04 0.00 0.00 0.00 0.00 0.00 0.01 0.01 0.02 0.07 0.05 0.06 0.00 0.00 0.00 0.01 0.00 0.00 0.00 0.00 0.02
0.00 0.00 0.00 0.00 0.00 0.00 0.00 0.00 0.00 0.00 0.00 0.00 0.00 0.00 0.00 0.00 0.00 0.00 0.00 0.00 0.00 0.00 0.00 0.00 0.00 0.01 0.01 0.05 0.16 0.11 0.02 0.00 0.00 0.00 0.01 0.02 0.02 0.06 0.06 0.04 0.01 0.00 0.00 0.01 0.00 0.00 0.00 0.00 0.02
0.00 0.00 0.00 0.00 0.00 0.00 0.00 0.00 0.00 0.00 0.00 0.00 0.00 0.00 0.00 0.00 0.00 0.00 0.00 0.00 0.00 0.00 0.00 0.00 0.00 0.00 0.00 0.00 0.01 0.06 0.06 0.01 0.00 0.00 0.01 0.02 0.01 0.05 0.04 0.04 0.02 0.00 0.00 0.01 0.00 0.01 0.02 0.01 0.02
0.00 0.00 0.00 0.00 0.00 0.00 0.00 0.00 0.00 0.00 0.00 0.00 0.00 0.00 0.00 0.00 0.00 0.00 0.00 0.00 0.00 0.00 0.00 0.00 0.00 0.00 0.00 0.00 0.00 0.01 0.01 0.01 0.01 0.00 0.00 0.02 0.01 0.02 0.04 0.03 0.02 0.00 0.01 0.00 0.01 0.02 0.00 0.02 0.01
0.00 0.00 0.00 0.00 0.00 0.00 0.00 0.00 0.00 0.00 0.00 0.00 0.00 0.00 0.00 0.00 0.00 0.00 0.00 0.00 0.00 0.00 0.00 0.00 0.00 0.00 0.00 0.01 0.00 0.01 0.03 0.09 0.02 0.01 0.00 0.01 0.01 0.01 0.01 0.01 0.02 0.01 0.01 0.01 0.02 0.04 0.01 0.03 0.03
0.00 0.00 0.00 0.00 0.00 0.00 0.00 0.00 0.00 0.00 0.00 0.00 0.00 0.00 0.00 0.00 0.00 0.00 0.00 0.00 0.00 0.00 0.00 0.00 0.00 0.00 0.00 0.02 0.04 0.07 0.06 0.04 0.08 0.03 0.01 0.01 0.01 0.01 0.01 0.01 0.00 0.01 0.01 0.01 0.02 0.03 0.05 0.04 0.03
0.00 0.00 0.00 0.00 0.00 0.00 0.00 0.00 0.00 0.00 0.00 0.00 0.00 0.00 0.00 0.00 0.00 0.00 0.00 0.00 0.00 0.00 0.00 0.00 0.00 0.00 0.00 0.05 0.08 0.06 0.04 0.11 0.26 0.10 0.01 0.01 0.01 0.00 0.00 0.01 0.00 0.02 0.02 0.01 0.02 0.03 0.04 0.03 0.03
0.00 0.00 0.00 0.00 0.00 0.00 0.00 0.00 0.00 0.00 0.00 0.00 0.00 0.00 0.00 0.00 0.00 0.00 0.00 0.00 0.00 0.00 0.00 0.00 0.00 0.00 0.01 0.08 0.10 0.09 0.11 0.21 0.26 0.14 0.08 0.01 0.01 0.01 0.00 0.00 0.01 0.02 0.03 0.02 0.02 0.04 0.04 0.03 0.05
0.01 0.01 0.01 0.00 0.00 0.00 0.00 0.00 0.00 0.00 0.00 0.00 0.00 0.00 0.00 0.00 0.00 0.00 0.00 0.00 0.00 0.00 0.00 0.00 0.00 0.00 0.03 0.10 0.11 0.13 0.13 0.13 0.16 0.12 0.10 0.05 0.01 0.01 0.00 0.00 0.01 0.01 0.02 0.01 0.01 0.04 0.07 0.05 0.05
0.02 0.01 0.01 0.01 0.00 0.02 0.02 0.00 0.00 0.00 0.00 0.00 0.00 0.00 0.00 0.00 0.00 0.00 0.00 0.00 0.00 0.00 0.00 0.00 0.01 0.00 0.01 0.02 0.16 0.21 0.22 0.17 0.15 0.17 0.15 0.15 0.03 0.00 0.00 0.00 0.00 0.00 0.01 0.01 0.01 0.02 0.02 0.04 0.06
0.01 0.01 0.00 0.01 0.01 0.05 0.05 0.01 0.00 0.00 0.00 0.00 0.00 0.00 0.00 0.00 0.00 0.00 0.00 0.00 0.00 0.00 0.00 0.00 0.01 0.01 0.07 0.16 0.17 0.23 0.27 0.24 0.22 0.19 0.16 0.18 0.14 0.01 0.00 0.00 0.00 0.00 0.00 0.01 0.01 0.01 0.03 0.04 0.04
0.06 0.02 0.01 0.00 0.01 0.02 0.07 0.07 0.00 0.00 0.00 0.03 0.01 0.02 0.02 0.02 0.02 0.01 0.00 0.00 0.00 0.00 0.00 0.00 0.01 0.06 0.16 0.30 0.10 0.24 0.16 0.12 0.10 0.13 0.14 0.20 0.21 0.06 0.00 0.00 0.00 0.00 0.01 0.01 0.01 0.02 0.05 0.10 0.11
0.00 0.01 0.01 0.00 0.02 0.07 0.04 0.08 0.01 0.04 0.13 0.23 0.17 0.16 0.09 0.08 0.07 0.04 0.02 0.01 0.01 0.00 0.00 0.00 0.02 0.08 0.18 0.23 0.17 0.30 0.26 0.18 0.11 0.13 0.17 0.21 0.26 0.13 0.02 0.00 0.01 0.00 0.01 0.01 0.02 0.04 0.08 0.15 0.21
0.01 0.01 0.04 0.07 0.06 0.08 0.01 0.07 0.07 0.15 0.42 0.42 0.47 0.24 0.14 0.11 0.10 0.10 0.10 0.08 0.06 0.04 0.03 0.01 0.02 0.05 0.20 0.28 0.35 0.39 0.46 0.34 0.19 0.12 0.15 0.21 0.30 0.17 0.05 0.02 0.02 0.02 0.01 0.01 0.02 0.04 0.11 0.20 0.29
0.01 0.04 0.05 0.14 0.17 0.05 0.06 0.12 0.16 0.26 0.29 0.49 0.68 0.45 0.19 0.19 0.13 0.14 0.19 0.27 0.24 0.19 0.15 0.08 0.05 0.10 0.18 0.36 0.47 0.47 0.83 1.02 0.92 0.59 0.32 0.36 0.45 0.31 0.11 0.02 0.02 0.03 0.03 0.02 0.02 0.08 0.16 0.35 0.36
0.02 0.00 0.06 0.36 0.34 0.19 0.14 0.20 0.42 0.36 0.50 0.44 0.29 0.63 0.25 0.24 0.23 0.27 0.59 0.38 0.30 0.33 0.39 0.29 0.16 0.20 0.23 0.32 0.46 0.49 0.56 0.73 1.32 1.56 1.72 1.25 0.88 0.67 0.32 0.19 0.17 0.11 0.08 0.08 0.09 0.12 0.23 0.28 0.52
0.01 0.02 0.04 0.24 0.17 0.35 0.52 0.63 0.74 0.29 0.32 0.85 0.70 0.45 0.41 0.26 0.31 0.46 0.54 0.31 0.29 0.77 1.02 0.57 0.43 0.31 0.30 0.28 0.32 0.45 0.48 0.61 1.01 1.59 1.87 2.61 2.43 1.71 1.19 0.57 0.33 0.19 0.26 0.29 0.28 0.16 0.24 0.30 0.30
0.02 0.05 0.12 0.27 0.36 0.19 0.36 0.66 1.06 0.99 0.65 1.18 1.20 0.83 0.67 0.45 0.39 0.45 0.73 0.31 0.31 1.17 0.96 0.63 0.61 0.57 0.47 0.35 0.32 0.38 0.44 0.54 0.86 1.24 2.11 2.11 2.43 2.89 2.25 0.98 0.65 0.48 0.53 0.58 0.41 0.31 0.31 0.41 0.39
0.01 0.03 0.10 0.18 0.14 0.37 0.60 0.65 0.71 1.17 1.23 1.22 1.47 1.38 0.83 0.68 0.78 0.52 0.65 0.46 0.34 0.63 1.04 1.02 0.72 0.94 0.85 0.46 0.49 0.43 0.46 0.52 0.71 0.86 1.03 1.81 1.70 1.67 2.18 1.47 0.89 0.61 0.54 0.62 0.60 0.46 0.35 0.34 0.51
0.01 0.02 0.09 0.27 0.31 0.59 0.98 0.99 1.21 0.82 0.68 0.66 0.90 1.36 1.10 0.70 1.03 0.80 0.64 0.61 0.58 0.43 0.47 1.08 1.15 1.27 1.10 0.82 0.83 0.52 0.43 0.54 0.62 0.70 0.77 0.73 0.99 1.25 1.18 0.96 1.13 1.05 0.53 0.36 0.34 0.31 0.35 0.38 0.40

GFSSGP_prec_precacc24_132.txt.gz
Total_Precipitation_Accumulation
0.00 0.00 0.00 0.00 0.00 0.00 0.00 0.00 0.00 0.00 0.00 0.00 0.00 0.00 0.00 0.00 0.00 0.00 0.00 0.00 0.00 0.00 0.00 0.00 0.00 0.00 0.00 0.00 0.00 0.00 0.00 0.00 0.00 0.00 0.00 0.00 0.00 0.00 0.00 0.00 0.01 0.08 0.12 0.12 0.09 0.08 0.09 0.14 0.07
0.00 0.00 0.00 0.00 0.00 0.00 0.00 0.00 0.00 0.00 0.00 0.00 0.00 0.00 0.00 0.00 0.00 0.00 0.00 0.00 0.00 0.00 0.00 0.00 0.00 0.00 0.00 0.00 0.00 0.00 0.00 0.00 0.00 0.00 0.00 0.00 0.00 0.00 0.00 0.00 0.01 0.05 0.10 0.10 0.05 0.09 0.14 0.11 0.01
0.00 0.00 0.00 0.00 0.00 0.00 0.00 0.00 0.00 0.00 0.00 0.00 0.00 0.00 0.00 0.00 0.00 0.00 0.00 0.00 0.00 0.00 0.00 0.00 0.00 0.00 0.00 0.00 0.00 0.00 0.00 0.00 0.00 0.00 0.00 0.00 0.00 0.00 0.00 0.00 0.01 0.04 0.05 0.06 0.09 0.12 0.14 0.02 0.00
0.00 0.00 0.00 0.00 0.00 0.00 0.00 0.00 0.00 0.00 0.00 0.00 0.00 0.00 0.00 0.00 0.00 0.00 0.00 0.00 0.00 0.00 0.00 0.00 0.00 0.00 0.00 0.00 0.00 0.00 0.00 0.00 0.00 0.00 0.00 0.00 0.00 0.00 0.00 0.00 0.01 0.03 0.05 0.08 0.08 0.10 0.04 0.00 0.00
0.00 0.00 0.00 0.00 0.00 0.00 0.00 0.00 0.00 0.00 0.00 0.00 0.00 0.00 0.00 0.00 0.00 0.00 0.00 0.00 0.00 0.00 0.00 0.00 0.01 0.01 0.00 0.00 0.00 0.00 0.00 0.00 0.00 0.00 0.00 0.00 0.00 0.00 0.00 0.00 0.03 0.03 0.05 0.04 0.11 0.02 0.00 0.00 0.00
0.00 0.00 0.00 0.00 0.00 0.00 0.00 0.00 0.00 0.00 0.00 0.00 0.00 0.00 0.00 0.00 0.00 0.00 0.00 0.00 0.00 0.00 0.00 0.00 0.00 0.00 0.00 0.00 0.00 0.00 0.00 0.00 0.00 0.00 0.00 0.01 0.04 0.03 0.00 0.00 0.03 0.02 0.01 0.05 0.02 0.00 0.00 0.00 0.00
0.00 0.00 0.00 0.00 0.00 0.00 0.00 0.00 0.00 0.00 0.00 0.00 0.00 0.00 0.00 0.00 0.00 0.00 0.00 0.00 0.00 0.00 0.00 0.00 0.00 0.00 0.00 0.00 0.00 0.00 0.00 0.00 0.00 0.00 0.00 0.01 0.03 0.00 0.00 0.02 0.03 0.00 0.03 0.02 0.00 0.00 0.00 0.00 0.00
0.00 0.00 0.00 0.00 0.00 0.00 0.00 0.00 0.00 0.00 0.00 0.00 0.00 0.00 0.00 0.00 0.00 0.00 0.00 0.00 0.00 0.00 0.00 0.00 0.01 0.00 0.00 0.00 0.00 0.00 0.00 0.00 0.00 0.00 0.00 0.00 0.03 0.01 0.00 0.00 0.01 0.00 0.01 0.00 0.00 0.00 0.00 0.00 0.01
0.00 0.00 0.00 0.00 0.00 0.00 0.00 0.00 0.00 0.00 0.00 0.00 0.00 0.00 0.00 0.00 0.00 0.00 0.00 0.00 0.00 0.00 0.00 0.01 0.01 0.01 0.00 0.00 0.00 0.00 0.00 0.00 0.00 0.00 0.00 0.00 0.00 0.00 0.00 0.00 0.01 0.05 0.04 0.01 0.00 0.00 0.00 0.00 0.00
0.00 0.00 0.00 0.00 0.00 0.00 0.00 0.00 0.00 0.00 0.00 0.00 0.00 0.00 0.00 0.00 0.00 0.00 0.00 0.00 0.00 0.00 0.00 0.00 0.01 0.06 0.06 0.00 0.00 0.00 0.00 0.00 0.00 0.00 0.00 0.00 0.01 0.03 0.02 0.00 0.00 0.00 0.02 0.01 0.00 0.00 0.00 0.00 0.00
0.00 0.00 0.00 0.00 0.00 0.00 0.00 0.00 0.00 0.00 0.00 0.00 0.00 0.00 0.00 0.00 0.00 0.00 0.00 0.00 0.00 0.00 0.00 0.00 0.00 0.04 0.14 0.17 0.06 0.02 0.01 0.00 0.00 0.00 0.01 0.01 0.02 0.07 0.05 0.06 0.00 0.00 0.00 0.00 0.00 0.00 0.00 0.00 0.02
0.00 0.00 0.00 0.00 0.00 0.00 0.00 0.00 0.00 0.00 0.00 0.00 0.00 0.00 0.00 0.00 0.00 0.00 0.00 0.00 0.00 0.00 0.00 0.00 0.00 0.01 0.02 0.07 0.19 0.22 0.16 0.07 0.00 0.00 0.01 0.02 0.02 0.06 0.06 0.04 0.01 0.00 0.00 0.00 0.00 0.00 0.00 0.00 0.02
0.00 0.00 0.00 0.00 0.00 0.00 0.00 0.00 0.00 0.00 0.00 0.00 0.00 0.00 0.00 0.00 0.00 0.00 0.00 0.00 0.00 0.00 0.00 0.00 0.00 0.00 0.00 0.00 0.02 0.10 0.16 0.09 0.07 0.03 0.01 0.02 0.01 0.05 0.04 0.04 0.02 0.00 0.00 0.01 0.00 0.01 0.02 0.01 0.03
0.00 0.00 0.00 0.00 0.00 0.00 0.00 0.00 0.00 0.00 0.00 0.00 0.00 0.00 0.00 0.00 0.00 0.00 0.00 0.00 0.00 0.00 0.00 0.00 0.00 0.00 0.00 0.00 0.00 0.01 0.03 0.16 0.20 0.09 0.03 0.02 0.01 0.02 0.04 0.03 0.02 0.00 0.01 0.00 0.01 0.02 0.00 0.01 0.01
0.00 0.00 0.00 0.00 0.00 0.00 0.00 0.00 0.00 0.00 0.00 0.00 0.00 0.00 0.00 0.00 0.00 0.00 0.00 0.00 0.00 0.00 0.00 0.00 0.00 0.00 0.00 0.01 0.00 0.01 0.03 0.15 0.12 0.15 0.15 0.04 0.01 0.01 0.01 0.01 0.02 0.01 0.01 0.01 0.02 0.04 0.01 0.01 0.01
0.00 0.00 0.00 0.00 0.00 0.00 0.00 0.00 0.00 0.00 0.00 0.00 0.00 0.00 0.00 0.00 0.00 0.00 0.00 0.00 0.00 0.00 0.00 0.00 0.00 0.00 0.00 0.02 0.04 0.07 0.06 0.04 0.10 0.12 0.16 0.10 0.02 0.01 0.01 0.01 0.00 0.01 0.01 0.01 0.02 0.03 0.03 0.02 0.02
0.00 0.00 0.00 0.00 0.00 0.00 0.00 0.00 0.00 0.00 0.00 0.00 0.00 0.00 0.00 0.00 0.00 0.00 0.00 0.00 0.00 0.00 0.00 0.00 0.00 0.00 0.00 0.05 0.08 0.06 0.04 0.11 0.28 0.19 0.14 0.14 0.15 0.04 0.01 0.01 0.00 0.02 0.02 0.01 0.02 0.03 0.04 0.02 0.02
0.00 0.00 0.00 0.00 0.00 0.00 0.00 0.00 0.00 0.00 0.00 0.00 0.00 0.00 0.00 0.00 0.00 0.00 0.00 0.00 0.00 0.00 0.00 0.00 0.00 0.00 0.01 0.08 0.10 0.09 0.11 0.21 0.27 0.17 0.17 0.17 0.27 0.24 0.08 0.01 0.01 0.02 0.03 0.02 0.01 0.02 0.02 0.01 0.03
0.00 0.01 0.01 0.00 0.00 0.00 0.00 0.00 0.00 0.00 0.00 0.00 0.00 0.00 0.00 0.00 0.00 0.00 0.00 0.00 0.00 0.00 0.00 0.00 0.00 0.00 0.03 0.10 0.11 0.13 0.13 0.13 0.16 0.15 0.14 0.22 0.32 0.37 0.22 0.05 0.02 0.02 0.02 0.01 0.01 0.02 0.03 0.03 0.05
0.00 0.00 0.00 0.01 0.00 0.00 0.00 0.00 0.00 0.00 0.00 0.00 0.00 0.00 0.00 0.00 0.00 0.00 0.00 0.00 0.00 0.00 0.00 0.00 0.01 0.00 0.01 0.02 0.16 0.21 0.22 0.17 0.15 0.18 0.17 0.25 0.30 0.36 0.31 0.14 0.04 0.01 0.01 0.01 0.01 0.02 0.02 0.04 0.06
0.00 0.00 0.00 0.01 0.00 0.00 0.01 0.00 0.00 0.00 0.00 0.00 0.00 0.00 0.00 0.00 0.00 0.00 0.00 0.00 0.00 0.00 0.00 0.00 0.01 0.01 0.07 0.16 0.17 0.23 0.26 0.24 0.22 0.19 0.16 0.22 0.30 0.29 0.28 0.26 0.11 0.05 0.02 0.01 0.01 0.01 0.02 0.03 0.04
0.00 0.00 0.00 0.00 0.00 0.00 0.01 0.05 0.00 0.00 0.00 0.03 0.01 0.02 0.02 0.02 0.02 0.01 0.00 0.00 0.00 0.00 0.00 0.00 0.00 0.04 0.15 0.26 0.09 0.24 0.16 0.12 0.10 0.13 0.14 0.21 0.30 0.29 0.27 0.22 0.17 0.07 0.02 0.01 0.01 0.02 0.03 0.04 0.04
0.00 0.01 0.01 0.00 0.00 0.02 0.01 0.06 0.01 0.03 0.13 0.22 0.16 0.15 0.09 0.08 0.07 0.04 0.02 0.01 0.01 0.00 0.00 0.00 0.01 0.05 0.13 0.15 0.13 0.26 0.25 0.18 0.11 0.13 0.17 0.21 0.29 0.28 0.32 0.38 0.20 0.09 0.05 0.02 0.01 0.01 0.05 0.05 0.04
0.00 0.00 0.01 0.01 0.03 0.06 0.01 0.06 0.07 0.14 0.40 0.38 0.42 0.22 0.14 0.11 0.10 0.10 0.10 0.08 0.06 0.04 0.03 0.01 0.02 0.04 0.19 0.27 0.34 0.38 0.45 0.34 0.19 0.12 0.15 0.21 0.31 0.26 0.37 0.49 0.65 0.31 0.06 0.02 0.01 0.01 0.04 0.05 0.06
0.00 0.00 0.02 0.04 0.06 0.03 0.06 0.10 0.15 0.19 0.20 0.37 0.64 0.44 0.18 0.19 0.13 0.14 0.19 0.27 0.24 0.19 0.15 0.08 0.05 0.10 0.18 0.36 0.47 0.46 0.81 1.03 0.93 0.59 0.32 0.36 0.46 0.35 0.33 0.51 0.80 0.51 0.15 0.04 0.04 0.04 0.04 0.06 0.07
0.00 0.00 0.05 0.23 0.30 0.17 0.13 0.20 0.39 0.25 0.25 0.27 0.24 0.63 0.25 0.24 0.23 0.27 0.59 0.38 0.30 0.33 0.39 0.30 0.17 0.21 0.23 0.32 0.46 0.50 0.54 0.72 1.33 1.56 1.73 1.25 0.89 0.71 0.62 0.71 0.73 0.78 0.41 0.12 0.09 0.08 0.08 0.08 0.16
0.00 0.02 0.03 0.21 0.15 0.34 0.51 0.59 0.62 0.26 0.20 0.61 0.62 0.43 0.41 0.26 0.31 0.46 0.54 0.31 0.29 0.78 1.05 0.64 0.47 0.32 0.31 0.29 0.33 0.46 0.46 0.58 1.01 1.60 1.88 2.62 2.43 1.72 1.40 1.27 0.96 0.74 0.69 0.39 0.31 0.16 0.16 0.16 0.17
0.02 0.03 0.09 0.26 0.33 0.12 0.33 0.64 0.91 0.82 0.54 0.80 1.13 0.81 0.67 0.45 0.39 0.45 0.73 0.31 0.32 1.20 1.01 0.66 0.64 0.60 0.49 0.38 0.34 0.37 0.38 0.48 0.83 1.24 2.12 2.11 2.44 2.91 2.43 1.94 1.62 1.39 1.32 0.90 0.44 0.35 0.32 0.30 0.23
0.01 0.03 0.09 0.17 0.12 0.18 0.34 0.44 0.53 0.93 1.01 0.75 1.19 1.31 0.83 0.68 0.79 0.52 0.65 0.46 0.34 0.65 1.06 1.03 0.83 1.09 0.94 0.55 0.53 0.44 0.54 0.53 0.69 0.84 1.05 1.81 1.70 1.71 2.50 2.71 2.23 1.99 1.43 1.03 0.76 0.53 0.37 0.30 0.30
0.01 0.01 0.08 0.28 0.15 0.33 0.48 0.47 0.57 0.43 0.53 0.52 0.75 1.33 1.10 0.70 1.03 0.80 0.64 0.61 0.58 0.43 0.51 1.09 1.20 1.46 1.44 1.12 1.01 0.66 0.57 0.70 0.65 0.71 0.82 0.76 1.01 1.38 1.49 1.95 2.38 1.96 1.74 1.11 0.68 0.55 0.51 0.51 0.46

GFSSGP_prec_precacc24_135.txt.gz
Total_Precipitation_Accumulation
0.00 0.00 0.00 0.00 0.00 0.00 0.00 0.00 0.00 0.00 0.00 0.00 0.00 0.00 0.00 0.00 0.00 0.00 0.00 0.00 0.00 0.00 0.00 0.00 0.00 0.00 0.00 0.00 0.00 0.00 0.00 0.00 0.00 0.00 0.00 0.00 0.00 0.00 0.00 0.00 0.01 0.04 0.07 0.06 0.05 0.04 0.04 0.09 0.05
0.00 0.00 0.00 0.00 0.00 0.00 0.00 0.00 0.00 0.00 0.00 0.00 0.00 0.00 0.00 0.00 0.00 0.00 0.00 0.00 0.00 0.00 0.00 0.00 0.01 0.00 0.00 0.00 0.00 0.00 0.00 0.00 0.00 0.00 0.00 0.00 0.00 0.00 0.00 0.00 0.00 0.04 0.08 0.08 0.03 0.07 0.10 0.11 0.01
0.00 0.00 0.00 0.00 0.00 0.00 0.00 0.00 0.00 0.00 0.00 0.00 0.00 0.00 0.00 0.00 0.00 0.00 0.00 0.00 0.00 0.00 0.00 0.00 0.01 0.00 0.00 0.00 0.00 0.00 0.00 0.00 0.00 0.00 0.00 0.00 0.00 0.00 0.00 0.00 0.01 0.04 0.06 0.06 0.09 0.12 0.14 0.02 0.00
0.00 0.00 0.00 0.00 0.00 0.00 0.00 0.00 0.00 0.00 0.00 0.00 0.00 0.00 0.00 0.00 0.00 0.00 0.00 0.00 0.00 0.00 0.00 0.00 0.00 0.00 0.00 0.00 0.00 0.00 0.00 0.00 0.00 0.00 0.00 0.00 0.00 0.00 0.00 0.00 0.01 0.03 0.05 0.09 0.08 0.10 0.04 0.00 0.00
0.00 0.00 0.00 0.00 0.00 0.00 0.00 0.00 0.00 0.00 0.00 0.00 0.00 0.00 0.00 0.00 0.00 0.00 0.00 0.00 0.00 0.00 0.00 0.00 0.01 0.01 0.01 0.00 0.00 0.00 0.00 0.00 0.00 0.00 0.00 0.00 0.00 0.00 0.00 0.00 0.03 0.03 0.05 0.05 0.12 0.03 0.00 0.00 0.00
0.00 0.00 0.00 0.00 0.00 0.00 0.00 0.00 0.00 0.00 0.00 0.00 0.00 0.00 0.00 0.00 0.00 0.00 0.00 0.00 0.00 0.00 0.00 0.00 0.00 0.00 0.00 0.00 0.00 0.00 0.00 0.00 0.00 0.00 0.00 0.01 0.04 0.03 0.00 0.00 0.03 0.02 0.01 0.05 0.02 0.00 0.00 0.00 0.00
0.00 0.00 0.00 0.00 0.00 0.00 0.00 0.00 0.00 0.00 0.00 0.00 0.00 0.00 0.00 0.00 0.00 0.00 0.00 0.00 0.00 0.00 0.00 0.00 0.00 0.00 0.00 0.00 0.00 0.00 0.00 0.00 0.00 0.00 0.00 0.01 0.03 0.00 0.00 0.02 0.03 0.00 0.03 0.02 0.00 0.00 0.00 0.00 0.00
0.00 0.00 0.00 0.00 0.00 0.00 0.00 0.00 0.00 0.00 0.00 0.00 0.00 0.00 0.00 0.00 0.00 0.00 0.00 0.00 0.00 0.00 0.00 0.00 0.01 0.00 0.00 0.00 0.00 0.00 0.00 0.00 0.00 0.00 0.00 0.00 0.03 0.01 0.00 0.00 0.01 0.00 0.01 0.00 0.00 0.00 0.00 0.00 0.01
0.00 0.00 0.00 0.00 0.00 0.00 0.00 0.00 0.00 0.00 0.00 0.00 0.00 0.00 0.00 0.00 0.00 0.00 0.00 0.00 0.00 0.00 0.00 0.01 0.01 0.01 0.00 0.00 0.00 0.00 0.00 0.01 0.02 0.01 0.00 0.00 0.00 0.00 0.00 0.00 0.00 0.02 0.03 0.01 0.00 0.00 0.00 0.00 0.00
0.00 0.00 0.00 0.00 0.00 0.00 0.00 0.00 0.00 0.00 0.00 0.00 0.00 0.00 0.00 0.00 0.00 0.00 0.00 0.00 0.00 0.00 0.00 0.00 0.01 0.06 0.06 0.00 0.00 0.01 0.01 0.00 0.00 0.00 0.00 0.00 0.01 0.03 0.02 0.00 0.00 0.00 0.01 0.00 0.00 0.00 0.00 0.00 0.00
0.00 0.00 0.00 0.00 0.00 0.00 0.00 0.00 0.00 0.00 0.00 0.00 0.00 0.00 0.00 0.00 0.00 0.00 0.00 0.00 0.00 0.00 0.00 0.00 0.00 0.04 0.14 0.17 0.06 0.03 0.03 0.02 0.01 0.01 0.02 0.01 0.02 0.07 0.05 0.06 0.00 0.00 0.00 0.00 0.00 0.00 0.00 0.00 0.02
0.00 0.00 0.00 0.00 0.00 0.00 0.00 0.00 0.00 0.00 0.00 0.00 0.00 0.00 0.00 0.00 0.00 0.00 0.00 0.00 0.00 0.00 0.00 0.00 0.00 0.01 0.02 0.07 0.19 0.22 0.17 0.09 0.03 0.07 0.05 0.04 0.03 0.06 0.06 0.04 0.01 0.00 0.00 0.00 0.00 0.00 0.00 0.00 0.02
0.00 0.00 0.00 0.00 0.00 0.00 0.00 0.00 0.00 0.00 0.00 0.00 0.00 0.00 0.00 0.00 0.00 0.00 0.00 0.00 0.00 0.00 0.00 0.00 0.00 0.00 0.00 0.00 0.02 0.10 0.16 0.09 0.12 0.12 0.11 0.15 0.05 0.05 0.04 0.04 0.02 0.00 0.00 0.01 0.00 0.01 0.02 0.01 0.03
0.00 0.00 0.00 0.00 0.00 0.00 0.00 0.00 0.00 0.00 0.00 0.00 0.00 0.00 0.00 0.00 0.00 0.00 0.00 0.00 0.00 0.00 0.00 0.00 0.00 0.00 0.00 0.00 0.00 0.01 0.03 0.16 0.22 0.13 0.11 0.24 0.19 0.07 0.04 0.03 0.02 0.00 0.01 0.00 0.01 0.02 0.00 0.01 0.01
0.00 0.00 0.00 0.00 0.00 0.00 0.00 0.00 0.00 0.00 0.00 0.00 0.00 0.00 0.00 0.00 0.00 0.00 0.00 0.00 0.00 0.00 0.00 0.00 0.00 0.00 0.00 0.01 0.00 0.01 0.03 0.15 0.12 0.16 0.23 0.18 0.23 0.18 0.10 0.02 0.02 0.01 0.01 0.01 0.02 0.04 0.01 0.01 0.01
0.00 0.00 0.00 0.00 0.00 0.00 0.00 0.00 0.00 0.00 0.00 0.00 0.00 0.00 0.00 0.00 0.00 0.00 0.00 0.00 0.00 0.00 0.00 0.00 0.00 0.00 0.00 0.02 0.04 0.07 0.06 0.04 0.10 0.12 0.16 0.18 0.20 0.22 0.20 0.10 0.01 0.02 0.01 0.01 0.02 0.03 0.03 0.02 0.02
0.00 0.00 0.00 0.00 0.00 0.00 0.00 0.00 0.00 0.00 0.00 0.00 0.00 0.00 0.00 0.00 0.00 0.00 0.00 0.00 0.00 0.00 0.00 0.00 0.00 0.00 0.00 0.05 0.08 0.06 0.04 0.11 0.28 0.19 0.14 0.15 0.23 0.26 0.23 0.19 0.06 0.04 0.04 0.02 0.03 0.03 0.04 0.02 0.01
0.00 0.00 0.00 0.00 0.00 0.00 0.00 0.00 0.00 0.00 0.00 0.00 0.00 0.00 0.00 0.00 0.00 0.00 0.00 0.00 0.00 0.00 0.00 0.00 0.00 0.00 0.01 0.08 0.10 0.09 0.11 0.21 0.27 0.17 0.17 0.17 0.28 0.35 0.31 0.24 0.18 0.10 0.07 0.05 0.05 0.05 0.03 0.01 0.02
0.00 0.00 0.00 0.00 0.00 0.00 0.00 0.00 0.00 0.00 0.00 0.00 0.00 0.00 0.00 0.00 0.00 0.00 0.00 0.00 0.00 0.00 0.00 0.00 0.00 0.00 0.03 0.10 0.11 0.13 0.13 0.13 0.16 0.15 0.14 0.22 0.33 0.40 0.39 0.36 0.29 0.16 0.07 0.03 0.06 0.09 0.06 0.03 0.05
0.00 0.00 0.00 0.00 0.00 0.00 0.00 0.00 0.00 0.00 0.00 0.00 0.00 0.00 0.00 0.00 0.00 0.00 0.00 0.00 0.00 0.00 0.00 0.00 0.01 0.00 0.01 0.02 0.16 0.21 0.22 0.17 0.15 0.18 0.17 0.25 0.30 0.39 0.40 0.37 0.34 0.22 0.08 0.08 0.09 0.05 0.04 0.05 0.09
0.00 0.00 0.00 0.00 0.00 0.00 0.00 0.00 0.00 0.00 0.00 0.00 0.00 0.00 0.00 0.00 0.00 0.00 0.00 0.00 0.00 0.00 0.00 0.00 0.01 0.01 0.07 0.15 0.17 0.22 0.26 0.22 0.21 0.19 0.16 0.22 0.30 0.32 0.33 0.40 0.36 0.43 0.32 0.10 0.06 0.05 0.05 0.04 0.06
0.00 0.00 0.00 0.00 0.00 0.00 0.00 0.04 0.00 0.00 0.00 0.03 0.01 0.02 0.02 0.02 0.02 0.01 0.00 0.00 0.00 0.00 0.00 0.00 0.00 0.04 0.15 0.22 0.06 0.21 0.16 0.12 0.10 0.13 0.14 0.21 0.30 0.29 0.29 0.29 0.52 0.50 0.54 0.18 0.07 0.08 0.08 0.08 0.05
0.00 0.00 0.00 0.00 0.00 0.01 0.00 0.05 0.01 0.01 0.12 0.20 0.16 0.15 0.09 0.08 0.07 0.04 0.02 0.01 0.01 0.00 0.00 0.00 0.00 0.04 0.11 0.14 0.09 0.18 0.22 0.16 0.11 0.11 0.16 0.21 0.29 0.28 0.32 0.40 0.30 0.66 0.94 0.63 0.19 0.12 0.11 0.07 0.05
0.00 0.00 0.00 0.00 0.01 0.04 0.01 0.06 0.07 0.13 0.33 0.34 0.40 0.20 0.12 0.10 0.10 0.10 0.10 0.08 0.06 0.04 0.03 0.01 0.02 0.03 0.17 0.23 0.31 0.37 0.45 0.34 0.18 0.11 0.14 0.21 0.31 0.26 0.37 0.50 0.70 0.60 0.68 0.87 0.39 0.17 0.14 0.09 0.09
0.00 0.00 0.01 0.02 0.05 0.03 0.05 0.10 0.14 0.12 0.13 0.31 0.58 0.39 0.16 0.18 0.13 0.14 0.19 0.27 0.24 0.19 0.15 0.08 0.05 0.10 0.17 0.36 0.45 0.43 0.77 1.04 0.95 0.61 0.33 0.36 0.46 0.35 0.33 0.50 0.83 0.96 0.76 0.82 0.80 0.41 0.19 0.14 0.10
0.00 0.00 0.03 0.13 0.15 0.14 0.11 0.18 0.36 0.24 0.16 0.19 0.21 0.60 0.23 0.23 0.23 0.27 0.59 0.38 0.30 0.33 0.39 0.30 0.18 0.22 0.24 0.32 0.46 0.48 0.52 0.72 1.31 1.59 1.74 1.26 0.90 0.71 0.62 0.71 0.73 0.84 0.67 0.72 0.74 0.67 0.31 0.16 0.13
0.00 0.01 0.02 0.17 0.09 0.30 0.49 0.45 0.42 0.17 0.14 0.16 0.31 0.38 0.38 0.24 0.30 0.46 0.54 0.31 0.29 0.78 1.06 0.65 0.49 0.34 0.32 0.30 0.33 0.46 0.46 0.57 1.01 1.59 1.88 2.62 2.44 1.72 1.39 1.27 0.96 0.75 0.79 0.83 0.85 0.68 0.59 0.28 0.17
0.01 0.01 0.07 0.21 0.26 0.11 0.31 0.38 0.35 0.32 0.34 0.38 0.50 0.59 0.59 0.41 0.35 0.44 0.73 0.31 0.32 1.20 1.01 0.66 0.65 0.61 0.50 0.39 0.35 0.39 0.39 0.48 0.82 1.24 2.13 2.11 2.43 2.91 2.42 1.94 1.62 1.40 1.42 1.23 0.87 0.77 0.82 0.53 0.31
0.00 0.02 0.08 0.16 0.10 0.17 0.22 0.30 0.32 0.38 0.54 0.55 0.75 0.99 0.73 0.62 0.73 0.45 0.63 0.46 0.34 0.65 1.06 1.03 0.83 1.09 0.97 0.56 0.54 0.45 0.56 0.53 0.69 0.84 1.06 1.83 1.69 1.68 2.48 2.71 2.23 1.99 1.48 1.35 1.28 0.94 0.63 0.48 0.38
0.00 0.01 0.08 0.30 0.15 0.28 0.40 0.32 0.28 0.22 0.31 0.39 0.60 1.01 0.95 0.67 1.02 0.78 0.62 0.60 0.58 0.43 0.51 1.09 1.20 1.47 1.51 1.19 1.03 0.67 0.65 0.78 0.70 0.80 0.88 0.79 0.99 1.32 1.44 1.94 2.38 1.96 1.79 1.36 1.12 1.06 1.06 0.89 0.67

GFSSGP_prec_precacc24_138.txt.gz
Total_Precipitation_Accumulation
0.00 0.00 0.00 0.00 0.00 0.00 0.00 0.00 0.00 0.00 0.00 0.00 0.00 0.00 0.00 0.00 0.00 0.00 0.00 0.00 0.00 0.00 0.00 0.00 0.00 0.00 0.00 0.00 0.00 0.00 0.00 0.00 0.00 0.00 0.00 0.00 0.00 0.00 0.00 0.00 0.00 0.04 0.06 0.06 0.04 0.04 0.04 0.08 0.03
0.00 0.00 0.00 0.00 0.00 0.00 0.00 0.00 0.00 0.00 0.00 0.00 0.00 0.00 0.00 0.00 0.00 0.00 0.00 0.00 0.00 0.00 0.00 0.00 0.01 0.00 0.00 0.00 0.00 0.00 0.00 0.00 0.00 0.00 0.00 0.00 0.00 0.00 0.00 0.00 0.01 0.04 0.08 0.08 0.03 0.06 0.08 0.08 0.01
0.00 0.00 0.00 0.00 0.00 0.00 0.00 0.00 0.00 0.00 0.00 0.00 0.00 0.00 0.00 0.00 0.00 0.00 0.00 0.00 0.00 0.00 0.00 0.00 0.01 0.00 0.00 0.00 0.00 0.00 0.00 0.00 0.00 0.00 0.00 0.00 0.00 0.00 0.00 0.00 0.01 0.04 0.07 0.07 0.09 0.13 0.14 0.02 0.00
0.00 0.00 0.00 0.00 0.00 0.00 0.00 0.00 0.00 0.00 0.00 0.00 0.00 0.00 0.00 0.00 0.00 0.00 0.00 0.00 0.00 0.00 0.00 0.00 0.00 0.00 0.00 0.00 0.00 0.00 0.00 0.00 0.00 0.00 0.00 0.00 0.00 0.00 0.00 0.00 0.02 0.05 0.08 0.08 0.08 0.11 0.04 0.00 0.00
0.00 0.00 0.00 0.00 0.00 0.00 0.00 0.00 0.00 0.00 0.00 0.00 0.00 0.00 0.00 0.00 0.00 0.00 0.00 0.00 0.00 0.00 0.00 0.00 0.01 0.01 0.01 0.00 0.00 0.01 0.01 0.00 0.00 0.00 0.00 0.00 0.00 0.00 0.00 0.00 0.08 0.08 0.08 0.06 0.15 0.04 0.00 0.00 0.00
0.00 0.00 0.00 0.00 0.00 0.00 0.00 0.00 0.00 0.00 0.00 0.00 0.00 0.00 0.00 0.00 0.00 0.00 0.00 0.00 0.00 0.00 0.00 0.00 0.00 0.00 0.00 0.00 0.00 0.00 0.04 0.06 0.02 0.00 0.00 0.01 0.04 0.03 0.00 0.00 0.05 0.06 0.04 0.06 0.03 0.00 0.00 0.00 0.00
0.00 0.00 0.00 0.00 0.00 0.00 0.00 0.00 0.00 0.00 0.00 0.00 0.00 0.00 0.00 0.00 0.00 0.00 0.00 0.00 0.00 0.00 0.00 0.00 0.00 0.00 0.00 0.00 0.00 0.00 0.00 0.02 0.05 0.03 0.00 0.01 0.03 0.00 0.00 0.02 0.03 0.03 0.06 0.03 0.00 0.00 0.00 0.00 0.00
0.00 0.00 0.00 0.00 0.00 0.00 0.00 0.00 0.00 0.00 0.00 0.00 0.00 0.00 0.00 0.00 0.00 0.00 0.00 0.00 0.00 0.00 0.00 0.00 0.01 0.00 0.00 0.00 0.00 0.00 0.01 0.01 0.04 0.04 0.04 0.04 0.03 0.01 0.00 0.00 0.01 0.01 0.03 0.00 0.00 0.00 0.00 0.00 0.01
0.00 0.00 0.00 0.00 0.00 0.00 0.00 0.00 0.00 0.00 0.00 0.00 0.00 0.00 0.00 0.00 0.00 0.00 0.00 0.00 0.00 0.00 0.00 0.01 0.01 0.01 0.00 0.00 0.00 0.00 0.00 0.01 0.04 0.05 0.12 0.10 0.06 0.02 0.00 0.00 0.00 0.02 0.04 0.02 0.00 0.00 0.00 0.00 0.00
0.00 0.00 0.00 0.00 0.00 0.00 0.00 0.00 0.00 0.00 0.00 0.00 0.00 0.00 0.00 0.00 0.00 0.00 0.00 0.00 0.00 0.00 0.00 0.00 0.01 0.06 0.06 0.00 0.00 0.01 0.01 0.01 0.01 0.04 0.06 0.10 0.10 0.07 0.07 0.01 0.00 0.01 0.01 0.00 0.00 0.00 0.00 0.00 0.00
0.00 0.00 0.00 0.00 0.00 0.00 0.00 0.00 0.00 0.00 0.00 0.00 0.00 0.00 0.00 0.00 0.00 0.00 0.00 0.00 0.00 0.00 0.00 0.00 0.00 0.04 0.14 0.17 0.06 0.03 0.03 0.02 0.01 0.03 0.07 0.09 0.08 0.13 0.10 0.09 0.01 0.02 0.03 0.01 0.00 0.00 0.00 0.00 0.02
0.00 0.00 0.00 0.00 0.00 0.00 0.00 0.00 0.00 0.00 0.00 0.00 0.00 0.00 0.00 0.00 0.00 0.00 0.00 0.00 0.00 0.00 0.00 0.00 0.00 0.01 0.02 0.07 0.19 0.22 0.17 0.09 0.03 0.08 0.06 0.07 0.10 0.11 0.10 0.07 0.03 0.01 0.01 0.01 0.00 0.00 0.00 0.00 0.02
0.00 0.00 0.00 0.00 0.00 0.00 0.00 0.00 0.00 0.00 0.00 0.00 0.00 0.00 0.00 0.00 0.00 0.00 0.00 0.00 0.00 0.00 0.00 0.00 0.00 0.00 0.00 0.00 0.02 0.10 0.16 0.09 0.12 0.12 0.11 0.18 0.12 0.10 0.10 0.09 0.07 0.02 0.01 0.01 0.01 0.01 0.02 0.01 0.03
0.00 0.00 0.00 0.00 0.00 0.00 0.00 0.00 0.00 0.00 0.00 0.00 0.00 0.00 0.00 0.00 0.00 0.00 0.00 0.00 0.00 0.00 0.00 0.00 0.00 0.00 0.00 0.00 0.00 0.01 0.03 0.16 0.22 0.13 0.11 0.25 0.23 0.16 0.19 0.14 0.10 0.05 0.02 0.02 0.01 0.02 0.01 0.01 0.01
0.00 0.00 0.00 0.00 0.00 0.00 0.00 0.00 0.00 0.00 0.00 0.00 0.00 0.00 0.00 0.00 0.00 0.00 0.00 0.00 0.00 0.00 0.00 0.00 0.00 0.00 0.00 0.01 0.00 0.01 0.03 0.15 0.12 0.16 0.23 0.19 0.24 0.21 0.21 0.22 0.18 0.07 0.03 0.03 0.04 0.05 0.02 0.01 0.01
0.00 0.00 0.00 0.00 0.00 0.00 0.00 0.00 0.00 0.00 0.00 0.00 0.00 0.00 0.00 0.00 0.00 0.00 0.00 0.00 0.00 0.00 0.00 0.00 0.00 0.00 0.00 0.02 0.04 0.07 0.06 0.04 0.10 0.12 0.16 0.18 0.21 0.23 0.23 0.23 0.19 0.15 0.08 0.04 0.04 0.04 0.04 0.02 0.02
0.00 0.00 0.00 0.00 0.00 0.00 0.00 0.00 0.00 0.00 0.00 0.00 0.00 0.00 0.00 0.00 0.00 0.00 0.00 0.00 0.00 0.00 0.00 0.00 0.00 0.00 0.00 0.05 0.08 0.06 0.04 0.11 0.28 0.19 0.14 0.15 0.23 0.27 0.23 0.22 0.16 0.21 0.19 0.07 0.05 0.05 0.06 0.03 0.02
0.00 0.00 0.00 0.00 0.00 0.00 0.00 0.00 0.00 0.00 0.00 0.00 0.00 0.00 0.00 0.00 0.00 0.00 0.00 0.00 0.00 0.00 0.00 0.00 0.00 0.00 0.01 0.07 0.09 0.09 0.11 0.21 0.27 0.17 0.17 0.17 0.28 0.35 0.31 0.27 0.30 0.28 0.19 0.12 0.08 0.09 0.08 0.04 0.03
0.00 0.00 0.00 0.00 0.00 0.00 0.00 0.00 0.00 0.00 0.00 0.00 0.00 0.00 0.00 0.00 0.00 0.00 0.00 0.00 0.00 0.00 0.00 0.00 0.00 0.00 0.03 0.10 0.11 0.13 0.13 0.13 0.16 0.15 0.14 0.22 0.33 0.40 0.39 0.37 0.39 0.44 0.45 0.31 0.11 0.13 0.12 0.06 0.10
0.00 0.00 0.00 0.00 0.00 0.00 0.00 0.00 0.00 0.00 0.00 0.00 0.00 0.00 0.00 0.00 0.00 0.00 0.00 0.00 0.00 0.00 0.00 0.00 0.01 0.00 0.00 0.02 0.14 0.20 0.22 0.17 0.15 0.18 0.17 0.25 0.30 0.39 0.40 0.37 0.36 0.41 0.60 0.72 0.45 0.11 0.05 0.08 0.16
0.00 0.00 0.00 0.00 0.00 0.00 0.00 0.00 0.00 0.00 0.00 0.00 0.00 0.00 0.00 0.00 0.00 0.00 0.00 0.00 0.00 0.00 0.00 0.00 0.01 0.01 0.05 0.13 0.14 0.19 0.25 0.22 0.20 0.19 0.16 0.22 0.30 0.32 0.33 0.40 0.36 0.48 0.67 0.79 0.65 0.22 0.07 0.05 0.12
0.00 0.00 0.00 0.00 0.00 0.00 0.00 0.01 0.00 0.00 0.00 0.01 0.01 0.02 0.02 0.02 0.02 0.01 0.00 0.00 0.00 0.00 0.00 0.00 0.00 0.04 0.15 0.22 0.05 0.19 0.15 0.12 0.10 0.13 0.13 0.21 0.30 0.29 0.29 0.29 0.52 0.51 0.73 0.94 0.82 0.65 0.28 0.19 0.12
0.00 0.00 0.00 0.00 0.00 0.00 0.00 0.02 0.01 0.01 0.08 0.12 0.14 0.14 0.09 0.08 0.07 0.04 0.02 0.01 0.01 0.00 0.00 0.00 0.00 0.04 0.11 0.14 0.08 0.18 0.21 0.13 0.10 0.11 0.15 0.18 0.28 0.28 0.32 0.40 0.30 0.66 0.95 0.98 1.01 1.10 0.72 0.27 0.18
0.00 0.00 0.00 0.00 0.00 0.01 0.00 0.06 0.06 0.09 0.22 0.28 0.36 0.18 0.11 0.10 0.10 0.10 0.10 0.08 0.06 0.04 0.03 0.01 0.01 0.03 0.16 0.22 0.29 0.37 0.45 0.35 0.19 0.11 0.14 0.20 0.30 0.26 0.37 0.50 0.70 0.60 0.68 0.94 0.95 1.06 0.91 0.57 0.31
0.00 0.00 0.00 0.01 0.03 0.02 0.05 0.10 0.13 0.10 0.11 0.25 0.52 0.36 0.15 0.17 0.12 0.14 0.19 0.27 0.24 0.19 0.15 0.08 0.05 0.10 0.17 0.34 0.43 0.41 0.76 1.04 0.95 0.61 0.34 0.37 0.47 0.36 0.33 0.51 0.82 0.96 0.76 0.81 0.88 0.84 1.07 0.77 0.43
0.00 0.00 0.02 0.06 0.03 0.02 0.08 0.13 0.24 0.17 0.12 0.15 0.19 0.58 0.20 0.22 0.22 0.26 0.58 0.38 0.30 0.33 0.39 0.30 0.18 0.21 0.23 0.31 0.43 0.47 0.51 0.72 1.32 1.59 1.76 1.27 0.91 0.72 0.62 0.71 0.73 0.84 0.67 0.71 0.74 0.86 0.86 0.90 0.86
0.00 0.00 0.00 0.08 0.03 0.13 0.31 0.17 0.21 0.07 0.04 0.06 0.18 0.34 0.37 0.22 0.28 0.44 0.53 0.31 0.29 0.78 1.06 0.65 0.49 0.34 0.32 0.30 0.33 0.46 0.47 0.58 1.01 1.57 1.85 2.59 2.41 1.72 1.37 1.25 0.96 0.75 0.79 0.82 0.85 0.68 0.78 0.74 0.66
0.00 0.00 0.05 0.15 0.19 0.12 0.13 0.10 0.10 0.10 0.11 0.12 0.18 0.36 0.49 0.39 0.34 0.42 0.71 0.30 0.31 1.19 1.01 0.66 0.65 0.61 0.50 0.40 0.36 0.40 0.40 0.50 0.84 1.24 2.14 2.12 2.44 2.90 2.43 1.92 1.61 1.39 1.42 1.23 0.87 0.77 0.84 0.85 0.70
0.00 0.02 0.08 0.15 0.09 0.17 0.19 0.21 0.17 0.17 0.17 0.18 0.25 0.32 0.49 0.54 0.69 0.43 0.61 0.40 0.33 0.65 1.06 1.03 0.83 1.09 0.97 0.57 0.56 0.47 0.59 0.57 0.70 0.86 1.11 1.91 1.77 1.76 2.52 2.70 2.22 1.98 1.47 1.35 1.28 0.94 0.68 0.69 0.87
0.00 0.01 0.07 0.29 0.18 0.32 0.34 0.23 0.14 0.10 0.13 0.18 0.29 0.39 0.54 0.51 0.90 0.61 0.50 0.53 0.51 0.42 0.51 1.09 1.20 1.47 1.51 1.20 1.06 0.70 0.69 0.82 0.72 0.83 0.92 0.88 1.07 1.36 1.43 1.89 2.35 1.94 1.76 1.34 1.11 1.05 1.08 1.04 0.93

GFSSGP_prec_precacc24_141.txt.gz
Total_Precipitation_Accumulation
0.00 0.00 0.00 0.00 0.00 0.00 0.00 0.00 0.00 0.00 0.00 0.00 0.00 0.00 0.00 0.00 0.00 0.00 0.02 0.07 0.01 0.00 0.00 0.00 0.00 0.00 0.00 0.00 0.00 0.00 0.00 0.00 0.00 0.00 0.00 0.00 0.00 0.00 0.00 0.00 0.00 0.04 0.06 0.06 0.04 0.04 0.04 0.06 0.02
0.00 0.00 0.00 0.00 0.00 0.00 0.00 0.00 0.00 0.00 0.00 0.00 0.00 0.00 0.00 0.00 0.00 0.00 0.00 0.01 0.01 0.00 0.00 0.00 0.01 0.00 0.00 0.00 0.00 0.00 0.00 0.00 0.00 0.00 0.00 0.00 0.00 0.00 0.00 0.00 0.03 0.05 0.08 0.08 0.03 0.06 0.08 0.08 0.01
0.00 0.00 0.00 0.00 0.00 0.00 0.00 0.00 0.00 0.00 0.00 0.00 0.00 0.00 0.00 0.00 0.00 0.00 0.00 0.00 0.00 0.00 0.00 0.00 0.01 0.00 0.00 0.00 0.00 0.00 0.00 0.00 0.00 0.00 0.00 0.00 0.00 0.00 0.00 0.00 0.03 0.05 0.08 0.07 0.09 0.12 0.14 0.02 0.00
0.00 0.00 0.00 0.00 0.00 0.00 0.00 0.00 0.00 0.00 0.00 0.00 0.00 0.00 0.00 0.00 0.00 0.00 0.00 0.00 0.00 0.00 0.00 0.00 0.00 0.00 0.00 0.00 0.00 0.02 0.04 0.01 0.00 0.00 0.00 0.00 0.01 0.03 0.01 0.00 0.02 0.06 0.09 0.08 0.08 0.11 0.04 0.00 0.00
0.00 0.00 0.00 0.00 0.00 0.00 0.00 0.00 0.00 0.00 0.00 0.00 0.00 0.00 0.00 0.00 0.00 0.00 0.00 0.00 0.00 0.00 0.00 0.00 0.01 0.01 0.01 0.00 0.00 0.02 0.06 0.06 0.03 0.01 0.00 0.00 0.01 0.02 0.02 0.02 0.08 0.08 0.08 0.07 0.16 0.05 0.00 0.00 0.00
0.00 0.00 0.00 0.00 0.00 0.00 0.00 0.00 0.00 0.00 0.00 0.00 0.00 0.00 0.00 0.00 0.00 0.00 0.00 0.00 0.00 0.00 0.00 0.00 0.00 0.00 0.00 0.00 0.00 0.01 0.05 0.09 0.09 0.05 0.08 0.04 0.05 0.03 0.01 0.02 0.07 0.08 0.05 0.08 0.04 0.00 0.00 0.00 0.00
0.00 0.00 0.00 0.00 0.00 0.00 0.00 0.00 0.00 0.00 0.00 0.00 0.00 0.00 0.00 0.00 0.00 0.00 0.00 0.00 0.00 0.00 0.00 0.00 0.00 0.00 0.00 0.00 0.00 0.00 0.02 0.04 0.07 0.07 0.10 0.14 0.12 0.05 0.00 0.02 0.06 0.05 0.07 0.04 0.01 0.00 0.00 0.00 0.00
0.00 0.00 0.00 0.00 0.00 0.00 0.00 0.00 0.00 0.00 0.00 0.00 0.00 0.00 0.00 0.00 0.00 0.00 0.00 0.00 0.00 0.00 0.00 0.00 0.01 0.00 0.00 0.00 0.00 0.00 0.01 0.02 0.06 0.06 0.11 0.14 0.16 0.15 0.08 0.02 0.01 0.03 0.06 0.02 0.02 0.01 0.00 0.00 0.01
0.00 0.00 0.00 0.00 0.00 0.00 0.00 0.00 0.00 0.00 0.00 0.00 0.00 0.00 0.00 0.00 0.00 0.00 0.00 0.00 0.00 0.00 0.00 0.01 0.01 0.01 0.00 0.00 0.00 0.00 0.00 0.01 0.05 0.07 0.16 0.14 0.15 0.19 0.15 0.09 0.04 0.04 0.08 0.05 0.04 0.03 0.00 0.00 0.00
0.00 0.00 0.00 0.00 0.00 0.00 0.00 0.00 0.00 0.00 0.00 0.00 0.00 0.00 0.00 0.00 0.00 0.00 0.00 0.00 0.00 0.00 0.00 0.00 0.01 0.06 0.06 0.00 0.00 0.01 0.01 0.01 0.01 0.05 0.11 0.16 0.15 0.22 0.18 0.12 0.13 0.10 0.09 0.05 0.05 0.03 0.01 0.00 0.00
0.00 0.00 0.00 0.00 0.00 0.00 0.00 0.00 0.00 0.00 0.00 0.00 0.00 0.00 0.00 0.00 0.00 0.00 0.00 0.00 0.00 0.00 0.00 0.00 0.00 0.04 0.14 0.17 0.06 0.03 0.03 0.02 0.01 0.03 0.08 0.10 0.08 0.15 0.17 0.14 0.09 0.08 0.13 0.06 0.06 0.04 0.00 0.00 0.02
0.00 0.00 0.00 0.00 0.00 0.00 0.00 0.00 0.00 0.00 0.00 0.00 0.00 0.00 0.00 0.00 0.00 0.00 0.00 0.00 0.00 0.00 0.00 0.00 0.00 0.01 0.02 0.07 0.19 0.22 0.17 0.08 0.03 0.08 0.06 0.07 0.11 0.14 0.12 0.10 0.06 0.06 0.02 0.02 0.02 0.01 0.00 0.00 0.02
0.00 0.00 0.00 0.00 0.00 0.00 0.00 0.00 0.00 0.00 0.00 0.00 0.00 0.00 0.00 0.00 0.00 0.00 0.00 0.00 0.00 0.00 0.00 0.00 0.00 0.00 0.00 0.00 0.02 0.09 0.16 0.08 0.12 0.12 0.11 0.18 0.12 0.10 0.11 0.11 0.12 0.10 0.05 0.03 0.02 0.02 0.02 0.02 0.03
0.00 0.00 0.00 0.00 0.00 0.00 0.00 0.00 0.00 0.00 0.00 0.00 0.00 0.00 0.00 0.00 0.00 0.00 0.00 0.00 0.00 0.00 0.00 0.00 0.00 0.00 0.00 0.00 0.00 0.01 0.03 0.16 0.22 0.13 0.11 0.25 0.23 0.16 0.20 0.16 0.14 0.12 0.08 0.05 0.03 0.03 0.02 0.02 0.01
0.00 0.00 0.00 0.00 0.00 0.00 0.00 0.00 0.00 0.00 0.00 0.00 0.00 0.00 0.00 0.00 0.00 0.00 0.00 0.00 0.00 0.00 0.00 0.00 0.00 0.00 0.00 0.01 0.00 0.01 0.03 0.15 0.12 0.16 0.23 0.19 0.24 0.21 0.21 0.23 0.19 0.13 0.09 0.09 0.09 0.08 0.03 0.02 0.02
0.00 0.00 0.00 0.00 0.00 0.00 0.00 0.00 0.00 0.00 0.00 0.00 0.00 0.00 0.00 0.00 0.00 0.00 0.00 0.00 0.00 0.00 0.00 0.00 0.00 0.00 0.00 0.02 0.04 0.07 0.06 0.04 0.10 0.12 0.16 0.18 0.21 0.23 0.23 0.23 0.20 0.16 0.12 0.09 0.10 0.11 0.07 0.03 0.03
0.00 0.00 0.00 0.00 0.00 0.00 0.00 0.00 0.00 0.00 0.00 0.00 0.00 0.00 0.00 0.00 0.00 0.00 0.00 0.00 0.00 0.00 0.00 0.00 0.00 0.00 0.00 0.05 0.08 0.06 0.04 0.11 0.28 0.19 0.14 0.15 0.23 0.27 0.23 0.22 0.16 0.21 0.21 0.15 0.16 0.19 0.14 0.06 0.03
0.00 0.00 0.00 0.00 0.00 0.00 0.00 0.00 0.00 0.00 0.00 0.00 0.00 0.00 0.00 0.00 0.00 0.00 0.00 0.00 0.00 0.00 0.00 0.00 0.00 0.00 0.01 0.07 0.09 0.08 0.11 0.21 0.27 0.17 0.17 0.17 0.28 0.35 0.31 0.27 0.30 0.28 0.20 0.21 0.35 0.33 0.21 0.08 0.04
0.00 0.00 0.00 0.00 0.00 0.00 0.00 0.00 0.00 0.00 0.00 0.00 0.00 0.00 0.00 0.00 0.00 0.00 0.00 0.00 0.00 0.00 0.00 0.00 0.00 0.00 0.03 0.10 0.11 0.12 0.11 0.13 0.16 0.15 0.14 0.22 0.33 0.40 0.39 0.37 0.39 0.44 0.46 0.37 0.33 0.41 0.50 0.24 0.15
0.00 0.00 0.00 0.00 0.00 0.00 0.00 0.00 0.00 0.00 0.00 0.00 0.00 0.00 0.00 0.00 0.00 0.00 0.00 0.00 0.00 0.00 0.00 0.00 0.00 0.00 0.00 0.02 0.07 0.14 0.19 0.17 0.15 0.18 0.17 0.25 0.30 0.39 0.40 0.38 0.36 0.41 0.61 0.73 0.77 0.72 0.67 0.34 0.26
0.00 0.00 0.00 0.00 0.00 0.00 0.00 0.00 0.00 0.00 0.00 0.00 0.00 0.00 0.00 0.00 0.00 0.00 0.00 0.00 0.00 0.00 0.00 0.00 0.00 0.00 0.00 0.00 0.03 0.14 0.23 0.21 0.20 0.19 0.16 0.22 0.30 0.32 0.33 0.40 0.37 0.48 0.67 0.80 0.76 0.82 0.85 0.86 0.69
0.00 0.00 0.00 0.00 0.00 0.00 0.00 0.00 0.00 0.00 0.00 0.01 0.01 0.02 0.02 0.02 0.02 0.01 0.00 0.00 0.00 0.00 0.00 0.00 0.00 0.01 0.03 0.03 0.03 0.14 0.13 0.12 0.11 0.13 0.14 0.21 0.30 0.29 0.29 0.29 0.52 0.51 0.73 0.95 0.85 0.75 0.65 0.74 0.66
0.00 0.00 0.00 0.00 0.00 0.00 0.00 0.00 0.01 0.00 0.00 0.02 0.05 0.11 0.07 0.06 0.05 0.03 0.02 0.01 0.01 0.00 0.00 0.00 0.00 0.04 0.10 0.12 0.07 0.17 0.19 0.11 0.10 0.11 0.15 0.18 0.26 0.28 0.32 0.40 0.30 0.66 0.95 0.98 1.01 1.13 0.99 0.71 0.61
0.00 0.00 0.00 0.00 0.00 0.01 0.00 0.06 0.06 0.05 0.06 0.02 0.05 0.10 0.06 0.07 0.08 0.08 0.10 0.08 0.06 0.04 0.03 0.01 0.01 0.03 0.16 0.21 0.27 0.36 0.45 0.35 0.19 0.12 0.14 0.20 0.30 0.26 0.38 0.50 0.70 0.60 0.68 0.94 0.95 1.06 0.99 0.99 0.85
0.00 0.00 0.00 0.01 0.03 0.02 0.02 0.07 0.09 0.05 0.04 0.05 0.07 0.15 0.10 0.13 0.08 0.10 0.18 0.27 0.24 0.19 0.15 0.08 0.05 0.10 0.17 0.34 0.42 0.41 0.76 1.04 0.96 0.62 0.34 0.37 0.47 0.36 0.34 0.51 0.83 0.96 0.76 0.81 0.88 0.84 1.07 0.90 0.80
0.00 0.00 0.01 0.01 0.00 0.00 0.01 0.04 0.07 0.06 0.05 0.05 0.06 0.19 0.10 0.18 0.18 0.23 0.57 0.38 0.30 0.33 0.39 0.30 0.18 0.21 0.23 0.31 0.43 0.46 0.51 0.72 1.31 1.60 1.75 1.23 0.90 0.71 0.61 0.71 0.73 0.83 0.66 0.71 0.74 0.86 0.85 0.90 0.92
0.00 0.00 0.00 0.04 0.02 0.05 0.08 0.06 0.06 0.00 0.01 0.02 0.06 0.15 0.22 0.16 0.26 0.43 0.51 0.30 0.28 0.77 1.05 0.65 0.49 0.34 0.32 0.30 0.32 0.46 0.46 0.58 0.99 1.53 1.77 2.55 2.37 1.66 1.31 1.20 0.96 0.74 0.79 0.82 0.84 0.68 0.77 0.73 0.67
0.00 0.00 0.03 0.13 0.17 0.10 0.10 0.08 0.04 0.02 0.02 0.02 0.04 0.10 0.32 0.27 0.23 0.40 0.70 0.29 0.31 1.19 1.00 0.66 0.65 0.61 0.50 0.40 0.36 0.41 0.40 0.48 0.80 1.15 2.07 2.03 2.38 2.83 2.32 1.85 1.59 1.38 1.38 1.21 0.86 0.76 0.84 0.85 0.68
0.00 0.02 0.05 0.12 0.08 0.14 0.16 0.16 0.07 0.06 0.06 0.06 0.08 0.11 0.24 0.36 0.49 0.31 0.57 0.40 0.33 0.64 1.06 1.03 0.83 1.09 0.97 0.57 0.56 0.48 0.59 0.58 0.71 0.87 1.11 1.92 1.77 1.75 2.46 2.61 2.19 1.95 1.42 1.33 1.26 0.93 0.68 0.69 0.87
0.00 0.01 0.05 0.25 0.17 0.30 0.32 0.18 0.06 0.04 0.06 0.06 0.09 0.13 0.16 0.26 0.66 0.44 0.41 0.50 0.49 0.40 0.51 1.09 1.20 1.47 1.51 1.20 1.06 0.71 0.70 0.84 0.75 0.88 0.96 0.93 1.17 1.37 1.40 1.87 2.32 1.89 1.71 1.29 1.08 1.04 1.08 1.03 0.93

GFSSGP_prec_precacc24_144.txt.gz
Total_Precipitation_Accumulation
0.00 0.00 0.00 0.00 0.00 0.00 0.00 0.00 0.00 0.00 0.00 0.00 0.00 0.00 0.00 0.00 0.00 0.00 0.03 0.15 0.03 0.00 0.00 0.00 0.00 0.00 0.00 0.00 0.00 0.00 0.00 0.00 0.00 0.00 0.00 0.00 0.00 0.00 0.00 0.00 0.00 0.03 0.05 0.06 0.04 0.04 0.04 0.06 0.02
0.00 0.00 0.00 0.00 0.00 0.00 0.00 0.00 0.00 0.00 0.00 0.00 0.00 0.00 0.00 0.00 0.00 0.00 0.01 0.04 0.01 0.00 0.01 0.02 0.02 0.00 0.00 0.00 0.00 0.00 0.00 0.00 0.00 0.00 0.00 0.02 0.02 0.02 0.02 0.01 0.03 0.06 0.09 0.08 0.03 0.06 0.08 0.07 0.01
0.00 0.00 0.00 0.00 0.00 0.00 0.00 0.00 0.00 0.00 0.00 0.00 0.00 0.00 0.00 0.00 0.00 0.00 0.00 0.00 0.00 0.00 0.00 0.00 0.01 0.00 0.00 0.00 0.00 0.01 0.00 0.00 0.00 0.00 0.01 0.07 0.07 0.07 0.08 0.07 0.05 0.07 0.12 0.09 0.08 0.11 0.13 0.02 0.00
0.00 0.00 0.00 0.00 0.00 0.00 0.00 0.00 0.00 0.00 0.00 0.00 0.00 0.00 0.00 0.00 0.00 0.00 0.00 0.00 0.00 0.00 0.00 0.00 0.00 0.00 0.00 0.00 0.00 0.02 0.05 0.01 0.00 0.00 0.02 0.05 0.07 0.07 0.06 0.08 0.08 0.11 0.14 0.10 0.08 0.11 0.04 0.00 0.00
0.00 0.00 0.00 0.00 0.00 0.00 0.00 0.00 0.00 0.00 0.00 0.00 0.00 0.00 0.00 0.00 0.00 0.00 0.00 0.00 0.00 0.00 0.00 0.00 0.01 0.01 0.01 0.00 0.00 0.02 0.06 0.07 0.03 0.02 0.06 0.07 0.06 0.06 0.04 0.05 0.13 0.15 0.09 0.07 0.16 0.05 0.00 0.00 0.00
0.00 0.00 0.00 0.00 0.00 0.00 0.00 0.00 0.00 0.00 0.00 0.00 0.00 0.00 0.00 0.00 0.00 0.00 0.00 0.00 0.00 0.00 0.00 0.00 0.00 0.00 0.00 0.00 0.00 0.01 0.05 0.09 0.09 0.05 0.10 0.12 0.14 0.10 0.07 0.05 0.08 0.10 0.07 0.09 0.04 0.00 0.00 0.00 0.00
0.00 0.00 0.00 0.00 0.00 0.00 0.00 0.00 0.00 0.00 0.00 0.00 0.00 0.00 0.00 0.00 0.00 0.00 0.00 0.00 0.00 0.00 0.00 0.00 0.00 0.00 0.00 0.00 0.00 0.00 0.02 0.04 0.07 0.07 0.10 0.14 0.14 0.10 0.07 0.07 0.09 0.07 0.08 0.06 0.02 0.00 0.00 0.00 0.00
0.00 0.00 0.00 0.00 0.00 0.00 0.00 0.00 0.00 0.00 0.00 0.00 0.00 0.00 0.00 0.00 0.00 0.00 0.00 0.00 0.00 0.00 0.00 0.00 0.01 0.00 0.00 0.00 0.00 0.00 0.01 0.02 0.06 0.06 0.11 0.14 0.16 0.16 0.10 0.09 0.07 0.07 0.09 0.04 0.03 0.02 0.00 0.00 0.00
0.00 0.00 0.00 0.00 0.00 0.00 0.00 0.00 0.00 0.00 0.00 0.00 0.00 0.00 0.00 0.00 0.00 0.00 0.00 0.00 0.00 0.00 0.00 0.01 0.01 0.01 0.00 0.00 0.00 0.00 0.00 0.01 0.05 0.07 0.16 0.16 0.18 0.22 0.17 0.11 0.11 0.12 0.12 0.08 0.06 0.03 0.01 0.00 0.00
0.00 0.00 0.00 0.00 0.00 0.00 0.00 0.00 0.00 0.00 0.00 0.00 0.00 0.00 0.00 0.00 0.00 0.00 0.00 0.00 0.00 0.00 0.00 0.00 0.01 0.06 0.06 0.00 0.00 0.01 0.01 0.01 0.01 0.05 0.11 0.16 0.14 0.23 0.22 0.14 0.14 0.12 0.14 0.10 0.13 0.05 0.04 0.01 0.00
0.00 0.00 0.00 0.00 0.00 0.00 0.00 0.00 0.00 0.00 0.00 0.00 0.00 0.00 0.00 0.00 0.00 0.00 0.00 0.00 0.00 0.00 0.00 0.00 0.00 0.04 0.14 0.17 0.06 0.03 0.03 0.02 0.01 0.03 0.07 0.10 0.07 0.13 0.19 0.17 0.16 0.13 0.20 0.15 0.13 0.10 0.05 0.00 0.01
0.00 0.00 0.00 0.00 0.00 0.00 0.00 0.00 0.00 0.00 0.00 0.00 0.00 0.00 0.00 0.00 0.00 0.00 0.00 0.00 0.00 0.00 0.00 0.00 0.00 0.01 0.02 0.07 0.19 0.22 0.17 0.08 0.02 0.08 0.06 0.07 0.10 0.13 0.12 0.10 0.08 0.12 0.11 0.08 0.08 0.06 0.04 0.02 0.02
0.00 0.00 0.00 0.00 0.00 0.00 0.00 0.00 0.00 0.00 0.00 0.00 0.00 0.00 0.00 0.00 0.00 0.00 0.00 0.00 0.00 0.00 0.00 0.00 0.00 0.00 0.00 0.00 0.02 0.09 0.16 0.08 0.12 0.12 0.11 0.17 0.12 0.10 0.11 0.11 0.13 0.11 0.10 0.10 0.08 0.08 0.09 0.07 0.06
0.00 0.00 0.00 0.00 0.00 0.00 0.00 0.00 0.00 0.00 0.00 0.00 0.00 0.00 0.00 0.00 0.00 0.00 0.00 0.00 0.00 0.00 0.00 0.00 0.00 0.00 0.00 0.00 0.00 0.01 0.03 0.16 0.21 0.13 0.11 0.25 0.23 0.16 0.20 0.15 0.14 0.13 0.09 0.07 0.08 0.08 0.06 0.09 0.06
0.00 0.00 0.00 0.00 0.00 0.00 0.00 0.00 0.00 0.00 0.00 0.00 0.00 0.00 0.00 0.00 0.00 0.00 0.00 0.00 0.00 0.00 0.00 0.00 0.00 0.00 0.00 0.01 0.00 0.01 0.03 0.15 0.11 0.16 0.23 0.19 0.24 0.21 0.21 0.22 0.19 0.12 0.09 0.10 0.10 0.15 0.13 0.11 0.08
0.00 0.00 0.00 0.00 0.00 0.00 0.00 0.00 0.00 0.00 0.00 0.00 0.00 0.00 0.00 0.00 0.00 0.00 0.00 0.00 0.00 0.00 0.00 0.00 0.00 0.00 0.00 0.02 0.04 0.07 0.06 0.04 0.10 0.12 0.16 0.17 0.21 0.23 0.23 0.23 0.20 0.16 0.12 0.10 0.12 0.14 0.15 0.10 0.06
0.00 0.00 0.00 0.00 0.00 0.00 0.00 0.00 0.00 0.00 0.00 0.00 0.00 0.00 0.00 0.00 0.00 0.00 0.00 0.00 0.00 0.00 0.00 0.00 0.00 0.00 0.00 0.05 0.08 0.06 0.04 0.11 0.28 0.19 0.14 0.15 0.23 0.27 0.23 0.22 0.16 0.21 0.21 0.14 0.18 0.22 0.21 0.14 0.07
0.00 0.00 0.00 0.00 0.00 0.00 0.00 0.00 0.00 0.00 0.00 0.00 0.00 0.00 0.00 0.00 0.00 0.00 0.00 0.00 0.00 0.00 0.00 0.00 0.00 0.00 0.01 0.07 0.09 0.08 0.11 0.21 0.27 0.17 0.17 0.17 0.28 0.35 0.31 0.27 0.30 0.28 0.20 0.21 0.36 0.35 0.29 0.18 0.08
0.00 0.00 0.00 0.00 0.00 0.00 0.00 0.00 0.00 0.00 0.00 0.00 0.00 0.00 0.00 0.00 0.00 0.00 0.00 0.00 0.00 0.00 0.00 0.00 0.00 0.00 0.02 0.10 0.11 0.12 0.11 0.13 0.16 0.15 0.14 0.22 0.33 0.40 0.39 0.37 0.39 0.44 0.45 0.37 0.33 0.42 0.54 0.32 0.31
0.00 0.00 0.00 0.00 0.00 0.00 0.00 0.00 0.00 0.00 0.00 0.00 0.00 0.00 0.00 0.00 0.00 0.00 0.00 0.00 0.00 0.00 0.00 0.00 0.00 0.00 0.00 0.02 0.07 0.14 0.19 0.17 0.15 0.18 0.17 0.25 0.30 0.39 0.40 0.38 0.36 0.42 0.61 0.73 0.77 0.73 0.69 0.41 0.44
0.00 0.00 0.00 0.00 0.00 0.00 0.00 0.00 0.00 0.00 0.00 0.00 0.00 0.00 0.00 0.00 0.00 0.00 0.00 0.00 0.00 0.00 0.00 0.00 0.00 0.00 0.00 0.00 0.03 0.14 0.22 0.21 0.20 0.19 0.17 0.22 0.30 0.32 0.34 0.40 0.37 0.49 0.68 0.80 0.76 0.82 0.86 0.88 0.83
0.00 0.00 0.00 0.00 0.00 0.00 0.00 0.00 0.00 0.00 0.00 0.00 0.00 0.00 0.00 0.00 0.01 0.01 0.00 0.00 0.00 0.00 0.00 0.00 0.00 0.00 0.01 0.01 0.03 0.14 0.13 0.11 0.11 0.13 0.14 0.21 0.30 0.30 0.29 0.29 0.52 0.51 0.73 0.95 0.86 0.76 0.66 0.76 0.77
0.00 0.00 0.00 0.00 0.00 0.00 0.00 0.00 0.01 0.00 0.00 0.00 0.00 0.00 0.00 0.00 0.01 0.02 0.01 0.01 0.01 0.00 0.00 0.00 0.00 0.00 0.04 0.09 0.05 0.14 0.19 0.11 0.10 0.11 0.15 0.18 0.26 0.28 0.33 0.40 0.30 0.66 0.95 0.98 1.01 1.13 1.00 0.72 0.63
0.00 0.00 0.00 0.00 0.00 0.01 0.00 0.03 0.04 0.02 0.01 0.00 0.00 0.00 0.00 0.01 0.01 0.03 0.04 0.04 0.04 0.03 0.02 0.01 0.01 0.02 0.03 0.09 0.16 0.21 0.31 0.33 0.20 0.12 0.14 0.20 0.30 0.26 0.38 0.50 0.71 0.61 0.69 0.94 0.95 1.06 0.99 1.01 0.86
0.00 0.00 0.00 0.01 0.03 0.02 0.01 0.03 0.04 0.00 0.00 0.01 0.01 0.01 0.01 0.02 0.02 0.03 0.08 0.16 0.15 0.14 0.12 0.08 0.04 0.08 0.09 0.19 0.21 0.29 0.57 0.92 0.96 0.62 0.35 0.37 0.45 0.35 0.33 0.51 0.83 0.97 0.76 0.82 0.88 0.84 1.08 0.92 0.83
0.00 0.00 0.00 0.00 0.00 0.00 0.00 0.02 0.01 0.00 0.00 0.00 0.00 0.01 0.02 0.02 0.07 0.11 0.39 0.29 0.20 0.26 0.35 0.27 0.17 0.21 0.22 0.27 0.31 0.40 0.43 0.70 1.32 1.60 1.75 1.24 0.90 0.72 0.60 0.65 0.65 0.78 0.64 0.71 0.74 0.86 0.85 0.91 0.95
0.00 0.00 0.00 0.01 0.01 0.03 0.06 0.05 0.03 0.00 0.00 0.00 0.00 0.01 0.02 0.06 0.14 0.31 0.40 0.22 0.21 0.70 1.01 0.55 0.44 0.33 0.32 0.30 0.31 0.45 0.45 0.57 0.99 1.52 1.77 2.54 2.36 1.65 1.26 1.09 0.86 0.68 0.73 0.79 0.83 0.69 0.78 0.74 0.69
0.00 0.00 0.02 0.08 0.14 0.08 0.07 0.08 0.02 0.00 0.00 0.00 0.01 0.01 0.03 0.07 0.10 0.33 0.64 0.24 0.26 1.14 0.96 0.62 0.61 0.58 0.49 0.39 0.36 0.40 0.40 0.48 0.80 1.13 2.04 1.99 2.36 2.80 2.27 1.75 1.49 1.35 1.21 0.98 0.70 0.67 0.78 0.83 0.71
0.00 0.01 0.04 0.08 0.06 0.12 0.12 0.13 0.02 0.02 0.01 0.01 0.02 0.03 0.05 0.12 0.20 0.19 0.51 0.38 0.32 0.63 1.04 1.00 0.81 1.08 0.96 0.57 0.56 0.48 0.59 0.57 0.69 0.85 1.09 1.88 1.73 1.71 2.38 2.52 2.10 1.99 1.37 1.12 1.09 0.85 0.66 0.70 0.88
0.00 0.00 0.02 0.18 0.15 0.27 0.29 0.15 0.01 0.01 0.01 0.01 0.03 0.04 0.05 0.12 0.35 0.23 0.28 0.45 0.48 0.39 0.51 1.09 1.17 1.44 1.50 1.20 1.06 0.71 0.70 0.83 0.75 0.89 0.99 0.94 1.19 1.33 1.33 1.84 2.33 2.00 1.75 1.27 1.03 0.99 1.05 1.01 0.91